<?xml version="1.0" encoding="UTF-8" standalone="no" ?>
<gpx xmlns="http://www.topografix.com/GPX/1/1" xmlns:xsi="http://www.w3.org/2001/XMLSchema-instance" xsi:schemaLocation="http://www.topografix.com/GPX/1/1 http://www.topografix.com/GPX/1/1/gpx.xsd" version="1.1" creator="VisuGPX - https://www.visugpx.com">
  <metadata>
    <name>Yerres et alentours - Boucle 30 km</name>
    <desc><![CDATA[Reconnaissance du parcours 30 km en prévision de la journée de la rando de 2017
Tracée et animée par Jean Luc
Septembre 2017]]></desc>
  </metadata>
  <trk>
    <name><![CDATA[Yerres et alentours - Boucle 30 km_1]]></name>
    <trkseg>
      <trkpt lat="48.71483" lon="2.47903">
        <ele>38</ele>
        <time>2017-09-05T07:58:10Z</time>
      </trkpt>
      <trkpt lat="48.71484" lon="2.47899">
        <ele>38</ele>
        <time>2017-09-05T07:58:10Z</time>
      </trkpt>
      <trkpt lat="48.71485" lon="2.47896">
        <ele>38</ele>
        <time>2017-09-05T07:58:10Z</time>
      </trkpt>
      <trkpt lat="48.71488" lon="2.47896">
        <ele>38</ele>
        <time>2017-09-05T07:58:10Z</time>
      </trkpt>
      <trkpt lat="48.71493" lon="2.47904">
        <ele>38</ele>
        <time>2017-09-05T07:58:10Z</time>
      </trkpt>
      <trkpt lat="48.71496" lon="2.47908">
        <ele>38</ele>
        <time>2017-09-05T07:58:26Z</time>
      </trkpt>
      <trkpt lat="48.71499" lon="2.4791">
        <ele>38</ele>
        <time>2017-09-05T07:58:26Z</time>
      </trkpt>
      <trkpt lat="48.71503" lon="2.4791">
        <ele>38</ele>
        <time>2017-09-05T07:58:26Z</time>
      </trkpt>
      <trkpt lat="48.71506" lon="2.47909">
        <ele>38</ele>
        <time>2017-09-05T07:58:26Z</time>
      </trkpt>
      <trkpt lat="48.71512" lon="2.47907">
        <ele>38</ele>
        <time>2017-09-05T07:58:42Z</time>
      </trkpt>
      <trkpt lat="48.71517" lon="2.47906">
        <ele>38</ele>
        <time>2017-09-05T07:58:42Z</time>
      </trkpt>
      <trkpt lat="48.7152" lon="2.47906">
        <ele>38</ele>
        <time>2017-09-05T07:58:42Z</time>
      </trkpt>
      <trkpt lat="48.71523" lon="2.47905">
        <ele>38</ele>
        <time>2017-09-05T07:58:42Z</time>
      </trkpt>
      <trkpt lat="48.71527" lon="2.47907">
        <ele>38</ele>
        <time>2017-09-05T07:58:58Z</time>
      </trkpt>
      <trkpt lat="48.7153" lon="2.47915">
        <ele>38</ele>
        <time>2017-09-05T07:58:58Z</time>
      </trkpt>
      <trkpt lat="48.71529" lon="2.47923">
        <ele>38</ele>
        <time>2017-09-05T07:58:58Z</time>
      </trkpt>
      <trkpt lat="48.71529" lon="2.47934">
        <ele>38</ele>
        <time>2017-09-05T07:58:58Z</time>
      </trkpt>
      <trkpt lat="48.71531" lon="2.4794">
        <ele>38</ele>
        <time>2017-09-05T07:59:14Z</time>
      </trkpt>
      <trkpt lat="48.71533" lon="2.47947">
        <ele>38</ele>
        <time>2017-09-05T07:59:14Z</time>
      </trkpt>
      <trkpt lat="48.71533" lon="2.47952">
        <ele>38</ele>
        <time>2017-09-05T07:59:14Z</time>
      </trkpt>
      <trkpt lat="48.71538" lon="2.4796">
        <ele>38</ele>
        <time>2017-09-05T07:59:14Z</time>
      </trkpt>
      <trkpt lat="48.7154" lon="2.47965">
        <ele>38</ele>
        <time>2017-09-05T07:59:30Z</time>
      </trkpt>
      <trkpt lat="48.71542" lon="2.4797">
        <ele>38</ele>
        <time>2017-09-05T07:59:30Z</time>
      </trkpt>
      <trkpt lat="48.71543" lon="2.47975">
        <ele>38</ele>
        <time>2017-09-05T07:59:30Z</time>
      </trkpt>
      <trkpt lat="48.71544" lon="2.47981">
        <ele>38</ele>
        <time>2017-09-05T07:59:30Z</time>
      </trkpt>
      <trkpt lat="48.71546" lon="2.4799">
        <ele>38</ele>
        <time>2017-09-05T07:59:46Z</time>
      </trkpt>
      <trkpt lat="48.71549" lon="2.48002">
        <ele>38</ele>
        <time>2017-09-05T07:59:46Z</time>
      </trkpt>
      <trkpt lat="48.71551" lon="2.48011">
        <ele>38</ele>
        <time>2017-09-05T07:59:46Z</time>
      </trkpt>
      <trkpt lat="48.71555" lon="2.48019">
        <ele>38</ele>
        <time>2017-09-05T07:59:46Z</time>
      </trkpt>
      <trkpt lat="48.71559" lon="2.48028">
        <ele>38</ele>
        <time>2017-09-05T08:00:02Z</time>
      </trkpt>
      <trkpt lat="48.71562" lon="2.48032">
        <ele>38</ele>
        <time>2017-09-05T08:00:02Z</time>
      </trkpt>
      <trkpt lat="48.71566" lon="2.48039">
        <ele>38</ele>
        <time>2017-09-05T08:00:02Z</time>
      </trkpt>
      <trkpt lat="48.7157" lon="2.48048">
        <ele>39</ele>
        <time>2017-09-05T08:00:02Z</time>
      </trkpt>
      <trkpt lat="48.71571" lon="2.48053">
        <ele>39</ele>
        <time>2017-09-05T08:00:18Z</time>
      </trkpt>
      <trkpt lat="48.71571" lon="2.4806">
        <ele>39</ele>
        <time>2017-09-05T08:00:18Z</time>
      </trkpt>
      <trkpt lat="48.7157" lon="2.48067">
        <ele>39</ele>
        <time>2017-09-05T08:00:18Z</time>
      </trkpt>
      <trkpt lat="48.71568" lon="2.48079">
        <ele>39</ele>
        <time>2017-09-05T08:00:18Z</time>
      </trkpt>
      <trkpt lat="48.71569" lon="2.48087">
        <ele>39</ele>
        <time>2017-09-05T08:00:34Z</time>
      </trkpt>
      <trkpt lat="48.7157" lon="2.48094">
        <ele>39</ele>
        <time>2017-09-05T08:00:34Z</time>
      </trkpt>
      <trkpt lat="48.71568" lon="2.48102">
        <ele>39</ele>
        <time>2017-09-05T08:00:34Z</time>
      </trkpt>
      <trkpt lat="48.71568" lon="2.48108">
        <ele>39</ele>
        <time>2017-09-05T08:00:34Z</time>
      </trkpt>
      <trkpt lat="48.7157" lon="2.48117">
        <ele>39</ele>
        <time>2017-09-05T08:00:50Z</time>
      </trkpt>
      <trkpt lat="48.71571" lon="2.48125">
        <ele>42</ele>
        <time>2017-09-05T08:00:50Z</time>
      </trkpt>
      <trkpt lat="48.71574" lon="2.48132">
        <ele>42</ele>
        <time>2017-09-05T08:00:50Z</time>
      </trkpt>
      <trkpt lat="48.71577" lon="2.48139">
        <ele>42</ele>
        <time>2017-09-05T08:00:50Z</time>
      </trkpt>
      <trkpt lat="48.71579" lon="2.48147">
        <ele>42</ele>
        <time>2017-09-05T08:01:06Z</time>
      </trkpt>
      <trkpt lat="48.7158" lon="2.48154">
        <ele>42</ele>
        <time>2017-09-05T08:01:06Z</time>
      </trkpt>
      <trkpt lat="48.71581" lon="2.48164">
        <ele>42</ele>
        <time>2017-09-05T08:01:06Z</time>
      </trkpt>
      <trkpt lat="48.71581" lon="2.48175">
        <ele>42</ele>
        <time>2017-09-05T08:01:06Z</time>
      </trkpt>
      <trkpt lat="48.7158" lon="2.48184">
        <ele>42</ele>
        <time>2017-09-05T08:01:22Z</time>
      </trkpt>
      <trkpt lat="48.7158" lon="2.48195">
        <ele>42</ele>
        <time>2017-09-05T08:01:22Z</time>
      </trkpt>
      <trkpt lat="48.71579" lon="2.48201">
        <ele>42</ele>
        <time>2017-09-05T08:01:22Z</time>
      </trkpt>
      <trkpt lat="48.71577" lon="2.48208">
        <ele>42</ele>
        <time>2017-09-05T08:01:22Z</time>
      </trkpt>
      <trkpt lat="48.71574" lon="2.48216">
        <ele>42</ele>
        <time>2017-09-05T08:01:38Z</time>
      </trkpt>
      <trkpt lat="48.71572" lon="2.48221">
        <ele>42</ele>
        <time>2017-09-05T08:01:38Z</time>
      </trkpt>
      <trkpt lat="48.71571" lon="2.48228">
        <ele>42</ele>
        <time>2017-09-05T08:01:38Z</time>
      </trkpt>
      <trkpt lat="48.71572" lon="2.48238">
        <ele>42</ele>
        <time>2017-09-05T08:01:38Z</time>
      </trkpt>
      <trkpt lat="48.71571" lon="2.48247">
        <ele>42</ele>
        <time>2017-09-05T08:01:54Z</time>
      </trkpt>
      <trkpt lat="48.71573" lon="2.48255">
        <ele>42</ele>
        <time>2017-09-05T08:01:54Z</time>
      </trkpt>
      <trkpt lat="48.71574" lon="2.48261">
        <ele>42</ele>
        <time>2017-09-05T08:01:54Z</time>
      </trkpt>
      <trkpt lat="48.71574" lon="2.48273">
        <ele>42</ele>
        <time>2017-09-05T08:01:54Z</time>
      </trkpt>
      <trkpt lat="48.71574" lon="2.48282">
        <ele>42</ele>
        <time>2017-09-05T08:02:10Z</time>
      </trkpt>
      <trkpt lat="48.71576" lon="2.48289">
        <ele>42</ele>
        <time>2017-09-05T08:02:10Z</time>
      </trkpt>
      <trkpt lat="48.71578" lon="2.48294">
        <ele>41</ele>
        <time>2017-09-05T08:02:10Z</time>
      </trkpt>
      <trkpt lat="48.71577" lon="2.48305">
        <ele>41</ele>
        <time>2017-09-05T08:02:10Z</time>
      </trkpt>
      <trkpt lat="48.71579" lon="2.48311">
        <ele>41</ele>
        <time>2017-09-05T08:02:26Z</time>
      </trkpt>
      <trkpt lat="48.71578" lon="2.4832">
        <ele>41</ele>
        <time>2017-09-05T08:02:26Z</time>
      </trkpt>
      <trkpt lat="48.71574" lon="2.48328">
        <ele>41</ele>
        <time>2017-09-05T08:02:26Z</time>
      </trkpt>
      <trkpt lat="48.71569" lon="2.48331">
        <ele>41</ele>
        <time>2017-09-05T08:02:26Z</time>
      </trkpt>
      <trkpt lat="48.71567" lon="2.48336">
        <ele>41</ele>
        <time>2017-09-05T08:02:42Z</time>
      </trkpt>
      <trkpt lat="48.71565" lon="2.48349">
        <ele>41</ele>
        <time>2017-09-05T08:02:42Z</time>
      </trkpt>
      <trkpt lat="48.71564" lon="2.48356">
        <ele>41</ele>
        <time>2017-09-05T08:02:42Z</time>
      </trkpt>
      <trkpt lat="48.71564" lon="2.48363">
        <ele>41</ele>
        <time>2017-09-05T08:02:42Z</time>
      </trkpt>
      <trkpt lat="48.71562" lon="2.48371">
        <ele>41</ele>
        <time>2017-09-05T08:02:58Z</time>
      </trkpt>
      <trkpt lat="48.71562" lon="2.48377">
        <ele>40</ele>
        <time>2017-09-05T08:02:58Z</time>
      </trkpt>
      <trkpt lat="48.7156" lon="2.48384">
        <ele>40</ele>
        <time>2017-09-05T08:02:58Z</time>
      </trkpt>
      <trkpt lat="48.71557" lon="2.48392">
        <ele>40</ele>
        <time>2017-09-05T08:02:58Z</time>
      </trkpt>
      <trkpt lat="48.71556" lon="2.48395">
        <ele>40</ele>
        <time>2017-09-05T08:03:14Z</time>
      </trkpt>
      <trkpt lat="48.71554" lon="2.48403">
        <ele>40</ele>
        <time>2017-09-05T08:03:14Z</time>
      </trkpt>
      <trkpt lat="48.71553" lon="2.48413">
        <ele>40</ele>
        <time>2017-09-05T08:03:14Z</time>
      </trkpt>
      <trkpt lat="48.71549" lon="2.48419">
        <ele>40</ele>
        <time>2017-09-05T08:03:14Z</time>
      </trkpt>
      <trkpt lat="48.71542" lon="2.48426">
        <ele>40</ele>
        <time>2017-09-05T08:03:30Z</time>
      </trkpt>
      <trkpt lat="48.71536" lon="2.48429">
        <ele>40</ele>
        <time>2017-09-05T08:03:30Z</time>
      </trkpt>
      <trkpt lat="48.71529" lon="2.48433">
        <ele>40</ele>
        <time>2017-09-05T08:03:30Z</time>
      </trkpt>
      <trkpt lat="48.71525" lon="2.48435">
        <ele>40</ele>
        <time>2017-09-05T08:03:30Z</time>
      </trkpt>
      <trkpt lat="48.71519" lon="2.48435">
        <ele>40</ele>
        <time>2017-09-05T08:03:46Z</time>
      </trkpt>
      <trkpt lat="48.71514" lon="2.48434">
        <ele>40</ele>
        <time>2017-09-05T08:03:46Z</time>
      </trkpt>
      <trkpt lat="48.71508" lon="2.48431">
        <ele>40</ele>
        <time>2017-09-05T08:03:46Z</time>
      </trkpt>
      <trkpt lat="48.71505" lon="2.48428">
        <ele>40</ele>
        <time>2017-09-05T08:03:46Z</time>
      </trkpt>
      <trkpt lat="48.71503" lon="2.48426">
        <ele>40</ele>
        <time>2017-09-05T08:04:02Z</time>
      </trkpt>
      <trkpt lat="48.715" lon="2.48415">
        <ele>40</ele>
        <time>2017-09-05T08:04:02Z</time>
      </trkpt>
      <trkpt lat="48.71499" lon="2.48406">
        <ele>40</ele>
        <time>2017-09-05T08:04:02Z</time>
      </trkpt>
      <trkpt lat="48.71498" lon="2.48398">
        <ele>40</ele>
        <time>2017-09-05T08:04:02Z</time>
      </trkpt>
      <trkpt lat="48.71497" lon="2.48392">
        <ele>40</ele>
        <time>2017-09-05T08:04:18Z</time>
      </trkpt>
      <trkpt lat="48.71495" lon="2.48386">
        <ele>40</ele>
        <time>2017-09-05T08:04:18Z</time>
      </trkpt>
      <trkpt lat="48.71492" lon="2.48378">
        <ele>40</ele>
        <time>2017-09-05T08:04:18Z</time>
      </trkpt>
      <trkpt lat="48.71489" lon="2.48369">
        <ele>39</ele>
        <time>2017-09-05T08:04:18Z</time>
      </trkpt>
      <trkpt lat="48.71488" lon="2.48359">
        <ele>39</ele>
        <time>2017-09-05T08:04:34Z</time>
      </trkpt>
      <trkpt lat="48.71485" lon="2.4835">
        <ele>39</ele>
        <time>2017-09-05T08:04:34Z</time>
      </trkpt>
      <trkpt lat="48.71483" lon="2.48342">
        <ele>39</ele>
        <time>2017-09-05T08:04:34Z</time>
      </trkpt>
      <trkpt lat="48.71481" lon="2.48334">
        <ele>39</ele>
        <time>2017-09-05T08:04:34Z</time>
      </trkpt>
      <trkpt lat="48.71478" lon="2.48326">
        <ele>39</ele>
        <time>2017-09-05T08:04:50Z</time>
      </trkpt>
      <trkpt lat="48.71475" lon="2.48318">
        <ele>39</ele>
        <time>2017-09-05T08:04:50Z</time>
      </trkpt>
      <trkpt lat="48.71472" lon="2.48312">
        <ele>39</ele>
        <time>2017-09-05T08:04:50Z</time>
      </trkpt>
      <trkpt lat="48.71468" lon="2.48305">
        <ele>39</ele>
        <time>2017-09-05T08:04:50Z</time>
      </trkpt>
      <trkpt lat="48.71464" lon="2.48298">
        <ele>39</ele>
        <time>2017-09-05T08:05:06Z</time>
      </trkpt>
      <trkpt lat="48.71459" lon="2.48294">
        <ele>39</ele>
        <time>2017-09-05T08:05:06Z</time>
      </trkpt>
      <trkpt lat="48.71455" lon="2.48291">
        <ele>37</ele>
        <time>2017-09-05T08:05:06Z</time>
      </trkpt>
      <trkpt lat="48.7145" lon="2.48289">
        <ele>37</ele>
        <time>2017-09-05T08:05:06Z</time>
      </trkpt>
      <trkpt lat="48.71444" lon="2.48287">
        <ele>37</ele>
        <time>2017-09-05T08:05:22Z</time>
      </trkpt>
      <trkpt lat="48.71441" lon="2.48286">
        <ele>37</ele>
        <time>2017-09-05T08:05:22Z</time>
      </trkpt>
      <trkpt lat="48.71436" lon="2.48286">
        <ele>37</ele>
        <time>2017-09-05T08:05:22Z</time>
      </trkpt>
      <trkpt lat="48.7143" lon="2.48286">
        <ele>37</ele>
        <time>2017-09-05T08:05:22Z</time>
      </trkpt>
      <trkpt lat="48.7142" lon="2.48301">
        <ele>36</ele>
        <time>2017-09-05T08:09:34Z</time>
      </trkpt>
      <trkpt lat="48.7142" lon="2.48301">
        <ele>36</ele>
        <time>2017-09-05T08:09:34Z</time>
      </trkpt>
      <trkpt lat="48.71419" lon="2.48304">
        <ele>36</ele>
        <time>2017-09-05T08:09:34Z</time>
      </trkpt>
      <trkpt lat="48.71417" lon="2.48309">
        <ele>36</ele>
        <time>2017-09-05T08:09:34Z</time>
      </trkpt>
      <trkpt lat="48.71416" lon="2.48318">
        <ele>36</ele>
        <time>2017-09-05T08:09:34Z</time>
      </trkpt>
      <trkpt lat="48.71414" lon="2.48327">
        <ele>36</ele>
        <time>2017-09-05T08:09:50Z</time>
      </trkpt>
      <trkpt lat="48.71412" lon="2.48335">
        <ele>36</ele>
        <time>2017-09-05T08:09:50Z</time>
      </trkpt>
      <trkpt lat="48.71411" lon="2.48343">
        <ele>36</ele>
        <time>2017-09-05T08:09:50Z</time>
      </trkpt>
      <trkpt lat="48.71409" lon="2.48352">
        <ele>36</ele>
        <time>2017-09-05T08:09:50Z</time>
      </trkpt>
      <trkpt lat="48.71405" lon="2.48357">
        <ele>36</ele>
        <time>2017-09-05T08:10:06Z</time>
      </trkpt>
      <trkpt lat="48.714" lon="2.48362">
        <ele>36</ele>
        <time>2017-09-05T08:10:06Z</time>
      </trkpt>
      <trkpt lat="48.71397" lon="2.48366">
        <ele>36</ele>
        <time>2017-09-05T08:10:06Z</time>
      </trkpt>
      <trkpt lat="48.71393" lon="2.48371">
        <ele>36</ele>
        <time>2017-09-05T08:10:06Z</time>
      </trkpt>
      <trkpt lat="48.71389" lon="2.48377">
        <ele>38</ele>
        <time>2017-09-05T08:10:22Z</time>
      </trkpt>
      <trkpt lat="48.71386" lon="2.4838">
        <ele>38</ele>
        <time>2017-09-05T08:10:22Z</time>
      </trkpt>
      <trkpt lat="48.71382" lon="2.48385">
        <ele>38</ele>
        <time>2017-09-05T08:10:22Z</time>
      </trkpt>
      <trkpt lat="48.71377" lon="2.4839">
        <ele>38</ele>
        <time>2017-09-05T08:10:22Z</time>
      </trkpt>
      <trkpt lat="48.71377" lon="2.48394">
        <ele>38</ele>
        <time>2017-09-05T08:10:38Z</time>
      </trkpt>
      <trkpt lat="48.71374" lon="2.48397">
        <ele>42</ele>
        <time>2017-09-05T08:10:38Z</time>
      </trkpt>
      <trkpt lat="48.71372" lon="2.48406">
        <ele>42</ele>
        <time>2017-09-05T08:10:38Z</time>
      </trkpt>
      <trkpt lat="48.7137" lon="2.48416">
        <ele>42</ele>
        <time>2017-09-05T08:10:38Z</time>
      </trkpt>
      <trkpt lat="48.7137" lon="2.48425">
        <ele>42</ele>
        <time>2017-09-05T08:10:54Z</time>
      </trkpt>
      <trkpt lat="48.71371" lon="2.48435">
        <ele>42</ele>
        <time>2017-09-05T08:10:54Z</time>
      </trkpt>
      <trkpt lat="48.71369" lon="2.48443">
        <ele>42</ele>
        <time>2017-09-05T08:10:54Z</time>
      </trkpt>
      <trkpt lat="48.71367" lon="2.4845">
        <ele>42</ele>
        <time>2017-09-05T08:10:54Z</time>
      </trkpt>
      <trkpt lat="48.71366" lon="2.48457">
        <ele>42</ele>
        <time>2017-09-05T08:11:10Z</time>
      </trkpt>
      <trkpt lat="48.71365" lon="2.48464">
        <ele>40</ele>
        <time>2017-09-05T08:11:10Z</time>
      </trkpt>
      <trkpt lat="48.71364" lon="2.48474">
        <ele>40</ele>
        <time>2017-09-05T08:11:10Z</time>
      </trkpt>
      <trkpt lat="48.71362" lon="2.48483">
        <ele>40</ele>
        <time>2017-09-05T08:11:10Z</time>
      </trkpt>
      <trkpt lat="48.71363" lon="2.48491">
        <ele>40</ele>
        <time>2017-09-05T08:11:26Z</time>
      </trkpt>
      <trkpt lat="48.71362" lon="2.48499">
        <ele>40</ele>
        <time>2017-09-05T08:11:26Z</time>
      </trkpt>
      <trkpt lat="48.71361" lon="2.48505">
        <ele>40</ele>
        <time>2017-09-05T08:11:26Z</time>
      </trkpt>
      <trkpt lat="48.7136" lon="2.48512">
        <ele>40</ele>
        <time>2017-09-05T08:11:26Z</time>
      </trkpt>
      <trkpt lat="48.71359" lon="2.48517">
        <ele>40</ele>
        <time>2017-09-05T08:11:42Z</time>
      </trkpt>
      <trkpt lat="48.71357" lon="2.48529">
        <ele>40</ele>
        <time>2017-09-05T08:11:42Z</time>
      </trkpt>
      <trkpt lat="48.71355" lon="2.48536">
        <ele>40</ele>
        <time>2017-09-05T08:11:42Z</time>
      </trkpt>
      <trkpt lat="48.71354" lon="2.48543">
        <ele>40</ele>
        <time>2017-09-05T08:11:42Z</time>
      </trkpt>
      <trkpt lat="48.71354" lon="2.4855">
        <ele>40</ele>
        <time>2017-09-05T08:11:58Z</time>
      </trkpt>
      <trkpt lat="48.71353" lon="2.48559">
        <ele>40</ele>
        <time>2017-09-05T08:11:58Z</time>
      </trkpt>
      <trkpt lat="48.71352" lon="2.48564">
        <ele>40</ele>
        <time>2017-09-05T08:11:58Z</time>
      </trkpt>
      <trkpt lat="48.71352" lon="2.48573">
        <ele>40</ele>
        <time>2017-09-05T08:11:58Z</time>
      </trkpt>
      <trkpt lat="48.71351" lon="2.48581">
        <ele>40</ele>
        <time>2017-09-05T08:12:14Z</time>
      </trkpt>
      <trkpt lat="48.71351" lon="2.4859">
        <ele>40</ele>
        <time>2017-09-05T08:12:14Z</time>
      </trkpt>
      <trkpt lat="48.71351" lon="2.48598">
        <ele>40</ele>
        <time>2017-09-05T08:12:14Z</time>
      </trkpt>
      <trkpt lat="48.71349" lon="2.48607">
        <ele>40</ele>
        <time>2017-09-05T08:12:14Z</time>
      </trkpt>
      <trkpt lat="48.71349" lon="2.48613">
        <ele>40</ele>
        <time>2017-09-05T08:12:30Z</time>
      </trkpt>
      <trkpt lat="48.71347" lon="2.48622">
        <ele>40</ele>
        <time>2017-09-05T08:12:30Z</time>
      </trkpt>
      <trkpt lat="48.71346" lon="2.48631">
        <ele>44</ele>
        <time>2017-09-05T08:12:30Z</time>
      </trkpt>
      <trkpt lat="48.71347" lon="2.48638">
        <ele>44</ele>
        <time>2017-09-05T08:12:30Z</time>
      </trkpt>
      <trkpt lat="48.71348" lon="2.48642">
        <ele>44</ele>
        <time>2017-09-05T08:12:46Z</time>
      </trkpt>
      <trkpt lat="48.71347" lon="2.48651">
        <ele>44</ele>
        <time>2017-09-05T08:12:46Z</time>
      </trkpt>
      <trkpt lat="48.71346" lon="2.4866">
        <ele>44</ele>
        <time>2017-09-05T08:12:46Z</time>
      </trkpt>
      <trkpt lat="48.71344" lon="2.48667">
        <ele>44</ele>
        <time>2017-09-05T08:12:46Z</time>
      </trkpt>
      <trkpt lat="48.71344" lon="2.48673">
        <ele>44</ele>
        <time>2017-09-05T08:13:02Z</time>
      </trkpt>
      <trkpt lat="48.71342" lon="2.48678">
        <ele>44</ele>
        <time>2017-09-05T08:13:02Z</time>
      </trkpt>
      <trkpt lat="48.71341" lon="2.48687">
        <ele>44</ele>
        <time>2017-09-05T08:13:02Z</time>
      </trkpt>
      <trkpt lat="48.71341" lon="2.48696">
        <ele>44</ele>
        <time>2017-09-05T08:13:02Z</time>
      </trkpt>
      <trkpt lat="48.71341" lon="2.48703">
        <ele>44</ele>
        <time>2017-09-05T08:13:18Z</time>
      </trkpt>
      <trkpt lat="48.71341" lon="2.4871">
        <ele>44</ele>
        <time>2017-09-05T08:13:18Z</time>
      </trkpt>
      <trkpt lat="48.7134" lon="2.48721">
        <ele>44</ele>
        <time>2017-09-05T08:13:18Z</time>
      </trkpt>
      <trkpt lat="48.71338" lon="2.48731">
        <ele>44</ele>
        <time>2017-09-05T08:13:18Z</time>
      </trkpt>
      <trkpt lat="48.71338" lon="2.48738">
        <ele>44</ele>
        <time>2017-09-05T08:13:34Z</time>
      </trkpt>
      <trkpt lat="48.71337" lon="2.48749">
        <ele>44</ele>
        <time>2017-09-05T08:13:34Z</time>
      </trkpt>
      <trkpt lat="48.71336" lon="2.48757">
        <ele>44</ele>
        <time>2017-09-05T08:13:34Z</time>
      </trkpt>
      <trkpt lat="48.71334" lon="2.48765">
        <ele>44</ele>
        <time>2017-09-05T08:13:34Z</time>
      </trkpt>
      <trkpt lat="48.71333" lon="2.48771">
        <ele>44</ele>
        <time>2017-09-05T08:13:50Z</time>
      </trkpt>
      <trkpt lat="48.71333" lon="2.48777">
        <ele>44</ele>
        <time>2017-09-05T08:13:50Z</time>
      </trkpt>
      <trkpt lat="48.71332" lon="2.48786">
        <ele>44</ele>
        <time>2017-09-05T08:13:50Z</time>
      </trkpt>
      <trkpt lat="48.71334" lon="2.48792">
        <ele>43</ele>
        <time>2017-09-05T08:13:50Z</time>
      </trkpt>
      <trkpt lat="48.71333" lon="2.48801">
        <ele>43</ele>
        <time>2017-09-05T08:14:06Z</time>
      </trkpt>
      <trkpt lat="48.71333" lon="2.48812">
        <ele>43</ele>
        <time>2017-09-05T08:14:06Z</time>
      </trkpt>
      <trkpt lat="48.71332" lon="2.4882">
        <ele>43</ele>
        <time>2017-09-05T08:14:06Z</time>
      </trkpt>
      <trkpt lat="48.7133" lon="2.48828">
        <ele>43</ele>
        <time>2017-09-05T08:14:06Z</time>
      </trkpt>
      <trkpt lat="48.7133" lon="2.48837">
        <ele>43</ele>
        <time>2017-09-05T08:14:22Z</time>
      </trkpt>
      <trkpt lat="48.71328" lon="2.48842">
        <ele>43</ele>
        <time>2017-09-05T08:14:22Z</time>
      </trkpt>
      <trkpt lat="48.71329" lon="2.4885">
        <ele>43</ele>
        <time>2017-09-05T08:14:22Z</time>
      </trkpt>
      <trkpt lat="48.7133" lon="2.48855">
        <ele>43</ele>
        <time>2017-09-05T08:14:22Z</time>
      </trkpt>
      <trkpt lat="48.71334" lon="2.4886">
        <ele>43</ele>
        <time>2017-09-05T08:14:38Z</time>
      </trkpt>
      <trkpt lat="48.71338" lon="2.48863">
        <ele>43</ele>
        <time>2017-09-05T08:14:38Z</time>
      </trkpt>
      <trkpt lat="48.71341" lon="2.48865">
        <ele>43</ele>
        <time>2017-09-05T08:14:38Z</time>
      </trkpt>
      <trkpt lat="48.71346" lon="2.48866">
        <ele>43</ele>
        <time>2017-09-05T08:14:38Z</time>
      </trkpt>
      <trkpt lat="48.71351" lon="2.4887">
        <ele>43</ele>
        <time>2017-09-05T08:14:54Z</time>
      </trkpt>
      <trkpt lat="48.71356" lon="2.48877">
        <ele>40</ele>
        <time>2017-09-05T08:14:54Z</time>
      </trkpt>
      <trkpt lat="48.71361" lon="2.48882">
        <ele>40</ele>
        <time>2017-09-05T08:14:54Z</time>
      </trkpt>
      <trkpt lat="48.71367" lon="2.48887">
        <ele>40</ele>
        <time>2017-09-05T08:14:54Z</time>
      </trkpt>
      <trkpt lat="48.71373" lon="2.4889">
        <ele>40</ele>
        <time>2017-09-05T08:15:10Z</time>
      </trkpt>
      <trkpt lat="48.71378" lon="2.48895">
        <ele>39</ele>
        <time>2017-09-05T08:15:10Z</time>
      </trkpt>
      <trkpt lat="48.71384" lon="2.48902">
        <ele>39</ele>
        <time>2017-09-05T08:15:10Z</time>
      </trkpt>
      <trkpt lat="48.71389" lon="2.48904">
        <ele>39</ele>
        <time>2017-09-05T08:15:10Z</time>
      </trkpt>
      <trkpt lat="48.71393" lon="2.48909">
        <ele>39</ele>
        <time>2017-09-05T08:15:26Z</time>
      </trkpt>
      <trkpt lat="48.71397" lon="2.48918">
        <ele>39</ele>
        <time>2017-09-05T08:15:26Z</time>
      </trkpt>
      <trkpt lat="48.71399" lon="2.48928">
        <ele>39</ele>
        <time>2017-09-05T08:15:26Z</time>
      </trkpt>
      <trkpt lat="48.71399" lon="2.48936">
        <ele>39</ele>
        <time>2017-09-05T08:15:26Z</time>
      </trkpt>
      <trkpt lat="48.71402" lon="2.48938">
        <ele>39</ele>
        <time>2017-09-05T08:15:42Z</time>
      </trkpt>
      <trkpt lat="48.71405" lon="2.4894">
        <ele>39</ele>
        <time>2017-09-05T08:15:42Z</time>
      </trkpt>
      <trkpt lat="48.71412" lon="2.48941">
        <ele>39</ele>
        <time>2017-09-05T08:15:42Z</time>
      </trkpt>
      <trkpt lat="48.71417" lon="2.48942">
        <ele>39</ele>
        <time>2017-09-05T08:15:42Z</time>
      </trkpt>
      <trkpt lat="48.7142" lon="2.48946">
        <ele>39</ele>
        <time>2017-09-05T08:15:58Z</time>
      </trkpt>
      <trkpt lat="48.71424" lon="2.48948">
        <ele>39</ele>
        <time>2017-09-05T08:15:58Z</time>
      </trkpt>
      <trkpt lat="48.71429" lon="2.4895">
        <ele>39</ele>
        <time>2017-09-05T08:15:58Z</time>
      </trkpt>
      <trkpt lat="48.71435" lon="2.48952">
        <ele>39</ele>
        <time>2017-09-05T08:15:58Z</time>
      </trkpt>
      <trkpt lat="48.7144" lon="2.48956">
        <ele>39</ele>
        <time>2017-09-05T08:16:14Z</time>
      </trkpt>
      <trkpt lat="48.71446" lon="2.48959">
        <ele>40</ele>
        <time>2017-09-05T08:16:14Z</time>
      </trkpt>
      <trkpt lat="48.7145" lon="2.4896">
        <ele>40</ele>
        <time>2017-09-05T08:16:14Z</time>
      </trkpt>
      <trkpt lat="48.71455" lon="2.48966">
        <ele>40</ele>
        <time>2017-09-05T08:16:14Z</time>
      </trkpt>
      <trkpt lat="48.71461" lon="2.48973">
        <ele>41</ele>
        <time>2017-09-05T08:16:30Z</time>
      </trkpt>
      <trkpt lat="48.71463" lon="2.48979">
        <ele>41</ele>
        <time>2017-09-05T08:16:30Z</time>
      </trkpt>
      <trkpt lat="48.71461" lon="2.48982">
        <ele>41</ele>
        <time>2017-09-05T08:16:30Z</time>
      </trkpt>
      <trkpt lat="48.7146" lon="2.48989">
        <ele>41</ele>
        <time>2017-09-05T08:16:30Z</time>
      </trkpt>
      <trkpt lat="48.71457" lon="2.48995">
        <ele>40</ele>
        <time>2017-09-05T08:16:46Z</time>
      </trkpt>
      <trkpt lat="48.71455" lon="2.49003">
        <ele>40</ele>
        <time>2017-09-05T08:16:46Z</time>
      </trkpt>
      <trkpt lat="48.71452" lon="2.4901">
        <ele>40</ele>
        <time>2017-09-05T08:16:46Z</time>
      </trkpt>
      <trkpt lat="48.71449" lon="2.49018">
        <ele>40</ele>
        <time>2017-09-05T08:16:46Z</time>
      </trkpt>
      <trkpt lat="48.71446" lon="2.49025">
        <ele>40</ele>
        <time>2017-09-05T08:17:02Z</time>
      </trkpt>
      <trkpt lat="48.71443" lon="2.49033">
        <ele>40</ele>
        <time>2017-09-05T08:17:02Z</time>
      </trkpt>
      <trkpt lat="48.7144" lon="2.49038">
        <ele>40</ele>
        <time>2017-09-05T08:17:02Z</time>
      </trkpt>
      <trkpt lat="48.71438" lon="2.49047">
        <ele>41</ele>
        <time>2017-09-05T08:17:02Z</time>
      </trkpt>
      <trkpt lat="48.71434" lon="2.49055">
        <ele>41</ele>
        <time>2017-09-05T08:17:18Z</time>
      </trkpt>
      <trkpt lat="48.71433" lon="2.4907">
        <ele>41</ele>
        <time>2017-09-05T08:17:18Z</time>
      </trkpt>
      <trkpt lat="48.71434" lon="2.49078">
        <ele>41</ele>
        <time>2017-09-05T08:17:18Z</time>
      </trkpt>
      <trkpt lat="48.71432" lon="2.49089">
        <ele>41</ele>
        <time>2017-09-05T08:17:18Z</time>
      </trkpt>
      <trkpt lat="48.71429" lon="2.49098">
        <ele>41</ele>
        <time>2017-09-05T08:17:34Z</time>
      </trkpt>
      <trkpt lat="48.71426" lon="2.49105">
        <ele>41</ele>
        <time>2017-09-05T08:17:34Z</time>
      </trkpt>
      <trkpt lat="48.71424" lon="2.49111">
        <ele>41</ele>
        <time>2017-09-05T08:17:34Z</time>
      </trkpt>
      <trkpt lat="48.71423" lon="2.49116">
        <ele>41</ele>
        <time>2017-09-05T08:17:34Z</time>
      </trkpt>
      <trkpt lat="48.7142" lon="2.49122">
        <ele>41</ele>
        <time>2017-09-05T08:17:50Z</time>
      </trkpt>
      <trkpt lat="48.71417" lon="2.49127">
        <ele>42</ele>
        <time>2017-09-05T08:17:50Z</time>
      </trkpt>
      <trkpt lat="48.71415" lon="2.49132">
        <ele>42</ele>
        <time>2017-09-05T08:17:50Z</time>
      </trkpt>
      <trkpt lat="48.71414" lon="2.4914">
        <ele>42</ele>
        <time>2017-09-05T08:17:50Z</time>
      </trkpt>
      <trkpt lat="48.7141" lon="2.49147">
        <ele>42</ele>
        <time>2017-09-05T08:18:06Z</time>
      </trkpt>
      <trkpt lat="48.71406" lon="2.49152">
        <ele>42</ele>
        <time>2017-09-05T08:18:06Z</time>
      </trkpt>
      <trkpt lat="48.71402" lon="2.4916">
        <ele>42</ele>
        <time>2017-09-05T08:18:06Z</time>
      </trkpt>
      <trkpt lat="48.714" lon="2.49167">
        <ele>42</ele>
        <time>2017-09-05T08:18:06Z</time>
      </trkpt>
      <trkpt lat="48.71397" lon="2.4917">
        <ele>42</ele>
        <time>2017-09-05T08:18:22Z</time>
      </trkpt>
      <trkpt lat="48.71393" lon="2.49179">
        <ele>42</ele>
        <time>2017-09-05T08:18:22Z</time>
      </trkpt>
      <trkpt lat="48.71388" lon="2.4919">
        <ele>42</ele>
        <time>2017-09-05T08:18:22Z</time>
      </trkpt>
      <trkpt lat="48.71387" lon="2.49196">
        <ele>42</ele>
        <time>2017-09-05T08:18:22Z</time>
      </trkpt>
      <trkpt lat="48.71386" lon="2.492">
        <ele>42</ele>
        <time>2017-09-05T08:18:38Z</time>
      </trkpt>
      <trkpt lat="48.71384" lon="2.49207">
        <ele>42</ele>
        <time>2017-09-05T08:18:38Z</time>
      </trkpt>
      <trkpt lat="48.71382" lon="2.49217">
        <ele>43</ele>
        <time>2017-09-05T08:18:38Z</time>
      </trkpt>
      <trkpt lat="48.71379" lon="2.49223">
        <ele>43</ele>
        <time>2017-09-05T08:18:38Z</time>
      </trkpt>
      <trkpt lat="48.71381" lon="2.4923">
        <ele>43</ele>
        <time>2017-09-05T08:18:54Z</time>
      </trkpt>
      <trkpt lat="48.7138" lon="2.4924">
        <ele>43</ele>
        <time>2017-09-05T08:18:54Z</time>
      </trkpt>
      <trkpt lat="48.7138" lon="2.49251">
        <ele>43</ele>
        <time>2017-09-05T08:18:54Z</time>
      </trkpt>
      <trkpt lat="48.71378" lon="2.49261">
        <ele>43</ele>
        <time>2017-09-05T08:18:54Z</time>
      </trkpt>
      <trkpt lat="48.71377" lon="2.49272">
        <ele>43</ele>
        <time>2017-09-05T08:19:10Z</time>
      </trkpt>
      <trkpt lat="48.71377" lon="2.49281">
        <ele>43</ele>
        <time>2017-09-05T08:19:10Z</time>
      </trkpt>
      <trkpt lat="48.71375" lon="2.49288">
        <ele>43</ele>
        <time>2017-09-05T08:19:10Z</time>
      </trkpt>
      <trkpt lat="48.71372" lon="2.49295">
        <ele>40</ele>
        <time>2017-09-05T08:19:10Z</time>
      </trkpt>
      <trkpt lat="48.71368" lon="2.493">
        <ele>40</ele>
        <time>2017-09-05T08:19:26Z</time>
      </trkpt>
      <trkpt lat="48.71364" lon="2.49304">
        <ele>40</ele>
        <time>2017-09-05T08:19:26Z</time>
      </trkpt>
      <trkpt lat="48.71359" lon="2.4931">
        <ele>40</ele>
        <time>2017-09-05T08:19:26Z</time>
      </trkpt>
      <trkpt lat="48.71355" lon="2.49314">
        <ele>40</ele>
        <time>2017-09-05T08:19:26Z</time>
      </trkpt>
      <trkpt lat="48.71352" lon="2.49317">
        <ele>40</ele>
        <time>2017-09-05T08:19:42Z</time>
      </trkpt>
      <trkpt lat="48.71347" lon="2.49314">
        <ele>40</ele>
        <time>2017-09-05T08:19:42Z</time>
      </trkpt>
      <trkpt lat="48.7134" lon="2.49309">
        <ele>40</ele>
        <time>2017-09-05T08:19:42Z</time>
      </trkpt>
      <trkpt lat="48.71335" lon="2.493">
        <ele>40</ele>
        <time>2017-09-05T08:19:42Z</time>
      </trkpt>
      <trkpt lat="48.71332" lon="2.49295">
        <ele>40</ele>
        <time>2017-09-05T08:19:58Z</time>
      </trkpt>
      <trkpt lat="48.71328" lon="2.49299">
        <ele>40</ele>
        <time>2017-09-05T08:19:58Z</time>
      </trkpt>
      <trkpt lat="48.71325" lon="2.49301">
        <ele>40</ele>
        <time>2017-09-05T08:19:58Z</time>
      </trkpt>
      <trkpt lat="48.71322" lon="2.49307">
        <ele>40</ele>
        <time>2017-09-05T08:19:58Z</time>
      </trkpt>
      <trkpt lat="48.71318" lon="2.49307">
        <ele>40</ele>
        <time>2017-09-05T08:20:18Z</time>
      </trkpt>
      <trkpt lat="48.71316" lon="2.49308">
        <ele>40</ele>
        <time>2017-09-05T08:20:18Z</time>
      </trkpt>
      <trkpt lat="48.7131" lon="2.4931">
        <ele>40</ele>
        <time>2017-09-05T08:20:18Z</time>
      </trkpt>
      <trkpt lat="48.7131" lon="2.49312">
        <ele>40</ele>
        <time>2017-09-05T08:20:18Z</time>
      </trkpt>
      <trkpt lat="48.71306" lon="2.49321">
        <ele>40</ele>
        <time>2017-09-05T08:20:18Z</time>
      </trkpt>
      <trkpt lat="48.71298" lon="2.49333">
        <ele>40</ele>
        <time>2017-09-05T08:20:34Z</time>
      </trkpt>
      <trkpt lat="48.7129" lon="2.49341">
        <ele>38</ele>
        <time>2017-09-05T08:20:34Z</time>
      </trkpt>
      <trkpt lat="48.71287" lon="2.4935">
        <ele>38</ele>
        <time>2017-09-05T08:20:34Z</time>
      </trkpt>
      <trkpt lat="48.71284" lon="2.49356">
        <ele>38</ele>
        <time>2017-09-05T08:20:34Z</time>
      </trkpt>
      <trkpt lat="48.71282" lon="2.4936">
        <ele>38</ele>
        <time>2017-09-05T08:20:50Z</time>
      </trkpt>
      <trkpt lat="48.71277" lon="2.49366">
        <ele>38</ele>
        <time>2017-09-05T08:20:50Z</time>
      </trkpt>
      <trkpt lat="48.71274" lon="2.49369">
        <ele>38</ele>
        <time>2017-09-05T08:20:50Z</time>
      </trkpt>
      <trkpt lat="48.71269" lon="2.49371">
        <ele>38</ele>
        <time>2017-09-05T08:20:50Z</time>
      </trkpt>
      <trkpt lat="48.71264" lon="2.49371">
        <ele>38</ele>
        <time>2017-09-05T08:21:06Z</time>
      </trkpt>
      <trkpt lat="48.71262" lon="2.49372">
        <ele>38</ele>
        <time>2017-09-05T08:21:06Z</time>
      </trkpt>
      <trkpt lat="48.71257" lon="2.49373">
        <ele>38</ele>
        <time>2017-09-05T08:21:06Z</time>
      </trkpt>
      <trkpt lat="48.71252" lon="2.49377">
        <ele>38</ele>
        <time>2017-09-05T08:21:06Z</time>
      </trkpt>
      <trkpt lat="48.71246" lon="2.49379">
        <ele>38</ele>
        <time>2017-09-05T08:21:22Z</time>
      </trkpt>
      <trkpt lat="48.7124" lon="2.49382">
        <ele>38</ele>
        <time>2017-09-05T08:21:22Z</time>
      </trkpt>
      <trkpt lat="48.71233" lon="2.49386">
        <ele>38</ele>
        <time>2017-09-05T08:21:22Z</time>
      </trkpt>
      <trkpt lat="48.71228" lon="2.4939">
        <ele>38</ele>
        <time>2017-09-05T08:21:22Z</time>
      </trkpt>
      <trkpt lat="48.71221" lon="2.49396">
        <ele>38</ele>
        <time>2017-09-05T08:21:38Z</time>
      </trkpt>
      <trkpt lat="48.71214" lon="2.49403">
        <ele>38</ele>
        <time>2017-09-05T08:21:38Z</time>
      </trkpt>
      <trkpt lat="48.7121" lon="2.49406">
        <ele>38</ele>
        <time>2017-09-05T08:21:38Z</time>
      </trkpt>
      <trkpt lat="48.71205" lon="2.49413">
        <ele>37</ele>
        <time>2017-09-05T08:21:38Z</time>
      </trkpt>
      <trkpt lat="48.71201" lon="2.49418">
        <ele>37</ele>
        <time>2017-09-05T08:21:54Z</time>
      </trkpt>
      <trkpt lat="48.71197" lon="2.4942">
        <ele>37</ele>
        <time>2017-09-05T08:21:54Z</time>
      </trkpt>
      <trkpt lat="48.71194" lon="2.49423">
        <ele>37</ele>
        <time>2017-09-05T08:21:54Z</time>
      </trkpt>
      <trkpt lat="48.71186" lon="2.49426">
        <ele>37</ele>
        <time>2017-09-05T08:21:54Z</time>
      </trkpt>
      <trkpt lat="48.7118" lon="2.49425">
        <ele>37</ele>
        <time>2017-09-05T08:22:10Z</time>
      </trkpt>
      <trkpt lat="48.71177" lon="2.49429">
        <ele>37</ele>
        <time>2017-09-05T08:22:10Z</time>
      </trkpt>
      <trkpt lat="48.71172" lon="2.49432">
        <ele>37</ele>
        <time>2017-09-05T08:22:10Z</time>
      </trkpt>
      <trkpt lat="48.71169" lon="2.49436">
        <ele>37</ele>
        <time>2017-09-05T08:22:10Z</time>
      </trkpt>
      <trkpt lat="48.71166" lon="2.49438">
        <ele>37</ele>
        <time>2017-09-05T08:22:26Z</time>
      </trkpt>
      <trkpt lat="48.71161" lon="2.49436">
        <ele>37</ele>
        <time>2017-09-05T08:22:26Z</time>
      </trkpt>
      <trkpt lat="48.71157" lon="2.49434">
        <ele>37</ele>
        <time>2017-09-05T08:22:26Z</time>
      </trkpt>
      <trkpt lat="48.71154" lon="2.49435">
        <ele>37</ele>
        <time>2017-09-05T08:22:26Z</time>
      </trkpt>
      <trkpt lat="48.71149" lon="2.49432">
        <ele>37</ele>
        <time>2017-09-05T08:22:42Z</time>
      </trkpt>
      <trkpt lat="48.71144" lon="2.49426">
        <ele>37</ele>
        <time>2017-09-05T08:22:42Z</time>
      </trkpt>
      <trkpt lat="48.7114" lon="2.49423">
        <ele>37</ele>
        <time>2017-09-05T08:22:42Z</time>
      </trkpt>
      <trkpt lat="48.71134" lon="2.49414">
        <ele>37</ele>
        <time>2017-09-05T08:22:42Z</time>
      </trkpt>
      <trkpt lat="48.71131" lon="2.49409">
        <ele>37</ele>
        <time>2017-09-05T08:22:58Z</time>
      </trkpt>
      <trkpt lat="48.71128" lon="2.49403">
        <ele>37</ele>
        <time>2017-09-05T08:22:58Z</time>
      </trkpt>
      <trkpt lat="48.71124" lon="2.49401">
        <ele>39</ele>
        <time>2017-09-05T08:22:58Z</time>
      </trkpt>
      <trkpt lat="48.71123" lon="2.49397">
        <ele>39</ele>
        <time>2017-09-05T08:22:58Z</time>
      </trkpt>
      <trkpt lat="48.71122" lon="2.49386">
        <ele>39</ele>
        <time>2017-09-05T08:23:14Z</time>
      </trkpt>
      <trkpt lat="48.71117" lon="2.49375">
        <ele>41</ele>
        <time>2017-09-05T08:23:14Z</time>
      </trkpt>
      <trkpt lat="48.71114" lon="2.49368">
        <ele>41</ele>
        <time>2017-09-05T08:23:14Z</time>
      </trkpt>
      <trkpt lat="48.71111" lon="2.49364">
        <ele>41</ele>
        <time>2017-09-05T08:23:14Z</time>
      </trkpt>
      <trkpt lat="48.71108" lon="2.49362">
        <ele>41</ele>
        <time>2017-09-05T08:23:30Z</time>
      </trkpt>
      <trkpt lat="48.71107" lon="2.49363">
        <ele>41</ele>
        <time>2017-09-05T08:23:30Z</time>
      </trkpt>
      <trkpt lat="48.711" lon="2.49366">
        <ele>41</ele>
        <time>2017-09-05T08:23:30Z</time>
      </trkpt>
      <trkpt lat="48.71093" lon="2.49369">
        <ele>41</ele>
        <time>2017-09-05T08:23:30Z</time>
      </trkpt>
      <trkpt lat="48.71086" lon="2.49372">
        <ele>41</ele>
        <time>2017-09-05T08:23:46Z</time>
      </trkpt>
      <trkpt lat="48.7108" lon="2.49378">
        <ele>39</ele>
        <time>2017-09-05T08:23:46Z</time>
      </trkpt>
      <trkpt lat="48.71072" lon="2.49386">
        <ele>39</ele>
        <time>2017-09-05T08:23:46Z</time>
      </trkpt>
      <trkpt lat="48.71068" lon="2.49388">
        <ele>39</ele>
        <time>2017-09-05T08:23:46Z</time>
      </trkpt>
      <trkpt lat="48.71064" lon="2.4939">
        <ele>39</ele>
        <time>2017-09-05T08:24:02Z</time>
      </trkpt>
      <trkpt lat="48.71059" lon="2.49396">
        <ele>39</ele>
        <time>2017-09-05T08:24:02Z</time>
      </trkpt>
      <trkpt lat="48.71053" lon="2.49402">
        <ele>39</ele>
        <time>2017-09-05T08:24:02Z</time>
      </trkpt>
      <trkpt lat="48.71049" lon="2.49404">
        <ele>39</ele>
        <time>2017-09-05T08:24:02Z</time>
      </trkpt>
      <trkpt lat="48.71042" lon="2.49408">
        <ele>39</ele>
        <time>2017-09-05T08:24:18Z</time>
      </trkpt>
      <trkpt lat="48.71037" lon="2.49412">
        <ele>40</ele>
        <time>2017-09-05T08:24:18Z</time>
      </trkpt>
      <trkpt lat="48.71032" lon="2.49415">
        <ele>40</ele>
        <time>2017-09-05T08:24:18Z</time>
      </trkpt>
      <trkpt lat="48.71026" lon="2.49423">
        <ele>40</ele>
        <time>2017-09-05T08:24:18Z</time>
      </trkpt>
      <trkpt lat="48.71022" lon="2.49428">
        <ele>40</ele>
        <time>2017-09-05T08:24:34Z</time>
      </trkpt>
      <trkpt lat="48.71018" lon="2.4943">
        <ele>40</ele>
        <time>2017-09-05T08:24:34Z</time>
      </trkpt>
      <trkpt lat="48.71015" lon="2.49433">
        <ele>40</ele>
        <time>2017-09-05T08:24:34Z</time>
      </trkpt>
      <trkpt lat="48.71012" lon="2.49437">
        <ele>40</ele>
        <time>2017-09-05T08:24:34Z</time>
      </trkpt>
      <trkpt lat="48.71007" lon="2.49445">
        <ele>40</ele>
        <time>2017-09-05T08:24:50Z</time>
      </trkpt>
      <trkpt lat="48.71003" lon="2.4945">
        <ele>40</ele>
        <time>2017-09-05T08:24:50Z</time>
      </trkpt>
      <trkpt lat="48.70997" lon="2.49456">
        <ele>40</ele>
        <time>2017-09-05T08:24:50Z</time>
      </trkpt>
      <trkpt lat="48.70992" lon="2.49461">
        <ele>36</ele>
        <time>2017-09-05T08:24:50Z</time>
      </trkpt>
      <trkpt lat="48.70987" lon="2.49467">
        <ele>36</ele>
        <time>2017-09-05T08:25:06Z</time>
      </trkpt>
      <trkpt lat="48.70981" lon="2.49471">
        <ele>36</ele>
        <time>2017-09-05T08:25:06Z</time>
      </trkpt>
      <trkpt lat="48.70974" lon="2.49477">
        <ele>36</ele>
        <time>2017-09-05T08:25:06Z</time>
      </trkpt>
      <trkpt lat="48.70971" lon="2.49479">
        <ele>36</ele>
        <time>2017-09-05T08:25:06Z</time>
      </trkpt>
      <trkpt lat="48.70968" lon="2.49483">
        <ele>36</ele>
        <time>2017-09-05T08:25:22Z</time>
      </trkpt>
      <trkpt lat="48.70963" lon="2.49485">
        <ele>36</ele>
        <time>2017-09-05T08:25:22Z</time>
      </trkpt>
      <trkpt lat="48.70956" lon="2.49486">
        <ele>39</ele>
        <time>2017-09-05T08:25:22Z</time>
      </trkpt>
      <trkpt lat="48.70949" lon="2.4949">
        <ele>39</ele>
        <time>2017-09-05T08:25:22Z</time>
      </trkpt>
      <trkpt lat="48.70944" lon="2.49492">
        <ele>39</ele>
        <time>2017-09-05T08:25:38Z</time>
      </trkpt>
      <trkpt lat="48.70941" lon="2.49494">
        <ele>39</ele>
        <time>2017-09-05T08:25:38Z</time>
      </trkpt>
      <trkpt lat="48.70936" lon="2.49499">
        <ele>39</ele>
        <time>2017-09-05T08:25:38Z</time>
      </trkpt>
      <trkpt lat="48.7093" lon="2.49502">
        <ele>39</ele>
        <time>2017-09-05T08:25:38Z</time>
      </trkpt>
      <trkpt lat="48.70927" lon="2.49505">
        <ele>39</ele>
        <time>2017-09-05T08:25:54Z</time>
      </trkpt>
      <trkpt lat="48.70922" lon="2.49511">
        <ele>39</ele>
        <time>2017-09-05T08:25:54Z</time>
      </trkpt>
      <trkpt lat="48.70915" lon="2.49517">
        <ele>39</ele>
        <time>2017-09-05T08:25:54Z</time>
      </trkpt>
      <trkpt lat="48.70911" lon="2.49521">
        <ele>39</ele>
        <time>2017-09-05T08:25:54Z</time>
      </trkpt>
      <trkpt lat="48.70908" lon="2.49525">
        <ele>39</ele>
        <time>2017-09-05T08:26:10Z</time>
      </trkpt>
      <trkpt lat="48.70902" lon="2.49531">
        <ele>39</ele>
        <time>2017-09-05T08:26:10Z</time>
      </trkpt>
      <trkpt lat="48.70898" lon="2.49538">
        <ele>39</ele>
        <time>2017-09-05T08:26:10Z</time>
      </trkpt>
      <trkpt lat="48.70893" lon="2.49544">
        <ele>36</ele>
        <time>2017-09-05T08:26:10Z</time>
      </trkpt>
      <trkpt lat="48.7089" lon="2.49547">
        <ele>36</ele>
        <time>2017-09-05T08:26:26Z</time>
      </trkpt>
      <trkpt lat="48.70886" lon="2.49551">
        <ele>36</ele>
        <time>2017-09-05T08:26:26Z</time>
      </trkpt>
      <trkpt lat="48.70882" lon="2.49557">
        <ele>36</ele>
        <time>2017-09-05T08:26:26Z</time>
      </trkpt>
      <trkpt lat="48.70882" lon="2.4956">
        <ele>36</ele>
        <time>2017-09-05T08:26:26Z</time>
      </trkpt>
      <trkpt lat="48.70875" lon="2.49565">
        <ele>41</ele>
        <time>2017-09-05T08:26:42Z</time>
      </trkpt>
      <trkpt lat="48.70871" lon="2.49571">
        <ele>41</ele>
        <time>2017-09-05T08:26:42Z</time>
      </trkpt>
      <trkpt lat="48.70869" lon="2.49576">
        <ele>41</ele>
        <time>2017-09-05T08:26:42Z</time>
      </trkpt>
      <trkpt lat="48.70867" lon="2.49586">
        <ele>41</ele>
        <time>2017-09-05T08:26:42Z</time>
      </trkpt>
      <trkpt lat="48.70863" lon="2.49595">
        <ele>41</ele>
        <time>2017-09-05T08:26:58Z</time>
      </trkpt>
      <trkpt lat="48.70861" lon="2.49605">
        <ele>41</ele>
        <time>2017-09-05T08:26:58Z</time>
      </trkpt>
      <trkpt lat="48.70858" lon="2.49614">
        <ele>41</ele>
        <time>2017-09-05T08:26:58Z</time>
      </trkpt>
      <trkpt lat="48.70855" lon="2.49625">
        <ele>41</ele>
        <time>2017-09-05T08:26:58Z</time>
      </trkpt>
      <trkpt lat="48.70852" lon="2.49632">
        <ele>39</ele>
        <time>2017-09-05T08:27:14Z</time>
      </trkpt>
      <trkpt lat="48.70851" lon="2.49635">
        <ele>39</ele>
        <time>2017-09-05T08:27:14Z</time>
      </trkpt>
      <trkpt lat="48.70849" lon="2.49637">
        <ele>39</ele>
        <time>2017-09-05T08:27:14Z</time>
      </trkpt>
      <trkpt lat="48.70845" lon="2.49643">
        <ele>39</ele>
        <time>2017-09-05T08:27:14Z</time>
      </trkpt>
      <trkpt lat="48.70841" lon="2.49649">
        <ele>39</ele>
        <time>2017-09-05T08:27:30Z</time>
      </trkpt>
      <trkpt lat="48.70838" lon="2.49654">
        <ele>39</ele>
        <time>2017-09-05T08:27:30Z</time>
      </trkpt>
      <trkpt lat="48.70834" lon="2.49662">
        <ele>39</ele>
        <time>2017-09-05T08:27:30Z</time>
      </trkpt>
      <trkpt lat="48.70831" lon="2.49666">
        <ele>39</ele>
        <time>2017-09-05T08:27:30Z</time>
      </trkpt>
      <trkpt lat="48.70825" lon="2.4967">
        <ele>39</ele>
        <time>2017-09-05T08:27:50Z</time>
      </trkpt>
      <trkpt lat="48.7082" lon="2.49674">
        <ele>39</ele>
        <time>2017-09-05T08:27:50Z</time>
      </trkpt>
      <trkpt lat="48.70818" lon="2.49673">
        <ele>39</ele>
        <time>2017-09-05T08:27:50Z</time>
      </trkpt>
      <trkpt lat="48.70817" lon="2.49673">
        <ele>39</ele>
        <time>2017-09-05T08:27:50Z</time>
      </trkpt>
      <trkpt lat="48.70814" lon="2.49671">
        <ele>39</ele>
        <time>2017-09-05T08:27:50Z</time>
      </trkpt>
      <trkpt lat="48.70809" lon="2.4967">
        <ele>39</ele>
        <time>2017-09-05T08:28:06Z</time>
      </trkpt>
      <trkpt lat="48.70806" lon="2.49667">
        <ele>39</ele>
        <time>2017-09-05T08:28:06Z</time>
      </trkpt>
      <trkpt lat="48.70803" lon="2.49671">
        <ele>39</ele>
        <time>2017-09-05T08:28:06Z</time>
      </trkpt>
      <trkpt lat="48.708" lon="2.49676">
        <ele>39</ele>
        <time>2017-09-05T08:28:06Z</time>
      </trkpt>
      <trkpt lat="48.70799" lon="2.49688">
        <ele>39</ele>
        <time>2017-09-05T08:28:22Z</time>
      </trkpt>
      <trkpt lat="48.70796" lon="2.49698">
        <ele>39</ele>
        <time>2017-09-05T08:28:22Z</time>
      </trkpt>
      <trkpt lat="48.70794" lon="2.49707">
        <ele>39</ele>
        <time>2017-09-05T08:28:22Z</time>
      </trkpt>
      <trkpt lat="48.70793" lon="2.49717">
        <ele>37</ele>
        <time>2017-09-05T08:28:22Z</time>
      </trkpt>
      <trkpt lat="48.70792" lon="2.49727">
        <ele>37</ele>
        <time>2017-09-05T08:28:38Z</time>
      </trkpt>
      <trkpt lat="48.70791" lon="2.49736">
        <ele>37</ele>
        <time>2017-09-05T08:28:38Z</time>
      </trkpt>
      <trkpt lat="48.70792" lon="2.49743">
        <ele>37</ele>
        <time>2017-09-05T08:28:38Z</time>
      </trkpt>
      <trkpt lat="48.70795" lon="2.49746">
        <ele>37</ele>
        <time>2017-09-05T08:28:38Z</time>
      </trkpt>
      <trkpt lat="48.70799" lon="2.4975">
        <ele>37</ele>
        <time>2017-09-05T08:28:54Z</time>
      </trkpt>
      <trkpt lat="48.70804" lon="2.49753">
        <ele>37</ele>
        <time>2017-09-05T08:28:54Z</time>
      </trkpt>
      <trkpt lat="48.70808" lon="2.49757">
        <ele>37</ele>
        <time>2017-09-05T08:28:54Z</time>
      </trkpt>
      <trkpt lat="48.70814" lon="2.49759">
        <ele>37</ele>
        <time>2017-09-05T08:28:54Z</time>
      </trkpt>
      <trkpt lat="48.70821" lon="2.49759">
        <ele>37</ele>
        <time>2017-09-05T08:29:10Z</time>
      </trkpt>
      <trkpt lat="48.70825" lon="2.49758">
        <ele>37</ele>
        <time>2017-09-05T08:29:10Z</time>
      </trkpt>
      <trkpt lat="48.70828" lon="2.49756">
        <ele>37</ele>
        <time>2017-09-05T08:29:10Z</time>
      </trkpt>
      <trkpt lat="48.70831" lon="2.49754">
        <ele>37</ele>
        <time>2017-09-05T08:29:10Z</time>
      </trkpt>
      <trkpt lat="48.70839" lon="2.49752">
        <ele>37</ele>
        <time>2017-09-05T08:29:26Z</time>
      </trkpt>
      <trkpt lat="48.70848" lon="2.4975">
        <ele>37</ele>
        <time>2017-09-05T08:29:26Z</time>
      </trkpt>
      <trkpt lat="48.70855" lon="2.4975">
        <ele>37</ele>
        <time>2017-09-05T08:29:26Z</time>
      </trkpt>
      <trkpt lat="48.70862" lon="2.49749">
        <ele>37</ele>
        <time>2017-09-05T08:29:26Z</time>
      </trkpt>
      <trkpt lat="48.70868" lon="2.49748">
        <ele>37</ele>
        <time>2017-09-05T08:29:42Z</time>
      </trkpt>
      <trkpt lat="48.70874" lon="2.49748">
        <ele>37</ele>
        <time>2017-09-05T08:29:42Z</time>
      </trkpt>
      <trkpt lat="48.70878" lon="2.49746">
        <ele>39</ele>
        <time>2017-09-05T08:29:42Z</time>
      </trkpt>
      <trkpt lat="48.70884" lon="2.49745">
        <ele>39</ele>
        <time>2017-09-05T08:29:42Z</time>
      </trkpt>
      <trkpt lat="48.7089" lon="2.49748">
        <ele>39</ele>
        <time>2017-09-05T08:29:58Z</time>
      </trkpt>
      <trkpt lat="48.70893" lon="2.49754">
        <ele>39</ele>
        <time>2017-09-05T08:29:58Z</time>
      </trkpt>
      <trkpt lat="48.70893" lon="2.49762">
        <ele>39</ele>
        <time>2017-09-05T08:29:58Z</time>
      </trkpt>
      <trkpt lat="48.70896" lon="2.49772">
        <ele>39</ele>
        <time>2017-09-05T08:29:58Z</time>
      </trkpt>
      <trkpt lat="48.70898" lon="2.49781">
        <ele>39</ele>
        <time>2017-09-05T08:30:14Z</time>
      </trkpt>
      <trkpt lat="48.709" lon="2.49787">
        <ele>39</ele>
        <time>2017-09-05T08:30:14Z</time>
      </trkpt>
      <trkpt lat="48.70903" lon="2.49793">
        <ele>42</ele>
        <time>2017-09-05T08:30:14Z</time>
      </trkpt>
      <trkpt lat="48.70903" lon="2.49802">
        <ele>42</ele>
        <time>2017-09-05T08:30:14Z</time>
      </trkpt>
      <trkpt lat="48.70903" lon="2.49812">
        <ele>42</ele>
        <time>2017-09-05T08:30:30Z</time>
      </trkpt>
      <trkpt lat="48.70907" lon="2.49818">
        <ele>42</ele>
        <time>2017-09-05T08:30:30Z</time>
      </trkpt>
      <trkpt lat="48.70913" lon="2.49821">
        <ele>42</ele>
        <time>2017-09-05T08:30:30Z</time>
      </trkpt>
      <trkpt lat="48.70917" lon="2.49825">
        <ele>42</ele>
        <time>2017-09-05T08:30:30Z</time>
      </trkpt>
      <trkpt lat="48.70922" lon="2.49831">
        <ele>42</ele>
        <time>2017-09-05T08:30:46Z</time>
      </trkpt>
      <trkpt lat="48.70927" lon="2.49835">
        <ele>42</ele>
        <time>2017-09-05T08:30:46Z</time>
      </trkpt>
      <trkpt lat="48.70932" lon="2.49837">
        <ele>42</ele>
        <time>2017-09-05T08:30:46Z</time>
      </trkpt>
      <trkpt lat="48.70937" lon="2.49842">
        <ele>42</ele>
        <time>2017-09-05T08:30:46Z</time>
      </trkpt>
      <trkpt lat="48.70941" lon="2.49845">
        <ele>42</ele>
        <time>2017-09-05T08:31:02Z</time>
      </trkpt>
      <trkpt lat="48.70946" lon="2.49849">
        <ele>42</ele>
        <time>2017-09-05T08:31:02Z</time>
      </trkpt>
      <trkpt lat="48.7095" lon="2.49854">
        <ele>42</ele>
        <time>2017-09-05T08:31:02Z</time>
      </trkpt>
      <trkpt lat="48.70953" lon="2.49858">
        <ele>42</ele>
        <time>2017-09-05T08:31:02Z</time>
      </trkpt>
      <trkpt lat="48.70958" lon="2.49863">
        <ele>42</ele>
        <time>2017-09-05T08:31:18Z</time>
      </trkpt>
      <trkpt lat="48.70962" lon="2.49867">
        <ele>42</ele>
        <time>2017-09-05T08:31:18Z</time>
      </trkpt>
      <trkpt lat="48.70966" lon="2.49871">
        <ele>42</ele>
        <time>2017-09-05T08:31:18Z</time>
      </trkpt>
      <trkpt lat="48.7097" lon="2.49876">
        <ele>47</ele>
        <time>2017-09-05T08:31:18Z</time>
      </trkpt>
      <trkpt lat="48.70974" lon="2.4988">
        <ele>47</ele>
        <time>2017-09-05T08:31:34Z</time>
      </trkpt>
      <trkpt lat="48.70977" lon="2.49886">
        <ele>47</ele>
        <time>2017-09-05T08:31:34Z</time>
      </trkpt>
      <trkpt lat="48.70977" lon="2.49892">
        <ele>47</ele>
        <time>2017-09-05T08:31:34Z</time>
      </trkpt>
      <trkpt lat="48.70973" lon="2.49897">
        <ele>47</ele>
        <time>2017-09-05T08:31:34Z</time>
      </trkpt>
      <trkpt lat="48.70968" lon="2.49901">
        <ele>47</ele>
        <time>2017-09-05T08:31:50Z</time>
      </trkpt>
      <trkpt lat="48.70963" lon="2.49904">
        <ele>47</ele>
        <time>2017-09-05T08:31:50Z</time>
      </trkpt>
      <trkpt lat="48.70954" lon="2.49907">
        <ele>43</ele>
        <time>2017-09-05T08:31:50Z</time>
      </trkpt>
      <trkpt lat="48.70948" lon="2.49912">
        <ele>43</ele>
        <time>2017-09-05T08:31:50Z</time>
      </trkpt>
      <trkpt lat="48.70942" lon="2.49915">
        <ele>43</ele>
        <time>2017-09-05T08:32:06Z</time>
      </trkpt>
      <trkpt lat="48.70937" lon="2.49924">
        <ele>43</ele>
        <time>2017-09-05T08:32:06Z</time>
      </trkpt>
      <trkpt lat="48.70935" lon="2.49928">
        <ele>43</ele>
        <time>2017-09-05T08:32:06Z</time>
      </trkpt>
      <trkpt lat="48.7093" lon="2.49933">
        <ele>43</ele>
        <time>2017-09-05T08:32:06Z</time>
      </trkpt>
      <trkpt lat="48.70926" lon="2.49939">
        <ele>43</ele>
        <time>2017-09-05T08:32:22Z</time>
      </trkpt>
      <trkpt lat="48.70923" lon="2.49947">
        <ele>43</ele>
        <time>2017-09-05T08:32:22Z</time>
      </trkpt>
      <trkpt lat="48.70922" lon="2.49953">
        <ele>43</ele>
        <time>2017-09-05T08:32:22Z</time>
      </trkpt>
      <trkpt lat="48.7092" lon="2.4996">
        <ele>43</ele>
        <time>2017-09-05T08:32:22Z</time>
      </trkpt>
      <trkpt lat="48.70919" lon="2.49968">
        <ele>43</ele>
        <time>2017-09-05T08:32:38Z</time>
      </trkpt>
      <trkpt lat="48.70918" lon="2.49973">
        <ele>43</ele>
        <time>2017-09-05T08:32:38Z</time>
      </trkpt>
      <trkpt lat="48.70915" lon="2.49981">
        <ele>43</ele>
        <time>2017-09-05T08:32:38Z</time>
      </trkpt>
      <trkpt lat="48.70915" lon="2.49988">
        <ele>43</ele>
        <time>2017-09-05T08:32:38Z</time>
      </trkpt>
      <trkpt lat="48.70914" lon="2.49996">
        <ele>43</ele>
        <time>2017-09-05T08:32:54Z</time>
      </trkpt>
      <trkpt lat="48.70913" lon="2.50003">
        <ele>43</ele>
        <time>2017-09-05T08:32:54Z</time>
      </trkpt>
      <trkpt lat="48.70913" lon="2.50007">
        <ele>43</ele>
        <time>2017-09-05T08:32:54Z</time>
      </trkpt>
      <trkpt lat="48.70916" lon="2.50015">
        <ele>43</ele>
        <time>2017-09-05T08:32:54Z</time>
      </trkpt>
      <trkpt lat="48.70918" lon="2.50022">
        <ele>43</ele>
        <time>2017-09-05T08:33:10Z</time>
      </trkpt>
      <trkpt lat="48.70923" lon="2.5003">
        <ele>43</ele>
        <time>2017-09-05T08:33:10Z</time>
      </trkpt>
      <trkpt lat="48.70924" lon="2.50039">
        <ele>43</ele>
        <time>2017-09-05T08:33:10Z</time>
      </trkpt>
      <trkpt lat="48.70928" lon="2.50048">
        <ele>41</ele>
        <time>2017-09-05T08:33:10Z</time>
      </trkpt>
      <trkpt lat="48.70931" lon="2.50057">
        <ele>41</ele>
        <time>2017-09-05T08:33:26Z</time>
      </trkpt>
      <trkpt lat="48.70934" lon="2.50065">
        <ele>41</ele>
        <time>2017-09-05T08:33:26Z</time>
      </trkpt>
      <trkpt lat="48.70936" lon="2.5007">
        <ele>41</ele>
        <time>2017-09-05T08:33:26Z</time>
      </trkpt>
      <trkpt lat="48.70939" lon="2.50077">
        <ele>41</ele>
        <time>2017-09-05T08:33:26Z</time>
      </trkpt>
      <trkpt lat="48.70942" lon="2.50084">
        <ele>41</ele>
        <time>2017-09-05T08:33:42Z</time>
      </trkpt>
      <trkpt lat="48.70943" lon="2.50093">
        <ele>41</ele>
        <time>2017-09-05T08:33:42Z</time>
      </trkpt>
      <trkpt lat="48.70944" lon="2.50102">
        <ele>41</ele>
        <time>2017-09-05T08:33:42Z</time>
      </trkpt>
      <trkpt lat="48.70944" lon="2.50109">
        <ele>41</ele>
        <time>2017-09-05T08:33:42Z</time>
      </trkpt>
      <trkpt lat="48.70942" lon="2.50116">
        <ele>41</ele>
        <time>2017-09-05T08:33:58Z</time>
      </trkpt>
      <trkpt lat="48.70939" lon="2.50122">
        <ele>41</ele>
        <time>2017-09-05T08:33:58Z</time>
      </trkpt>
      <trkpt lat="48.70934" lon="2.5013">
        <ele>43</ele>
        <time>2017-09-05T08:33:58Z</time>
      </trkpt>
      <trkpt lat="48.70932" lon="2.50137">
        <ele>43</ele>
        <time>2017-09-05T08:33:58Z</time>
      </trkpt>
      <trkpt lat="48.70931" lon="2.50145">
        <ele>43</ele>
        <time>2017-09-05T08:34:14Z</time>
      </trkpt>
      <trkpt lat="48.70935" lon="2.50152">
        <ele>43</ele>
        <time>2017-09-05T08:34:14Z</time>
      </trkpt>
      <trkpt lat="48.70939" lon="2.50159">
        <ele>43</ele>
        <time>2017-09-05T08:34:14Z</time>
      </trkpt>
      <trkpt lat="48.70942" lon="2.50168">
        <ele>43</ele>
        <time>2017-09-05T08:34:14Z</time>
      </trkpt>
      <trkpt lat="48.70944" lon="2.50176">
        <ele>43</ele>
        <time>2017-09-05T08:34:30Z</time>
      </trkpt>
      <trkpt lat="48.70945" lon="2.50186">
        <ele>43</ele>
        <time>2017-09-05T08:34:30Z</time>
      </trkpt>
      <trkpt lat="48.70948" lon="2.50192">
        <ele>43</ele>
        <time>2017-09-05T08:34:30Z</time>
      </trkpt>
      <trkpt lat="48.70952" lon="2.50195">
        <ele>43</ele>
        <time>2017-09-05T08:34:30Z</time>
      </trkpt>
      <trkpt lat="48.70956" lon="2.50201">
        <ele>43</ele>
        <time>2017-09-05T08:34:46Z</time>
      </trkpt>
      <trkpt lat="48.70962" lon="2.50209">
        <ele>43</ele>
        <time>2017-09-05T08:34:46Z</time>
      </trkpt>
      <trkpt lat="48.70971" lon="2.50217">
        <ele>43</ele>
        <time>2017-09-05T08:34:46Z</time>
      </trkpt>
      <trkpt lat="48.70974" lon="2.50212">
        <ele>43</ele>
        <time>2017-09-05T08:34:46Z</time>
      </trkpt>
      <trkpt lat="48.70977" lon="2.50205">
        <ele>44</ele>
        <time>2017-09-05T08:35:02Z</time>
      </trkpt>
      <trkpt lat="48.70979" lon="2.50209">
        <ele>43</ele>
        <time>2017-09-05T08:35:02Z</time>
      </trkpt>
      <trkpt lat="48.70985" lon="2.50218">
        <ele>43</ele>
        <time>2017-09-05T08:35:02Z</time>
      </trkpt>
      <trkpt lat="48.70989" lon="2.50226">
        <ele>43</ele>
        <time>2017-09-05T08:35:02Z</time>
      </trkpt>
      <trkpt lat="48.70992" lon="2.50235">
        <ele>43</ele>
        <time>2017-09-05T08:35:18Z</time>
      </trkpt>
      <trkpt lat="48.70996" lon="2.50241">
        <ele>43</ele>
        <time>2017-09-05T08:35:18Z</time>
      </trkpt>
      <trkpt lat="48.71" lon="2.50249">
        <ele>43</ele>
        <time>2017-09-05T08:35:18Z</time>
      </trkpt>
      <trkpt lat="48.71002" lon="2.50257">
        <ele>43</ele>
        <time>2017-09-05T08:35:18Z</time>
      </trkpt>
      <trkpt lat="48.71005" lon="2.50262">
        <ele>43</ele>
        <time>2017-09-05T08:35:34Z</time>
      </trkpt>
      <trkpt lat="48.71007" lon="2.50268">
        <ele>43</ele>
        <time>2017-09-05T08:35:34Z</time>
      </trkpt>
      <trkpt lat="48.71009" lon="2.50276">
        <ele>43</ele>
        <time>2017-09-05T08:35:34Z</time>
      </trkpt>
      <trkpt lat="48.7101" lon="2.50283">
        <ele>43</ele>
        <time>2017-09-05T08:35:34Z</time>
      </trkpt>
      <trkpt lat="48.71015" lon="2.50284">
        <ele>43</ele>
        <time>2017-09-05T08:35:50Z</time>
      </trkpt>
      <trkpt lat="48.71019" lon="2.50291">
        <ele>43</ele>
        <time>2017-09-05T08:35:50Z</time>
      </trkpt>
      <trkpt lat="48.71023" lon="2.50298">
        <ele>44</ele>
        <time>2017-09-05T08:35:50Z</time>
      </trkpt>
      <trkpt lat="48.71027" lon="2.50306">
        <ele>44</ele>
        <time>2017-09-05T08:35:50Z</time>
      </trkpt>
      <trkpt lat="48.71031" lon="2.50312">
        <ele>44</ele>
        <time>2017-09-05T08:36:06Z</time>
      </trkpt>
      <trkpt lat="48.71037" lon="2.50311">
        <ele>44</ele>
        <time>2017-09-05T08:36:06Z</time>
      </trkpt>
      <trkpt lat="48.71047" lon="2.50309">
        <ele>48</ele>
        <time>2017-09-05T08:36:06Z</time>
      </trkpt>
      <trkpt lat="48.71049" lon="2.50309">
        <ele>48</ele>
        <time>2017-09-05T08:36:06Z</time>
      </trkpt>
      <trkpt lat="48.71051" lon="2.50314">
        <ele>48</ele>
        <time>2017-09-05T08:36:22Z</time>
      </trkpt>
      <trkpt lat="48.71055" lon="2.50321">
        <ele>48</ele>
        <time>2017-09-05T08:36:22Z</time>
      </trkpt>
      <trkpt lat="48.71058" lon="2.50327">
        <ele>48</ele>
        <time>2017-09-05T08:36:22Z</time>
      </trkpt>
      <trkpt lat="48.71057" lon="2.50335">
        <ele>48</ele>
        <time>2017-09-05T08:36:22Z</time>
      </trkpt>
      <trkpt lat="48.71056" lon="2.50344">
        <ele>48</ele>
        <time>2017-09-05T08:36:38Z</time>
      </trkpt>
      <trkpt lat="48.71057" lon="2.50353">
        <ele>48</ele>
        <time>2017-09-05T08:36:38Z</time>
      </trkpt>
      <trkpt lat="48.71058" lon="2.50359">
        <ele>48</ele>
        <time>2017-09-05T08:36:38Z</time>
      </trkpt>
      <trkpt lat="48.71058" lon="2.50364">
        <ele>48</ele>
        <time>2017-09-05T08:36:38Z</time>
      </trkpt>
      <trkpt lat="48.71057" lon="2.50372">
        <ele>48</ele>
        <time>2017-09-05T08:36:58Z</time>
      </trkpt>
      <trkpt lat="48.71056" lon="2.50377">
        <ele>48</ele>
        <time>2017-09-05T08:36:58Z</time>
      </trkpt>
      <trkpt lat="48.71054" lon="2.50381">
        <ele>48</ele>
        <time>2017-09-05T08:36:58Z</time>
      </trkpt>
      <trkpt lat="48.71054" lon="2.50385">
        <ele>48</ele>
        <time>2017-09-05T08:36:58Z</time>
      </trkpt>
      <trkpt lat="48.71055" lon="2.5039">
        <ele>48</ele>
        <time>2017-09-05T08:36:58Z</time>
      </trkpt>
      <trkpt lat="48.71057" lon="2.50398">
        <ele>48</ele>
        <time>2017-09-05T08:37:14Z</time>
      </trkpt>
      <trkpt lat="48.71058" lon="2.50405">
        <ele>48</ele>
        <time>2017-09-05T08:37:14Z</time>
      </trkpt>
      <trkpt lat="48.71058" lon="2.5041">
        <ele>48</ele>
        <time>2017-09-05T08:37:14Z</time>
      </trkpt>
      <trkpt lat="48.7106" lon="2.50416">
        <ele>48</ele>
        <time>2017-09-05T08:37:14Z</time>
      </trkpt>
      <trkpt lat="48.71063" lon="2.50422">
        <ele>48</ele>
        <time>2017-09-05T08:37:30Z</time>
      </trkpt>
      <trkpt lat="48.71065" lon="2.50427">
        <ele>48</ele>
        <time>2017-09-05T08:37:30Z</time>
      </trkpt>
      <trkpt lat="48.71067" lon="2.50428">
        <ele>48</ele>
        <time>2017-09-05T08:37:30Z</time>
      </trkpt>
      <trkpt lat="48.71071" lon="2.50434">
        <ele>48</ele>
        <time>2017-09-05T08:37:30Z</time>
      </trkpt>
      <trkpt lat="48.7108" lon="2.50445">
        <ele>48</ele>
        <time>2017-09-05T08:37:46Z</time>
      </trkpt>
      <trkpt lat="48.71085" lon="2.50459">
        <ele>48</ele>
        <time>2017-09-05T08:37:46Z</time>
      </trkpt>
      <trkpt lat="48.7109" lon="2.50465">
        <ele>48</ele>
        <time>2017-09-05T08:37:46Z</time>
      </trkpt>
      <trkpt lat="48.71093" lon="2.50476">
        <ele>48</ele>
        <time>2017-09-05T08:37:46Z</time>
      </trkpt>
      <trkpt lat="48.71096" lon="2.50478">
        <ele>48</ele>
        <time>2017-09-05T08:38:02Z</time>
      </trkpt>
      <trkpt lat="48.71098" lon="2.50486">
        <ele>48</ele>
        <time>2017-09-05T08:38:02Z</time>
      </trkpt>
      <trkpt lat="48.71101" lon="2.50493">
        <ele>48</ele>
        <time>2017-09-05T08:38:02Z</time>
      </trkpt>
      <trkpt lat="48.71104" lon="2.50499">
        <ele>48</ele>
        <time>2017-09-05T08:38:02Z</time>
      </trkpt>
      <trkpt lat="48.7111" lon="2.50507">
        <ele>48</ele>
        <time>2017-09-05T08:38:18Z</time>
      </trkpt>
      <trkpt lat="48.71115" lon="2.50511">
        <ele>48</ele>
        <time>2017-09-05T08:38:18Z</time>
      </trkpt>
      <trkpt lat="48.71119" lon="2.50516">
        <ele>48</ele>
        <time>2017-09-05T08:38:18Z</time>
      </trkpt>
      <trkpt lat="48.71124" lon="2.50527">
        <ele>48</ele>
        <time>2017-09-05T08:38:18Z</time>
      </trkpt>
      <trkpt lat="48.71127" lon="2.50531">
        <ele>54</ele>
        <time>2017-09-05T08:38:34Z</time>
      </trkpt>
      <trkpt lat="48.71131" lon="2.50535">
        <ele>54</ele>
        <time>2017-09-05T08:38:34Z</time>
      </trkpt>
      <trkpt lat="48.71135" lon="2.50543">
        <ele>51</ele>
        <time>2017-09-05T08:38:34Z</time>
      </trkpt>
      <trkpt lat="48.71137" lon="2.50548">
        <ele>51</ele>
        <time>2017-09-05T08:38:34Z</time>
      </trkpt>
      <trkpt lat="48.71138" lon="2.50558">
        <ele>51</ele>
        <time>2017-09-05T08:38:50Z</time>
      </trkpt>
      <trkpt lat="48.71137" lon="2.50565">
        <ele>51</ele>
        <time>2017-09-05T08:38:50Z</time>
      </trkpt>
      <trkpt lat="48.71142" lon="2.50568">
        <ele>51</ele>
        <time>2017-09-05T08:38:50Z</time>
      </trkpt>
      <trkpt lat="48.71147" lon="2.50578">
        <ele>51</ele>
        <time>2017-09-05T08:38:50Z</time>
      </trkpt>
      <trkpt lat="48.71151" lon="2.50584">
        <ele>51</ele>
        <time>2017-09-05T08:39:06Z</time>
      </trkpt>
      <trkpt lat="48.71151" lon="2.50596">
        <ele>51</ele>
        <time>2017-09-05T08:39:06Z</time>
      </trkpt>
      <trkpt lat="48.71149" lon="2.50605">
        <ele>51</ele>
        <time>2017-09-05T08:39:06Z</time>
      </trkpt>
      <trkpt lat="48.71149" lon="2.50611">
        <ele>51</ele>
        <time>2017-09-05T08:39:06Z</time>
      </trkpt>
      <trkpt lat="48.71148" lon="2.50619">
        <ele>51</ele>
        <time>2017-09-05T08:39:22Z</time>
      </trkpt>
      <trkpt lat="48.71149" lon="2.50625">
        <ele>51</ele>
        <time>2017-09-05T08:39:22Z</time>
      </trkpt>
      <trkpt lat="48.7115" lon="2.50636">
        <ele>52</ele>
        <time>2017-09-05T08:39:22Z</time>
      </trkpt>
      <trkpt lat="48.7115" lon="2.50644">
        <ele>52</ele>
        <time>2017-09-05T08:39:22Z</time>
      </trkpt>
      <trkpt lat="48.7115" lon="2.50649">
        <ele>52</ele>
        <time>2017-09-05T08:39:38Z</time>
      </trkpt>
      <trkpt lat="48.71149" lon="2.50656">
        <ele>52</ele>
        <time>2017-09-05T08:39:38Z</time>
      </trkpt>
      <trkpt lat="48.71151" lon="2.50665">
        <ele>52</ele>
        <time>2017-09-05T08:39:38Z</time>
      </trkpt>
      <trkpt lat="48.71154" lon="2.5067">
        <ele>52</ele>
        <time>2017-09-05T08:39:38Z</time>
      </trkpt>
      <trkpt lat="48.71154" lon="2.50677">
        <ele>52</ele>
        <time>2017-09-05T08:39:54Z</time>
      </trkpt>
      <trkpt lat="48.71154" lon="2.50686">
        <ele>52</ele>
        <time>2017-09-05T08:39:54Z</time>
      </trkpt>
      <trkpt lat="48.71156" lon="2.50694">
        <ele>52</ele>
        <time>2017-09-05T08:39:54Z</time>
      </trkpt>
      <trkpt lat="48.71159" lon="2.50698">
        <ele>52</ele>
        <time>2017-09-05T08:39:54Z</time>
      </trkpt>
      <trkpt lat="48.71164" lon="2.5071">
        <ele>52</ele>
        <time>2017-09-05T08:40:10Z</time>
      </trkpt>
      <trkpt lat="48.71174" lon="2.50721">
        <ele>52</ele>
        <time>2017-09-05T08:40:10Z</time>
      </trkpt>
      <trkpt lat="48.71181" lon="2.50728">
        <ele>52</ele>
        <time>2017-09-05T08:40:10Z</time>
      </trkpt>
      <trkpt lat="48.71185" lon="2.50734">
        <ele>52</ele>
        <time>2017-09-05T08:40:10Z</time>
      </trkpt>
      <trkpt lat="48.71196" lon="2.50746">
        <ele>52</ele>
        <time>2017-09-05T08:40:34Z</time>
      </trkpt>
      <trkpt lat="48.71197" lon="2.50748">
        <ele>52</ele>
        <time>2017-09-05T08:40:34Z</time>
      </trkpt>
      <trkpt lat="48.71195" lon="2.50752">
        <ele>52</ele>
        <time>2017-09-05T08:40:34Z</time>
      </trkpt>
      <trkpt lat="48.71196" lon="2.50753">
        <ele>52</ele>
        <time>2017-09-05T08:40:34Z</time>
      </trkpt>
      <trkpt lat="48.71196" lon="2.50755">
        <ele>52</ele>
        <time>2017-09-05T08:40:34Z</time>
      </trkpt>
      <trkpt lat="48.71197" lon="2.50761">
        <ele>52</ele>
        <time>2017-09-05T08:40:50Z</time>
      </trkpt>
      <trkpt lat="48.71197" lon="2.50766">
        <ele>52</ele>
        <time>2017-09-05T08:40:50Z</time>
      </trkpt>
      <trkpt lat="48.71199" lon="2.50774">
        <ele>52</ele>
        <time>2017-09-05T08:40:50Z</time>
      </trkpt>
      <trkpt lat="48.712" lon="2.50778">
        <ele>52</ele>
        <time>2017-09-05T08:40:50Z</time>
      </trkpt>
      <trkpt lat="48.71201" lon="2.50782">
        <ele>52</ele>
        <time>2017-09-05T08:41:22Z</time>
      </trkpt>
      <trkpt lat="48.71201" lon="2.50782">
        <ele>52</ele>
        <time>2017-09-05T08:41:22Z</time>
      </trkpt>
      <trkpt lat="48.71201" lon="2.50781">
        <ele>52</ele>
        <time>2017-09-05T08:41:22Z</time>
      </trkpt>
      <trkpt lat="48.71207" lon="2.5077">
        <ele>52</ele>
        <time>2017-09-05T08:41:22Z</time>
      </trkpt>
      <trkpt lat="48.71208" lon="2.50769">
        <ele>52</ele>
        <time>2017-09-05T08:41:22Z</time>
      </trkpt>
      <trkpt lat="48.71209" lon="2.50776">
        <ele>58</ele>
        <time>2017-09-05T08:41:42Z</time>
      </trkpt>
      <trkpt lat="48.71211" lon="2.50782">
        <ele>58</ele>
        <time>2017-09-05T08:41:42Z</time>
      </trkpt>
      <trkpt lat="48.71212" lon="2.50784">
        <ele>58</ele>
        <time>2017-09-05T08:41:42Z</time>
      </trkpt>
      <trkpt lat="48.71211" lon="2.50787">
        <ele>58</ele>
        <time>2017-09-05T08:41:42Z</time>
      </trkpt>
      <trkpt lat="48.71211" lon="2.5079">
        <ele>58</ele>
        <time>2017-09-05T08:41:42Z</time>
      </trkpt>
      <trkpt lat="48.71212" lon="2.50799">
        <ele>56</ele>
        <time>2017-09-05T08:41:58Z</time>
      </trkpt>
      <trkpt lat="48.71214" lon="2.50803">
        <ele>56</ele>
        <time>2017-09-05T08:41:58Z</time>
      </trkpt>
      <trkpt lat="48.71216" lon="2.50809">
        <ele>56</ele>
        <time>2017-09-05T08:41:58Z</time>
      </trkpt>
      <trkpt lat="48.7122" lon="2.50817">
        <ele>56</ele>
        <time>2017-09-05T08:41:58Z</time>
      </trkpt>
      <trkpt lat="48.71217" lon="2.50836">
        <ele>56</ele>
        <time>2017-09-05T08:42:14Z</time>
      </trkpt>
      <trkpt lat="48.71213" lon="2.50847">
        <ele>56</ele>
        <time>2017-09-05T08:42:14Z</time>
      </trkpt>
      <trkpt lat="48.71211" lon="2.50856">
        <ele>56</ele>
        <time>2017-09-05T08:42:14Z</time>
      </trkpt>
      <trkpt lat="48.7121" lon="2.50864">
        <ele>56</ele>
        <time>2017-09-05T08:42:14Z</time>
      </trkpt>
      <trkpt lat="48.7121" lon="2.50873">
        <ele>56</ele>
        <time>2017-09-05T08:42:30Z</time>
      </trkpt>
      <trkpt lat="48.71211" lon="2.50883">
        <ele>53</ele>
        <time>2017-09-05T08:42:30Z</time>
      </trkpt>
      <trkpt lat="48.71213" lon="2.50891">
        <ele>53</ele>
        <time>2017-09-05T08:42:30Z</time>
      </trkpt>
      <trkpt lat="48.71212" lon="2.50902">
        <ele>53</ele>
        <time>2017-09-05T08:42:30Z</time>
      </trkpt>
      <trkpt lat="48.71215" lon="2.5092">
        <ele>53</ele>
        <time>2017-09-05T08:42:46Z</time>
      </trkpt>
      <trkpt lat="48.7122" lon="2.50929">
        <ele>53</ele>
        <time>2017-09-05T08:42:46Z</time>
      </trkpt>
      <trkpt lat="48.7122" lon="2.50941">
        <ele>53</ele>
        <time>2017-09-05T08:42:46Z</time>
      </trkpt>
      <trkpt lat="48.71221" lon="2.5095">
        <ele>53</ele>
        <time>2017-09-05T08:42:46Z</time>
      </trkpt>
      <trkpt lat="48.71223" lon="2.50961">
        <ele>53</ele>
        <time>2017-09-05T08:43:02Z</time>
      </trkpt>
      <trkpt lat="48.71223" lon="2.50969">
        <ele>53</ele>
        <time>2017-09-05T08:43:02Z</time>
      </trkpt>
      <trkpt lat="48.71224" lon="2.5098">
        <ele>53</ele>
        <time>2017-09-05T08:43:02Z</time>
      </trkpt>
      <trkpt lat="48.71225" lon="2.50989">
        <ele>53</ele>
        <time>2017-09-05T08:43:02Z</time>
      </trkpt>
      <trkpt lat="48.71227" lon="2.50999">
        <ele>53</ele>
        <time>2017-09-05T08:43:18Z</time>
      </trkpt>
      <trkpt lat="48.71228" lon="2.51014">
        <ele>53</ele>
        <time>2017-09-05T08:43:18Z</time>
      </trkpt>
      <trkpt lat="48.71226" lon="2.51024">
        <ele>53</ele>
        <time>2017-09-05T08:43:18Z</time>
      </trkpt>
      <trkpt lat="48.71227" lon="2.51033">
        <ele>53</ele>
        <time>2017-09-05T08:43:18Z</time>
      </trkpt>
      <trkpt lat="48.71228" lon="2.51042">
        <ele>52</ele>
        <time>2017-09-05T08:43:34Z</time>
      </trkpt>
      <trkpt lat="48.71227" lon="2.51053">
        <ele>52</ele>
        <time>2017-09-05T08:43:34Z</time>
      </trkpt>
      <trkpt lat="48.71227" lon="2.51063">
        <ele>52</ele>
        <time>2017-09-05T08:43:34Z</time>
      </trkpt>
      <trkpt lat="48.71226" lon="2.51073">
        <ele>52</ele>
        <time>2017-09-05T08:43:34Z</time>
      </trkpt>
      <trkpt lat="48.71228" lon="2.5108">
        <ele>52</ele>
        <time>2017-09-05T08:43:50Z</time>
      </trkpt>
      <trkpt lat="48.71238" lon="2.51097">
        <ele>52</ele>
        <time>2017-09-05T08:43:50Z</time>
      </trkpt>
      <trkpt lat="48.71242" lon="2.51106">
        <ele>52</ele>
        <time>2017-09-05T08:43:50Z</time>
      </trkpt>
      <trkpt lat="48.71244" lon="2.51119">
        <ele>52</ele>
        <time>2017-09-05T08:43:50Z</time>
      </trkpt>
      <trkpt lat="48.71245" lon="2.51124">
        <ele>52</ele>
        <time>2017-09-05T08:44:06Z</time>
      </trkpt>
      <trkpt lat="48.71245" lon="2.51131">
        <ele>53</ele>
        <time>2017-09-05T08:44:06Z</time>
      </trkpt>
      <trkpt lat="48.71245" lon="2.51139">
        <ele>53</ele>
        <time>2017-09-05T08:44:06Z</time>
      </trkpt>
      <trkpt lat="48.71247" lon="2.5115">
        <ele>53</ele>
        <time>2017-09-05T08:44:06Z</time>
      </trkpt>
      <trkpt lat="48.71247" lon="2.51158">
        <ele>53</ele>
        <time>2017-09-05T08:44:22Z</time>
      </trkpt>
      <trkpt lat="48.71247" lon="2.51164">
        <ele>53</ele>
        <time>2017-09-05T08:44:22Z</time>
      </trkpt>
      <trkpt lat="48.71249" lon="2.51173">
        <ele>53</ele>
        <time>2017-09-05T08:44:22Z</time>
      </trkpt>
      <trkpt lat="48.71248" lon="2.51183">
        <ele>53</ele>
        <time>2017-09-05T08:44:22Z</time>
      </trkpt>
      <trkpt lat="48.71249" lon="2.51193">
        <ele>53</ele>
        <time>2017-09-05T08:44:38Z</time>
      </trkpt>
      <trkpt lat="48.71251" lon="2.51203">
        <ele>53</ele>
        <time>2017-09-05T08:44:38Z</time>
      </trkpt>
      <trkpt lat="48.71251" lon="2.51212">
        <ele>55</ele>
        <time>2017-09-05T08:44:38Z</time>
      </trkpt>
      <trkpt lat="48.7125" lon="2.51222">
        <ele>55</ele>
        <time>2017-09-05T08:44:38Z</time>
      </trkpt>
      <trkpt lat="48.7125" lon="2.51229">
        <ele>55</ele>
        <time>2017-09-05T08:44:54Z</time>
      </trkpt>
      <trkpt lat="48.71251" lon="2.51237">
        <ele>55</ele>
        <time>2017-09-05T08:44:54Z</time>
      </trkpt>
      <trkpt lat="48.71252" lon="2.51249">
        <ele>55</ele>
        <time>2017-09-05T08:44:54Z</time>
      </trkpt>
      <trkpt lat="48.71254" lon="2.51252">
        <ele>55</ele>
        <time>2017-09-05T08:44:54Z</time>
      </trkpt>
      <trkpt lat="48.71252" lon="2.51262">
        <ele>55</ele>
        <time>2017-09-05T08:45:10Z</time>
      </trkpt>
      <trkpt lat="48.71251" lon="2.5127">
        <ele>55</ele>
        <time>2017-09-05T08:45:10Z</time>
      </trkpt>
      <trkpt lat="48.71251" lon="2.51274">
        <ele>55</ele>
        <time>2017-09-05T08:45:10Z</time>
      </trkpt>
      <trkpt lat="48.71249" lon="2.51277">
        <ele>55</ele>
        <time>2017-09-05T08:45:10Z</time>
      </trkpt>
      <trkpt lat="48.71246" lon="2.51285">
        <ele>55</ele>
        <time>2017-09-05T08:45:26Z</time>
      </trkpt>
      <trkpt lat="48.71245" lon="2.51291">
        <ele>55</ele>
        <time>2017-09-05T08:45:26Z</time>
      </trkpt>
      <trkpt lat="48.71242" lon="2.513">
        <ele>58</ele>
        <time>2017-09-05T08:45:26Z</time>
      </trkpt>
      <trkpt lat="48.71239" lon="2.5131">
        <ele>58</ele>
        <time>2017-09-05T08:45:26Z</time>
      </trkpt>
      <trkpt lat="48.71236" lon="2.51323">
        <ele>58</ele>
        <time>2017-09-05T08:45:42Z</time>
      </trkpt>
      <trkpt lat="48.71235" lon="2.51328">
        <ele>58</ele>
        <time>2017-09-05T08:45:42Z</time>
      </trkpt>
      <trkpt lat="48.71233" lon="2.51335">
        <ele>58</ele>
        <time>2017-09-05T08:45:42Z</time>
      </trkpt>
      <trkpt lat="48.7123" lon="2.51341">
        <ele>58</ele>
        <time>2017-09-05T08:45:42Z</time>
      </trkpt>
      <trkpt lat="48.71229" lon="2.5135">
        <ele>58</ele>
        <time>2017-09-05T08:45:58Z</time>
      </trkpt>
      <trkpt lat="48.71227" lon="2.51357">
        <ele>58</ele>
        <time>2017-09-05T08:45:58Z</time>
      </trkpt>
      <trkpt lat="48.71229" lon="2.51365">
        <ele>58</ele>
        <time>2017-09-05T08:45:58Z</time>
      </trkpt>
      <trkpt lat="48.7123" lon="2.5137">
        <ele>58</ele>
        <time>2017-09-05T08:45:58Z</time>
      </trkpt>
      <trkpt lat="48.71231" lon="2.51378">
        <ele>56</ele>
        <time>2017-09-05T08:46:14Z</time>
      </trkpt>
      <trkpt lat="48.71237" lon="2.51391">
        <ele>56</ele>
        <time>2017-09-05T08:46:14Z</time>
      </trkpt>
      <trkpt lat="48.71242" lon="2.51401">
        <ele>56</ele>
        <time>2017-09-05T08:46:14Z</time>
      </trkpt>
      <trkpt lat="48.71246" lon="2.5141">
        <ele>56</ele>
        <time>2017-09-05T08:46:14Z</time>
      </trkpt>
      <trkpt lat="48.71248" lon="2.51416">
        <ele>56</ele>
        <time>2017-09-05T08:46:30Z</time>
      </trkpt>
      <trkpt lat="48.71253" lon="2.51423">
        <ele>56</ele>
        <time>2017-09-05T08:46:30Z</time>
      </trkpt>
      <trkpt lat="48.71255" lon="2.51425">
        <ele>56</ele>
        <time>2017-09-05T08:46:30Z</time>
      </trkpt>
      <trkpt lat="48.7126" lon="2.51431">
        <ele>56</ele>
        <time>2017-09-05T08:46:30Z</time>
      </trkpt>
      <trkpt lat="48.71267" lon="2.51438">
        <ele>56</ele>
        <time>2017-09-05T08:46:46Z</time>
      </trkpt>
      <trkpt lat="48.71273" lon="2.51449">
        <ele>56</ele>
        <time>2017-09-05T08:46:46Z</time>
      </trkpt>
      <trkpt lat="48.71275" lon="2.51454">
        <ele>56</ele>
        <time>2017-09-05T08:46:46Z</time>
      </trkpt>
      <trkpt lat="48.71278" lon="2.5146">
        <ele>55</ele>
        <time>2017-09-05T08:46:46Z</time>
      </trkpt>
      <trkpt lat="48.71279" lon="2.51466">
        <ele>55</ele>
        <time>2017-09-05T08:47:02Z</time>
      </trkpt>
      <trkpt lat="48.71279" lon="2.51472">
        <ele>55</ele>
        <time>2017-09-05T08:47:02Z</time>
      </trkpt>
      <trkpt lat="48.71275" lon="2.51484">
        <ele>55</ele>
        <time>2017-09-05T08:47:02Z</time>
      </trkpt>
      <trkpt lat="48.71274" lon="2.51493">
        <ele>55</ele>
        <time>2017-09-05T08:47:02Z</time>
      </trkpt>
      <trkpt lat="48.71275" lon="2.51499">
        <ele>55</ele>
        <time>2017-09-05T08:47:18Z</time>
      </trkpt>
      <trkpt lat="48.71277" lon="2.5151">
        <ele>55</ele>
        <time>2017-09-05T08:47:18Z</time>
      </trkpt>
      <trkpt lat="48.71279" lon="2.51513">
        <ele>55</ele>
        <time>2017-09-05T08:47:18Z</time>
      </trkpt>
      <trkpt lat="48.7128" lon="2.5152">
        <ele>55</ele>
        <time>2017-09-05T08:47:18Z</time>
      </trkpt>
      <trkpt lat="48.71283" lon="2.51527">
        <ele>55</ele>
        <time>2017-09-05T08:47:34Z</time>
      </trkpt>
      <trkpt lat="48.71286" lon="2.51538">
        <ele>55</ele>
        <time>2017-09-05T08:47:34Z</time>
      </trkpt>
      <trkpt lat="48.71284" lon="2.51549">
        <ele>57</ele>
        <time>2017-09-05T08:47:34Z</time>
      </trkpt>
      <trkpt lat="48.71285" lon="2.51552">
        <ele>57</ele>
        <time>2017-09-05T08:47:34Z</time>
      </trkpt>
      <trkpt lat="48.71283" lon="2.51559">
        <ele>57</ele>
        <time>2017-09-05T08:47:50Z</time>
      </trkpt>
      <trkpt lat="48.71283" lon="2.51566">
        <ele>57</ele>
        <time>2017-09-05T08:47:50Z</time>
      </trkpt>
      <trkpt lat="48.71285" lon="2.5157">
        <ele>57</ele>
        <time>2017-09-05T08:47:50Z</time>
      </trkpt>
      <trkpt lat="48.71289" lon="2.5158">
        <ele>57</ele>
        <time>2017-09-05T08:47:50Z</time>
      </trkpt>
      <trkpt lat="48.7129" lon="2.51589">
        <ele>57</ele>
        <time>2017-09-05T08:48:06Z</time>
      </trkpt>
      <trkpt lat="48.71293" lon="2.51597">
        <ele>63</ele>
        <time>2017-09-05T08:48:06Z</time>
      </trkpt>
      <trkpt lat="48.71299" lon="2.51608">
        <ele>63</ele>
        <time>2017-09-05T08:48:06Z</time>
      </trkpt>
      <trkpt lat="48.71302" lon="2.51613">
        <ele>63</ele>
        <time>2017-09-05T08:48:06Z</time>
      </trkpt>
      <trkpt lat="48.71309" lon="2.5162">
        <ele>63</ele>
        <time>2017-09-05T08:48:22Z</time>
      </trkpt>
      <trkpt lat="48.71315" lon="2.51626">
        <ele>60</ele>
        <time>2017-09-05T08:48:22Z</time>
      </trkpt>
      <trkpt lat="48.71319" lon="2.51633">
        <ele>60</ele>
        <time>2017-09-05T08:48:22Z</time>
      </trkpt>
      <trkpt lat="48.71322" lon="2.51644">
        <ele>60</ele>
        <time>2017-09-05T08:48:22Z</time>
      </trkpt>
      <trkpt lat="48.71325" lon="2.51645">
        <ele>60</ele>
        <time>2017-09-05T08:48:38Z</time>
      </trkpt>
      <trkpt lat="48.71326" lon="2.51659">
        <ele>60</ele>
        <time>2017-09-05T08:48:38Z</time>
      </trkpt>
      <trkpt lat="48.71329" lon="2.51664">
        <ele>60</ele>
        <time>2017-09-05T08:48:38Z</time>
      </trkpt>
      <trkpt lat="48.71332" lon="2.51668">
        <ele>60</ele>
        <time>2017-09-05T08:48:38Z</time>
      </trkpt>
      <trkpt lat="48.71335" lon="2.51674">
        <ele>60</ele>
        <time>2017-09-05T08:48:54Z</time>
      </trkpt>
      <trkpt lat="48.71338" lon="2.51677">
        <ele>60</ele>
        <time>2017-09-05T08:48:54Z</time>
      </trkpt>
      <trkpt lat="48.71341" lon="2.51686">
        <ele>60</ele>
        <time>2017-09-05T08:48:54Z</time>
      </trkpt>
      <trkpt lat="48.71347" lon="2.51696">
        <ele>60</ele>
        <time>2017-09-05T08:48:54Z</time>
      </trkpt>
      <trkpt lat="48.71348" lon="2.51707">
        <ele>60</ele>
        <time>2017-09-05T08:49:10Z</time>
      </trkpt>
      <trkpt lat="48.71351" lon="2.51714">
        <ele>55</ele>
        <time>2017-09-05T08:49:10Z</time>
      </trkpt>
      <trkpt lat="48.71353" lon="2.5172">
        <ele>55</ele>
        <time>2017-09-05T08:49:10Z</time>
      </trkpt>
      <trkpt lat="48.71356" lon="2.51728">
        <ele>55</ele>
        <time>2017-09-05T08:49:10Z</time>
      </trkpt>
      <trkpt lat="48.71358" lon="2.51733">
        <ele>55</ele>
        <time>2017-09-05T08:49:26Z</time>
      </trkpt>
      <trkpt lat="48.71361" lon="2.51741">
        <ele>55</ele>
        <time>2017-09-05T08:49:26Z</time>
      </trkpt>
      <trkpt lat="48.71362" lon="2.51748">
        <ele>55</ele>
        <time>2017-09-05T08:49:26Z</time>
      </trkpt>
      <trkpt lat="48.71364" lon="2.51757">
        <ele>55</ele>
        <time>2017-09-05T08:49:26Z</time>
      </trkpt>
      <trkpt lat="48.71367" lon="2.51767">
        <ele>55</ele>
        <time>2017-09-05T08:49:42Z</time>
      </trkpt>
      <trkpt lat="48.71366" lon="2.51776">
        <ele>55</ele>
        <time>2017-09-05T08:49:42Z</time>
      </trkpt>
      <trkpt lat="48.71363" lon="2.51785">
        <ele>55</ele>
        <time>2017-09-05T08:49:42Z</time>
      </trkpt>
      <trkpt lat="48.71357" lon="2.51794">
        <ele>52</ele>
        <time>2017-09-05T08:49:42Z</time>
      </trkpt>
      <trkpt lat="48.71352" lon="2.51801">
        <ele>52</ele>
        <time>2017-09-05T08:49:58Z</time>
      </trkpt>
      <trkpt lat="48.7135" lon="2.51807">
        <ele>52</ele>
        <time>2017-09-05T08:49:58Z</time>
      </trkpt>
      <trkpt lat="48.71348" lon="2.51814">
        <ele>52</ele>
        <time>2017-09-05T08:49:58Z</time>
      </trkpt>
      <trkpt lat="48.71347" lon="2.5182">
        <ele>52</ele>
        <time>2017-09-05T08:49:58Z</time>
      </trkpt>
      <trkpt lat="48.71342" lon="2.51826">
        <ele>52</ele>
        <time>2017-09-05T08:50:14Z</time>
      </trkpt>
      <trkpt lat="48.71337" lon="2.51831">
        <ele>52</ele>
        <time>2017-09-05T08:50:14Z</time>
      </trkpt>
      <trkpt lat="48.71335" lon="2.51835">
        <ele>52</ele>
        <time>2017-09-05T08:50:14Z</time>
      </trkpt>
      <trkpt lat="48.71332" lon="2.5184">
        <ele>52</ele>
        <time>2017-09-05T08:50:14Z</time>
      </trkpt>
      <trkpt lat="48.71327" lon="2.51845">
        <ele>52</ele>
        <time>2017-09-05T08:50:30Z</time>
      </trkpt>
      <trkpt lat="48.71322" lon="2.51852">
        <ele>52</ele>
        <time>2017-09-05T08:50:30Z</time>
      </trkpt>
      <trkpt lat="48.71318" lon="2.5186">
        <ele>52</ele>
        <time>2017-09-05T08:50:30Z</time>
      </trkpt>
      <trkpt lat="48.71313" lon="2.51866">
        <ele>52</ele>
        <time>2017-09-05T08:50:30Z</time>
      </trkpt>
      <trkpt lat="48.7131" lon="2.51869">
        <ele>52</ele>
        <time>2017-09-05T08:50:46Z</time>
      </trkpt>
      <trkpt lat="48.71304" lon="2.51874">
        <ele>52</ele>
        <time>2017-09-05T08:50:46Z</time>
      </trkpt>
      <trkpt lat="48.71298" lon="2.51873">
        <ele>52</ele>
        <time>2017-09-05T08:50:46Z</time>
      </trkpt>
      <trkpt lat="48.71294" lon="2.51877">
        <ele>53</ele>
        <time>2017-09-05T08:50:46Z</time>
      </trkpt>
      <trkpt lat="48.71291" lon="2.51881">
        <ele>57</ele>
        <time>2017-09-05T08:51:02Z</time>
      </trkpt>
      <trkpt lat="48.71288" lon="2.51885">
        <ele>57</ele>
        <time>2017-09-05T08:51:02Z</time>
      </trkpt>
      <trkpt lat="48.71285" lon="2.51889">
        <ele>57</ele>
        <time>2017-09-05T08:51:02Z</time>
      </trkpt>
      <trkpt lat="48.71283" lon="2.51897">
        <ele>57</ele>
        <time>2017-09-05T08:51:02Z</time>
      </trkpt>
      <trkpt lat="48.71282" lon="2.51903">
        <ele>57</ele>
        <time>2017-09-05T08:51:18Z</time>
      </trkpt>
      <trkpt lat="48.71283" lon="2.51907">
        <ele>57</ele>
        <time>2017-09-05T08:51:18Z</time>
      </trkpt>
      <trkpt lat="48.71284" lon="2.51914">
        <ele>57</ele>
        <time>2017-09-05T08:51:18Z</time>
      </trkpt>
      <trkpt lat="48.71282" lon="2.51923">
        <ele>57</ele>
        <time>2017-09-05T08:51:18Z</time>
      </trkpt>
      <trkpt lat="48.7128" lon="2.51931">
        <ele>57</ele>
        <time>2017-09-05T08:51:34Z</time>
      </trkpt>
      <trkpt lat="48.71279" lon="2.51941">
        <ele>57</ele>
        <time>2017-09-05T08:51:34Z</time>
      </trkpt>
      <trkpt lat="48.71276" lon="2.5195">
        <ele>57</ele>
        <time>2017-09-05T08:51:34Z</time>
      </trkpt>
      <trkpt lat="48.71276" lon="2.51958">
        <ele>57</ele>
        <time>2017-09-05T08:51:34Z</time>
      </trkpt>
      <trkpt lat="48.71277" lon="2.51967">
        <ele>58</ele>
        <time>2017-09-05T08:51:50Z</time>
      </trkpt>
      <trkpt lat="48.71277" lon="2.51975">
        <ele>58</ele>
        <time>2017-09-05T08:51:50Z</time>
      </trkpt>
      <trkpt lat="48.71277" lon="2.51986">
        <ele>58</ele>
        <time>2017-09-05T08:51:50Z</time>
      </trkpt>
      <trkpt lat="48.71276" lon="2.51995">
        <ele>58</ele>
        <time>2017-09-05T08:51:50Z</time>
      </trkpt>
      <trkpt lat="48.71277" lon="2.52001">
        <ele>58</ele>
        <time>2017-09-05T08:52:06Z</time>
      </trkpt>
      <trkpt lat="48.71278" lon="2.52003">
        <ele>58</ele>
        <time>2017-09-05T08:52:06Z</time>
      </trkpt>
      <trkpt lat="48.71281" lon="2.52011">
        <ele>58</ele>
        <time>2017-09-05T08:52:06Z</time>
      </trkpt>
      <trkpt lat="48.71281" lon="2.52016">
        <ele>58</ele>
        <time>2017-09-05T08:52:06Z</time>
      </trkpt>
      <trkpt lat="48.71285" lon="2.52027">
        <ele>58</ele>
        <time>2017-09-05T08:52:22Z</time>
      </trkpt>
      <trkpt lat="48.71291" lon="2.52037">
        <ele>58</ele>
        <time>2017-09-05T08:52:22Z</time>
      </trkpt>
      <trkpt lat="48.71295" lon="2.52041">
        <ele>53</ele>
        <time>2017-09-05T08:52:22Z</time>
      </trkpt>
      <trkpt lat="48.71301" lon="2.52044">
        <ele>51</ele>
        <time>2017-09-05T08:52:22Z</time>
      </trkpt>
      <trkpt lat="48.71307" lon="2.52048">
        <ele>51</ele>
        <time>2017-09-05T08:52:38Z</time>
      </trkpt>
      <trkpt lat="48.7131" lon="2.52051">
        <ele>51</ele>
        <time>2017-09-05T08:52:38Z</time>
      </trkpt>
      <trkpt lat="48.71315" lon="2.52053">
        <ele>51</ele>
        <time>2017-09-05T08:52:38Z</time>
      </trkpt>
      <trkpt lat="48.71321" lon="2.52054">
        <ele>51</ele>
        <time>2017-09-05T08:52:38Z</time>
      </trkpt>
      <trkpt lat="48.71327" lon="2.52048">
        <ele>51</ele>
        <time>2017-09-05T08:52:54Z</time>
      </trkpt>
      <trkpt lat="48.71332" lon="2.52046">
        <ele>51</ele>
        <time>2017-09-05T08:52:54Z</time>
      </trkpt>
      <trkpt lat="48.71335" lon="2.52046">
        <ele>51</ele>
        <time>2017-09-05T08:52:54Z</time>
      </trkpt>
      <trkpt lat="48.71339" lon="2.52045">
        <ele>51</ele>
        <time>2017-09-05T08:52:54Z</time>
      </trkpt>
      <trkpt lat="48.71343" lon="2.52041">
        <ele>53</ele>
        <time>2017-09-05T08:53:10Z</time>
      </trkpt>
      <trkpt lat="48.7135" lon="2.5204">
        <ele>53</ele>
        <time>2017-09-05T08:53:10Z</time>
      </trkpt>
      <trkpt lat="48.71358" lon="2.5204">
        <ele>53</ele>
        <time>2017-09-05T08:53:10Z</time>
      </trkpt>
      <trkpt lat="48.71364" lon="2.52041">
        <ele>53</ele>
        <time>2017-09-05T08:53:10Z</time>
      </trkpt>
      <trkpt lat="48.71368" lon="2.52042">
        <ele>53</ele>
        <time>2017-09-05T08:53:26Z</time>
      </trkpt>
      <trkpt lat="48.7137" lon="2.5204">
        <ele>53</ele>
        <time>2017-09-05T08:53:26Z</time>
      </trkpt>
      <trkpt lat="48.71375" lon="2.52038">
        <ele>53</ele>
        <time>2017-09-05T08:53:26Z</time>
      </trkpt>
      <trkpt lat="48.7138" lon="2.52033">
        <ele>57</ele>
        <time>2017-09-05T08:53:26Z</time>
      </trkpt>
      <trkpt lat="48.71384" lon="2.52031">
        <ele>57</ele>
        <time>2017-09-05T08:53:42Z</time>
      </trkpt>
      <trkpt lat="48.71387" lon="2.52032">
        <ele>57</ele>
        <time>2017-09-05T08:53:42Z</time>
      </trkpt>
      <trkpt lat="48.71394" lon="2.52038">
        <ele>57</ele>
        <time>2017-09-05T08:53:42Z</time>
      </trkpt>
      <trkpt lat="48.71401" lon="2.52045">
        <ele>52</ele>
        <time>2017-09-05T08:53:42Z</time>
      </trkpt>
      <trkpt lat="48.71407" lon="2.52049">
        <ele>52</ele>
        <time>2017-09-05T08:53:58Z</time>
      </trkpt>
      <trkpt lat="48.71411" lon="2.52055">
        <ele>52</ele>
        <time>2017-09-05T08:53:58Z</time>
      </trkpt>
      <trkpt lat="48.71414" lon="2.52059">
        <ele>52</ele>
        <time>2017-09-05T08:53:58Z</time>
      </trkpt>
      <trkpt lat="48.71418" lon="2.52066">
        <ele>52</ele>
        <time>2017-09-05T08:53:58Z</time>
      </trkpt>
      <trkpt lat="48.71421" lon="2.52074">
        <ele>52</ele>
        <time>2017-09-05T08:54:14Z</time>
      </trkpt>
      <trkpt lat="48.71427" lon="2.52082">
        <ele>52</ele>
        <time>2017-09-05T08:54:14Z</time>
      </trkpt>
      <trkpt lat="48.71429" lon="2.52089">
        <ele>52</ele>
        <time>2017-09-05T08:54:14Z</time>
      </trkpt>
      <trkpt lat="48.71431" lon="2.52094">
        <ele>52</ele>
        <time>2017-09-05T08:54:14Z</time>
      </trkpt>
      <trkpt lat="48.71433" lon="2.521">
        <ele>52</ele>
        <time>2017-09-05T08:54:30Z</time>
      </trkpt>
      <trkpt lat="48.71434" lon="2.5211">
        <ele>52</ele>
        <time>2017-09-05T08:54:30Z</time>
      </trkpt>
      <trkpt lat="48.71436" lon="2.52118">
        <ele>52</ele>
        <time>2017-09-05T08:54:30Z</time>
      </trkpt>
      <trkpt lat="48.71438" lon="2.52124">
        <ele>52</ele>
        <time>2017-09-05T08:54:30Z</time>
      </trkpt>
      <trkpt lat="48.71438" lon="2.52132">
        <ele>49</ele>
        <time>2017-09-05T08:54:46Z</time>
      </trkpt>
      <trkpt lat="48.71437" lon="2.52143">
        <ele>49</ele>
        <time>2017-09-05T08:54:46Z</time>
      </trkpt>
      <trkpt lat="48.71437" lon="2.52153">
        <ele>49</ele>
        <time>2017-09-05T08:54:46Z</time>
      </trkpt>
      <trkpt lat="48.71436" lon="2.52161">
        <ele>49</ele>
        <time>2017-09-05T08:54:46Z</time>
      </trkpt>
      <trkpt lat="48.71433" lon="2.52171">
        <ele>49</ele>
        <time>2017-09-05T08:55:02Z</time>
      </trkpt>
      <trkpt lat="48.71431" lon="2.5218">
        <ele>49</ele>
        <time>2017-09-05T08:55:02Z</time>
      </trkpt>
      <trkpt lat="48.71429" lon="2.52185">
        <ele>49</ele>
        <time>2017-09-05T08:55:02Z</time>
      </trkpt>
      <trkpt lat="48.71425" lon="2.52191">
        <ele>49</ele>
        <time>2017-09-05T08:55:02Z</time>
      </trkpt>
      <trkpt lat="48.71424" lon="2.52196">
        <ele>49</ele>
        <time>2017-09-05T08:55:18Z</time>
      </trkpt>
      <trkpt lat="48.71422" lon="2.52202">
        <ele>49</ele>
        <time>2017-09-05T08:55:18Z</time>
      </trkpt>
      <trkpt lat="48.71416" lon="2.52212">
        <ele>50</ele>
        <time>2017-09-05T08:55:18Z</time>
      </trkpt>
      <trkpt lat="48.71411" lon="2.52221">
        <ele>50</ele>
        <time>2017-09-05T08:55:18Z</time>
      </trkpt>
      <trkpt lat="48.71408" lon="2.52229">
        <ele>50</ele>
        <time>2017-09-05T08:55:34Z</time>
      </trkpt>
      <trkpt lat="48.71404" lon="2.52236">
        <ele>50</ele>
        <time>2017-09-05T08:55:34Z</time>
      </trkpt>
      <trkpt lat="48.71401" lon="2.52241">
        <ele>50</ele>
        <time>2017-09-05T08:55:34Z</time>
      </trkpt>
      <trkpt lat="48.71396" lon="2.52248">
        <ele>50</ele>
        <time>2017-09-05T08:55:34Z</time>
      </trkpt>
      <trkpt lat="48.71393" lon="2.52255">
        <ele>50</ele>
        <time>2017-09-05T08:55:50Z</time>
      </trkpt>
      <trkpt lat="48.71391" lon="2.52259">
        <ele>50</ele>
        <time>2017-09-05T08:55:50Z</time>
      </trkpt>
      <trkpt lat="48.71388" lon="2.52266">
        <ele>50</ele>
        <time>2017-09-05T08:55:50Z</time>
      </trkpt>
      <trkpt lat="48.71383" lon="2.52273">
        <ele>50</ele>
        <time>2017-09-05T08:55:50Z</time>
      </trkpt>
      <trkpt lat="48.7138" lon="2.5228">
        <ele>50</ele>
        <time>2017-09-05T08:56:06Z</time>
      </trkpt>
      <trkpt lat="48.71378" lon="2.52291">
        <ele>50</ele>
        <time>2017-09-05T08:56:06Z</time>
      </trkpt>
      <trkpt lat="48.71376" lon="2.52298">
        <ele>52</ele>
        <time>2017-09-05T08:56:06Z</time>
      </trkpt>
      <trkpt lat="48.71375" lon="2.52305">
        <ele>49</ele>
        <time>2017-09-05T08:56:06Z</time>
      </trkpt>
      <trkpt lat="48.71373" lon="2.52315">
        <ele>49</ele>
        <time>2017-09-05T08:56:22Z</time>
      </trkpt>
      <trkpt lat="48.7137" lon="2.52321">
        <ele>49</ele>
        <time>2017-09-05T08:56:22Z</time>
      </trkpt>
      <trkpt lat="48.71368" lon="2.52328">
        <ele>49</ele>
        <time>2017-09-05T08:56:22Z</time>
      </trkpt>
      <trkpt lat="48.71365" lon="2.52337">
        <ele>49</ele>
        <time>2017-09-05T08:56:22Z</time>
      </trkpt>
      <trkpt lat="48.71364" lon="2.52345">
        <ele>49</ele>
        <time>2017-09-05T08:56:38Z</time>
      </trkpt>
      <trkpt lat="48.71361" lon="2.52353">
        <ele>49</ele>
        <time>2017-09-05T08:56:38Z</time>
      </trkpt>
      <trkpt lat="48.71357" lon="2.52359">
        <ele>49</ele>
        <time>2017-09-05T08:56:38Z</time>
      </trkpt>
      <trkpt lat="48.71355" lon="2.5237">
        <ele>49</ele>
        <time>2017-09-05T08:56:38Z</time>
      </trkpt>
      <trkpt lat="48.7135" lon="2.52378">
        <ele>52</ele>
        <time>2017-09-05T08:56:54Z</time>
      </trkpt>
      <trkpt lat="48.71347" lon="2.52385">
        <ele>52</ele>
        <time>2017-09-05T08:56:54Z</time>
      </trkpt>
      <trkpt lat="48.71343" lon="2.52393">
        <ele>52</ele>
        <time>2017-09-05T08:56:54Z</time>
      </trkpt>
      <trkpt lat="48.71339" lon="2.52399">
        <ele>52</ele>
        <time>2017-09-05T08:56:54Z</time>
      </trkpt>
      <trkpt lat="48.71337" lon="2.52405">
        <ele>52</ele>
        <time>2017-09-05T08:57:10Z</time>
      </trkpt>
      <trkpt lat="48.71335" lon="2.52412">
        <ele>52</ele>
        <time>2017-09-05T08:57:10Z</time>
      </trkpt>
      <trkpt lat="48.71333" lon="2.52417">
        <ele>52</ele>
        <time>2017-09-05T08:57:10Z</time>
      </trkpt>
      <trkpt lat="48.71333" lon="2.52426">
        <ele>52</ele>
        <time>2017-09-05T08:57:10Z</time>
      </trkpt>
      <trkpt lat="48.71333" lon="2.52435">
        <ele>52</ele>
        <time>2017-09-05T08:57:26Z</time>
      </trkpt>
      <trkpt lat="48.71332" lon="2.52441">
        <ele>52</ele>
        <time>2017-09-05T08:57:26Z</time>
      </trkpt>
      <trkpt lat="48.71333" lon="2.52451">
        <ele>52</ele>
        <time>2017-09-05T08:57:26Z</time>
      </trkpt>
      <trkpt lat="48.71334" lon="2.52459">
        <ele>51</ele>
        <time>2017-09-05T08:57:26Z</time>
      </trkpt>
      <trkpt lat="48.71333" lon="2.52465">
        <ele>51</ele>
        <time>2017-09-05T08:57:42Z</time>
      </trkpt>
      <trkpt lat="48.71334" lon="2.52472">
        <ele>51</ele>
        <time>2017-09-05T08:57:42Z</time>
      </trkpt>
      <trkpt lat="48.71334" lon="2.5248">
        <ele>51</ele>
        <time>2017-09-05T08:57:42Z</time>
      </trkpt>
      <trkpt lat="48.71336" lon="2.52486">
        <ele>51</ele>
        <time>2017-09-05T08:57:42Z</time>
      </trkpt>
      <trkpt lat="48.71339" lon="2.52494">
        <ele>51</ele>
        <time>2017-09-05T08:57:58Z</time>
      </trkpt>
      <trkpt lat="48.71342" lon="2.52497">
        <ele>51</ele>
        <time>2017-09-05T08:57:58Z</time>
      </trkpt>
      <trkpt lat="48.71345" lon="2.52505">
        <ele>51</ele>
        <time>2017-09-05T08:57:58Z</time>
      </trkpt>
      <trkpt lat="48.71347" lon="2.52515">
        <ele>51</ele>
        <time>2017-09-05T08:57:58Z</time>
      </trkpt>
      <trkpt lat="48.71351" lon="2.52523">
        <ele>51</ele>
        <time>2017-09-05T08:58:14Z</time>
      </trkpt>
      <trkpt lat="48.71353" lon="2.52529">
        <ele>51</ele>
        <time>2017-09-05T08:58:14Z</time>
      </trkpt>
      <trkpt lat="48.71358" lon="2.52535">
        <ele>51</ele>
        <time>2017-09-05T08:58:14Z</time>
      </trkpt>
      <trkpt lat="48.71361" lon="2.52542">
        <ele>53</ele>
        <time>2017-09-05T08:58:14Z</time>
      </trkpt>
      <trkpt lat="48.71365" lon="2.52549">
        <ele>53</ele>
        <time>2017-09-05T08:58:30Z</time>
      </trkpt>
      <trkpt lat="48.71368" lon="2.52556">
        <ele>53</ele>
        <time>2017-09-05T08:58:30Z</time>
      </trkpt>
      <trkpt lat="48.71371" lon="2.52563">
        <ele>53</ele>
        <time>2017-09-05T08:58:30Z</time>
      </trkpt>
      <trkpt lat="48.71375" lon="2.5257">
        <ele>53</ele>
        <time>2017-09-05T08:58:30Z</time>
      </trkpt>
      <trkpt lat="48.71377" lon="2.52576">
        <ele>53</ele>
        <time>2017-09-05T08:58:46Z</time>
      </trkpt>
      <trkpt lat="48.71381" lon="2.52581">
        <ele>53</ele>
        <time>2017-09-05T08:58:46Z</time>
      </trkpt>
      <trkpt lat="48.71386" lon="2.52586">
        <ele>53</ele>
        <time>2017-09-05T08:58:46Z</time>
      </trkpt>
      <trkpt lat="48.71391" lon="2.5259">
        <ele>53</ele>
        <time>2017-09-05T08:58:46Z</time>
      </trkpt>
      <trkpt lat="48.71395" lon="2.52595">
        <ele>53</ele>
        <time>2017-09-05T08:59:02Z</time>
      </trkpt>
      <trkpt lat="48.71399" lon="2.52602">
        <ele>53</ele>
        <time>2017-09-05T08:59:02Z</time>
      </trkpt>
      <trkpt lat="48.71404" lon="2.52609">
        <ele>53</ele>
        <time>2017-09-05T08:59:02Z</time>
      </trkpt>
      <trkpt lat="48.71407" lon="2.52614">
        <ele>53</ele>
        <time>2017-09-05T08:59:02Z</time>
      </trkpt>
      <trkpt lat="48.71412" lon="2.5262">
        <ele>53</ele>
        <time>2017-09-05T08:59:18Z</time>
      </trkpt>
      <trkpt lat="48.71417" lon="2.52625">
        <ele>53</ele>
        <time>2017-09-05T08:59:18Z</time>
      </trkpt>
      <trkpt lat="48.71419" lon="2.5263">
        <ele>54</ele>
        <time>2017-09-05T08:59:18Z</time>
      </trkpt>
      <trkpt lat="48.71421" lon="2.52638">
        <ele>54</ele>
        <time>2017-09-05T08:59:18Z</time>
      </trkpt>
      <trkpt lat="48.71423" lon="2.52646">
        <ele>54</ele>
        <time>2017-09-05T08:59:34Z</time>
      </trkpt>
      <trkpt lat="48.71424" lon="2.52655">
        <ele>54</ele>
        <time>2017-09-05T08:59:34Z</time>
      </trkpt>
      <trkpt lat="48.71424" lon="2.52663">
        <ele>54</ele>
        <time>2017-09-05T08:59:34Z</time>
      </trkpt>
      <trkpt lat="48.71424" lon="2.52673">
        <ele>54</ele>
        <time>2017-09-05T08:59:34Z</time>
      </trkpt>
      <trkpt lat="48.71423" lon="2.52681">
        <ele>54</ele>
        <time>2017-09-05T08:59:50Z</time>
      </trkpt>
      <trkpt lat="48.71424" lon="2.52689">
        <ele>54</ele>
        <time>2017-09-05T08:59:50Z</time>
      </trkpt>
      <trkpt lat="48.71424" lon="2.52696">
        <ele>54</ele>
        <time>2017-09-05T08:59:50Z</time>
      </trkpt>
      <trkpt lat="48.71423" lon="2.52704">
        <ele>54</ele>
        <time>2017-09-05T08:59:50Z</time>
      </trkpt>
      <trkpt lat="48.71424" lon="2.5271">
        <ele>54</ele>
        <time>2017-09-05T09:00:06Z</time>
      </trkpt>
      <trkpt lat="48.71425" lon="2.52714">
        <ele>54</ele>
        <time>2017-09-05T09:00:06Z</time>
      </trkpt>
      <trkpt lat="48.71424" lon="2.5272">
        <ele>54</ele>
        <time>2017-09-05T09:00:06Z</time>
      </trkpt>
      <trkpt lat="48.71422" lon="2.52726">
        <ele>54</ele>
        <time>2017-09-05T09:00:06Z</time>
      </trkpt>
      <trkpt lat="48.71416" lon="2.52731">
        <ele>54</ele>
        <time>2017-09-05T09:00:22Z</time>
      </trkpt>
      <trkpt lat="48.71412" lon="2.52733">
        <ele>54</ele>
        <time>2017-09-05T09:00:22Z</time>
      </trkpt>
      <trkpt lat="48.71407" lon="2.52734">
        <ele>54</ele>
        <time>2017-09-05T09:00:22Z</time>
      </trkpt>
      <trkpt lat="48.714" lon="2.52736">
        <ele>54</ele>
        <time>2017-09-05T09:00:22Z</time>
      </trkpt>
      <trkpt lat="48.71396" lon="2.52738">
        <ele>54</ele>
        <time>2017-09-05T09:00:42Z</time>
      </trkpt>
      <trkpt lat="48.71395" lon="2.5274">
        <ele>54</ele>
        <time>2017-09-05T09:00:42Z</time>
      </trkpt>
      <trkpt lat="48.71395" lon="2.52742">
        <ele>54</ele>
        <time>2017-09-05T09:00:42Z</time>
      </trkpt>
      <trkpt lat="48.71395" lon="2.52751">
        <ele>54</ele>
        <time>2017-09-05T09:00:42Z</time>
      </trkpt>
      <trkpt lat="48.71394" lon="2.52757">
        <ele>54</ele>
        <time>2017-09-05T09:00:42Z</time>
      </trkpt>
      <trkpt lat="48.71394" lon="2.52763">
        <ele>54</ele>
        <time>2017-09-05T09:00:58Z</time>
      </trkpt>
      <trkpt lat="48.71394" lon="2.52772">
        <ele>54</ele>
        <time>2017-09-05T09:00:58Z</time>
      </trkpt>
      <trkpt lat="48.71394" lon="2.52779">
        <ele>54</ele>
        <time>2017-09-05T09:00:58Z</time>
      </trkpt>
      <trkpt lat="48.71392" lon="2.52788">
        <ele>54</ele>
        <time>2017-09-05T09:00:58Z</time>
      </trkpt>
      <trkpt lat="48.71392" lon="2.52794">
        <ele>53</ele>
        <time>2017-09-05T09:01:14Z</time>
      </trkpt>
      <trkpt lat="48.71393" lon="2.52802">
        <ele>53</ele>
        <time>2017-09-05T09:01:14Z</time>
      </trkpt>
      <trkpt lat="48.71395" lon="2.52811">
        <ele>53</ele>
        <time>2017-09-05T09:01:14Z</time>
      </trkpt>
      <trkpt lat="48.71398" lon="2.52821">
        <ele>53</ele>
        <time>2017-09-05T09:01:14Z</time>
      </trkpt>
      <trkpt lat="48.714" lon="2.5283">
        <ele>53</ele>
        <time>2017-09-05T09:01:30Z</time>
      </trkpt>
      <trkpt lat="48.71402" lon="2.52836">
        <ele>53</ele>
        <time>2017-09-05T09:01:30Z</time>
      </trkpt>
      <trkpt lat="48.71405" lon="2.52842">
        <ele>53</ele>
        <time>2017-09-05T09:01:30Z</time>
      </trkpt>
      <trkpt lat="48.71407" lon="2.52849">
        <ele>53</ele>
        <time>2017-09-05T09:01:30Z</time>
      </trkpt>
      <trkpt lat="48.71408" lon="2.52858">
        <ele>53</ele>
        <time>2017-09-05T09:01:46Z</time>
      </trkpt>
      <trkpt lat="48.71408" lon="2.52866">
        <ele>53</ele>
        <time>2017-09-05T09:01:46Z</time>
      </trkpt>
      <trkpt lat="48.7141" lon="2.52871">
        <ele>53</ele>
        <time>2017-09-05T09:01:46Z</time>
      </trkpt>
      <trkpt lat="48.71412" lon="2.5288">
        <ele>54</ele>
        <time>2017-09-05T09:01:46Z</time>
      </trkpt>
      <trkpt lat="48.71414" lon="2.5289">
        <ele>54</ele>
        <time>2017-09-05T09:02:02Z</time>
      </trkpt>
      <trkpt lat="48.71416" lon="2.52896">
        <ele>54</ele>
        <time>2017-09-05T09:02:02Z</time>
      </trkpt>
      <trkpt lat="48.71419" lon="2.52903">
        <ele>54</ele>
        <time>2017-09-05T09:02:02Z</time>
      </trkpt>
      <trkpt lat="48.71422" lon="2.52908">
        <ele>54</ele>
        <time>2017-09-05T09:02:02Z</time>
      </trkpt>
      <trkpt lat="48.71424" lon="2.52916">
        <ele>54</ele>
        <time>2017-09-05T09:02:18Z</time>
      </trkpt>
      <trkpt lat="48.71425" lon="2.52922">
        <ele>54</ele>
        <time>2017-09-05T09:02:18Z</time>
      </trkpt>
      <trkpt lat="48.71427" lon="2.52929">
        <ele>54</ele>
        <time>2017-09-05T09:02:18Z</time>
      </trkpt>
      <trkpt lat="48.71428" lon="2.52935">
        <ele>54</ele>
        <time>2017-09-05T09:02:18Z</time>
      </trkpt>
      <trkpt lat="48.71431" lon="2.52943">
        <ele>54</ele>
        <time>2017-09-05T09:02:34Z</time>
      </trkpt>
      <trkpt lat="48.71435" lon="2.52953">
        <ele>54</ele>
        <time>2017-09-05T09:02:34Z</time>
      </trkpt>
      <trkpt lat="48.7144" lon="2.52962">
        <ele>56</ele>
        <time>2017-09-05T09:02:34Z</time>
      </trkpt>
      <trkpt lat="48.71444" lon="2.52969">
        <ele>56</ele>
        <time>2017-09-05T09:02:34Z</time>
      </trkpt>
      <trkpt lat="48.71448" lon="2.52977">
        <ele>56</ele>
        <time>2017-09-05T09:02:50Z</time>
      </trkpt>
      <trkpt lat="48.71452" lon="2.52984">
        <ele>56</ele>
        <time>2017-09-05T09:02:50Z</time>
      </trkpt>
      <trkpt lat="48.71454" lon="2.52991">
        <ele>56</ele>
        <time>2017-09-05T09:02:50Z</time>
      </trkpt>
      <trkpt lat="48.71458" lon="2.52994">
        <ele>56</ele>
        <time>2017-09-05T09:02:50Z</time>
      </trkpt>
      <trkpt lat="48.7146" lon="2.53001">
        <ele>54</ele>
        <time>2017-09-05T09:03:06Z</time>
      </trkpt>
      <trkpt lat="48.71461" lon="2.53007">
        <ele>54</ele>
        <time>2017-09-05T09:03:06Z</time>
      </trkpt>
      <trkpt lat="48.71463" lon="2.53015">
        <ele>54</ele>
        <time>2017-09-05T09:03:06Z</time>
      </trkpt>
      <trkpt lat="48.71466" lon="2.5302">
        <ele>54</ele>
        <time>2017-09-05T09:03:06Z</time>
      </trkpt>
      <trkpt lat="48.7147" lon="2.53028">
        <ele>54</ele>
        <time>2017-09-05T09:03:22Z</time>
      </trkpt>
      <trkpt lat="48.71474" lon="2.53034">
        <ele>54</ele>
        <time>2017-09-05T09:03:22Z</time>
      </trkpt>
      <trkpt lat="48.71477" lon="2.53041">
        <ele>54</ele>
        <time>2017-09-05T09:03:22Z</time>
      </trkpt>
      <trkpt lat="48.71479" lon="2.53045">
        <ele>54</ele>
        <time>2017-09-05T09:03:22Z</time>
      </trkpt>
      <trkpt lat="48.71483" lon="2.5305">
        <ele>54</ele>
        <time>2017-09-05T09:03:38Z</time>
      </trkpt>
      <trkpt lat="48.71488" lon="2.53054">
        <ele>54</ele>
        <time>2017-09-05T09:03:38Z</time>
      </trkpt>
      <trkpt lat="48.71492" lon="2.53062">
        <ele>54</ele>
        <time>2017-09-05T09:03:38Z</time>
      </trkpt>
      <trkpt lat="48.71496" lon="2.5307">
        <ele>54</ele>
        <time>2017-09-05T09:03:38Z</time>
      </trkpt>
      <trkpt lat="48.71499" lon="2.53077">
        <ele>54</ele>
        <time>2017-09-05T09:03:54Z</time>
      </trkpt>
      <trkpt lat="48.71503" lon="2.53083">
        <ele>54</ele>
        <time>2017-09-05T09:03:54Z</time>
      </trkpt>
      <trkpt lat="48.71506" lon="2.53086">
        <ele>54</ele>
        <time>2017-09-05T09:03:54Z</time>
      </trkpt>
      <trkpt lat="48.7151" lon="2.53089">
        <ele>54</ele>
        <time>2017-09-05T09:03:54Z</time>
      </trkpt>
      <trkpt lat="48.71514" lon="2.53096">
        <ele>54</ele>
        <time>2017-09-05T09:04:10Z</time>
      </trkpt>
      <trkpt lat="48.71518" lon="2.53105">
        <ele>54</ele>
        <time>2017-09-05T09:04:10Z</time>
      </trkpt>
      <trkpt lat="48.71522" lon="2.5311">
        <ele>54</ele>
        <time>2017-09-05T09:04:10Z</time>
      </trkpt>
      <trkpt lat="48.71525" lon="2.53117">
        <ele>54</ele>
        <time>2017-09-05T09:04:10Z</time>
      </trkpt>
      <trkpt lat="48.71527" lon="2.53122">
        <ele>54</ele>
        <time>2017-09-05T09:04:26Z</time>
      </trkpt>
      <trkpt lat="48.7153" lon="2.53127">
        <ele>58</ele>
        <time>2017-09-05T09:04:26Z</time>
      </trkpt>
      <trkpt lat="48.71532" lon="2.53133">
        <ele>58</ele>
        <time>2017-09-05T09:04:26Z</time>
      </trkpt>
      <trkpt lat="48.71538" lon="2.53144">
        <ele>58</ele>
        <time>2017-09-05T09:04:26Z</time>
      </trkpt>
      <trkpt lat="48.7154" lon="2.53153">
        <ele>58</ele>
        <time>2017-09-05T09:04:42Z</time>
      </trkpt>
      <trkpt lat="48.71542" lon="2.53159">
        <ele>57</ele>
        <time>2017-09-05T09:04:42Z</time>
      </trkpt>
      <trkpt lat="48.71545" lon="2.53166">
        <ele>57</ele>
        <time>2017-09-05T09:04:42Z</time>
      </trkpt>
      <trkpt lat="48.71547" lon="2.5317">
        <ele>57</ele>
        <time>2017-09-05T09:04:42Z</time>
      </trkpt>
      <trkpt lat="48.71549" lon="2.53176">
        <ele>57</ele>
        <time>2017-09-05T09:04:58Z</time>
      </trkpt>
      <trkpt lat="48.71552" lon="2.53193">
        <ele>57</ele>
        <time>2017-09-05T09:04:58Z</time>
      </trkpt>
      <trkpt lat="48.71554" lon="2.53198">
        <ele>57</ele>
        <time>2017-09-05T09:04:58Z</time>
      </trkpt>
      <trkpt lat="48.71557" lon="2.53205">
        <ele>57</ele>
        <time>2017-09-05T09:04:58Z</time>
      </trkpt>
      <trkpt lat="48.71558" lon="2.53213">
        <ele>57</ele>
        <time>2017-09-05T09:05:14Z</time>
      </trkpt>
      <trkpt lat="48.71561" lon="2.5322">
        <ele>57</ele>
        <time>2017-09-05T09:05:14Z</time>
      </trkpt>
      <trkpt lat="48.71561" lon="2.53228">
        <ele>57</ele>
        <time>2017-09-05T09:05:14Z</time>
      </trkpt>
      <trkpt lat="48.71562" lon="2.53236">
        <ele>57</ele>
        <time>2017-09-05T09:05:14Z</time>
      </trkpt>
      <trkpt lat="48.71565" lon="2.53242">
        <ele>57</ele>
        <time>2017-09-05T09:05:30Z</time>
      </trkpt>
      <trkpt lat="48.71567" lon="2.53247">
        <ele>57</ele>
        <time>2017-09-05T09:05:30Z</time>
      </trkpt>
      <trkpt lat="48.7157" lon="2.53253">
        <ele>57</ele>
        <time>2017-09-05T09:05:30Z</time>
      </trkpt>
      <trkpt lat="48.71574" lon="2.53261">
        <ele>57</ele>
        <time>2017-09-05T09:05:30Z</time>
      </trkpt>
      <trkpt lat="48.71579" lon="2.53267">
        <ele>57</ele>
        <time>2017-09-05T09:05:46Z</time>
      </trkpt>
      <trkpt lat="48.71585" lon="2.53278">
        <ele>57</ele>
        <time>2017-09-05T09:05:46Z</time>
      </trkpt>
      <trkpt lat="48.71587" lon="2.53291">
        <ele>57</ele>
        <time>2017-09-05T09:05:46Z</time>
      </trkpt>
      <trkpt lat="48.71589" lon="2.53298">
        <ele>57</ele>
        <time>2017-09-05T09:05:46Z</time>
      </trkpt>
      <trkpt lat="48.71595" lon="2.53305">
        <ele>57</ele>
        <time>2017-09-05T09:06:02Z</time>
      </trkpt>
      <trkpt lat="48.71598" lon="2.53313">
        <ele>57</ele>
        <time>2017-09-05T09:06:02Z</time>
      </trkpt>
      <trkpt lat="48.71602" lon="2.5332">
        <ele>57</ele>
        <time>2017-09-05T09:06:02Z</time>
      </trkpt>
      <trkpt lat="48.71605" lon="2.53326">
        <ele>57</ele>
        <time>2017-09-05T09:06:02Z</time>
      </trkpt>
      <trkpt lat="48.71607" lon="2.53333">
        <ele>57</ele>
        <time>2017-09-05T09:06:18Z</time>
      </trkpt>
      <trkpt lat="48.71608" lon="2.53339">
        <ele>57</ele>
        <time>2017-09-05T09:06:18Z</time>
      </trkpt>
      <trkpt lat="48.7161" lon="2.53344">
        <ele>57</ele>
        <time>2017-09-05T09:06:18Z</time>
      </trkpt>
      <trkpt lat="48.71613" lon="2.53347">
        <ele>57</ele>
        <time>2017-09-05T09:06:18Z</time>
      </trkpt>
      <trkpt lat="48.71615" lon="2.53353">
        <ele>57</ele>
        <time>2017-09-05T09:06:34Z</time>
      </trkpt>
      <trkpt lat="48.71621" lon="2.53365">
        <ele>57</ele>
        <time>2017-09-05T09:06:34Z</time>
      </trkpt>
      <trkpt lat="48.71624" lon="2.53373">
        <ele>57</ele>
        <time>2017-09-05T09:06:34Z</time>
      </trkpt>
      <trkpt lat="48.71627" lon="2.5338">
        <ele>59</ele>
        <time>2017-09-05T09:06:34Z</time>
      </trkpt>
      <trkpt lat="48.71628" lon="2.53387">
        <ele>59</ele>
        <time>2017-09-05T09:06:50Z</time>
      </trkpt>
      <trkpt lat="48.71631" lon="2.53397">
        <ele>59</ele>
        <time>2017-09-05T09:06:50Z</time>
      </trkpt>
      <trkpt lat="48.71635" lon="2.53408">
        <ele>59</ele>
        <time>2017-09-05T09:06:50Z</time>
      </trkpt>
      <trkpt lat="48.71639" lon="2.53417">
        <ele>59</ele>
        <time>2017-09-05T09:06:50Z</time>
      </trkpt>
      <trkpt lat="48.71642" lon="2.53425">
        <ele>59</ele>
        <time>2017-09-05T09:07:06Z</time>
      </trkpt>
      <trkpt lat="48.71645" lon="2.53432">
        <ele>59</ele>
        <time>2017-09-05T09:07:06Z</time>
      </trkpt>
      <trkpt lat="48.71648" lon="2.53436">
        <ele>59</ele>
        <time>2017-09-05T09:07:06Z</time>
      </trkpt>
      <trkpt lat="48.71652" lon="2.53443">
        <ele>59</ele>
        <time>2017-09-05T09:07:06Z</time>
      </trkpt>
      <trkpt lat="48.71656" lon="2.5345">
        <ele>59</ele>
        <time>2017-09-05T09:07:22Z</time>
      </trkpt>
      <trkpt lat="48.71659" lon="2.53457">
        <ele>59</ele>
        <time>2017-09-05T09:07:22Z</time>
      </trkpt>
      <trkpt lat="48.71661" lon="2.53465">
        <ele>57</ele>
        <time>2017-09-05T09:07:22Z</time>
      </trkpt>
      <trkpt lat="48.71665" lon="2.53473">
        <ele>57</ele>
        <time>2017-09-05T09:07:22Z</time>
      </trkpt>
      <trkpt lat="48.71667" lon="2.5348">
        <ele>57</ele>
        <time>2017-09-05T09:07:38Z</time>
      </trkpt>
      <trkpt lat="48.7167" lon="2.53486">
        <ele>57</ele>
        <time>2017-09-05T09:07:38Z</time>
      </trkpt>
      <trkpt lat="48.71672" lon="2.53494">
        <ele>57</ele>
        <time>2017-09-05T09:07:38Z</time>
      </trkpt>
      <trkpt lat="48.71674" lon="2.53504">
        <ele>57</ele>
        <time>2017-09-05T09:07:38Z</time>
      </trkpt>
      <trkpt lat="48.71673" lon="2.53512">
        <ele>57</ele>
        <time>2017-09-05T09:07:54Z</time>
      </trkpt>
      <trkpt lat="48.71672" lon="2.5352">
        <ele>57</ele>
        <time>2017-09-05T09:07:54Z</time>
      </trkpt>
      <trkpt lat="48.71671" lon="2.53529">
        <ele>57</ele>
        <time>2017-09-05T09:07:54Z</time>
      </trkpt>
      <trkpt lat="48.71671" lon="2.53537">
        <ele>57</ele>
        <time>2017-09-05T09:07:54Z</time>
      </trkpt>
      <trkpt lat="48.71671" lon="2.53547">
        <ele>57</ele>
        <time>2017-09-05T09:08:10Z</time>
      </trkpt>
      <trkpt lat="48.71673" lon="2.53555">
        <ele>57</ele>
        <time>2017-09-05T09:08:10Z</time>
      </trkpt>
      <trkpt lat="48.71674" lon="2.53563">
        <ele>57</ele>
        <time>2017-09-05T09:08:10Z</time>
      </trkpt>
      <trkpt lat="48.71675" lon="2.53571">
        <ele>57</ele>
        <time>2017-09-05T09:08:10Z</time>
      </trkpt>
      <trkpt lat="48.71675" lon="2.53579">
        <ele>57</ele>
        <time>2017-09-05T09:08:26Z</time>
      </trkpt>
      <trkpt lat="48.71674" lon="2.53588">
        <ele>57</ele>
        <time>2017-09-05T09:08:26Z</time>
      </trkpt>
      <trkpt lat="48.71673" lon="2.53596">
        <ele>57</ele>
        <time>2017-09-05T09:08:26Z</time>
      </trkpt>
      <trkpt lat="48.71672" lon="2.53603">
        <ele>57</ele>
        <time>2017-09-05T09:08:26Z</time>
      </trkpt>
      <trkpt lat="48.7167" lon="2.53611">
        <ele>57</ele>
        <time>2017-09-05T09:08:42Z</time>
      </trkpt>
      <trkpt lat="48.7167" lon="2.53619">
        <ele>57</ele>
        <time>2017-09-05T09:08:42Z</time>
      </trkpt>
      <trkpt lat="48.71667" lon="2.53625">
        <ele>57</ele>
        <time>2017-09-05T09:08:42Z</time>
      </trkpt>
      <trkpt lat="48.71663" lon="2.53631">
        <ele>57</ele>
        <time>2017-09-05T09:08:42Z</time>
      </trkpt>
      <trkpt lat="48.71662" lon="2.53638">
        <ele>57</ele>
        <time>2017-09-05T09:08:58Z</time>
      </trkpt>
      <trkpt lat="48.71663" lon="2.53643">
        <ele>57</ele>
        <time>2017-09-05T09:08:58Z</time>
      </trkpt>
      <trkpt lat="48.71667" lon="2.53648">
        <ele>57</ele>
        <time>2017-09-05T09:08:58Z</time>
      </trkpt>
      <trkpt lat="48.71672" lon="2.53656">
        <ele>57</ele>
        <time>2017-09-05T09:08:58Z</time>
      </trkpt>
      <trkpt lat="48.71674" lon="2.53663">
        <ele>57</ele>
        <time>2017-09-05T09:09:14Z</time>
      </trkpt>
      <trkpt lat="48.71677" lon="2.53671">
        <ele>57</ele>
        <time>2017-09-05T09:09:14Z</time>
      </trkpt>
      <trkpt lat="48.71679" lon="2.53677">
        <ele>57</ele>
        <time>2017-09-05T09:09:14Z</time>
      </trkpt>
      <trkpt lat="48.7168" lon="2.53681">
        <ele>57</ele>
        <time>2017-09-05T09:09:14Z</time>
      </trkpt>
      <trkpt lat="48.71681" lon="2.53687">
        <ele>57</ele>
        <time>2017-09-05T09:09:30Z</time>
      </trkpt>
      <trkpt lat="48.71681" lon="2.53693">
        <ele>57</ele>
        <time>2017-09-05T09:09:30Z</time>
      </trkpt>
      <trkpt lat="48.71682" lon="2.53703">
        <ele>57</ele>
        <time>2017-09-05T09:09:30Z</time>
      </trkpt>
      <trkpt lat="48.71681" lon="2.53709">
        <ele>58</ele>
        <time>2017-09-05T09:09:30Z</time>
      </trkpt>
      <trkpt lat="48.71681" lon="2.53709">
        <ele>58</ele>
        <time>2017-09-05T09:09:46Z</time>
      </trkpt>
      <trkpt lat="48.71683" lon="2.53716">
        <ele>58</ele>
        <time>2017-09-05T09:09:46Z</time>
      </trkpt>
      <trkpt lat="48.71685" lon="2.53721">
        <ele>58</ele>
        <time>2017-09-05T09:09:46Z</time>
      </trkpt>
      <trkpt lat="48.71686" lon="2.53728">
        <ele>58</ele>
        <time>2017-09-05T09:09:46Z</time>
      </trkpt>
      <trkpt lat="48.71687" lon="2.53735">
        <ele>58</ele>
        <time>2017-09-05T09:10:02Z</time>
      </trkpt>
      <trkpt lat="48.71687" lon="2.53742">
        <ele>58</ele>
        <time>2017-09-05T09:10:02Z</time>
      </trkpt>
      <trkpt lat="48.71688" lon="2.53746">
        <ele>58</ele>
        <time>2017-09-05T09:10:02Z</time>
      </trkpt>
      <trkpt lat="48.71689" lon="2.53754">
        <ele>58</ele>
        <time>2017-09-05T09:10:02Z</time>
      </trkpt>
      <trkpt lat="48.71691" lon="2.53763">
        <ele>58</ele>
        <time>2017-09-05T09:10:18Z</time>
      </trkpt>
      <trkpt lat="48.71693" lon="2.53768">
        <ele>58</ele>
        <time>2017-09-05T09:10:18Z</time>
      </trkpt>
      <trkpt lat="48.71696" lon="2.53774">
        <ele>58</ele>
        <time>2017-09-05T09:10:18Z</time>
      </trkpt>
      <trkpt lat="48.71697" lon="2.5378">
        <ele>58</ele>
        <time>2017-09-05T09:10:18Z</time>
      </trkpt>
      <trkpt lat="48.71699" lon="2.53785">
        <ele>58</ele>
        <time>2017-09-05T09:10:34Z</time>
      </trkpt>
      <trkpt lat="48.71701" lon="2.53791">
        <ele>58</ele>
        <time>2017-09-05T09:10:34Z</time>
      </trkpt>
      <trkpt lat="48.71704" lon="2.53796">
        <ele>59</ele>
        <time>2017-09-05T09:10:34Z</time>
      </trkpt>
      <trkpt lat="48.71705" lon="2.53802">
        <ele>59</ele>
        <time>2017-09-05T09:10:34Z</time>
      </trkpt>
      <trkpt lat="48.71707" lon="2.5381">
        <ele>59</ele>
        <time>2017-09-05T09:10:50Z</time>
      </trkpt>
      <trkpt lat="48.7171" lon="2.53816">
        <ele>55</ele>
        <time>2017-09-05T09:10:50Z</time>
      </trkpt>
      <trkpt lat="48.71715" lon="2.53821">
        <ele>55</ele>
        <time>2017-09-05T09:10:50Z</time>
      </trkpt>
      <trkpt lat="48.71718" lon="2.53827">
        <ele>55</ele>
        <time>2017-09-05T09:10:50Z</time>
      </trkpt>
      <trkpt lat="48.71722" lon="2.53831">
        <ele>55</ele>
        <time>2017-09-05T09:11:06Z</time>
      </trkpt>
      <trkpt lat="48.71726" lon="2.53835">
        <ele>55</ele>
        <time>2017-09-05T09:11:06Z</time>
      </trkpt>
      <trkpt lat="48.7173" lon="2.53839">
        <ele>55</ele>
        <time>2017-09-05T09:11:06Z</time>
      </trkpt>
      <trkpt lat="48.71735" lon="2.53844">
        <ele>55</ele>
        <time>2017-09-05T09:11:06Z</time>
      </trkpt>
      <trkpt lat="48.7174" lon="2.5385">
        <ele>55</ele>
        <time>2017-09-05T09:11:22Z</time>
      </trkpt>
      <trkpt lat="48.71744" lon="2.53854">
        <ele>55</ele>
        <time>2017-09-05T09:11:22Z</time>
      </trkpt>
      <trkpt lat="48.71748" lon="2.5386">
        <ele>55</ele>
        <time>2017-09-05T09:11:22Z</time>
      </trkpt>
      <trkpt lat="48.71753" lon="2.53867">
        <ele>55</ele>
        <time>2017-09-05T09:11:22Z</time>
      </trkpt>
      <trkpt lat="48.71757" lon="2.53872">
        <ele>55</ele>
        <time>2017-09-05T09:11:38Z</time>
      </trkpt>
      <trkpt lat="48.71761" lon="2.53876">
        <ele>55</ele>
        <time>2017-09-05T09:11:38Z</time>
      </trkpt>
      <trkpt lat="48.71764" lon="2.53881">
        <ele>55</ele>
        <time>2017-09-05T09:11:38Z</time>
      </trkpt>
      <trkpt lat="48.71767" lon="2.53888">
        <ele>55</ele>
        <time>2017-09-05T09:11:38Z</time>
      </trkpt>
      <trkpt lat="48.71771" lon="2.53895">
        <ele>55</ele>
        <time>2017-09-05T09:11:54Z</time>
      </trkpt>
      <trkpt lat="48.71775" lon="2.53902">
        <ele>55</ele>
        <time>2017-09-05T09:11:54Z</time>
      </trkpt>
      <trkpt lat="48.7178" lon="2.53907">
        <ele>55</ele>
        <time>2017-09-05T09:11:54Z</time>
      </trkpt>
      <trkpt lat="48.71783" lon="2.53913">
        <ele>55</ele>
        <time>2017-09-05T09:11:54Z</time>
      </trkpt>
      <trkpt lat="48.71786" lon="2.53918">
        <ele>55</ele>
        <time>2017-09-05T09:12:10Z</time>
      </trkpt>
      <trkpt lat="48.7179" lon="2.53923">
        <ele>55</ele>
        <time>2017-09-05T09:12:10Z</time>
      </trkpt>
      <trkpt lat="48.71794" lon="2.53928">
        <ele>55</ele>
        <time>2017-09-05T09:12:10Z</time>
      </trkpt>
      <trkpt lat="48.71798" lon="2.53932">
        <ele>55</ele>
        <time>2017-09-05T09:12:10Z</time>
      </trkpt>
      <trkpt lat="48.71803" lon="2.53936">
        <ele>55</ele>
        <time>2017-09-05T09:12:26Z</time>
      </trkpt>
      <trkpt lat="48.71808" lon="2.53942">
        <ele>55</ele>
        <time>2017-09-05T09:12:26Z</time>
      </trkpt>
      <trkpt lat="48.7181" lon="2.53945">
        <ele>55</ele>
        <time>2017-09-05T09:12:26Z</time>
      </trkpt>
      <trkpt lat="48.71814" lon="2.53949">
        <ele>55</ele>
        <time>2017-09-05T09:12:26Z</time>
      </trkpt>
      <trkpt lat="48.71818" lon="2.53953">
        <ele>55</ele>
        <time>2017-09-05T09:12:42Z</time>
      </trkpt>
      <trkpt lat="48.71821" lon="2.53958">
        <ele>55</ele>
        <time>2017-09-05T09:12:42Z</time>
      </trkpt>
      <trkpt lat="48.71824" lon="2.53965">
        <ele>55</ele>
        <time>2017-09-05T09:12:42Z</time>
      </trkpt>
      <trkpt lat="48.71825" lon="2.5397">
        <ele>55</ele>
        <time>2017-09-05T09:12:42Z</time>
      </trkpt>
      <trkpt lat="48.71826" lon="2.53973">
        <ele>55</ele>
        <time>2017-09-05T09:12:58Z</time>
      </trkpt>
      <trkpt lat="48.71828" lon="2.5398">
        <ele>55</ele>
        <time>2017-09-05T09:12:58Z</time>
      </trkpt>
      <trkpt lat="48.7183" lon="2.53987">
        <ele>55</ele>
        <time>2017-09-05T09:12:58Z</time>
      </trkpt>
      <trkpt lat="48.71833" lon="2.53992">
        <ele>55</ele>
        <time>2017-09-05T09:12:58Z</time>
      </trkpt>
      <trkpt lat="48.71839" lon="2.54003">
        <ele>55</ele>
        <time>2017-09-05T09:13:14Z</time>
      </trkpt>
      <trkpt lat="48.71842" lon="2.54008">
        <ele>55</ele>
        <time>2017-09-05T09:13:14Z</time>
      </trkpt>
      <trkpt lat="48.71844" lon="2.54011">
        <ele>55</ele>
        <time>2017-09-05T09:13:14Z</time>
      </trkpt>
      <trkpt lat="48.71846" lon="2.54016">
        <ele>55</ele>
        <time>2017-09-05T09:13:14Z</time>
      </trkpt>
      <trkpt lat="48.71851" lon="2.5402">
        <ele>55</ele>
        <time>2017-09-05T09:13:30Z</time>
      </trkpt>
      <trkpt lat="48.71855" lon="2.54024">
        <ele>55</ele>
        <time>2017-09-05T09:13:30Z</time>
      </trkpt>
      <trkpt lat="48.71859" lon="2.54028">
        <ele>55</ele>
        <time>2017-09-05T09:13:30Z</time>
      </trkpt>
      <trkpt lat="48.71863" lon="2.54032">
        <ele>55</ele>
        <time>2017-09-05T09:13:30Z</time>
      </trkpt>
      <trkpt lat="48.71868" lon="2.54035">
        <ele>55</ele>
        <time>2017-09-05T09:13:46Z</time>
      </trkpt>
      <trkpt lat="48.71874" lon="2.54041">
        <ele>55</ele>
        <time>2017-09-05T09:13:46Z</time>
      </trkpt>
      <trkpt lat="48.71877" lon="2.54045">
        <ele>56</ele>
        <time>2017-09-05T09:13:46Z</time>
      </trkpt>
      <trkpt lat="48.71881" lon="2.54051">
        <ele>56</ele>
        <time>2017-09-05T09:13:46Z</time>
      </trkpt>
      <trkpt lat="48.71884" lon="2.54056">
        <ele>56</ele>
        <time>2017-09-05T09:14:02Z</time>
      </trkpt>
      <trkpt lat="48.71887" lon="2.54062">
        <ele>56</ele>
        <time>2017-09-05T09:14:02Z</time>
      </trkpt>
      <trkpt lat="48.71892" lon="2.5407">
        <ele>56</ele>
        <time>2017-09-05T09:14:02Z</time>
      </trkpt>
      <trkpt lat="48.71895" lon="2.54077">
        <ele>56</ele>
        <time>2017-09-05T09:14:02Z</time>
      </trkpt>
      <trkpt lat="48.71897" lon="2.54084">
        <ele>56</ele>
        <time>2017-09-05T09:14:18Z</time>
      </trkpt>
      <trkpt lat="48.71899" lon="2.54094">
        <ele>56</ele>
        <time>2017-09-05T09:14:18Z</time>
      </trkpt>
      <trkpt lat="48.719" lon="2.541">
        <ele>56</ele>
        <time>2017-09-05T09:14:18Z</time>
      </trkpt>
      <trkpt lat="48.71901" lon="2.5411">
        <ele>56</ele>
        <time>2017-09-05T09:14:18Z</time>
      </trkpt>
      <trkpt lat="48.71901" lon="2.54132">
        <ele>58</ele>
        <time>2017-09-05T09:15:34Z</time>
      </trkpt>
      <trkpt lat="48.71901" lon="2.54132">
        <ele>58</ele>
        <time>2017-09-05T09:15:34Z</time>
      </trkpt>
      <trkpt lat="48.71901" lon="2.54133">
        <ele>58</ele>
        <time>2017-09-05T09:15:34Z</time>
      </trkpt>
      <trkpt lat="48.71901" lon="2.54133">
        <ele>58</ele>
        <time>2017-09-05T09:15:34Z</time>
      </trkpt>
      <trkpt lat="48.71901" lon="2.54134">
        <ele>58</ele>
        <time>2017-09-05T09:15:34Z</time>
      </trkpt>
      <trkpt lat="48.71901" lon="2.54134">
        <ele>58</ele>
        <time>2017-09-05T09:16:06Z</time>
      </trkpt>
      <trkpt lat="48.71904" lon="2.54131">
        <ele>58</ele>
        <time>2017-09-05T09:16:06Z</time>
      </trkpt>
      <trkpt lat="48.71906" lon="2.54129">
        <ele>58</ele>
        <time>2017-09-05T09:16:06Z</time>
      </trkpt>
      <trkpt lat="48.71909" lon="2.54126">
        <ele>58</ele>
        <time>2017-09-05T09:16:06Z</time>
      </trkpt>
      <trkpt lat="48.7191" lon="2.54124">
        <ele>56</ele>
        <time>2017-09-05T09:16:06Z</time>
      </trkpt>
      <trkpt lat="48.71912" lon="2.54119">
        <ele>56</ele>
        <time>2017-09-05T09:17:18Z</time>
      </trkpt>
      <trkpt lat="48.7191" lon="2.54125">
        <ele>58</ele>
        <time>2017-09-05T09:17:18Z</time>
      </trkpt>
      <trkpt lat="48.71906" lon="2.54132">
        <ele>58</ele>
        <time>2017-09-05T09:17:18Z</time>
      </trkpt>
      <trkpt lat="48.71904" lon="2.54139">
        <ele>58</ele>
        <time>2017-09-05T09:17:18Z</time>
      </trkpt>
      <trkpt lat="48.71903" lon="2.5414">
        <ele>58</ele>
        <time>2017-09-05T09:17:18Z</time>
      </trkpt>
      <trkpt lat="48.71905" lon="2.54138">
        <ele>58</ele>
        <time>2017-09-05T09:18:06Z</time>
      </trkpt>
      <trkpt lat="48.71908" lon="2.54141">
        <ele>58</ele>
        <time>2017-09-05T09:18:06Z</time>
      </trkpt>
      <trkpt lat="48.71909" lon="2.54145">
        <ele>58</ele>
        <time>2017-09-05T09:18:06Z</time>
      </trkpt>
      <trkpt lat="48.71912" lon="2.5415">
        <ele>58</ele>
        <time>2017-09-05T09:18:06Z</time>
      </trkpt>
      <trkpt lat="48.71915" lon="2.54154">
        <ele>58</ele>
        <time>2017-09-05T09:18:06Z</time>
      </trkpt>
      <trkpt lat="48.71916" lon="2.54158">
        <ele>58</ele>
        <time>2017-09-05T09:18:22Z</time>
      </trkpt>
      <trkpt lat="48.71918" lon="2.54163">
        <ele>58</ele>
        <time>2017-09-05T09:18:22Z</time>
      </trkpt>
      <trkpt lat="48.71921" lon="2.54168">
        <ele>58</ele>
        <time>2017-09-05T09:18:22Z</time>
      </trkpt>
      <trkpt lat="48.71923" lon="2.54173">
        <ele>58</ele>
        <time>2017-09-05T09:18:22Z</time>
      </trkpt>
      <trkpt lat="48.71925" lon="2.54177">
        <ele>58</ele>
        <time>2017-09-05T09:18:38Z</time>
      </trkpt>
      <trkpt lat="48.71926" lon="2.54184">
        <ele>58</ele>
        <time>2017-09-05T09:18:38Z</time>
      </trkpt>
      <trkpt lat="48.71928" lon="2.54191">
        <ele>58</ele>
        <time>2017-09-05T09:18:38Z</time>
      </trkpt>
      <trkpt lat="48.71929" lon="2.54193">
        <ele>58</ele>
        <time>2017-09-05T09:18:38Z</time>
      </trkpt>
      <trkpt lat="48.71929" lon="2.54193">
        <ele>58</ele>
        <time>2017-09-05T09:18:58Z</time>
      </trkpt>
      <trkpt lat="48.7193" lon="2.54193">
        <ele>58</ele>
        <time>2017-09-05T09:18:58Z</time>
      </trkpt>
      <trkpt lat="48.7193" lon="2.54194">
        <ele>58</ele>
        <time>2017-09-05T09:18:58Z</time>
      </trkpt>
      <trkpt lat="48.71932" lon="2.54198">
        <ele>58</ele>
        <time>2017-09-05T09:18:58Z</time>
      </trkpt>
      <trkpt lat="48.71935" lon="2.54204">
        <ele>58</ele>
        <time>2017-09-05T09:18:58Z</time>
      </trkpt>
      <trkpt lat="48.71938" lon="2.54213">
        <ele>60</ele>
        <time>2017-09-05T09:19:14Z</time>
      </trkpt>
      <trkpt lat="48.71942" lon="2.5422">
        <ele>60</ele>
        <time>2017-09-05T09:19:14Z</time>
      </trkpt>
      <trkpt lat="48.71945" lon="2.54228">
        <ele>60</ele>
        <time>2017-09-05T09:19:14Z</time>
      </trkpt>
      <trkpt lat="48.71949" lon="2.54237">
        <ele>60</ele>
        <time>2017-09-05T09:19:14Z</time>
      </trkpt>
      <trkpt lat="48.71952" lon="2.54243">
        <ele>60</ele>
        <time>2017-09-05T09:19:30Z</time>
      </trkpt>
      <trkpt lat="48.71955" lon="2.54248">
        <ele>60</ele>
        <time>2017-09-05T09:19:30Z</time>
      </trkpt>
      <trkpt lat="48.71958" lon="2.54251">
        <ele>60</ele>
        <time>2017-09-05T09:19:30Z</time>
      </trkpt>
      <trkpt lat="48.71959" lon="2.54256">
        <ele>57</ele>
        <time>2017-09-05T09:19:30Z</time>
      </trkpt>
      <trkpt lat="48.71964" lon="2.54266">
        <ele>57</ele>
        <time>2017-09-05T09:19:46Z</time>
      </trkpt>
      <trkpt lat="48.71967" lon="2.54271">
        <ele>57</ele>
        <time>2017-09-05T09:19:46Z</time>
      </trkpt>
      <trkpt lat="48.71972" lon="2.54275">
        <ele>57</ele>
        <time>2017-09-05T09:19:46Z</time>
      </trkpt>
      <trkpt lat="48.71976" lon="2.54279">
        <ele>57</ele>
        <time>2017-09-05T09:19:46Z</time>
      </trkpt>
      <trkpt lat="48.71979" lon="2.54284">
        <ele>57</ele>
        <time>2017-09-05T09:20:02Z</time>
      </trkpt>
      <trkpt lat="48.71984" lon="2.54286">
        <ele>57</ele>
        <time>2017-09-05T09:20:02Z</time>
      </trkpt>
      <trkpt lat="48.71988" lon="2.54287">
        <ele>57</ele>
        <time>2017-09-05T09:20:02Z</time>
      </trkpt>
      <trkpt lat="48.71995" lon="2.5429">
        <ele>57</ele>
        <time>2017-09-05T09:20:02Z</time>
      </trkpt>
      <trkpt lat="48.72001" lon="2.54293">
        <ele>59</ele>
        <time>2017-09-05T09:20:18Z</time>
      </trkpt>
      <trkpt lat="48.72005" lon="2.54297">
        <ele>59</ele>
        <time>2017-09-05T09:20:18Z</time>
      </trkpt>
      <trkpt lat="48.72009" lon="2.54303">
        <ele>59</ele>
        <time>2017-09-05T09:20:18Z</time>
      </trkpt>
      <trkpt lat="48.72012" lon="2.54308">
        <ele>59</ele>
        <time>2017-09-05T09:20:18Z</time>
      </trkpt>
      <trkpt lat="48.72016" lon="2.54313">
        <ele>59</ele>
        <time>2017-09-05T09:20:34Z</time>
      </trkpt>
      <trkpt lat="48.72021" lon="2.54317">
        <ele>59</ele>
        <time>2017-09-05T09:20:34Z</time>
      </trkpt>
      <trkpt lat="48.72025" lon="2.54319">
        <ele>59</ele>
        <time>2017-09-05T09:20:34Z</time>
      </trkpt>
      <trkpt lat="48.72029" lon="2.54321">
        <ele>59</ele>
        <time>2017-09-05T09:20:34Z</time>
      </trkpt>
      <trkpt lat="48.72032" lon="2.54325">
        <ele>59</ele>
        <time>2017-09-05T09:20:50Z</time>
      </trkpt>
      <trkpt lat="48.72038" lon="2.54327">
        <ele>59</ele>
        <time>2017-09-05T09:20:50Z</time>
      </trkpt>
      <trkpt lat="48.72042" lon="2.54329">
        <ele>57</ele>
        <time>2017-09-05T09:20:50Z</time>
      </trkpt>
      <trkpt lat="48.72044" lon="2.54323">
        <ele>57</ele>
        <time>2017-09-05T09:20:50Z</time>
      </trkpt>
      <trkpt lat="48.72046" lon="2.54315">
        <ele>57</ele>
        <time>2017-09-05T09:21:06Z</time>
      </trkpt>
      <trkpt lat="48.72049" lon="2.54308">
        <ele>57</ele>
        <time>2017-09-05T09:21:06Z</time>
      </trkpt>
      <trkpt lat="48.7205" lon="2.543">
        <ele>57</ele>
        <time>2017-09-05T09:21:06Z</time>
      </trkpt>
      <trkpt lat="48.72052" lon="2.54293">
        <ele>57</ele>
        <time>2017-09-05T09:21:06Z</time>
      </trkpt>
      <trkpt lat="48.72056" lon="2.54287">
        <ele>58</ele>
        <time>2017-09-05T09:21:22Z</time>
      </trkpt>
      <trkpt lat="48.72061" lon="2.54284">
        <ele>58</ele>
        <time>2017-09-05T09:21:22Z</time>
      </trkpt>
      <trkpt lat="48.72066" lon="2.54282">
        <ele>58</ele>
        <time>2017-09-05T09:21:22Z</time>
      </trkpt>
      <trkpt lat="48.72073" lon="2.54282">
        <ele>58</ele>
        <time>2017-09-05T09:21:22Z</time>
      </trkpt>
      <trkpt lat="48.72079" lon="2.54282">
        <ele>58</ele>
        <time>2017-09-05T09:21:38Z</time>
      </trkpt>
      <trkpt lat="48.72084" lon="2.54281">
        <ele>58</ele>
        <time>2017-09-05T09:21:38Z</time>
      </trkpt>
      <trkpt lat="48.72089" lon="2.54282">
        <ele>58</ele>
        <time>2017-09-05T09:21:38Z</time>
      </trkpt>
      <trkpt lat="48.72094" lon="2.54284">
        <ele>58</ele>
        <time>2017-09-05T09:21:38Z</time>
      </trkpt>
      <trkpt lat="48.72099" lon="2.54287">
        <ele>58</ele>
        <time>2017-09-05T09:21:54Z</time>
      </trkpt>
      <trkpt lat="48.72104" lon="2.5429">
        <ele>58</ele>
        <time>2017-09-05T09:21:54Z</time>
      </trkpt>
      <trkpt lat="48.7211" lon="2.54292">
        <ele>58</ele>
        <time>2017-09-05T09:21:54Z</time>
      </trkpt>
      <trkpt lat="48.72115" lon="2.54296">
        <ele>57</ele>
        <time>2017-09-05T09:21:54Z</time>
      </trkpt>
      <trkpt lat="48.72122" lon="2.54298">
        <ele>57</ele>
        <time>2017-09-05T09:22:10Z</time>
      </trkpt>
      <trkpt lat="48.72129" lon="2.54296">
        <ele>58</ele>
        <time>2017-09-05T09:22:10Z</time>
      </trkpt>
      <trkpt lat="48.72134" lon="2.54296">
        <ele>58</ele>
        <time>2017-09-05T09:22:10Z</time>
      </trkpt>
      <trkpt lat="48.7214" lon="2.543">
        <ele>58</ele>
        <time>2017-09-05T09:22:10Z</time>
      </trkpt>
      <trkpt lat="48.72147" lon="2.54302">
        <ele>58</ele>
        <time>2017-09-05T09:22:26Z</time>
      </trkpt>
      <trkpt lat="48.72153" lon="2.54303">
        <ele>58</ele>
        <time>2017-09-05T09:22:26Z</time>
      </trkpt>
      <trkpt lat="48.72157" lon="2.54305">
        <ele>58</ele>
        <time>2017-09-05T09:22:26Z</time>
      </trkpt>
      <trkpt lat="48.72163" lon="2.54305">
        <ele>58</ele>
        <time>2017-09-05T09:22:26Z</time>
      </trkpt>
      <trkpt lat="48.72168" lon="2.54306">
        <ele>58</ele>
        <time>2017-09-05T09:22:42Z</time>
      </trkpt>
      <trkpt lat="48.72174" lon="2.54308">
        <ele>58</ele>
        <time>2017-09-05T09:22:42Z</time>
      </trkpt>
      <trkpt lat="48.7218" lon="2.5431">
        <ele>58</ele>
        <time>2017-09-05T09:22:42Z</time>
      </trkpt>
      <trkpt lat="48.72186" lon="2.54313">
        <ele>58</ele>
        <time>2017-09-05T09:22:42Z</time>
      </trkpt>
      <trkpt lat="48.72194" lon="2.54315">
        <ele>58</ele>
        <time>2017-09-05T09:22:58Z</time>
      </trkpt>
      <trkpt lat="48.722" lon="2.54318">
        <ele>58</ele>
        <time>2017-09-05T09:22:58Z</time>
      </trkpt>
      <trkpt lat="48.72205" lon="2.54321">
        <ele>58</ele>
        <time>2017-09-05T09:22:58Z</time>
      </trkpt>
      <trkpt lat="48.72211" lon="2.54325">
        <ele>60</ele>
        <time>2017-09-05T09:22:58Z</time>
      </trkpt>
      <trkpt lat="48.72216" lon="2.54327">
        <ele>60</ele>
        <time>2017-09-05T09:23:14Z</time>
      </trkpt>
      <trkpt lat="48.72221" lon="2.54329">
        <ele>60</ele>
        <time>2017-09-05T09:23:14Z</time>
      </trkpt>
      <trkpt lat="48.72225" lon="2.54331">
        <ele>60</ele>
        <time>2017-09-05T09:23:14Z</time>
      </trkpt>
      <trkpt lat="48.72231" lon="2.54334">
        <ele>60</ele>
        <time>2017-09-05T09:23:14Z</time>
      </trkpt>
      <trkpt lat="48.72238" lon="2.54338">
        <ele>60</ele>
        <time>2017-09-05T09:23:30Z</time>
      </trkpt>
      <trkpt lat="48.72239" lon="2.54345">
        <ele>60</ele>
        <time>2017-09-05T09:23:30Z</time>
      </trkpt>
      <trkpt lat="48.72238" lon="2.54353">
        <ele>60</ele>
        <time>2017-09-05T09:23:30Z</time>
      </trkpt>
      <trkpt lat="48.72235" lon="2.54359">
        <ele>60</ele>
        <time>2017-09-05T09:23:30Z</time>
      </trkpt>
      <trkpt lat="48.72235" lon="2.54368">
        <ele>60</ele>
        <time>2017-09-05T09:23:46Z</time>
      </trkpt>
      <trkpt lat="48.72237" lon="2.54374">
        <ele>60</ele>
        <time>2017-09-05T09:23:46Z</time>
      </trkpt>
      <trkpt lat="48.72238" lon="2.54378">
        <ele>58</ele>
        <time>2017-09-05T09:23:46Z</time>
      </trkpt>
      <trkpt lat="48.72239" lon="2.54384">
        <ele>58</ele>
        <time>2017-09-05T09:23:46Z</time>
      </trkpt>
      <trkpt lat="48.72242" lon="2.54392">
        <ele>58</ele>
        <time>2017-09-05T09:24:02Z</time>
      </trkpt>
      <trkpt lat="48.72244" lon="2.54396">
        <ele>58</ele>
        <time>2017-09-05T09:24:02Z</time>
      </trkpt>
      <trkpt lat="48.72244" lon="2.54408">
        <ele>58</ele>
        <time>2017-09-05T09:24:02Z</time>
      </trkpt>
      <trkpt lat="48.72243" lon="2.54415">
        <ele>58</ele>
        <time>2017-09-05T09:24:02Z</time>
      </trkpt>
      <trkpt lat="48.72241" lon="2.54421">
        <ele>58</ele>
        <time>2017-09-05T09:24:18Z</time>
      </trkpt>
      <trkpt lat="48.7224" lon="2.54431">
        <ele>58</ele>
        <time>2017-09-05T09:24:18Z</time>
      </trkpt>
      <trkpt lat="48.72238" lon="2.54441">
        <ele>58</ele>
        <time>2017-09-05T09:24:18Z</time>
      </trkpt>
      <trkpt lat="48.72236" lon="2.54448">
        <ele>58</ele>
        <time>2017-09-05T09:24:18Z</time>
      </trkpt>
      <trkpt lat="48.72236" lon="2.54452">
        <ele>58</ele>
        <time>2017-09-05T09:24:34Z</time>
      </trkpt>
      <trkpt lat="48.72237" lon="2.54458">
        <ele>59</ele>
        <time>2017-09-05T09:24:34Z</time>
      </trkpt>
      <trkpt lat="48.72239" lon="2.54464">
        <ele>59</ele>
        <time>2017-09-05T09:24:34Z</time>
      </trkpt>
      <trkpt lat="48.72238" lon="2.54473">
        <ele>59</ele>
        <time>2017-09-05T09:24:34Z</time>
      </trkpt>
      <trkpt lat="48.72237" lon="2.5448">
        <ele>59</ele>
        <time>2017-09-05T09:24:50Z</time>
      </trkpt>
      <trkpt lat="48.72235" lon="2.54491">
        <ele>59</ele>
        <time>2017-09-05T09:24:50Z</time>
      </trkpt>
      <trkpt lat="48.72234" lon="2.54499">
        <ele>59</ele>
        <time>2017-09-05T09:24:50Z</time>
      </trkpt>
      <trkpt lat="48.72234" lon="2.54508">
        <ele>59</ele>
        <time>2017-09-05T09:24:50Z</time>
      </trkpt>
      <trkpt lat="48.72234" lon="2.54513">
        <ele>59</ele>
        <time>2017-09-05T09:25:06Z</time>
      </trkpt>
      <trkpt lat="48.72234" lon="2.54523">
        <ele>59</ele>
        <time>2017-09-05T09:25:06Z</time>
      </trkpt>
      <trkpt lat="48.72234" lon="2.54528">
        <ele>59</ele>
        <time>2017-09-05T09:25:06Z</time>
      </trkpt>
      <trkpt lat="48.72234" lon="2.5454">
        <ele>59</ele>
        <time>2017-09-05T09:25:06Z</time>
      </trkpt>
      <trkpt lat="48.72234" lon="2.54547">
        <ele>67</ele>
        <time>2017-09-05T09:25:22Z</time>
      </trkpt>
      <trkpt lat="48.72235" lon="2.54553">
        <ele>67</ele>
        <time>2017-09-05T09:25:22Z</time>
      </trkpt>
      <trkpt lat="48.72235" lon="2.54563">
        <ele>67</ele>
        <time>2017-09-05T09:25:22Z</time>
      </trkpt>
      <trkpt lat="48.72235" lon="2.54572">
        <ele>67</ele>
        <time>2017-09-05T09:25:22Z</time>
      </trkpt>
      <trkpt lat="48.72235" lon="2.54579">
        <ele>67</ele>
        <time>2017-09-05T09:25:38Z</time>
      </trkpt>
      <trkpt lat="48.72235" lon="2.54586">
        <ele>67</ele>
        <time>2017-09-05T09:25:38Z</time>
      </trkpt>
      <trkpt lat="48.72236" lon="2.54591">
        <ele>67</ele>
        <time>2017-09-05T09:25:38Z</time>
      </trkpt>
      <trkpt lat="48.72236" lon="2.54598">
        <ele>67</ele>
        <time>2017-09-05T09:25:38Z</time>
      </trkpt>
      <trkpt lat="48.72237" lon="2.54607">
        <ele>67</ele>
        <time>2017-09-05T09:25:54Z</time>
      </trkpt>
      <trkpt lat="48.72236" lon="2.5461">
        <ele>67</ele>
        <time>2017-09-05T09:25:54Z</time>
      </trkpt>
      <trkpt lat="48.72234" lon="2.54617">
        <ele>67</ele>
        <time>2017-09-05T09:25:54Z</time>
      </trkpt>
      <trkpt lat="48.72232" lon="2.54625">
        <ele>67</ele>
        <time>2017-09-05T09:25:54Z</time>
      </trkpt>
      <trkpt lat="48.72231" lon="2.5463">
        <ele>74</ele>
        <time>2017-09-05T09:26:10Z</time>
      </trkpt>
      <trkpt lat="48.72229" lon="2.54635">
        <ele>74</ele>
        <time>2017-09-05T09:26:10Z</time>
      </trkpt>
      <trkpt lat="48.72225" lon="2.54642">
        <ele>74</ele>
        <time>2017-09-05T09:26:10Z</time>
      </trkpt>
      <trkpt lat="48.72222" lon="2.54649">
        <ele>74</ele>
        <time>2017-09-05T09:26:10Z</time>
      </trkpt>
      <trkpt lat="48.72221" lon="2.54658">
        <ele>74</ele>
        <time>2017-09-05T09:26:26Z</time>
      </trkpt>
      <trkpt lat="48.72219" lon="2.54664">
        <ele>74</ele>
        <time>2017-09-05T09:26:26Z</time>
      </trkpt>
      <trkpt lat="48.72217" lon="2.54668">
        <ele>74</ele>
        <time>2017-09-05T09:26:26Z</time>
      </trkpt>
      <trkpt lat="48.72216" lon="2.54675">
        <ele>74</ele>
        <time>2017-09-05T09:26:26Z</time>
      </trkpt>
      <trkpt lat="48.72213" lon="2.54682">
        <ele>74</ele>
        <time>2017-09-05T09:26:42Z</time>
      </trkpt>
      <trkpt lat="48.72211" lon="2.54688">
        <ele>74</ele>
        <time>2017-09-05T09:26:42Z</time>
      </trkpt>
      <trkpt lat="48.7221" lon="2.54695">
        <ele>74</ele>
        <time>2017-09-05T09:26:42Z</time>
      </trkpt>
      <trkpt lat="48.7221" lon="2.54701">
        <ele>74</ele>
        <time>2017-09-05T09:26:42Z</time>
      </trkpt>
      <trkpt lat="48.7221" lon="2.54706">
        <ele>74</ele>
        <time>2017-09-05T09:26:58Z</time>
      </trkpt>
      <trkpt lat="48.72211" lon="2.54713">
        <ele>75</ele>
        <time>2017-09-05T09:26:58Z</time>
      </trkpt>
      <trkpt lat="48.72209" lon="2.54718">
        <ele>75</ele>
        <time>2017-09-05T09:26:58Z</time>
      </trkpt>
      <trkpt lat="48.72204" lon="2.54724">
        <ele>79</ele>
        <time>2017-09-05T09:26:58Z</time>
      </trkpt>
      <trkpt lat="48.722" lon="2.54725">
        <ele>79</ele>
        <time>2017-09-05T09:27:14Z</time>
      </trkpt>
      <trkpt lat="48.72196" lon="2.54728">
        <ele>79</ele>
        <time>2017-09-05T09:27:14Z</time>
      </trkpt>
      <trkpt lat="48.72188" lon="2.54733">
        <ele>79</ele>
        <time>2017-09-05T09:27:14Z</time>
      </trkpt>
      <trkpt lat="48.72185" lon="2.54736">
        <ele>79</ele>
        <time>2017-09-05T09:27:14Z</time>
      </trkpt>
      <trkpt lat="48.7218" lon="2.54739">
        <ele>79</ele>
        <time>2017-09-05T09:27:30Z</time>
      </trkpt>
      <trkpt lat="48.72174" lon="2.54738">
        <ele>79</ele>
        <time>2017-09-05T09:27:30Z</time>
      </trkpt>
      <trkpt lat="48.72168" lon="2.54738">
        <ele>79</ele>
        <time>2017-09-05T09:27:30Z</time>
      </trkpt>
      <trkpt lat="48.72164" lon="2.5474">
        <ele>79</ele>
        <time>2017-09-05T09:27:30Z</time>
      </trkpt>
      <trkpt lat="48.72159" lon="2.5474">
        <ele>79</ele>
        <time>2017-09-05T09:27:46Z</time>
      </trkpt>
      <trkpt lat="48.72154" lon="2.5474">
        <ele>79</ele>
        <time>2017-09-05T09:27:46Z</time>
      </trkpt>
      <trkpt lat="48.72149" lon="2.5474">
        <ele>79</ele>
        <time>2017-09-05T09:27:46Z</time>
      </trkpt>
      <trkpt lat="48.72143" lon="2.54742">
        <ele>79</ele>
        <time>2017-09-05T09:27:46Z</time>
      </trkpt>
      <trkpt lat="48.72138" lon="2.54742">
        <ele>79</ele>
        <time>2017-09-05T09:28:06Z</time>
      </trkpt>
      <trkpt lat="48.72138" lon="2.54744">
        <ele>79</ele>
        <time>2017-09-05T09:28:06Z</time>
      </trkpt>
      <trkpt lat="48.72135" lon="2.54746">
        <ele>79</ele>
        <time>2017-09-05T09:28:06Z</time>
      </trkpt>
      <trkpt lat="48.72131" lon="2.54749">
        <ele>79</ele>
        <time>2017-09-05T09:28:06Z</time>
      </trkpt>
      <trkpt lat="48.72123" lon="2.54753">
        <ele>78</ele>
        <time>2017-09-05T09:28:06Z</time>
      </trkpt>
      <trkpt lat="48.72117" lon="2.54756">
        <ele>78</ele>
        <time>2017-09-05T09:28:22Z</time>
      </trkpt>
      <trkpt lat="48.72111" lon="2.54757">
        <ele>78</ele>
        <time>2017-09-05T09:28:22Z</time>
      </trkpt>
      <trkpt lat="48.72107" lon="2.54759">
        <ele>78</ele>
        <time>2017-09-05T09:28:22Z</time>
      </trkpt>
      <trkpt lat="48.721" lon="2.54764">
        <ele>78</ele>
        <time>2017-09-05T09:28:22Z</time>
      </trkpt>
      <trkpt lat="48.72095" lon="2.54762">
        <ele>78</ele>
        <time>2017-09-05T09:28:38Z</time>
      </trkpt>
      <trkpt lat="48.72091" lon="2.54761">
        <ele>78</ele>
        <time>2017-09-05T09:28:38Z</time>
      </trkpt>
      <trkpt lat="48.72086" lon="2.5476">
        <ele>78</ele>
        <time>2017-09-05T09:28:38Z</time>
      </trkpt>
      <trkpt lat="48.72081" lon="2.5476">
        <ele>78</ele>
        <time>2017-09-05T09:28:38Z</time>
      </trkpt>
      <trkpt lat="48.72072" lon="2.5476">
        <ele>78</ele>
        <time>2017-09-05T09:28:54Z</time>
      </trkpt>
      <trkpt lat="48.72067" lon="2.5476">
        <ele>78</ele>
        <time>2017-09-05T09:28:54Z</time>
      </trkpt>
      <trkpt lat="48.72065" lon="2.54763">
        <ele>78</ele>
        <time>2017-09-05T09:28:54Z</time>
      </trkpt>
      <trkpt lat="48.7206" lon="2.54765">
        <ele>78</ele>
        <time>2017-09-05T09:28:54Z</time>
      </trkpt>
      <trkpt lat="48.72054" lon="2.54766">
        <ele>78</ele>
        <time>2017-09-05T09:29:10Z</time>
      </trkpt>
      <trkpt lat="48.72049" lon="2.54764">
        <ele>78</ele>
        <time>2017-09-05T09:29:10Z</time>
      </trkpt>
      <trkpt lat="48.72042" lon="2.54764">
        <ele>78</ele>
        <time>2017-09-05T09:29:10Z</time>
      </trkpt>
      <trkpt lat="48.72034" lon="2.54766">
        <ele>80</ele>
        <time>2017-09-05T09:29:10Z</time>
      </trkpt>
      <trkpt lat="48.72029" lon="2.54767">
        <ele>80</ele>
        <time>2017-09-05T09:29:26Z</time>
      </trkpt>
      <trkpt lat="48.72022" lon="2.54767">
        <ele>80</ele>
        <time>2017-09-05T09:29:26Z</time>
      </trkpt>
      <trkpt lat="48.72015" lon="2.54767">
        <ele>80</ele>
        <time>2017-09-05T09:29:26Z</time>
      </trkpt>
      <trkpt lat="48.72009" lon="2.54768">
        <ele>80</ele>
        <time>2017-09-05T09:29:26Z</time>
      </trkpt>
      <trkpt lat="48.72005" lon="2.54769">
        <ele>80</ele>
        <time>2017-09-05T09:29:42Z</time>
      </trkpt>
      <trkpt lat="48.72001" lon="2.54768">
        <ele>80</ele>
        <time>2017-09-05T09:29:42Z</time>
      </trkpt>
      <trkpt lat="48.71996" lon="2.54768">
        <ele>80</ele>
        <time>2017-09-05T09:29:42Z</time>
      </trkpt>
      <trkpt lat="48.7199" lon="2.54772">
        <ele>80</ele>
        <time>2017-09-05T09:29:42Z</time>
      </trkpt>
      <trkpt lat="48.71985" lon="2.54772">
        <ele>80</ele>
        <time>2017-09-05T09:29:58Z</time>
      </trkpt>
      <trkpt lat="48.71976" lon="2.54774">
        <ele>80</ele>
        <time>2017-09-05T09:29:58Z</time>
      </trkpt>
      <trkpt lat="48.71971" lon="2.54775">
        <ele>80</ele>
        <time>2017-09-05T09:29:58Z</time>
      </trkpt>
      <trkpt lat="48.71967" lon="2.54774">
        <ele>80</ele>
        <time>2017-09-05T09:29:58Z</time>
      </trkpt>
      <trkpt lat="48.71961" lon="2.54774">
        <ele>80</ele>
        <time>2017-09-05T09:30:14Z</time>
      </trkpt>
      <trkpt lat="48.71956" lon="2.54774">
        <ele>79</ele>
        <time>2017-09-05T09:30:14Z</time>
      </trkpt>
      <trkpt lat="48.7195" lon="2.54773">
        <ele>79</ele>
        <time>2017-09-05T09:30:14Z</time>
      </trkpt>
      <trkpt lat="48.71944" lon="2.54776">
        <ele>79</ele>
        <time>2017-09-05T09:30:14Z</time>
      </trkpt>
      <trkpt lat="48.71936" lon="2.54777">
        <ele>79</ele>
        <time>2017-09-05T09:30:30Z</time>
      </trkpt>
      <trkpt lat="48.71932" lon="2.54779">
        <ele>79</ele>
        <time>2017-09-05T09:30:30Z</time>
      </trkpt>
      <trkpt lat="48.71929" lon="2.54779">
        <ele>79</ele>
        <time>2017-09-05T09:30:30Z</time>
      </trkpt>
      <trkpt lat="48.71921" lon="2.54781">
        <ele>79</ele>
        <time>2017-09-05T09:30:30Z</time>
      </trkpt>
      <trkpt lat="48.71917" lon="2.54782">
        <ele>79</ele>
        <time>2017-09-05T09:30:46Z</time>
      </trkpt>
      <trkpt lat="48.7191" lon="2.54781">
        <ele>79</ele>
        <time>2017-09-05T09:30:46Z</time>
      </trkpt>
      <trkpt lat="48.71903" lon="2.54783">
        <ele>79</ele>
        <time>2017-09-05T09:30:46Z</time>
      </trkpt>
      <trkpt lat="48.71899" lon="2.54783">
        <ele>79</ele>
        <time>2017-09-05T09:30:46Z</time>
      </trkpt>
      <trkpt lat="48.71892" lon="2.54783">
        <ele>79</ele>
        <time>2017-09-05T09:31:02Z</time>
      </trkpt>
      <trkpt lat="48.71885" lon="2.54782">
        <ele>79</ele>
        <time>2017-09-05T09:31:02Z</time>
      </trkpt>
      <trkpt lat="48.7188" lon="2.54782">
        <ele>79</ele>
        <time>2017-09-05T09:31:02Z</time>
      </trkpt>
      <trkpt lat="48.71876" lon="2.54783">
        <ele>79</ele>
        <time>2017-09-05T09:31:02Z</time>
      </trkpt>
      <trkpt lat="48.71871" lon="2.54781">
        <ele>75</ele>
        <time>2017-09-05T09:31:18Z</time>
      </trkpt>
      <trkpt lat="48.71869" lon="2.54779">
        <ele>75</ele>
        <time>2017-09-05T09:31:18Z</time>
      </trkpt>
      <trkpt lat="48.71862" lon="2.54782">
        <ele>75</ele>
        <time>2017-09-05T09:31:18Z</time>
      </trkpt>
      <trkpt lat="48.71853" lon="2.5478">
        <ele>75</ele>
        <time>2017-09-05T09:31:18Z</time>
      </trkpt>
      <trkpt lat="48.71846" lon="2.54782">
        <ele>75</ele>
        <time>2017-09-05T09:31:34Z</time>
      </trkpt>
      <trkpt lat="48.71841" lon="2.54782">
        <ele>75</ele>
        <time>2017-09-05T09:31:34Z</time>
      </trkpt>
      <trkpt lat="48.71836" lon="2.54782">
        <ele>75</ele>
        <time>2017-09-05T09:31:34Z</time>
      </trkpt>
      <trkpt lat="48.71829" lon="2.54779">
        <ele>75</ele>
        <time>2017-09-05T09:31:34Z</time>
      </trkpt>
      <trkpt lat="48.71823" lon="2.54778">
        <ele>75</ele>
        <time>2017-09-05T09:31:50Z</time>
      </trkpt>
      <trkpt lat="48.71819" lon="2.54775">
        <ele>75</ele>
        <time>2017-09-05T09:31:50Z</time>
      </trkpt>
      <trkpt lat="48.71814" lon="2.54772">
        <ele>75</ele>
        <time>2017-09-05T09:31:50Z</time>
      </trkpt>
      <trkpt lat="48.71809" lon="2.54766">
        <ele>75</ele>
        <time>2017-09-05T09:31:50Z</time>
      </trkpt>
      <trkpt lat="48.71803" lon="2.54763">
        <ele>75</ele>
        <time>2017-09-05T09:32:06Z</time>
      </trkpt>
      <trkpt lat="48.71798" lon="2.54759">
        <ele>75</ele>
        <time>2017-09-05T09:32:06Z</time>
      </trkpt>
      <trkpt lat="48.71794" lon="2.54754">
        <ele>75</ele>
        <time>2017-09-05T09:32:06Z</time>
      </trkpt>
      <trkpt lat="48.71789" lon="2.54747">
        <ele>75</ele>
        <time>2017-09-05T09:32:06Z</time>
      </trkpt>
      <trkpt lat="48.71786" lon="2.54743">
        <ele>75</ele>
        <time>2017-09-05T09:32:22Z</time>
      </trkpt>
      <trkpt lat="48.71785" lon="2.5474">
        <ele>75</ele>
        <time>2017-09-05T09:32:22Z</time>
      </trkpt>
      <trkpt lat="48.71784" lon="2.54737">
        <ele>75</ele>
        <time>2017-09-05T09:32:22Z</time>
      </trkpt>
      <trkpt lat="48.71782" lon="2.54731">
        <ele>75</ele>
        <time>2017-09-05T09:32:22Z</time>
      </trkpt>
      <trkpt lat="48.71778" lon="2.54726">
        <ele>75</ele>
        <time>2017-09-05T09:32:38Z</time>
      </trkpt>
      <trkpt lat="48.71774" lon="2.54725">
        <ele>75</ele>
        <time>2017-09-05T09:32:38Z</time>
      </trkpt>
      <trkpt lat="48.71771" lon="2.5473">
        <ele>75</ele>
        <time>2017-09-05T09:32:38Z</time>
      </trkpt>
      <trkpt lat="48.71773" lon="2.54738">
        <ele>75</ele>
        <time>2017-09-05T09:32:38Z</time>
      </trkpt>
      <trkpt lat="48.71777" lon="2.54747">
        <ele>75</ele>
        <time>2017-09-05T09:32:54Z</time>
      </trkpt>
      <trkpt lat="48.71778" lon="2.54757">
        <ele>75</ele>
        <time>2017-09-05T09:32:54Z</time>
      </trkpt>
      <trkpt lat="48.71777" lon="2.54764">
        <ele>75</ele>
        <time>2017-09-05T09:32:54Z</time>
      </trkpt>
      <trkpt lat="48.71777" lon="2.54768">
        <ele>75</ele>
        <time>2017-09-05T09:32:54Z</time>
      </trkpt>
      <trkpt lat="48.71776" lon="2.54773">
        <ele>75</ele>
        <time>2017-09-05T09:33:10Z</time>
      </trkpt>
      <trkpt lat="48.71771" lon="2.54778">
        <ele>75</ele>
        <time>2017-09-05T09:33:10Z</time>
      </trkpt>
      <trkpt lat="48.71765" lon="2.5478">
        <ele>75</ele>
        <time>2017-09-05T09:33:10Z</time>
      </trkpt>
      <trkpt lat="48.7176" lon="2.5478">
        <ele>75</ele>
        <time>2017-09-05T09:33:10Z</time>
      </trkpt>
      <trkpt lat="48.71754" lon="2.54781">
        <ele>75</ele>
        <time>2017-09-05T09:33:26Z</time>
      </trkpt>
      <trkpt lat="48.71747" lon="2.54781">
        <ele>75</ele>
        <time>2017-09-05T09:33:26Z</time>
      </trkpt>
      <trkpt lat="48.71741" lon="2.54784">
        <ele>75</ele>
        <time>2017-09-05T09:33:26Z</time>
      </trkpt>
      <trkpt lat="48.71736" lon="2.54784">
        <ele>75</ele>
        <time>2017-09-05T09:33:26Z</time>
      </trkpt>
      <trkpt lat="48.71732" lon="2.54783">
        <ele>75</ele>
        <time>2017-09-05T09:33:42Z</time>
      </trkpt>
      <trkpt lat="48.71725" lon="2.54783">
        <ele>75</ele>
        <time>2017-09-05T09:33:42Z</time>
      </trkpt>
      <trkpt lat="48.7172" lon="2.54784">
        <ele>75</ele>
        <time>2017-09-05T09:33:42Z</time>
      </trkpt>
      <trkpt lat="48.71715" lon="2.54786">
        <ele>75</ele>
        <time>2017-09-05T09:33:42Z</time>
      </trkpt>
      <trkpt lat="48.71703" lon="2.54785">
        <ele>77</ele>
        <time>2017-09-05T09:34:22Z</time>
      </trkpt>
      <trkpt lat="48.71703" lon="2.54785">
        <ele>77</ele>
        <time>2017-09-05T09:34:22Z</time>
      </trkpt>
      <trkpt lat="48.71703" lon="2.54785">
        <ele>77</ele>
        <time>2017-09-05T09:34:22Z</time>
      </trkpt>
      <trkpt lat="48.71702" lon="2.54785">
        <ele>77</ele>
        <time>2017-09-05T09:34:22Z</time>
      </trkpt>
      <trkpt lat="48.71699" lon="2.54784">
        <ele>77</ele>
        <time>2017-09-05T09:34:22Z</time>
      </trkpt>
      <trkpt lat="48.71696" lon="2.54785">
        <ele>77</ele>
        <time>2017-09-05T09:34:38Z</time>
      </trkpt>
      <trkpt lat="48.71692" lon="2.54784">
        <ele>77</ele>
        <time>2017-09-05T09:34:38Z</time>
      </trkpt>
      <trkpt lat="48.71685" lon="2.54784">
        <ele>77</ele>
        <time>2017-09-05T09:34:38Z</time>
      </trkpt>
      <trkpt lat="48.7168" lon="2.54785">
        <ele>77</ele>
        <time>2017-09-05T09:34:38Z</time>
      </trkpt>
      <trkpt lat="48.71677" lon="2.54785">
        <ele>77</ele>
        <time>2017-09-05T09:34:54Z</time>
      </trkpt>
      <trkpt lat="48.7167" lon="2.54786">
        <ele>77</ele>
        <time>2017-09-05T09:34:54Z</time>
      </trkpt>
      <trkpt lat="48.71662" lon="2.54788">
        <ele>77</ele>
        <time>2017-09-05T09:34:54Z</time>
      </trkpt>
      <trkpt lat="48.71656" lon="2.54789">
        <ele>77</ele>
        <time>2017-09-05T09:34:54Z</time>
      </trkpt>
      <trkpt lat="48.71652" lon="2.5479">
        <ele>77</ele>
        <time>2017-09-05T09:35:10Z</time>
      </trkpt>
      <trkpt lat="48.71646" lon="2.54791">
        <ele>77</ele>
        <time>2017-09-05T09:35:10Z</time>
      </trkpt>
      <trkpt lat="48.7164" lon="2.54792">
        <ele>78</ele>
        <time>2017-09-05T09:35:10Z</time>
      </trkpt>
      <trkpt lat="48.71634" lon="2.54792">
        <ele>78</ele>
        <time>2017-09-05T09:35:10Z</time>
      </trkpt>
      <trkpt lat="48.7163" lon="2.54791">
        <ele>77</ele>
        <time>2017-09-05T09:35:26Z</time>
      </trkpt>
      <trkpt lat="48.71623" lon="2.54794">
        <ele>81</ele>
        <time>2017-09-05T09:35:26Z</time>
      </trkpt>
      <trkpt lat="48.71617" lon="2.54796">
        <ele>81</ele>
        <time>2017-09-05T09:35:26Z</time>
      </trkpt>
      <trkpt lat="48.7161" lon="2.54797">
        <ele>81</ele>
        <time>2017-09-05T09:35:26Z</time>
      </trkpt>
      <trkpt lat="48.71605" lon="2.54796">
        <ele>81</ele>
        <time>2017-09-05T09:35:42Z</time>
      </trkpt>
      <trkpt lat="48.71601" lon="2.54799">
        <ele>81</ele>
        <time>2017-09-05T09:35:42Z</time>
      </trkpt>
      <trkpt lat="48.71597" lon="2.548">
        <ele>81</ele>
        <time>2017-09-05T09:35:42Z</time>
      </trkpt>
      <trkpt lat="48.71593" lon="2.54803">
        <ele>81</ele>
        <time>2017-09-05T09:35:42Z</time>
      </trkpt>
      <trkpt lat="48.71587" lon="2.54802">
        <ele>81</ele>
        <time>2017-09-05T09:35:58Z</time>
      </trkpt>
      <trkpt lat="48.71581" lon="2.54803">
        <ele>81</ele>
        <time>2017-09-05T09:35:58Z</time>
      </trkpt>
      <trkpt lat="48.71575" lon="2.54804">
        <ele>81</ele>
        <time>2017-09-05T09:35:58Z</time>
      </trkpt>
      <trkpt lat="48.71569" lon="2.54805">
        <ele>81</ele>
        <time>2017-09-05T09:35:58Z</time>
      </trkpt>
      <trkpt lat="48.7156" lon="2.54805">
        <ele>81</ele>
        <time>2017-09-05T09:36:14Z</time>
      </trkpt>
      <trkpt lat="48.71553" lon="2.54804">
        <ele>81</ele>
        <time>2017-09-05T09:36:14Z</time>
      </trkpt>
      <trkpt lat="48.71548" lon="2.54803">
        <ele>81</ele>
        <time>2017-09-05T09:36:14Z</time>
      </trkpt>
      <trkpt lat="48.71543" lon="2.54802">
        <ele>81</ele>
        <time>2017-09-05T09:36:14Z</time>
      </trkpt>
      <trkpt lat="48.71536" lon="2.54802">
        <ele>83</ele>
        <time>2017-09-05T09:36:30Z</time>
      </trkpt>
      <trkpt lat="48.71532" lon="2.54802">
        <ele>83</ele>
        <time>2017-09-05T09:36:30Z</time>
      </trkpt>
      <trkpt lat="48.71526" lon="2.54799">
        <ele>83</ele>
        <time>2017-09-05T09:36:30Z</time>
      </trkpt>
      <trkpt lat="48.71521" lon="2.54798">
        <ele>83</ele>
        <time>2017-09-05T09:36:30Z</time>
      </trkpt>
      <trkpt lat="48.71517" lon="2.54799">
        <ele>83</ele>
        <time>2017-09-05T09:36:46Z</time>
      </trkpt>
      <trkpt lat="48.71511" lon="2.54801">
        <ele>83</ele>
        <time>2017-09-05T09:36:46Z</time>
      </trkpt>
      <trkpt lat="48.71502" lon="2.54803">
        <ele>83</ele>
        <time>2017-09-05T09:36:46Z</time>
      </trkpt>
      <trkpt lat="48.71494" lon="2.54802">
        <ele>83</ele>
        <time>2017-09-05T09:36:46Z</time>
      </trkpt>
      <trkpt lat="48.71489" lon="2.54802">
        <ele>83</ele>
        <time>2017-09-05T09:37:02Z</time>
      </trkpt>
      <trkpt lat="48.71484" lon="2.54802">
        <ele>83</ele>
        <time>2017-09-05T09:37:02Z</time>
      </trkpt>
      <trkpt lat="48.7148" lon="2.54803">
        <ele>83</ele>
        <time>2017-09-05T09:37:02Z</time>
      </trkpt>
      <trkpt lat="48.71475" lon="2.54804">
        <ele>83</ele>
        <time>2017-09-05T09:37:02Z</time>
      </trkpt>
      <trkpt lat="48.71468" lon="2.54807">
        <ele>83</ele>
        <time>2017-09-05T09:37:18Z</time>
      </trkpt>
      <trkpt lat="48.71461" lon="2.54811">
        <ele>83</ele>
        <time>2017-09-05T09:37:18Z</time>
      </trkpt>
      <trkpt lat="48.71456" lon="2.54812">
        <ele>86</ele>
        <time>2017-09-05T09:37:18Z</time>
      </trkpt>
      <trkpt lat="48.71451" lon="2.54812">
        <ele>86</ele>
        <time>2017-09-05T09:37:18Z</time>
      </trkpt>
      <trkpt lat="48.71444" lon="2.54812">
        <ele>86</ele>
        <time>2017-09-05T09:37:34Z</time>
      </trkpt>
      <trkpt lat="48.71438" lon="2.54815">
        <ele>86</ele>
        <time>2017-09-05T09:37:34Z</time>
      </trkpt>
      <trkpt lat="48.71432" lon="2.54817">
        <ele>86</ele>
        <time>2017-09-05T09:37:34Z</time>
      </trkpt>
      <trkpt lat="48.71426" lon="2.54826">
        <ele>86</ele>
        <time>2017-09-05T09:37:34Z</time>
      </trkpt>
      <trkpt lat="48.71419" lon="2.5483">
        <ele>86</ele>
        <time>2017-09-05T09:37:50Z</time>
      </trkpt>
      <trkpt lat="48.71412" lon="2.54837">
        <ele>86</ele>
        <time>2017-09-05T09:37:50Z</time>
      </trkpt>
      <trkpt lat="48.71405" lon="2.54842">
        <ele>86</ele>
        <time>2017-09-05T09:37:50Z</time>
      </trkpt>
      <trkpt lat="48.714" lon="2.54846">
        <ele>86</ele>
        <time>2017-09-05T09:37:50Z</time>
      </trkpt>
      <trkpt lat="48.71394" lon="2.54848">
        <ele>86</ele>
        <time>2017-09-05T09:38:06Z</time>
      </trkpt>
      <trkpt lat="48.71387" lon="2.5485">
        <ele>86</ele>
        <time>2017-09-05T09:38:06Z</time>
      </trkpt>
      <trkpt lat="48.71381" lon="2.54852">
        <ele>86</ele>
        <time>2017-09-05T09:38:06Z</time>
      </trkpt>
      <trkpt lat="48.71377" lon="2.54853">
        <ele>86</ele>
        <time>2017-09-05T09:38:06Z</time>
      </trkpt>
      <trkpt lat="48.71373" lon="2.54856">
        <ele>87</ele>
        <time>2017-09-05T09:38:22Z</time>
      </trkpt>
      <trkpt lat="48.71367" lon="2.54859">
        <ele>87</ele>
        <time>2017-09-05T09:38:22Z</time>
      </trkpt>
      <trkpt lat="48.71361" lon="2.54859">
        <ele>87</ele>
        <time>2017-09-05T09:38:22Z</time>
      </trkpt>
      <trkpt lat="48.71356" lon="2.54862">
        <ele>87</ele>
        <time>2017-09-05T09:38:22Z</time>
      </trkpt>
      <trkpt lat="48.71351" lon="2.54869">
        <ele>87</ele>
        <time>2017-09-05T09:38:38Z</time>
      </trkpt>
      <trkpt lat="48.71346" lon="2.54869">
        <ele>87</ele>
        <time>2017-09-05T09:38:38Z</time>
      </trkpt>
      <trkpt lat="48.71341" lon="2.5487">
        <ele>87</ele>
        <time>2017-09-05T09:38:38Z</time>
      </trkpt>
      <trkpt lat="48.71337" lon="2.54875">
        <ele>87</ele>
        <time>2017-09-05T09:38:38Z</time>
      </trkpt>
      <trkpt lat="48.71329" lon="2.54878">
        <ele>88</ele>
        <time>2017-09-05T09:38:54Z</time>
      </trkpt>
      <trkpt lat="48.71323" lon="2.5488">
        <ele>88</ele>
        <time>2017-09-05T09:38:54Z</time>
      </trkpt>
      <trkpt lat="48.71317" lon="2.54886">
        <ele>88</ele>
        <time>2017-09-05T09:38:54Z</time>
      </trkpt>
      <trkpt lat="48.7131" lon="2.54894">
        <ele>88</ele>
        <time>2017-09-05T09:38:54Z</time>
      </trkpt>
      <trkpt lat="48.71305" lon="2.54899">
        <ele>88</ele>
        <time>2017-09-05T09:39:10Z</time>
      </trkpt>
      <trkpt lat="48.71299" lon="2.54905">
        <ele>88</ele>
        <time>2017-09-05T09:39:10Z</time>
      </trkpt>
      <trkpt lat="48.71293" lon="2.54908">
        <ele>88</ele>
        <time>2017-09-05T09:39:10Z</time>
      </trkpt>
      <trkpt lat="48.71287" lon="2.54912">
        <ele>90</ele>
        <time>2017-09-05T09:39:10Z</time>
      </trkpt>
      <trkpt lat="48.71282" lon="2.54917">
        <ele>90</ele>
        <time>2017-09-05T09:39:26Z</time>
      </trkpt>
      <trkpt lat="48.71279" lon="2.54925">
        <ele>90</ele>
        <time>2017-09-05T09:39:26Z</time>
      </trkpt>
      <trkpt lat="48.71277" lon="2.5493">
        <ele>90</ele>
        <time>2017-09-05T09:39:26Z</time>
      </trkpt>
      <trkpt lat="48.71275" lon="2.54936">
        <ele>90</ele>
        <time>2017-09-05T09:39:26Z</time>
      </trkpt>
      <trkpt lat="48.71271" lon="2.54942">
        <ele>90</ele>
        <time>2017-09-05T09:39:42Z</time>
      </trkpt>
      <trkpt lat="48.71266" lon="2.54947">
        <ele>90</ele>
        <time>2017-09-05T09:39:42Z</time>
      </trkpt>
      <trkpt lat="48.71262" lon="2.54951">
        <ele>90</ele>
        <time>2017-09-05T09:39:42Z</time>
      </trkpt>
      <trkpt lat="48.71257" lon="2.54956">
        <ele>90</ele>
        <time>2017-09-05T09:39:42Z</time>
      </trkpt>
      <trkpt lat="48.71251" lon="2.5496">
        <ele>89</ele>
        <time>2017-09-05T09:39:58Z</time>
      </trkpt>
      <trkpt lat="48.71246" lon="2.54965">
        <ele>89</ele>
        <time>2017-09-05T09:39:58Z</time>
      </trkpt>
      <trkpt lat="48.71241" lon="2.54969">
        <ele>89</ele>
        <time>2017-09-05T09:39:58Z</time>
      </trkpt>
      <trkpt lat="48.71236" lon="2.54975">
        <ele>89</ele>
        <time>2017-09-05T09:39:58Z</time>
      </trkpt>
      <trkpt lat="48.71232" lon="2.54982">
        <ele>89</ele>
        <time>2017-09-05T09:40:14Z</time>
      </trkpt>
      <trkpt lat="48.71227" lon="2.54986">
        <ele>89</ele>
        <time>2017-09-05T09:40:14Z</time>
      </trkpt>
      <trkpt lat="48.71222" lon="2.5499">
        <ele>89</ele>
        <time>2017-09-05T09:40:14Z</time>
      </trkpt>
      <trkpt lat="48.71218" lon="2.54995">
        <ele>89</ele>
        <time>2017-09-05T09:40:14Z</time>
      </trkpt>
      <trkpt lat="48.71212" lon="2.54999">
        <ele>89</ele>
        <time>2017-09-05T09:40:30Z</time>
      </trkpt>
      <trkpt lat="48.71209" lon="2.55002">
        <ele>89</ele>
        <time>2017-09-05T09:40:30Z</time>
      </trkpt>
      <trkpt lat="48.71204" lon="2.55008">
        <ele>91</ele>
        <time>2017-09-05T09:40:30Z</time>
      </trkpt>
      <trkpt lat="48.71199" lon="2.55013">
        <ele>91</ele>
        <time>2017-09-05T09:40:30Z</time>
      </trkpt>
      <trkpt lat="48.71194" lon="2.55017">
        <ele>91</ele>
        <time>2017-09-05T09:40:46Z</time>
      </trkpt>
      <trkpt lat="48.7119" lon="2.55024">
        <ele>91</ele>
        <time>2017-09-05T09:40:46Z</time>
      </trkpt>
      <trkpt lat="48.71186" lon="2.55031">
        <ele>91</ele>
        <time>2017-09-05T09:40:46Z</time>
      </trkpt>
      <trkpt lat="48.71183" lon="2.55036">
        <ele>91</ele>
        <time>2017-09-05T09:40:46Z</time>
      </trkpt>
      <trkpt lat="48.71177" lon="2.55045">
        <ele>90</ele>
        <time>2017-09-05T09:41:02Z</time>
      </trkpt>
      <trkpt lat="48.71171" lon="2.55051">
        <ele>90</ele>
        <time>2017-09-05T09:41:02Z</time>
      </trkpt>
      <trkpt lat="48.71167" lon="2.55057">
        <ele>90</ele>
        <time>2017-09-05T09:41:02Z</time>
      </trkpt>
      <trkpt lat="48.71163" lon="2.55061">
        <ele>90</ele>
        <time>2017-09-05T09:41:02Z</time>
      </trkpt>
      <trkpt lat="48.71159" lon="2.55066">
        <ele>90</ele>
        <time>2017-09-05T09:41:18Z</time>
      </trkpt>
      <trkpt lat="48.71154" lon="2.5507">
        <ele>90</ele>
        <time>2017-09-05T09:41:18Z</time>
      </trkpt>
      <trkpt lat="48.7115" lon="2.55075">
        <ele>90</ele>
        <time>2017-09-05T09:41:18Z</time>
      </trkpt>
      <trkpt lat="48.71147" lon="2.55083">
        <ele>90</ele>
        <time>2017-09-05T09:41:18Z</time>
      </trkpt>
      <trkpt lat="48.71143" lon="2.55089">
        <ele>90</ele>
        <time>2017-09-05T09:41:34Z</time>
      </trkpt>
      <trkpt lat="48.7114" lon="2.55094">
        <ele>90</ele>
        <time>2017-09-05T09:41:34Z</time>
      </trkpt>
      <trkpt lat="48.71136" lon="2.551">
        <ele>90</ele>
        <time>2017-09-05T09:41:34Z</time>
      </trkpt>
      <trkpt lat="48.71132" lon="2.55105">
        <ele>90</ele>
        <time>2017-09-05T09:41:34Z</time>
      </trkpt>
      <trkpt lat="48.71125" lon="2.55117">
        <ele>90</ele>
        <time>2017-09-05T09:41:58Z</time>
      </trkpt>
      <trkpt lat="48.71123" lon="2.55119">
        <ele>91</ele>
        <time>2017-09-05T09:41:58Z</time>
      </trkpt>
      <trkpt lat="48.71122" lon="2.5512">
        <ele>91</ele>
        <time>2017-09-05T09:41:58Z</time>
      </trkpt>
      <trkpt lat="48.71122" lon="2.55121">
        <ele>91</ele>
        <time>2017-09-05T09:41:58Z</time>
      </trkpt>
      <trkpt lat="48.7112" lon="2.55123">
        <ele>91</ele>
        <time>2017-09-05T09:41:58Z</time>
      </trkpt>
      <trkpt lat="48.71117" lon="2.55127">
        <ele>90</ele>
        <time>2017-09-05T09:42:14Z</time>
      </trkpt>
      <trkpt lat="48.71115" lon="2.55132">
        <ele>90</ele>
        <time>2017-09-05T09:42:14Z</time>
      </trkpt>
      <trkpt lat="48.71112" lon="2.5514">
        <ele>90</ele>
        <time>2017-09-05T09:42:14Z</time>
      </trkpt>
      <trkpt lat="48.7111" lon="2.55144">
        <ele>90</ele>
        <time>2017-09-05T09:42:14Z</time>
      </trkpt>
      <trkpt lat="48.71105" lon="2.55151">
        <ele>90</ele>
        <time>2017-09-05T09:42:30Z</time>
      </trkpt>
      <trkpt lat="48.71104" lon="2.55154">
        <ele>90</ele>
        <time>2017-09-05T09:42:30Z</time>
      </trkpt>
      <trkpt lat="48.711" lon="2.5516">
        <ele>90</ele>
        <time>2017-09-05T09:42:30Z</time>
      </trkpt>
      <trkpt lat="48.71094" lon="2.5517">
        <ele>90</ele>
        <time>2017-09-05T09:42:30Z</time>
      </trkpt>
      <trkpt lat="48.71091" lon="2.55178">
        <ele>90</ele>
        <time>2017-09-05T09:42:46Z</time>
      </trkpt>
      <trkpt lat="48.71088" lon="2.55184">
        <ele>90</ele>
        <time>2017-09-05T09:42:46Z</time>
      </trkpt>
      <trkpt lat="48.71086" lon="2.55191">
        <ele>90</ele>
        <time>2017-09-05T09:42:46Z</time>
      </trkpt>
      <trkpt lat="48.71081" lon="2.55197">
        <ele>90</ele>
        <time>2017-09-05T09:42:46Z</time>
      </trkpt>
      <trkpt lat="48.71077" lon="2.55207">
        <ele>90</ele>
        <time>2017-09-05T09:43:02Z</time>
      </trkpt>
      <trkpt lat="48.71072" lon="2.55214">
        <ele>90</ele>
        <time>2017-09-05T09:43:02Z</time>
      </trkpt>
      <trkpt lat="48.71069" lon="2.55222">
        <ele>90</ele>
        <time>2017-09-05T09:43:02Z</time>
      </trkpt>
      <trkpt lat="48.71066" lon="2.55228">
        <ele>90</ele>
        <time>2017-09-05T09:43:02Z</time>
      </trkpt>
      <trkpt lat="48.71061" lon="2.55237">
        <ele>90</ele>
        <time>2017-09-05T09:43:18Z</time>
      </trkpt>
      <trkpt lat="48.71057" lon="2.55245">
        <ele>90</ele>
        <time>2017-09-05T09:43:18Z</time>
      </trkpt>
      <trkpt lat="48.71054" lon="2.55252">
        <ele>90</ele>
        <time>2017-09-05T09:43:18Z</time>
      </trkpt>
      <trkpt lat="48.7105" lon="2.5526">
        <ele>90</ele>
        <time>2017-09-05T09:43:18Z</time>
      </trkpt>
      <trkpt lat="48.71047" lon="2.55269">
        <ele>90</ele>
        <time>2017-09-05T09:43:34Z</time>
      </trkpt>
      <trkpt lat="48.71045" lon="2.55274">
        <ele>90</ele>
        <time>2017-09-05T09:43:34Z</time>
      </trkpt>
      <trkpt lat="48.71042" lon="2.5528">
        <ele>90</ele>
        <time>2017-09-05T09:43:34Z</time>
      </trkpt>
      <trkpt lat="48.71038" lon="2.55289">
        <ele>90</ele>
        <time>2017-09-05T09:43:34Z</time>
      </trkpt>
      <trkpt lat="48.71036" lon="2.55294">
        <ele>92</ele>
        <time>2017-09-05T09:43:50Z</time>
      </trkpt>
      <trkpt lat="48.71033" lon="2.55303">
        <ele>92</ele>
        <time>2017-09-05T09:43:50Z</time>
      </trkpt>
      <trkpt lat="48.7103" lon="2.5531">
        <ele>92</ele>
        <time>2017-09-05T09:43:50Z</time>
      </trkpt>
      <trkpt lat="48.71026" lon="2.55317">
        <ele>92</ele>
        <time>2017-09-05T09:43:50Z</time>
      </trkpt>
      <trkpt lat="48.71024" lon="2.55321">
        <ele>92</ele>
        <time>2017-09-05T09:44:06Z</time>
      </trkpt>
      <trkpt lat="48.71022" lon="2.55326">
        <ele>92</ele>
        <time>2017-09-05T09:44:06Z</time>
      </trkpt>
      <trkpt lat="48.7102" lon="2.55331">
        <ele>92</ele>
        <time>2017-09-05T09:44:06Z</time>
      </trkpt>
      <trkpt lat="48.71016" lon="2.55338">
        <ele>92</ele>
        <time>2017-09-05T09:44:06Z</time>
      </trkpt>
      <trkpt lat="48.71015" lon="2.55347">
        <ele>92</ele>
        <time>2017-09-05T09:44:22Z</time>
      </trkpt>
      <trkpt lat="48.71012" lon="2.55356">
        <ele>92</ele>
        <time>2017-09-05T09:44:22Z</time>
      </trkpt>
      <trkpt lat="48.71008" lon="2.55366">
        <ele>92</ele>
        <time>2017-09-05T09:44:22Z</time>
      </trkpt>
      <trkpt lat="48.71006" lon="2.55372">
        <ele>92</ele>
        <time>2017-09-05T09:44:22Z</time>
      </trkpt>
      <trkpt lat="48.71004" lon="2.55378">
        <ele>92</ele>
        <time>2017-09-05T09:44:38Z</time>
      </trkpt>
      <trkpt lat="48.71002" lon="2.55385">
        <ele>92</ele>
        <time>2017-09-05T09:44:38Z</time>
      </trkpt>
      <trkpt lat="48.71" lon="2.55394">
        <ele>92</ele>
        <time>2017-09-05T09:44:38Z</time>
      </trkpt>
      <trkpt lat="48.70999" lon="2.55401">
        <ele>92</ele>
        <time>2017-09-05T09:44:38Z</time>
      </trkpt>
      <trkpt lat="48.70997" lon="2.55411">
        <ele>92</ele>
        <time>2017-09-05T09:44:54Z</time>
      </trkpt>
      <trkpt lat="48.70995" lon="2.55418">
        <ele>92</ele>
        <time>2017-09-05T09:44:54Z</time>
      </trkpt>
      <trkpt lat="48.70992" lon="2.55427">
        <ele>92</ele>
        <time>2017-09-05T09:44:54Z</time>
      </trkpt>
      <trkpt lat="48.70989" lon="2.55436">
        <ele>92</ele>
        <time>2017-09-05T09:44:54Z</time>
      </trkpt>
      <trkpt lat="48.70988" lon="2.55442">
        <ele>92</ele>
        <time>2017-09-05T09:45:10Z</time>
      </trkpt>
      <trkpt lat="48.70984" lon="2.5545">
        <ele>92</ele>
        <time>2017-09-05T09:45:10Z</time>
      </trkpt>
      <trkpt lat="48.70981" lon="2.5546">
        <ele>92</ele>
        <time>2017-09-05T09:45:10Z</time>
      </trkpt>
      <trkpt lat="48.70979" lon="2.55469">
        <ele>92</ele>
        <time>2017-09-05T09:45:10Z</time>
      </trkpt>
      <trkpt lat="48.70976" lon="2.55475">
        <ele>92</ele>
        <time>2017-09-05T09:45:26Z</time>
      </trkpt>
      <trkpt lat="48.70974" lon="2.55484">
        <ele>92</ele>
        <time>2017-09-05T09:45:26Z</time>
      </trkpt>
      <trkpt lat="48.70971" lon="2.55493">
        <ele>92</ele>
        <time>2017-09-05T09:45:26Z</time>
      </trkpt>
      <trkpt lat="48.70969" lon="2.55497">
        <ele>92</ele>
        <time>2017-09-05T09:45:26Z</time>
      </trkpt>
      <trkpt lat="48.70967" lon="2.55505">
        <ele>92</ele>
        <time>2017-09-05T09:45:42Z</time>
      </trkpt>
      <trkpt lat="48.70966" lon="2.55512">
        <ele>92</ele>
        <time>2017-09-05T09:45:42Z</time>
      </trkpt>
      <trkpt lat="48.70964" lon="2.55519">
        <ele>92</ele>
        <time>2017-09-05T09:45:42Z</time>
      </trkpt>
      <trkpt lat="48.70963" lon="2.55529">
        <ele>92</ele>
        <time>2017-09-05T09:45:42Z</time>
      </trkpt>
      <trkpt lat="48.70962" lon="2.5554">
        <ele>92</ele>
        <time>2017-09-05T09:45:58Z</time>
      </trkpt>
      <trkpt lat="48.70959" lon="2.55547">
        <ele>92</ele>
        <time>2017-09-05T09:45:58Z</time>
      </trkpt>
      <trkpt lat="48.70958" lon="2.55556">
        <ele>94</ele>
        <time>2017-09-05T09:45:58Z</time>
      </trkpt>
      <trkpt lat="48.70956" lon="2.55562">
        <ele>94</ele>
        <time>2017-09-05T09:45:58Z</time>
      </trkpt>
      <trkpt lat="48.70952" lon="2.5557">
        <ele>94</ele>
        <time>2017-09-05T09:46:14Z</time>
      </trkpt>
      <trkpt lat="48.70949" lon="2.55578">
        <ele>94</ele>
        <time>2017-09-05T09:46:14Z</time>
      </trkpt>
      <trkpt lat="48.70949" lon="2.55583">
        <ele>94</ele>
        <time>2017-09-05T09:46:14Z</time>
      </trkpt>
      <trkpt lat="48.70948" lon="2.55591">
        <ele>94</ele>
        <time>2017-09-05T09:46:14Z</time>
      </trkpt>
      <trkpt lat="48.70948" lon="2.556">
        <ele>94</ele>
        <time>2017-09-05T09:46:30Z</time>
      </trkpt>
      <trkpt lat="48.70947" lon="2.55607">
        <ele>94</ele>
        <time>2017-09-05T09:46:30Z</time>
      </trkpt>
      <trkpt lat="48.70947" lon="2.55619">
        <ele>94</ele>
        <time>2017-09-05T09:46:30Z</time>
      </trkpt>
      <trkpt lat="48.70947" lon="2.5563">
        <ele>93</ele>
        <time>2017-09-05T09:46:30Z</time>
      </trkpt>
      <trkpt lat="48.70946" lon="2.5564">
        <ele>93</ele>
        <time>2017-09-05T09:46:46Z</time>
      </trkpt>
      <trkpt lat="48.70945" lon="2.55647">
        <ele>93</ele>
        <time>2017-09-05T09:46:46Z</time>
      </trkpt>
      <trkpt lat="48.70944" lon="2.55653">
        <ele>93</ele>
        <time>2017-09-05T09:46:46Z</time>
      </trkpt>
      <trkpt lat="48.70944" lon="2.55662">
        <ele>93</ele>
        <time>2017-09-05T09:46:46Z</time>
      </trkpt>
      <trkpt lat="48.70945" lon="2.55671">
        <ele>93</ele>
        <time>2017-09-05T09:47:02Z</time>
      </trkpt>
      <trkpt lat="48.70945" lon="2.55676">
        <ele>93</ele>
        <time>2017-09-05T09:47:02Z</time>
      </trkpt>
      <trkpt lat="48.70943" lon="2.55683">
        <ele>93</ele>
        <time>2017-09-05T09:47:02Z</time>
      </trkpt>
      <trkpt lat="48.70943" lon="2.55689">
        <ele>93</ele>
        <time>2017-09-05T09:47:02Z</time>
      </trkpt>
      <trkpt lat="48.70942" lon="2.55696">
        <ele>93</ele>
        <time>2017-09-05T09:47:18Z</time>
      </trkpt>
      <trkpt lat="48.70943" lon="2.55703">
        <ele>93</ele>
        <time>2017-09-05T09:47:18Z</time>
      </trkpt>
      <trkpt lat="48.70945" lon="2.5571">
        <ele>93</ele>
        <time>2017-09-05T09:47:18Z</time>
      </trkpt>
      <trkpt lat="48.70946" lon="2.55718">
        <ele>93</ele>
        <time>2017-09-05T09:47:18Z</time>
      </trkpt>
      <trkpt lat="48.70945" lon="2.55726">
        <ele>93</ele>
        <time>2017-09-05T09:47:34Z</time>
      </trkpt>
      <trkpt lat="48.70944" lon="2.55733">
        <ele>93</ele>
        <time>2017-09-05T09:47:34Z</time>
      </trkpt>
      <trkpt lat="48.70946" lon="2.55738">
        <ele>93</ele>
        <time>2017-09-05T09:47:34Z</time>
      </trkpt>
      <trkpt lat="48.70947" lon="2.55742">
        <ele>93</ele>
        <time>2017-09-05T09:47:34Z</time>
      </trkpt>
      <trkpt lat="48.70948" lon="2.55749">
        <ele>93</ele>
        <time>2017-09-05T09:47:50Z</time>
      </trkpt>
      <trkpt lat="48.7095" lon="2.55754">
        <ele>93</ele>
        <time>2017-09-05T09:47:50Z</time>
      </trkpt>
      <trkpt lat="48.70951" lon="2.55758">
        <ele>93</ele>
        <time>2017-09-05T09:47:50Z</time>
      </trkpt>
      <trkpt lat="48.7095" lon="2.55762">
        <ele>93</ele>
        <time>2017-09-05T09:47:50Z</time>
      </trkpt>
      <trkpt lat="48.70949" lon="2.55767">
        <ele>93</ele>
        <time>2017-09-05T09:48:06Z</time>
      </trkpt>
      <trkpt lat="48.70947" lon="2.55772">
        <ele>93</ele>
        <time>2017-09-05T09:48:06Z</time>
      </trkpt>
      <trkpt lat="48.70946" lon="2.55777">
        <ele>93</ele>
        <time>2017-09-05T09:48:06Z</time>
      </trkpt>
      <trkpt lat="48.70947" lon="2.55784">
        <ele>93</ele>
        <time>2017-09-05T09:48:06Z</time>
      </trkpt>
      <trkpt lat="48.70946" lon="2.55793">
        <ele>93</ele>
        <time>2017-09-05T09:48:22Z</time>
      </trkpt>
      <trkpt lat="48.70945" lon="2.55801">
        <ele>93</ele>
        <time>2017-09-05T09:48:22Z</time>
      </trkpt>
      <trkpt lat="48.70944" lon="2.55809">
        <ele>93</ele>
        <time>2017-09-05T09:48:22Z</time>
      </trkpt>
      <trkpt lat="48.70944" lon="2.55817">
        <ele>93</ele>
        <time>2017-09-05T09:48:22Z</time>
      </trkpt>
      <trkpt lat="48.70944" lon="2.55822">
        <ele>93</ele>
        <time>2017-09-05T09:48:38Z</time>
      </trkpt>
      <trkpt lat="48.70944" lon="2.55829">
        <ele>93</ele>
        <time>2017-09-05T09:48:38Z</time>
      </trkpt>
      <trkpt lat="48.70944" lon="2.55835">
        <ele>93</ele>
        <time>2017-09-05T09:48:38Z</time>
      </trkpt>
      <trkpt lat="48.70945" lon="2.55839">
        <ele>93</ele>
        <time>2017-09-05T09:48:38Z</time>
      </trkpt>
      <trkpt lat="48.70946" lon="2.55847">
        <ele>93</ele>
        <time>2017-09-05T09:48:54Z</time>
      </trkpt>
      <trkpt lat="48.70947" lon="2.55853">
        <ele>93</ele>
        <time>2017-09-05T09:48:54Z</time>
      </trkpt>
      <trkpt lat="48.70948" lon="2.55864">
        <ele>93</ele>
        <time>2017-09-05T09:48:54Z</time>
      </trkpt>
      <trkpt lat="48.70948" lon="2.55871">
        <ele>93</ele>
        <time>2017-09-05T09:48:54Z</time>
      </trkpt>
      <trkpt lat="48.70948" lon="2.55881">
        <ele>92</ele>
        <time>2017-09-05T09:49:10Z</time>
      </trkpt>
      <trkpt lat="48.7095" lon="2.55889">
        <ele>92</ele>
        <time>2017-09-05T09:49:10Z</time>
      </trkpt>
      <trkpt lat="48.70951" lon="2.55899">
        <ele>92</ele>
        <time>2017-09-05T09:49:10Z</time>
      </trkpt>
      <trkpt lat="48.70952" lon="2.55908">
        <ele>92</ele>
        <time>2017-09-05T09:49:10Z</time>
      </trkpt>
      <trkpt lat="48.70952" lon="2.55918">
        <ele>92</ele>
        <time>2017-09-05T09:49:26Z</time>
      </trkpt>
      <trkpt lat="48.70953" lon="2.55926">
        <ele>92</ele>
        <time>2017-09-05T09:49:26Z</time>
      </trkpt>
      <trkpt lat="48.70954" lon="2.55933">
        <ele>92</ele>
        <time>2017-09-05T09:49:26Z</time>
      </trkpt>
      <trkpt lat="48.7095" lon="2.5594">
        <ele>92</ele>
        <time>2017-09-05T09:49:26Z</time>
      </trkpt>
      <trkpt lat="48.70951" lon="2.55949">
        <ele>92</ele>
        <time>2017-09-05T09:49:42Z</time>
      </trkpt>
      <trkpt lat="48.70951" lon="2.55953">
        <ele>92</ele>
        <time>2017-09-05T09:49:42Z</time>
      </trkpt>
      <trkpt lat="48.70948" lon="2.55962">
        <ele>92</ele>
        <time>2017-09-05T09:49:42Z</time>
      </trkpt>
      <trkpt lat="48.70948" lon="2.55971">
        <ele>92</ele>
        <time>2017-09-05T09:49:42Z</time>
      </trkpt>
      <trkpt lat="48.70948" lon="2.55981">
        <ele>92</ele>
        <time>2017-09-05T09:49:58Z</time>
      </trkpt>
      <trkpt lat="48.70948" lon="2.55989">
        <ele>92</ele>
        <time>2017-09-05T09:49:58Z</time>
      </trkpt>
      <trkpt lat="48.70947" lon="2.55994">
        <ele>92</ele>
        <time>2017-09-05T09:49:58Z</time>
      </trkpt>
      <trkpt lat="48.70948" lon="2.56">
        <ele>92</ele>
        <time>2017-09-05T09:49:58Z</time>
      </trkpt>
      <trkpt lat="48.7095" lon="2.56006">
        <ele>92</ele>
        <time>2017-09-05T09:50:14Z</time>
      </trkpt>
      <trkpt lat="48.70952" lon="2.56014">
        <ele>92</ele>
        <time>2017-09-05T09:50:14Z</time>
      </trkpt>
      <trkpt lat="48.70955" lon="2.56021">
        <ele>92</ele>
        <time>2017-09-05T09:50:14Z</time>
      </trkpt>
      <trkpt lat="48.70957" lon="2.56029">
        <ele>92</ele>
        <time>2017-09-05T09:50:14Z</time>
      </trkpt>
      <trkpt lat="48.7096" lon="2.56041">
        <ele>92</ele>
        <time>2017-09-05T09:50:30Z</time>
      </trkpt>
      <trkpt lat="48.70963" lon="2.56051">
        <ele>92</ele>
        <time>2017-09-05T09:50:30Z</time>
      </trkpt>
      <trkpt lat="48.70963" lon="2.56059">
        <ele>92</ele>
        <time>2017-09-05T09:50:30Z</time>
      </trkpt>
      <trkpt lat="48.70966" lon="2.56065">
        <ele>92</ele>
        <time>2017-09-05T09:50:30Z</time>
      </trkpt>
      <trkpt lat="48.70968" lon="2.56074">
        <ele>92</ele>
        <time>2017-09-05T09:50:46Z</time>
      </trkpt>
      <trkpt lat="48.7097" lon="2.56084">
        <ele>92</ele>
        <time>2017-09-05T09:50:46Z</time>
      </trkpt>
      <trkpt lat="48.70973" lon="2.56091">
        <ele>92</ele>
        <time>2017-09-05T09:50:46Z</time>
      </trkpt>
      <trkpt lat="48.70975" lon="2.56095">
        <ele>92</ele>
        <time>2017-09-05T09:50:46Z</time>
      </trkpt>
      <trkpt lat="48.70977" lon="2.56102">
        <ele>92</ele>
        <time>2017-09-05T09:51:02Z</time>
      </trkpt>
      <trkpt lat="48.70979" lon="2.5611">
        <ele>92</ele>
        <time>2017-09-05T09:51:02Z</time>
      </trkpt>
      <trkpt lat="48.70982" lon="2.56118">
        <ele>92</ele>
        <time>2017-09-05T09:51:02Z</time>
      </trkpt>
      <trkpt lat="48.70984" lon="2.56127">
        <ele>93</ele>
        <time>2017-09-05T09:51:02Z</time>
      </trkpt>
      <trkpt lat="48.70983" lon="2.56135">
        <ele>93</ele>
        <time>2017-09-05T09:51:18Z</time>
      </trkpt>
      <trkpt lat="48.70981" lon="2.56139">
        <ele>93</ele>
        <time>2017-09-05T09:51:18Z</time>
      </trkpt>
      <trkpt lat="48.70977" lon="2.56143">
        <ele>93</ele>
        <time>2017-09-05T09:51:18Z</time>
      </trkpt>
      <trkpt lat="48.70974" lon="2.56145">
        <ele>93</ele>
        <time>2017-09-05T09:51:18Z</time>
      </trkpt>
      <trkpt lat="48.70968" lon="2.56144">
        <ele>93</ele>
        <time>2017-09-05T09:51:34Z</time>
      </trkpt>
      <trkpt lat="48.70965" lon="2.56141">
        <ele>93</ele>
        <time>2017-09-05T09:51:34Z</time>
      </trkpt>
      <trkpt lat="48.70959" lon="2.56138">
        <ele>93</ele>
        <time>2017-09-05T09:51:34Z</time>
      </trkpt>
      <trkpt lat="48.70953" lon="2.56134">
        <ele>95</ele>
        <time>2017-09-05T09:51:34Z</time>
      </trkpt>
      <trkpt lat="48.70947" lon="2.56131">
        <ele>95</ele>
        <time>2017-09-05T09:51:50Z</time>
      </trkpt>
      <trkpt lat="48.70943" lon="2.56127">
        <ele>95</ele>
        <time>2017-09-05T09:51:50Z</time>
      </trkpt>
      <trkpt lat="48.7094" lon="2.56122">
        <ele>93</ele>
        <time>2017-09-05T09:51:50Z</time>
      </trkpt>
      <trkpt lat="48.70935" lon="2.56117">
        <ele>93</ele>
        <time>2017-09-05T09:51:50Z</time>
      </trkpt>
      <trkpt lat="48.70929" lon="2.56115">
        <ele>93</ele>
        <time>2017-09-05T09:52:06Z</time>
      </trkpt>
      <trkpt lat="48.70922" lon="2.56112">
        <ele>93</ele>
        <time>2017-09-05T09:52:06Z</time>
      </trkpt>
      <trkpt lat="48.70917" lon="2.56108">
        <ele>93</ele>
        <time>2017-09-05T09:52:06Z</time>
      </trkpt>
      <trkpt lat="48.70911" lon="2.56103">
        <ele>93</ele>
        <time>2017-09-05T09:52:06Z</time>
      </trkpt>
      <trkpt lat="48.70906" lon="2.56102">
        <ele>93</ele>
        <time>2017-09-05T09:52:22Z</time>
      </trkpt>
      <trkpt lat="48.70902" lon="2.56101">
        <ele>93</ele>
        <time>2017-09-05T09:52:22Z</time>
      </trkpt>
      <trkpt lat="48.70898" lon="2.56098">
        <ele>93</ele>
        <time>2017-09-05T09:52:22Z</time>
      </trkpt>
      <trkpt lat="48.7089" lon="2.56096">
        <ele>93</ele>
        <time>2017-09-05T09:52:22Z</time>
      </trkpt>
      <trkpt lat="48.70884" lon="2.56093">
        <ele>93</ele>
        <time>2017-09-05T09:52:38Z</time>
      </trkpt>
      <trkpt lat="48.70879" lon="2.5609">
        <ele>93</ele>
        <time>2017-09-05T09:52:38Z</time>
      </trkpt>
      <trkpt lat="48.70873" lon="2.56089">
        <ele>94</ele>
        <time>2017-09-05T09:52:38Z</time>
      </trkpt>
      <trkpt lat="48.7087" lon="2.56087">
        <ele>94</ele>
        <time>2017-09-05T09:52:38Z</time>
      </trkpt>
      <trkpt lat="48.70865" lon="2.56088">
        <ele>94</ele>
        <time>2017-09-05T09:52:54Z</time>
      </trkpt>
      <trkpt lat="48.70861" lon="2.56089">
        <ele>94</ele>
        <time>2017-09-05T09:52:54Z</time>
      </trkpt>
      <trkpt lat="48.70857" lon="2.56094">
        <ele>94</ele>
        <time>2017-09-05T09:52:54Z</time>
      </trkpt>
      <trkpt lat="48.70853" lon="2.56095">
        <ele>94</ele>
        <time>2017-09-05T09:52:54Z</time>
      </trkpt>
      <trkpt lat="48.70849" lon="2.56098">
        <ele>94</ele>
        <time>2017-09-05T09:53:10Z</time>
      </trkpt>
      <trkpt lat="48.70841" lon="2.561">
        <ele>94</ele>
        <time>2017-09-05T09:53:10Z</time>
      </trkpt>
      <trkpt lat="48.70834" lon="2.56102">
        <ele>94</ele>
        <time>2017-09-05T09:53:10Z</time>
      </trkpt>
      <trkpt lat="48.70827" lon="2.56105">
        <ele>94</ele>
        <time>2017-09-05T09:53:10Z</time>
      </trkpt>
      <trkpt lat="48.70824" lon="2.56114">
        <ele>94</ele>
        <time>2017-09-05T09:53:26Z</time>
      </trkpt>
      <trkpt lat="48.70821" lon="2.56122">
        <ele>94</ele>
        <time>2017-09-05T09:53:26Z</time>
      </trkpt>
      <trkpt lat="48.70817" lon="2.56127">
        <ele>94</ele>
        <time>2017-09-05T09:53:26Z</time>
      </trkpt>
      <trkpt lat="48.7081" lon="2.56127">
        <ele>94</ele>
        <time>2017-09-05T09:53:26Z</time>
      </trkpt>
      <trkpt lat="48.70803" lon="2.56128">
        <ele>94</ele>
        <time>2017-09-05T09:53:42Z</time>
      </trkpt>
      <trkpt lat="48.70797" lon="2.56127">
        <ele>94</ele>
        <time>2017-09-05T09:53:42Z</time>
      </trkpt>
      <trkpt lat="48.70792" lon="2.56128">
        <ele>93</ele>
        <time>2017-09-05T09:53:42Z</time>
      </trkpt>
      <trkpt lat="48.70789" lon="2.56133">
        <ele>93</ele>
        <time>2017-09-05T09:53:42Z</time>
      </trkpt>
      <trkpt lat="48.70787" lon="2.5614">
        <ele>93</ele>
        <time>2017-09-05T09:53:58Z</time>
      </trkpt>
      <trkpt lat="48.70785" lon="2.56147">
        <ele>93</ele>
        <time>2017-09-05T09:53:58Z</time>
      </trkpt>
      <trkpt lat="48.70783" lon="2.56154">
        <ele>93</ele>
        <time>2017-09-05T09:53:58Z</time>
      </trkpt>
      <trkpt lat="48.7078" lon="2.56161">
        <ele>93</ele>
        <time>2017-09-05T09:53:58Z</time>
      </trkpt>
      <trkpt lat="48.70778" lon="2.56168">
        <ele>93</ele>
        <time>2017-09-05T09:54:14Z</time>
      </trkpt>
      <trkpt lat="48.70775" lon="2.56176">
        <ele>93</ele>
        <time>2017-09-05T09:54:14Z</time>
      </trkpt>
      <trkpt lat="48.70772" lon="2.56185">
        <ele>93</ele>
        <time>2017-09-05T09:54:14Z</time>
      </trkpt>
      <trkpt lat="48.70769" lon="2.56192">
        <ele>93</ele>
        <time>2017-09-05T09:54:14Z</time>
      </trkpt>
      <trkpt lat="48.70766" lon="2.56201">
        <ele>93</ele>
        <time>2017-09-05T09:54:30Z</time>
      </trkpt>
      <trkpt lat="48.70763" lon="2.56208">
        <ele>93</ele>
        <time>2017-09-05T09:54:30Z</time>
      </trkpt>
      <trkpt lat="48.70761" lon="2.56217">
        <ele>93</ele>
        <time>2017-09-05T09:54:30Z</time>
      </trkpt>
      <trkpt lat="48.70758" lon="2.56225">
        <ele>93</ele>
        <time>2017-09-05T09:54:30Z</time>
      </trkpt>
      <trkpt lat="48.70755" lon="2.56232">
        <ele>93</ele>
        <time>2017-09-05T09:54:46Z</time>
      </trkpt>
      <trkpt lat="48.70753" lon="2.5624">
        <ele>93</ele>
        <time>2017-09-05T09:54:46Z</time>
      </trkpt>
      <trkpt lat="48.7075" lon="2.56249">
        <ele>93</ele>
        <time>2017-09-05T09:54:46Z</time>
      </trkpt>
      <trkpt lat="48.70748" lon="2.56256">
        <ele>93</ele>
        <time>2017-09-05T09:54:46Z</time>
      </trkpt>
      <trkpt lat="48.70745" lon="2.56264">
        <ele>93</ele>
        <time>2017-09-05T09:55:02Z</time>
      </trkpt>
      <trkpt lat="48.70742" lon="2.56272">
        <ele>93</ele>
        <time>2017-09-05T09:55:02Z</time>
      </trkpt>
      <trkpt lat="48.70739" lon="2.56279">
        <ele>93</ele>
        <time>2017-09-05T09:55:02Z</time>
      </trkpt>
      <trkpt lat="48.70737" lon="2.56287">
        <ele>93</ele>
        <time>2017-09-05T09:55:02Z</time>
      </trkpt>
      <trkpt lat="48.70734" lon="2.56295">
        <ele>94</ele>
        <time>2017-09-05T09:55:18Z</time>
      </trkpt>
      <trkpt lat="48.70732" lon="2.56302">
        <ele>94</ele>
        <time>2017-09-05T09:55:18Z</time>
      </trkpt>
      <trkpt lat="48.7073" lon="2.5631">
        <ele>94</ele>
        <time>2017-09-05T09:55:18Z</time>
      </trkpt>
      <trkpt lat="48.70727" lon="2.56318">
        <ele>94</ele>
        <time>2017-09-05T09:55:18Z</time>
      </trkpt>
      <trkpt lat="48.70725" lon="2.56327">
        <ele>94</ele>
        <time>2017-09-05T09:55:34Z</time>
      </trkpt>
      <trkpt lat="48.70724" lon="2.56334">
        <ele>94</ele>
        <time>2017-09-05T09:55:34Z</time>
      </trkpt>
      <trkpt lat="48.70722" lon="2.56341">
        <ele>94</ele>
        <time>2017-09-05T09:55:34Z</time>
      </trkpt>
      <trkpt lat="48.7072" lon="2.56349">
        <ele>94</ele>
        <time>2017-09-05T09:55:34Z</time>
      </trkpt>
      <trkpt lat="48.70717" lon="2.56357">
        <ele>94</ele>
        <time>2017-09-05T09:55:50Z</time>
      </trkpt>
      <trkpt lat="48.70715" lon="2.56365">
        <ele>94</ele>
        <time>2017-09-05T09:55:50Z</time>
      </trkpt>
      <trkpt lat="48.70713" lon="2.56373">
        <ele>94</ele>
        <time>2017-09-05T09:55:50Z</time>
      </trkpt>
      <trkpt lat="48.70711" lon="2.56382">
        <ele>93</ele>
        <time>2017-09-05T09:55:50Z</time>
      </trkpt>
      <trkpt lat="48.70708" lon="2.5639">
        <ele>93</ele>
        <time>2017-09-05T09:56:06Z</time>
      </trkpt>
      <trkpt lat="48.70707" lon="2.56398">
        <ele>93</ele>
        <time>2017-09-05T09:56:06Z</time>
      </trkpt>
      <trkpt lat="48.70705" lon="2.56405">
        <ele>93</ele>
        <time>2017-09-05T09:56:06Z</time>
      </trkpt>
      <trkpt lat="48.70703" lon="2.56416">
        <ele>93</ele>
        <time>2017-09-05T09:56:06Z</time>
      </trkpt>
      <trkpt lat="48.70702" lon="2.56424">
        <ele>93</ele>
        <time>2017-09-05T09:56:22Z</time>
      </trkpt>
      <trkpt lat="48.707" lon="2.56433">
        <ele>93</ele>
        <time>2017-09-05T09:56:22Z</time>
      </trkpt>
      <trkpt lat="48.70699" lon="2.5644">
        <ele>93</ele>
        <time>2017-09-05T09:56:22Z</time>
      </trkpt>
      <trkpt lat="48.70698" lon="2.56449">
        <ele>93</ele>
        <time>2017-09-05T09:56:22Z</time>
      </trkpt>
      <trkpt lat="48.70696" lon="2.56457">
        <ele>93</ele>
        <time>2017-09-05T09:56:38Z</time>
      </trkpt>
      <trkpt lat="48.70695" lon="2.56465">
        <ele>93</ele>
        <time>2017-09-05T09:56:38Z</time>
      </trkpt>
      <trkpt lat="48.70694" lon="2.56475">
        <ele>93</ele>
        <time>2017-09-05T09:56:38Z</time>
      </trkpt>
      <trkpt lat="48.70692" lon="2.56483">
        <ele>93</ele>
        <time>2017-09-05T09:56:38Z</time>
      </trkpt>
      <trkpt lat="48.7069" lon="2.5649">
        <ele>93</ele>
        <time>2017-09-05T09:56:54Z</time>
      </trkpt>
      <trkpt lat="48.70686" lon="2.56496">
        <ele>93</ele>
        <time>2017-09-05T09:56:54Z</time>
      </trkpt>
      <trkpt lat="48.70681" lon="2.56502">
        <ele>93</ele>
        <time>2017-09-05T09:56:54Z</time>
      </trkpt>
      <trkpt lat="48.70676" lon="2.56505">
        <ele>93</ele>
        <time>2017-09-05T09:56:54Z</time>
      </trkpt>
      <trkpt lat="48.7067" lon="2.56506">
        <ele>93</ele>
        <time>2017-09-05T09:57:10Z</time>
      </trkpt>
      <trkpt lat="48.70664" lon="2.56503">
        <ele>93</ele>
        <time>2017-09-05T09:57:10Z</time>
      </trkpt>
      <trkpt lat="48.70659" lon="2.56499">
        <ele>93</ele>
        <time>2017-09-05T09:57:10Z</time>
      </trkpt>
      <trkpt lat="48.70655" lon="2.56495">
        <ele>93</ele>
        <time>2017-09-05T09:57:10Z</time>
      </trkpt>
      <trkpt lat="48.70651" lon="2.5649">
        <ele>93</ele>
        <time>2017-09-05T09:57:26Z</time>
      </trkpt>
      <trkpt lat="48.70646" lon="2.56485">
        <ele>93</ele>
        <time>2017-09-05T09:57:26Z</time>
      </trkpt>
      <trkpt lat="48.7064" lon="2.5648">
        <ele>93</ele>
        <time>2017-09-05T09:57:26Z</time>
      </trkpt>
      <trkpt lat="48.70636" lon="2.56474">
        <ele>93</ele>
        <time>2017-09-05T09:57:26Z</time>
      </trkpt>
      <trkpt lat="48.70631" lon="2.5647">
        <ele>93</ele>
        <time>2017-09-05T09:57:42Z</time>
      </trkpt>
      <trkpt lat="48.70626" lon="2.56463">
        <ele>93</ele>
        <time>2017-09-05T09:57:42Z</time>
      </trkpt>
      <trkpt lat="48.70622" lon="2.56458">
        <ele>94</ele>
        <time>2017-09-05T09:57:42Z</time>
      </trkpt>
      <trkpt lat="48.70617" lon="2.56454">
        <ele>94</ele>
        <time>2017-09-05T09:57:42Z</time>
      </trkpt>
      <trkpt lat="48.70613" lon="2.5645">
        <ele>94</ele>
        <time>2017-09-05T09:57:58Z</time>
      </trkpt>
      <trkpt lat="48.70609" lon="2.56445">
        <ele>94</ele>
        <time>2017-09-05T09:57:58Z</time>
      </trkpt>
      <trkpt lat="48.70606" lon="2.56439">
        <ele>94</ele>
        <time>2017-09-05T09:57:58Z</time>
      </trkpt>
      <trkpt lat="48.70601" lon="2.56433">
        <ele>94</ele>
        <time>2017-09-05T09:57:58Z</time>
      </trkpt>
      <trkpt lat="48.70596" lon="2.56428">
        <ele>94</ele>
        <time>2017-09-05T09:58:14Z</time>
      </trkpt>
      <trkpt lat="48.70591" lon="2.56422">
        <ele>94</ele>
        <time>2017-09-05T09:58:14Z</time>
      </trkpt>
      <trkpt lat="48.70587" lon="2.56416">
        <ele>94</ele>
        <time>2017-09-05T09:58:14Z</time>
      </trkpt>
      <trkpt lat="48.70582" lon="2.56411">
        <ele>94</ele>
        <time>2017-09-05T09:58:14Z</time>
      </trkpt>
      <trkpt lat="48.70576" lon="2.56407">
        <ele>94</ele>
        <time>2017-09-05T09:58:30Z</time>
      </trkpt>
      <trkpt lat="48.70572" lon="2.56402">
        <ele>94</ele>
        <time>2017-09-05T09:58:30Z</time>
      </trkpt>
      <trkpt lat="48.70567" lon="2.56397">
        <ele>94</ele>
        <time>2017-09-05T09:58:30Z</time>
      </trkpt>
      <trkpt lat="48.70563" lon="2.56392">
        <ele>94</ele>
        <time>2017-09-05T09:58:30Z</time>
      </trkpt>
      <trkpt lat="48.70558" lon="2.56388">
        <ele>94</ele>
        <time>2017-09-05T09:58:46Z</time>
      </trkpt>
      <trkpt lat="48.70554" lon="2.56382">
        <ele>94</ele>
        <time>2017-09-05T09:58:46Z</time>
      </trkpt>
      <trkpt lat="48.70548" lon="2.56377">
        <ele>94</ele>
        <time>2017-09-05T09:58:46Z</time>
      </trkpt>
      <trkpt lat="48.70542" lon="2.56371">
        <ele>94</ele>
        <time>2017-09-05T09:58:46Z</time>
      </trkpt>
      <trkpt lat="48.70538" lon="2.56366">
        <ele>95</ele>
        <time>2017-09-05T09:59:02Z</time>
      </trkpt>
      <trkpt lat="48.70534" lon="2.56361">
        <ele>95</ele>
        <time>2017-09-05T09:59:02Z</time>
      </trkpt>
      <trkpt lat="48.7053" lon="2.56356">
        <ele>95</ele>
        <time>2017-09-05T09:59:02Z</time>
      </trkpt>
      <trkpt lat="48.70526" lon="2.56351">
        <ele>95</ele>
        <time>2017-09-05T09:59:02Z</time>
      </trkpt>
      <trkpt lat="48.70522" lon="2.56346">
        <ele>95</ele>
        <time>2017-09-05T09:59:18Z</time>
      </trkpt>
      <trkpt lat="48.70518" lon="2.5634">
        <ele>95</ele>
        <time>2017-09-05T09:59:18Z</time>
      </trkpt>
      <trkpt lat="48.70513" lon="2.56335">
        <ele>95</ele>
        <time>2017-09-05T09:59:18Z</time>
      </trkpt>
      <trkpt lat="48.70508" lon="2.5633">
        <ele>95</ele>
        <time>2017-09-05T09:59:18Z</time>
      </trkpt>
      <trkpt lat="48.70505" lon="2.56324">
        <ele>95</ele>
        <time>2017-09-05T09:59:34Z</time>
      </trkpt>
      <trkpt lat="48.705" lon="2.56319">
        <ele>95</ele>
        <time>2017-09-05T09:59:34Z</time>
      </trkpt>
      <trkpt lat="48.70496" lon="2.56314">
        <ele>95</ele>
        <time>2017-09-05T09:59:34Z</time>
      </trkpt>
      <trkpt lat="48.70492" lon="2.5631">
        <ele>95</ele>
        <time>2017-09-05T09:59:34Z</time>
      </trkpt>
      <trkpt lat="48.70488" lon="2.56306">
        <ele>95</ele>
        <time>2017-09-05T09:59:50Z</time>
      </trkpt>
      <trkpt lat="48.70484" lon="2.563">
        <ele>95</ele>
        <time>2017-09-05T09:59:50Z</time>
      </trkpt>
      <trkpt lat="48.70479" lon="2.56294">
        <ele>95</ele>
        <time>2017-09-05T09:59:50Z</time>
      </trkpt>
      <trkpt lat="48.70474" lon="2.56289">
        <ele>95</ele>
        <time>2017-09-05T09:59:50Z</time>
      </trkpt>
      <trkpt lat="48.70469" lon="2.56286">
        <ele>95</ele>
        <time>2017-09-05T10:00:06Z</time>
      </trkpt>
      <trkpt lat="48.70463" lon="2.56287">
        <ele>95</ele>
        <time>2017-09-05T10:00:06Z</time>
      </trkpt>
      <trkpt lat="48.70458" lon="2.5629">
        <ele>95</ele>
        <time>2017-09-05T10:00:06Z</time>
      </trkpt>
      <trkpt lat="48.70453" lon="2.56295">
        <ele>95</ele>
        <time>2017-09-05T10:00:06Z</time>
      </trkpt>
      <trkpt lat="48.70449" lon="2.56302">
        <ele>95</ele>
        <time>2017-09-05T10:00:22Z</time>
      </trkpt>
      <trkpt lat="48.70446" lon="2.56309">
        <ele>95</ele>
        <time>2017-09-05T10:00:22Z</time>
      </trkpt>
      <trkpt lat="48.70446" lon="2.56313">
        <ele>95</ele>
        <time>2017-09-05T10:00:22Z</time>
      </trkpt>
      <trkpt lat="48.70446" lon="2.56318">
        <ele>95</ele>
        <time>2017-09-05T10:00:22Z</time>
      </trkpt>
      <trkpt lat="48.70445" lon="2.56324">
        <ele>95</ele>
        <time>2017-09-05T10:00:38Z</time>
      </trkpt>
      <trkpt lat="48.70442" lon="2.56332">
        <ele>95</ele>
        <time>2017-09-05T10:00:38Z</time>
      </trkpt>
      <trkpt lat="48.7044" lon="2.56339">
        <ele>95</ele>
        <time>2017-09-05T10:00:38Z</time>
      </trkpt>
      <trkpt lat="48.70437" lon="2.56347">
        <ele>95</ele>
        <time>2017-09-05T10:00:38Z</time>
      </trkpt>
      <trkpt lat="48.70435" lon="2.56354">
        <ele>95</ele>
        <time>2017-09-05T10:00:54Z</time>
      </trkpt>
      <trkpt lat="48.70433" lon="2.56359">
        <ele>95</ele>
        <time>2017-09-05T10:00:54Z</time>
      </trkpt>
      <trkpt lat="48.70432" lon="2.56365">
        <ele>95</ele>
        <time>2017-09-05T10:00:54Z</time>
      </trkpt>
      <trkpt lat="48.7043" lon="2.56375">
        <ele>95</ele>
        <time>2017-09-05T10:00:54Z</time>
      </trkpt>
      <trkpt lat="48.70428" lon="2.56384">
        <ele>95</ele>
        <time>2017-09-05T10:01:10Z</time>
      </trkpt>
      <trkpt lat="48.70425" lon="2.56394">
        <ele>95</ele>
        <time>2017-09-05T10:01:10Z</time>
      </trkpt>
      <trkpt lat="48.70423" lon="2.564">
        <ele>95</ele>
        <time>2017-09-05T10:01:10Z</time>
      </trkpt>
      <trkpt lat="48.7042" lon="2.56407">
        <ele>95</ele>
        <time>2017-09-05T10:01:10Z</time>
      </trkpt>
      <trkpt lat="48.70418" lon="2.56417">
        <ele>95</ele>
        <time>2017-09-05T10:01:26Z</time>
      </trkpt>
      <trkpt lat="48.70418" lon="2.56426">
        <ele>95</ele>
        <time>2017-09-05T10:01:26Z</time>
      </trkpt>
      <trkpt lat="48.70418" lon="2.56432">
        <ele>95</ele>
        <time>2017-09-05T10:01:26Z</time>
      </trkpt>
      <trkpt lat="48.7042" lon="2.56439">
        <ele>95</ele>
        <time>2017-09-05T10:01:26Z</time>
      </trkpt>
      <trkpt lat="48.70421" lon="2.56442">
        <ele>95</ele>
        <time>2017-09-05T10:01:42Z</time>
      </trkpt>
      <trkpt lat="48.70424" lon="2.56446">
        <ele>95</ele>
        <time>2017-09-05T10:01:42Z</time>
      </trkpt>
      <trkpt lat="48.70427" lon="2.56452">
        <ele>95</ele>
        <time>2017-09-05T10:01:42Z</time>
      </trkpt>
      <trkpt lat="48.7043" lon="2.56459">
        <ele>95</ele>
        <time>2017-09-05T10:01:42Z</time>
      </trkpt>
      <trkpt lat="48.70436" lon="2.56464">
        <ele>95</ele>
        <time>2017-09-05T10:01:58Z</time>
      </trkpt>
      <trkpt lat="48.70439" lon="2.56469">
        <ele>95</ele>
        <time>2017-09-05T10:01:58Z</time>
      </trkpt>
      <trkpt lat="48.70442" lon="2.56472">
        <ele>95</ele>
        <time>2017-09-05T10:01:58Z</time>
      </trkpt>
      <trkpt lat="48.70445" lon="2.56478">
        <ele>95</ele>
        <time>2017-09-05T10:01:58Z</time>
      </trkpt>
      <trkpt lat="48.70448" lon="2.56485">
        <ele>95</ele>
        <time>2017-09-05T10:02:14Z</time>
      </trkpt>
      <trkpt lat="48.7045" lon="2.56491">
        <ele>95</ele>
        <time>2017-09-05T10:02:14Z</time>
      </trkpt>
      <trkpt lat="48.70454" lon="2.56497">
        <ele>95</ele>
        <time>2017-09-05T10:02:14Z</time>
      </trkpt>
      <trkpt lat="48.70458" lon="2.56502">
        <ele>95</ele>
        <time>2017-09-05T10:02:14Z</time>
      </trkpt>
      <trkpt lat="48.70463" lon="2.56507">
        <ele>94</ele>
        <time>2017-09-05T10:02:30Z</time>
      </trkpt>
      <trkpt lat="48.70467" lon="2.56512">
        <ele>94</ele>
        <time>2017-09-05T10:02:30Z</time>
      </trkpt>
      <trkpt lat="48.70474" lon="2.56517">
        <ele>94</ele>
        <time>2017-09-05T10:02:30Z</time>
      </trkpt>
      <trkpt lat="48.7048" lon="2.56523">
        <ele>94</ele>
        <time>2017-09-05T10:02:30Z</time>
      </trkpt>
      <trkpt lat="48.70486" lon="2.56527">
        <ele>94</ele>
        <time>2017-09-05T10:02:46Z</time>
      </trkpt>
      <trkpt lat="48.70489" lon="2.56531">
        <ele>94</ele>
        <time>2017-09-05T10:02:46Z</time>
      </trkpt>
      <trkpt lat="48.70493" lon="2.56537">
        <ele>94</ele>
        <time>2017-09-05T10:02:46Z</time>
      </trkpt>
      <trkpt lat="48.70499" lon="2.56545">
        <ele>93</ele>
        <time>2017-09-05T10:02:46Z</time>
      </trkpt>
      <trkpt lat="48.70503" lon="2.56548">
        <ele>93</ele>
        <time>2017-09-05T10:03:02Z</time>
      </trkpt>
      <trkpt lat="48.70508" lon="2.56552">
        <ele>93</ele>
        <time>2017-09-05T10:03:02Z</time>
      </trkpt>
      <trkpt lat="48.70517" lon="2.5656">
        <ele>93</ele>
        <time>2017-09-05T10:03:02Z</time>
      </trkpt>
      <trkpt lat="48.70521" lon="2.56566">
        <ele>93</ele>
        <time>2017-09-05T10:03:02Z</time>
      </trkpt>
      <trkpt lat="48.70525" lon="2.56571">
        <ele>93</ele>
        <time>2017-09-05T10:03:18Z</time>
      </trkpt>
      <trkpt lat="48.70528" lon="2.56575">
        <ele>93</ele>
        <time>2017-09-05T10:03:18Z</time>
      </trkpt>
      <trkpt lat="48.70533" lon="2.5658">
        <ele>93</ele>
        <time>2017-09-05T10:03:18Z</time>
      </trkpt>
      <trkpt lat="48.70537" lon="2.56583">
        <ele>93</ele>
        <time>2017-09-05T10:03:18Z</time>
      </trkpt>
      <trkpt lat="48.70544" lon="2.5659">
        <ele>94</ele>
        <time>2017-09-05T10:03:34Z</time>
      </trkpt>
      <trkpt lat="48.7055" lon="2.56596">
        <ele>94</ele>
        <time>2017-09-05T10:03:34Z</time>
      </trkpt>
      <trkpt lat="48.70554" lon="2.56602">
        <ele>94</ele>
        <time>2017-09-05T10:03:34Z</time>
      </trkpt>
      <trkpt lat="48.70558" lon="2.56607">
        <ele>94</ele>
        <time>2017-09-05T10:03:34Z</time>
      </trkpt>
      <trkpt lat="48.70564" lon="2.56614">
        <ele>94</ele>
        <time>2017-09-05T10:03:50Z</time>
      </trkpt>
      <trkpt lat="48.70568" lon="2.56619">
        <ele>94</ele>
        <time>2017-09-05T10:03:50Z</time>
      </trkpt>
      <trkpt lat="48.70573" lon="2.56623">
        <ele>94</ele>
        <time>2017-09-05T10:03:50Z</time>
      </trkpt>
      <trkpt lat="48.70578" lon="2.56628">
        <ele>94</ele>
        <time>2017-09-05T10:03:50Z</time>
      </trkpt>
      <trkpt lat="48.70582" lon="2.56634">
        <ele>94</ele>
        <time>2017-09-05T10:04:06Z</time>
      </trkpt>
      <trkpt lat="48.70587" lon="2.56639">
        <ele>94</ele>
        <time>2017-09-05T10:04:06Z</time>
      </trkpt>
      <trkpt lat="48.70592" lon="2.56643">
        <ele>94</ele>
        <time>2017-09-05T10:04:06Z</time>
      </trkpt>
      <trkpt lat="48.70597" lon="2.5665">
        <ele>94</ele>
        <time>2017-09-05T10:04:06Z</time>
      </trkpt>
      <trkpt lat="48.70602" lon="2.56653">
        <ele>94</ele>
        <time>2017-09-05T10:04:22Z</time>
      </trkpt>
      <trkpt lat="48.70607" lon="2.56659">
        <ele>94</ele>
        <time>2017-09-05T10:04:22Z</time>
      </trkpt>
      <trkpt lat="48.70612" lon="2.56664">
        <ele>94</ele>
        <time>2017-09-05T10:04:22Z</time>
      </trkpt>
      <trkpt lat="48.70616" lon="2.56669">
        <ele>94</ele>
        <time>2017-09-05T10:04:22Z</time>
      </trkpt>
      <trkpt lat="48.7062" lon="2.56672">
        <ele>94</ele>
        <time>2017-09-05T10:04:38Z</time>
      </trkpt>
      <trkpt lat="48.70624" lon="2.56679">
        <ele>94</ele>
        <time>2017-09-05T10:04:38Z</time>
      </trkpt>
      <trkpt lat="48.70629" lon="2.56683">
        <ele>96</ele>
        <time>2017-09-05T10:04:38Z</time>
      </trkpt>
      <trkpt lat="48.70633" lon="2.56686">
        <ele>96</ele>
        <time>2017-09-05T10:04:38Z</time>
      </trkpt>
      <trkpt lat="48.70637" lon="2.56692">
        <ele>96</ele>
        <time>2017-09-05T10:04:54Z</time>
      </trkpt>
      <trkpt lat="48.7064" lon="2.56697">
        <ele>96</ele>
        <time>2017-09-05T10:04:54Z</time>
      </trkpt>
      <trkpt lat="48.70644" lon="2.56704">
        <ele>96</ele>
        <time>2017-09-05T10:04:54Z</time>
      </trkpt>
      <trkpt lat="48.70649" lon="2.5671">
        <ele>96</ele>
        <time>2017-09-05T10:04:54Z</time>
      </trkpt>
      <trkpt lat="48.70653" lon="2.56715">
        <ele>96</ele>
        <time>2017-09-05T10:05:10Z</time>
      </trkpt>
      <trkpt lat="48.70658" lon="2.56721">
        <ele>96</ele>
        <time>2017-09-05T10:05:10Z</time>
      </trkpt>
      <trkpt lat="48.70662" lon="2.56725">
        <ele>96</ele>
        <time>2017-09-05T10:05:10Z</time>
      </trkpt>
      <trkpt lat="48.70665" lon="2.56727">
        <ele>96</ele>
        <time>2017-09-05T10:05:10Z</time>
      </trkpt>
      <trkpt lat="48.70667" lon="2.56729">
        <ele>96</ele>
        <time>2017-09-05T10:05:26Z</time>
      </trkpt>
      <trkpt lat="48.70671" lon="2.56733">
        <ele>96</ele>
        <time>2017-09-05T10:05:26Z</time>
      </trkpt>
      <trkpt lat="48.70675" lon="2.56743">
        <ele>96</ele>
        <time>2017-09-05T10:05:26Z</time>
      </trkpt>
      <trkpt lat="48.70677" lon="2.56754">
        <ele>96</ele>
        <time>2017-09-05T10:05:26Z</time>
      </trkpt>
      <trkpt lat="48.70677" lon="2.56762">
        <ele>96</ele>
        <time>2017-09-05T10:05:42Z</time>
      </trkpt>
      <trkpt lat="48.70678" lon="2.5677">
        <ele>96</ele>
        <time>2017-09-05T10:05:42Z</time>
      </trkpt>
      <trkpt lat="48.70681" lon="2.56778">
        <ele>96</ele>
        <time>2017-09-05T10:05:42Z</time>
      </trkpt>
      <trkpt lat="48.70685" lon="2.56787">
        <ele>96</ele>
        <time>2017-09-05T10:05:42Z</time>
      </trkpt>
      <trkpt lat="48.70688" lon="2.56794">
        <ele>94</ele>
        <time>2017-09-05T10:05:58Z</time>
      </trkpt>
      <trkpt lat="48.70691" lon="2.568">
        <ele>94</ele>
        <time>2017-09-05T10:05:58Z</time>
      </trkpt>
      <trkpt lat="48.70695" lon="2.56806">
        <ele>94</ele>
        <time>2017-09-05T10:05:58Z</time>
      </trkpt>
      <trkpt lat="48.70698" lon="2.56813">
        <ele>94</ele>
        <time>2017-09-05T10:05:58Z</time>
      </trkpt>
      <trkpt lat="48.70702" lon="2.56819">
        <ele>94</ele>
        <time>2017-09-05T10:06:14Z</time>
      </trkpt>
      <trkpt lat="48.70704" lon="2.56827">
        <ele>94</ele>
        <time>2017-09-05T10:06:14Z</time>
      </trkpt>
      <trkpt lat="48.70706" lon="2.56834">
        <ele>94</ele>
        <time>2017-09-05T10:06:14Z</time>
      </trkpt>
      <trkpt lat="48.70709" lon="2.5684">
        <ele>94</ele>
        <time>2017-09-05T10:06:14Z</time>
      </trkpt>
      <trkpt lat="48.70712" lon="2.56847">
        <ele>94</ele>
        <time>2017-09-05T10:06:30Z</time>
      </trkpt>
      <trkpt lat="48.70715" lon="2.56853">
        <ele>94</ele>
        <time>2017-09-05T10:06:30Z</time>
      </trkpt>
      <trkpt lat="48.70717" lon="2.56858">
        <ele>94</ele>
        <time>2017-09-05T10:06:30Z</time>
      </trkpt>
      <trkpt lat="48.70718" lon="2.56858">
        <ele>94</ele>
        <time>2017-09-05T10:06:30Z</time>
      </trkpt>
      <trkpt lat="48.70722" lon="2.56859">
        <ele>94</ele>
        <time>2017-09-05T10:07:58Z</time>
      </trkpt>
      <trkpt lat="48.70723" lon="2.56861">
        <ele>94</ele>
        <time>2017-09-05T10:07:58Z</time>
      </trkpt>
      <trkpt lat="48.70721" lon="2.56866">
        <ele>94</ele>
        <time>2017-09-05T10:07:58Z</time>
      </trkpt>
      <trkpt lat="48.70716" lon="2.56868">
        <ele>94</ele>
        <time>2017-09-05T10:07:58Z</time>
      </trkpt>
      <trkpt lat="48.70712" lon="2.5687">
        <ele>94</ele>
        <time>2017-09-05T10:07:58Z</time>
      </trkpt>
      <trkpt lat="48.7071" lon="2.56876">
        <ele>93</ele>
        <time>2017-09-05T10:09:18Z</time>
      </trkpt>
      <trkpt lat="48.70713" lon="2.56876">
        <ele>93</ele>
        <time>2017-09-05T10:09:18Z</time>
      </trkpt>
      <trkpt lat="48.70715" lon="2.56874">
        <ele>94</ele>
        <time>2017-09-05T10:09:18Z</time>
      </trkpt>
      <trkpt lat="48.70717" lon="2.5687">
        <ele>94</ele>
        <time>2017-09-05T10:09:18Z</time>
      </trkpt>
      <trkpt lat="48.70719" lon="2.56866">
        <ele>94</ele>
        <time>2017-09-05T10:09:18Z</time>
      </trkpt>
      <trkpt lat="48.70719" lon="2.56862">
        <ele>94</ele>
        <time>2017-09-05T10:11:22Z</time>
      </trkpt>
      <trkpt lat="48.70723" lon="2.56868">
        <ele>94</ele>
        <time>2017-09-05T10:11:22Z</time>
      </trkpt>
      <trkpt lat="48.70725" lon="2.56876">
        <ele>93</ele>
        <time>2017-09-05T10:11:22Z</time>
      </trkpt>
      <trkpt lat="48.70728" lon="2.56884">
        <ele>93</ele>
        <time>2017-09-05T10:11:22Z</time>
      </trkpt>
      <trkpt lat="48.70729" lon="2.56892">
        <ele>93</ele>
        <time>2017-09-05T10:11:22Z</time>
      </trkpt>
      <trkpt lat="48.70731" lon="2.569">
        <ele>93</ele>
        <time>2017-09-05T10:11:38Z</time>
      </trkpt>
      <trkpt lat="48.70732" lon="2.56905">
        <ele>93</ele>
        <time>2017-09-05T10:11:38Z</time>
      </trkpt>
      <trkpt lat="48.70733" lon="2.56913">
        <ele>93</ele>
        <time>2017-09-05T10:11:38Z</time>
      </trkpt>
      <trkpt lat="48.70733" lon="2.56919">
        <ele>93</ele>
        <time>2017-09-05T10:11:38Z</time>
      </trkpt>
      <trkpt lat="48.70734" lon="2.56928">
        <ele>93</ele>
        <time>2017-09-05T10:11:54Z</time>
      </trkpt>
      <trkpt lat="48.70735" lon="2.56937">
        <ele>93</ele>
        <time>2017-09-05T10:11:54Z</time>
      </trkpt>
      <trkpt lat="48.70736" lon="2.56946">
        <ele>93</ele>
        <time>2017-09-05T10:11:54Z</time>
      </trkpt>
      <trkpt lat="48.70737" lon="2.56953">
        <ele>93</ele>
        <time>2017-09-05T10:11:54Z</time>
      </trkpt>
      <trkpt lat="48.70739" lon="2.5696">
        <ele>94</ele>
        <time>2017-09-05T10:12:10Z</time>
      </trkpt>
      <trkpt lat="48.70741" lon="2.56967">
        <ele>94</ele>
        <time>2017-09-05T10:12:10Z</time>
      </trkpt>
      <trkpt lat="48.70744" lon="2.56975">
        <ele>94</ele>
        <time>2017-09-05T10:12:10Z</time>
      </trkpt>
      <trkpt lat="48.70746" lon="2.56984">
        <ele>94</ele>
        <time>2017-09-05T10:12:10Z</time>
      </trkpt>
      <trkpt lat="48.70747" lon="2.5699">
        <ele>94</ele>
        <time>2017-09-05T10:12:26Z</time>
      </trkpt>
      <trkpt lat="48.70749" lon="2.56997">
        <ele>94</ele>
        <time>2017-09-05T10:12:26Z</time>
      </trkpt>
      <trkpt lat="48.70751" lon="2.57004">
        <ele>94</ele>
        <time>2017-09-05T10:12:26Z</time>
      </trkpt>
      <trkpt lat="48.70753" lon="2.57011">
        <ele>94</ele>
        <time>2017-09-05T10:12:26Z</time>
      </trkpt>
      <trkpt lat="48.70754" lon="2.57018">
        <ele>94</ele>
        <time>2017-09-05T10:12:42Z</time>
      </trkpt>
      <trkpt lat="48.70756" lon="2.57025">
        <ele>94</ele>
        <time>2017-09-05T10:12:42Z</time>
      </trkpt>
      <trkpt lat="48.70759" lon="2.5703">
        <ele>94</ele>
        <time>2017-09-05T10:12:42Z</time>
      </trkpt>
      <trkpt lat="48.70762" lon="2.57036">
        <ele>94</ele>
        <time>2017-09-05T10:12:42Z</time>
      </trkpt>
      <trkpt lat="48.70765" lon="2.57043">
        <ele>94</ele>
        <time>2017-09-05T10:12:58Z</time>
      </trkpt>
      <trkpt lat="48.70766" lon="2.57051">
        <ele>94</ele>
        <time>2017-09-05T10:12:58Z</time>
      </trkpt>
      <trkpt lat="48.70767" lon="2.57056">
        <ele>94</ele>
        <time>2017-09-05T10:12:58Z</time>
      </trkpt>
      <trkpt lat="48.7077" lon="2.57064">
        <ele>94</ele>
        <time>2017-09-05T10:12:58Z</time>
      </trkpt>
      <trkpt lat="48.70772" lon="2.57071">
        <ele>94</ele>
        <time>2017-09-05T10:13:14Z</time>
      </trkpt>
      <trkpt lat="48.70775" lon="2.57076">
        <ele>94</ele>
        <time>2017-09-05T10:13:14Z</time>
      </trkpt>
      <trkpt lat="48.70779" lon="2.57083">
        <ele>94</ele>
        <time>2017-09-05T10:13:14Z</time>
      </trkpt>
      <trkpt lat="48.70781" lon="2.5709">
        <ele>94</ele>
        <time>2017-09-05T10:13:14Z</time>
      </trkpt>
      <trkpt lat="48.70782" lon="2.57098">
        <ele>94</ele>
        <time>2017-09-05T10:13:30Z</time>
      </trkpt>
      <trkpt lat="48.70785" lon="2.57106">
        <ele>94</ele>
        <time>2017-09-05T10:13:30Z</time>
      </trkpt>
      <trkpt lat="48.70787" lon="2.57113">
        <ele>94</ele>
        <time>2017-09-05T10:13:30Z</time>
      </trkpt>
      <trkpt lat="48.70788" lon="2.57119">
        <ele>94</ele>
        <time>2017-09-05T10:13:30Z</time>
      </trkpt>
      <trkpt lat="48.70789" lon="2.57126">
        <ele>95</ele>
        <time>2017-09-05T10:13:46Z</time>
      </trkpt>
      <trkpt lat="48.7079" lon="2.57134">
        <ele>95</ele>
        <time>2017-09-05T10:13:46Z</time>
      </trkpt>
      <trkpt lat="48.7079" lon="2.57142">
        <ele>95</ele>
        <time>2017-09-05T10:13:46Z</time>
      </trkpt>
      <trkpt lat="48.70791" lon="2.5715">
        <ele>95</ele>
        <time>2017-09-05T10:13:46Z</time>
      </trkpt>
      <trkpt lat="48.70791" lon="2.57156">
        <ele>95</ele>
        <time>2017-09-05T10:14:02Z</time>
      </trkpt>
      <trkpt lat="48.7079" lon="2.57164">
        <ele>95</ele>
        <time>2017-09-05T10:14:02Z</time>
      </trkpt>
      <trkpt lat="48.7079" lon="2.5717">
        <ele>95</ele>
        <time>2017-09-05T10:14:02Z</time>
      </trkpt>
      <trkpt lat="48.70791" lon="2.57176">
        <ele>95</ele>
        <time>2017-09-05T10:14:02Z</time>
      </trkpt>
      <trkpt lat="48.70791" lon="2.57185">
        <ele>95</ele>
        <time>2017-09-05T10:14:18Z</time>
      </trkpt>
      <trkpt lat="48.70792" lon="2.57193">
        <ele>94</ele>
        <time>2017-09-05T10:14:18Z</time>
      </trkpt>
      <trkpt lat="48.70793" lon="2.57201">
        <ele>94</ele>
        <time>2017-09-05T10:14:18Z</time>
      </trkpt>
      <trkpt lat="48.70794" lon="2.57209">
        <ele>96</ele>
        <time>2017-09-05T10:14:18Z</time>
      </trkpt>
      <trkpt lat="48.70794" lon="2.57216">
        <ele>96</ele>
        <time>2017-09-05T10:14:34Z</time>
      </trkpt>
      <trkpt lat="48.70795" lon="2.57223">
        <ele>96</ele>
        <time>2017-09-05T10:14:34Z</time>
      </trkpt>
      <trkpt lat="48.70795" lon="2.57231">
        <ele>96</ele>
        <time>2017-09-05T10:14:34Z</time>
      </trkpt>
      <trkpt lat="48.70795" lon="2.57238">
        <ele>96</ele>
        <time>2017-09-05T10:14:34Z</time>
      </trkpt>
      <trkpt lat="48.70796" lon="2.57244">
        <ele>96</ele>
        <time>2017-09-05T10:14:50Z</time>
      </trkpt>
      <trkpt lat="48.70797" lon="2.57251">
        <ele>96</ele>
        <time>2017-09-05T10:14:50Z</time>
      </trkpt>
      <trkpt lat="48.70797" lon="2.57258">
        <ele>96</ele>
        <time>2017-09-05T10:14:50Z</time>
      </trkpt>
      <trkpt lat="48.708" lon="2.57264">
        <ele>96</ele>
        <time>2017-09-05T10:14:50Z</time>
      </trkpt>
      <trkpt lat="48.70803" lon="2.57271">
        <ele>96</ele>
        <time>2017-09-05T10:15:06Z</time>
      </trkpt>
      <trkpt lat="48.70807" lon="2.57277">
        <ele>96</ele>
        <time>2017-09-05T10:15:06Z</time>
      </trkpt>
      <trkpt lat="48.70811" lon="2.57282">
        <ele>96</ele>
        <time>2017-09-05T10:15:06Z</time>
      </trkpt>
      <trkpt lat="48.70814" lon="2.57285">
        <ele>96</ele>
        <time>2017-09-05T10:15:06Z</time>
      </trkpt>
      <trkpt lat="48.70819" lon="2.57287">
        <ele>96</ele>
        <time>2017-09-05T10:15:22Z</time>
      </trkpt>
      <trkpt lat="48.70825" lon="2.5729">
        <ele>96</ele>
        <time>2017-09-05T10:15:22Z</time>
      </trkpt>
      <trkpt lat="48.70831" lon="2.57293">
        <ele>96</ele>
        <time>2017-09-05T10:15:22Z</time>
      </trkpt>
      <trkpt lat="48.70837" lon="2.57297">
        <ele>96</ele>
        <time>2017-09-05T10:15:22Z</time>
      </trkpt>
      <trkpt lat="48.70842" lon="2.57299">
        <ele>96</ele>
        <time>2017-09-05T10:15:38Z</time>
      </trkpt>
      <trkpt lat="48.70847" lon="2.57303">
        <ele>96</ele>
        <time>2017-09-05T10:15:38Z</time>
      </trkpt>
      <trkpt lat="48.70852" lon="2.57306">
        <ele>96</ele>
        <time>2017-09-05T10:15:38Z</time>
      </trkpt>
      <trkpt lat="48.70857" lon="2.57309">
        <ele>96</ele>
        <time>2017-09-05T10:15:38Z</time>
      </trkpt>
      <trkpt lat="48.70861" lon="2.57314">
        <ele>96</ele>
        <time>2017-09-05T10:15:54Z</time>
      </trkpt>
      <trkpt lat="48.70866" lon="2.5732">
        <ele>96</ele>
        <time>2017-09-05T10:15:54Z</time>
      </trkpt>
      <trkpt lat="48.70869" lon="2.57327">
        <ele>96</ele>
        <time>2017-09-05T10:15:54Z</time>
      </trkpt>
      <trkpt lat="48.70872" lon="2.57334">
        <ele>96</ele>
        <time>2017-09-05T10:15:54Z</time>
      </trkpt>
      <trkpt lat="48.70875" lon="2.57341">
        <ele>96</ele>
        <time>2017-09-05T10:16:10Z</time>
      </trkpt>
      <trkpt lat="48.70877" lon="2.5735">
        <ele>94</ele>
        <time>2017-09-05T10:16:10Z</time>
      </trkpt>
      <trkpt lat="48.70877" lon="2.57359">
        <ele>94</ele>
        <time>2017-09-05T10:16:10Z</time>
      </trkpt>
      <trkpt lat="48.70878" lon="2.57367">
        <ele>94</ele>
        <time>2017-09-05T10:16:10Z</time>
      </trkpt>
      <trkpt lat="48.70879" lon="2.57377">
        <ele>94</ele>
        <time>2017-09-05T10:16:26Z</time>
      </trkpt>
      <trkpt lat="48.70878" lon="2.57385">
        <ele>94</ele>
        <time>2017-09-05T10:16:26Z</time>
      </trkpt>
      <trkpt lat="48.70877" lon="2.57392">
        <ele>94</ele>
        <time>2017-09-05T10:16:26Z</time>
      </trkpt>
      <trkpt lat="48.70876" lon="2.57402">
        <ele>94</ele>
        <time>2017-09-05T10:16:26Z</time>
      </trkpt>
      <trkpt lat="48.70876" lon="2.57409">
        <ele>94</ele>
        <time>2017-09-05T10:16:42Z</time>
      </trkpt>
      <trkpt lat="48.70876" lon="2.57418">
        <ele>94</ele>
        <time>2017-09-05T10:16:42Z</time>
      </trkpt>
      <trkpt lat="48.70876" lon="2.57426">
        <ele>94</ele>
        <time>2017-09-05T10:16:42Z</time>
      </trkpt>
      <trkpt lat="48.70877" lon="2.57432">
        <ele>94</ele>
        <time>2017-09-05T10:16:42Z</time>
      </trkpt>
      <trkpt lat="48.70877" lon="2.5744">
        <ele>94</ele>
        <time>2017-09-05T10:16:58Z</time>
      </trkpt>
      <trkpt lat="48.70878" lon="2.57445">
        <ele>94</ele>
        <time>2017-09-05T10:16:58Z</time>
      </trkpt>
      <trkpt lat="48.70879" lon="2.57453">
        <ele>94</ele>
        <time>2017-09-05T10:16:58Z</time>
      </trkpt>
      <trkpt lat="48.70879" lon="2.57462">
        <ele>95</ele>
        <time>2017-09-05T10:16:58Z</time>
      </trkpt>
      <trkpt lat="48.70879" lon="2.5747">
        <ele>95</ele>
        <time>2017-09-05T10:17:14Z</time>
      </trkpt>
      <trkpt lat="48.7088" lon="2.57478">
        <ele>95</ele>
        <time>2017-09-05T10:17:14Z</time>
      </trkpt>
      <trkpt lat="48.70881" lon="2.57487">
        <ele>95</ele>
        <time>2017-09-05T10:17:14Z</time>
      </trkpt>
      <trkpt lat="48.70881" lon="2.57496">
        <ele>95</ele>
        <time>2017-09-05T10:17:14Z</time>
      </trkpt>
      <trkpt lat="48.70882" lon="2.57506">
        <ele>95</ele>
        <time>2017-09-05T10:17:30Z</time>
      </trkpt>
      <trkpt lat="48.70884" lon="2.57515">
        <ele>95</ele>
        <time>2017-09-05T10:17:30Z</time>
      </trkpt>
      <trkpt lat="48.70887" lon="2.57523">
        <ele>95</ele>
        <time>2017-09-05T10:17:30Z</time>
      </trkpt>
      <trkpt lat="48.70889" lon="2.57529">
        <ele>95</ele>
        <time>2017-09-05T10:17:30Z</time>
      </trkpt>
      <trkpt lat="48.70891" lon="2.57534">
        <ele>95</ele>
        <time>2017-09-05T10:17:46Z</time>
      </trkpt>
      <trkpt lat="48.70893" lon="2.57543">
        <ele>95</ele>
        <time>2017-09-05T10:17:46Z</time>
      </trkpt>
      <trkpt lat="48.70895" lon="2.57551">
        <ele>95</ele>
        <time>2017-09-05T10:17:46Z</time>
      </trkpt>
      <trkpt lat="48.70897" lon="2.57559">
        <ele>95</ele>
        <time>2017-09-05T10:17:46Z</time>
      </trkpt>
      <trkpt lat="48.70899" lon="2.57565">
        <ele>95</ele>
        <time>2017-09-05T10:18:02Z</time>
      </trkpt>
      <trkpt lat="48.70901" lon="2.57574">
        <ele>95</ele>
        <time>2017-09-05T10:18:02Z</time>
      </trkpt>
      <trkpt lat="48.70903" lon="2.57581">
        <ele>95</ele>
        <time>2017-09-05T10:18:02Z</time>
      </trkpt>
      <trkpt lat="48.70906" lon="2.57589">
        <ele>95</ele>
        <time>2017-09-05T10:18:02Z</time>
      </trkpt>
      <trkpt lat="48.70909" lon="2.57593">
        <ele>95</ele>
        <time>2017-09-05T10:18:18Z</time>
      </trkpt>
      <trkpt lat="48.70914" lon="2.57603">
        <ele>95</ele>
        <time>2017-09-05T10:18:18Z</time>
      </trkpt>
      <trkpt lat="48.70917" lon="2.57611">
        <ele>95</ele>
        <time>2017-09-05T10:18:18Z</time>
      </trkpt>
      <trkpt lat="48.7092" lon="2.57616">
        <ele>95</ele>
        <time>2017-09-05T10:18:18Z</time>
      </trkpt>
      <trkpt lat="48.70923" lon="2.57623">
        <ele>95</ele>
        <time>2017-09-05T10:18:34Z</time>
      </trkpt>
      <trkpt lat="48.70926" lon="2.57629">
        <ele>95</ele>
        <time>2017-09-05T10:18:34Z</time>
      </trkpt>
      <trkpt lat="48.70929" lon="2.57637">
        <ele>95</ele>
        <time>2017-09-05T10:18:34Z</time>
      </trkpt>
      <trkpt lat="48.70933" lon="2.57644">
        <ele>95</ele>
        <time>2017-09-05T10:18:34Z</time>
      </trkpt>
      <trkpt lat="48.70936" lon="2.57651">
        <ele>95</ele>
        <time>2017-09-05T10:18:50Z</time>
      </trkpt>
      <trkpt lat="48.70939" lon="2.57657">
        <ele>95</ele>
        <time>2017-09-05T10:18:50Z</time>
      </trkpt>
      <trkpt lat="48.70942" lon="2.57665">
        <ele>95</ele>
        <time>2017-09-05T10:18:50Z</time>
      </trkpt>
      <trkpt lat="48.70945" lon="2.57671">
        <ele>95</ele>
        <time>2017-09-05T10:18:50Z</time>
      </trkpt>
      <trkpt lat="48.70949" lon="2.57678">
        <ele>95</ele>
        <time>2017-09-05T10:19:06Z</time>
      </trkpt>
      <trkpt lat="48.70953" lon="2.57685">
        <ele>95</ele>
        <time>2017-09-05T10:19:06Z</time>
      </trkpt>
      <trkpt lat="48.70955" lon="2.57692">
        <ele>95</ele>
        <time>2017-09-05T10:19:06Z</time>
      </trkpt>
      <trkpt lat="48.70958" lon="2.57699">
        <ele>95</ele>
        <time>2017-09-05T10:19:06Z</time>
      </trkpt>
      <trkpt lat="48.70961" lon="2.57707">
        <ele>96</ele>
        <time>2017-09-05T10:19:22Z</time>
      </trkpt>
      <trkpt lat="48.70964" lon="2.57714">
        <ele>95</ele>
        <time>2017-09-05T10:19:22Z</time>
      </trkpt>
      <trkpt lat="48.70967" lon="2.57721">
        <ele>95</ele>
        <time>2017-09-05T10:19:22Z</time>
      </trkpt>
      <trkpt lat="48.70969" lon="2.57728">
        <ele>95</ele>
        <time>2017-09-05T10:19:22Z</time>
      </trkpt>
      <trkpt lat="48.70971" lon="2.57735">
        <ele>95</ele>
        <time>2017-09-05T10:19:38Z</time>
      </trkpt>
      <trkpt lat="48.70973" lon="2.57742">
        <ele>95</ele>
        <time>2017-09-05T10:19:38Z</time>
      </trkpt>
      <trkpt lat="48.70977" lon="2.5775">
        <ele>95</ele>
        <time>2017-09-05T10:19:38Z</time>
      </trkpt>
      <trkpt lat="48.7098" lon="2.57758">
        <ele>95</ele>
        <time>2017-09-05T10:19:38Z</time>
      </trkpt>
      <trkpt lat="48.70983" lon="2.57765">
        <ele>95</ele>
        <time>2017-09-05T10:19:54Z</time>
      </trkpt>
      <trkpt lat="48.70987" lon="2.57772">
        <ele>95</ele>
        <time>2017-09-05T10:19:54Z</time>
      </trkpt>
      <trkpt lat="48.70991" lon="2.57777">
        <ele>95</ele>
        <time>2017-09-05T10:19:54Z</time>
      </trkpt>
      <trkpt lat="48.70996" lon="2.5778">
        <ele>95</ele>
        <time>2017-09-05T10:19:54Z</time>
      </trkpt>
      <trkpt lat="48.71" lon="2.57785">
        <ele>95</ele>
        <time>2017-09-05T10:20:10Z</time>
      </trkpt>
      <trkpt lat="48.71003" lon="2.57789">
        <ele>95</ele>
        <time>2017-09-05T10:20:10Z</time>
      </trkpt>
      <trkpt lat="48.71008" lon="2.57793">
        <ele>94</ele>
        <time>2017-09-05T10:20:10Z</time>
      </trkpt>
      <trkpt lat="48.71015" lon="2.57799">
        <ele>94</ele>
        <time>2017-09-05T10:20:10Z</time>
      </trkpt>
      <trkpt lat="48.7102" lon="2.57803">
        <ele>94</ele>
        <time>2017-09-05T10:20:26Z</time>
      </trkpt>
      <trkpt lat="48.71024" lon="2.57808">
        <ele>94</ele>
        <time>2017-09-05T10:20:26Z</time>
      </trkpt>
      <trkpt lat="48.71029" lon="2.57815">
        <ele>94</ele>
        <time>2017-09-05T10:20:26Z</time>
      </trkpt>
      <trkpt lat="48.71033" lon="2.5782">
        <ele>94</ele>
        <time>2017-09-05T10:20:26Z</time>
      </trkpt>
      <trkpt lat="48.71038" lon="2.57825">
        <ele>94</ele>
        <time>2017-09-05T10:20:42Z</time>
      </trkpt>
      <trkpt lat="48.71043" lon="2.57829">
        <ele>93</ele>
        <time>2017-09-05T10:20:42Z</time>
      </trkpt>
      <trkpt lat="48.71047" lon="2.57834">
        <ele>93</ele>
        <time>2017-09-05T10:20:42Z</time>
      </trkpt>
      <trkpt lat="48.7105" lon="2.57839">
        <ele>93</ele>
        <time>2017-09-05T10:20:42Z</time>
      </trkpt>
      <trkpt lat="48.71055" lon="2.57845">
        <ele>93</ele>
        <time>2017-09-05T10:20:58Z</time>
      </trkpt>
      <trkpt lat="48.71059" lon="2.57852">
        <ele>93</ele>
        <time>2017-09-05T10:20:58Z</time>
      </trkpt>
      <trkpt lat="48.71063" lon="2.57857">
        <ele>93</ele>
        <time>2017-09-05T10:20:58Z</time>
      </trkpt>
      <trkpt lat="48.71067" lon="2.5786">
        <ele>93</ele>
        <time>2017-09-05T10:20:58Z</time>
      </trkpt>
      <trkpt lat="48.71072" lon="2.57864">
        <ele>93</ele>
        <time>2017-09-05T10:21:14Z</time>
      </trkpt>
      <trkpt lat="48.71077" lon="2.57868">
        <ele>93</ele>
        <time>2017-09-05T10:21:14Z</time>
      </trkpt>
      <trkpt lat="48.71082" lon="2.57874">
        <ele>93</ele>
        <time>2017-09-05T10:21:14Z</time>
      </trkpt>
      <trkpt lat="48.71086" lon="2.57881">
        <ele>93</ele>
        <time>2017-09-05T10:21:14Z</time>
      </trkpt>
      <trkpt lat="48.71091" lon="2.57887">
        <ele>93</ele>
        <time>2017-09-05T10:21:30Z</time>
      </trkpt>
      <trkpt lat="48.71093" lon="2.57888">
        <ele>93</ele>
        <time>2017-09-05T10:21:30Z</time>
      </trkpt>
      <trkpt lat="48.71097" lon="2.57892">
        <ele>93</ele>
        <time>2017-09-05T10:21:30Z</time>
      </trkpt>
      <trkpt lat="48.711" lon="2.57898">
        <ele>93</ele>
        <time>2017-09-05T10:21:30Z</time>
      </trkpt>
      <trkpt lat="48.71104" lon="2.57905">
        <ele>93</ele>
        <time>2017-09-05T10:21:46Z</time>
      </trkpt>
      <trkpt lat="48.71107" lon="2.57913">
        <ele>93</ele>
        <time>2017-09-05T10:21:46Z</time>
      </trkpt>
      <trkpt lat="48.71109" lon="2.5792">
        <ele>93</ele>
        <time>2017-09-05T10:21:46Z</time>
      </trkpt>
      <trkpt lat="48.71113" lon="2.57927">
        <ele>93</ele>
        <time>2017-09-05T10:21:46Z</time>
      </trkpt>
      <trkpt lat="48.71115" lon="2.57934">
        <ele>93</ele>
        <time>2017-09-05T10:22:02Z</time>
      </trkpt>
      <trkpt lat="48.71117" lon="2.57941">
        <ele>93</ele>
        <time>2017-09-05T10:22:02Z</time>
      </trkpt>
      <trkpt lat="48.71121" lon="2.57948">
        <ele>93</ele>
        <time>2017-09-05T10:22:02Z</time>
      </trkpt>
      <trkpt lat="48.71123" lon="2.57955">
        <ele>93</ele>
        <time>2017-09-05T10:22:02Z</time>
      </trkpt>
      <trkpt lat="48.71125" lon="2.57963">
        <ele>94</ele>
        <time>2017-09-05T10:22:18Z</time>
      </trkpt>
      <trkpt lat="48.71128" lon="2.57971">
        <ele>94</ele>
        <time>2017-09-05T10:22:18Z</time>
      </trkpt>
      <trkpt lat="48.71129" lon="2.57978">
        <ele>94</ele>
        <time>2017-09-05T10:22:18Z</time>
      </trkpt>
      <trkpt lat="48.71131" lon="2.57985">
        <ele>94</ele>
        <time>2017-09-05T10:22:18Z</time>
      </trkpt>
      <trkpt lat="48.71133" lon="2.57993">
        <ele>94</ele>
        <time>2017-09-05T10:22:34Z</time>
      </trkpt>
      <trkpt lat="48.71137" lon="2.57999">
        <ele>94</ele>
        <time>2017-09-05T10:22:34Z</time>
      </trkpt>
      <trkpt lat="48.7114" lon="2.58004">
        <ele>94</ele>
        <time>2017-09-05T10:22:34Z</time>
      </trkpt>
      <trkpt lat="48.71139" lon="2.58011">
        <ele>94</ele>
        <time>2017-09-05T10:22:34Z</time>
      </trkpt>
      <trkpt lat="48.71135" lon="2.58018">
        <ele>94</ele>
        <time>2017-09-05T10:22:50Z</time>
      </trkpt>
      <trkpt lat="48.71132" lon="2.58024">
        <ele>94</ele>
        <time>2017-09-05T10:22:50Z</time>
      </trkpt>
      <trkpt lat="48.7113" lon="2.58031">
        <ele>94</ele>
        <time>2017-09-05T10:22:50Z</time>
      </trkpt>
      <trkpt lat="48.71128" lon="2.5804">
        <ele>94</ele>
        <time>2017-09-05T10:22:50Z</time>
      </trkpt>
      <trkpt lat="48.71125" lon="2.58047">
        <ele>96</ele>
        <time>2017-09-05T10:23:06Z</time>
      </trkpt>
      <trkpt lat="48.71121" lon="2.58054">
        <ele>96</ele>
        <time>2017-09-05T10:23:06Z</time>
      </trkpt>
      <trkpt lat="48.71118" lon="2.5806">
        <ele>96</ele>
        <time>2017-09-05T10:23:06Z</time>
      </trkpt>
      <trkpt lat="48.71117" lon="2.58069">
        <ele>96</ele>
        <time>2017-09-05T10:23:06Z</time>
      </trkpt>
      <trkpt lat="48.71118" lon="2.58077">
        <ele>96</ele>
        <time>2017-09-05T10:23:22Z</time>
      </trkpt>
      <trkpt lat="48.71121" lon="2.58086">
        <ele>96</ele>
        <time>2017-09-05T10:23:22Z</time>
      </trkpt>
      <trkpt lat="48.71125" lon="2.58093">
        <ele>96</ele>
        <time>2017-09-05T10:23:22Z</time>
      </trkpt>
      <trkpt lat="48.71129" lon="2.58099">
        <ele>95</ele>
        <time>2017-09-05T10:23:22Z</time>
      </trkpt>
      <trkpt lat="48.71135" lon="2.58103">
        <ele>95</ele>
        <time>2017-09-05T10:23:38Z</time>
      </trkpt>
      <trkpt lat="48.71139" lon="2.58105">
        <ele>95</ele>
        <time>2017-09-05T10:23:38Z</time>
      </trkpt>
      <trkpt lat="48.71143" lon="2.58105">
        <ele>95</ele>
        <time>2017-09-05T10:23:38Z</time>
      </trkpt>
      <trkpt lat="48.71148" lon="2.58104">
        <ele>95</ele>
        <time>2017-09-05T10:23:38Z</time>
      </trkpt>
      <trkpt lat="48.71157" lon="2.58094">
        <ele>95</ele>
        <time>2017-09-05T10:24:10Z</time>
      </trkpt>
      <trkpt lat="48.71157" lon="2.58094">
        <ele>95</ele>
        <time>2017-09-05T10:24:10Z</time>
      </trkpt>
      <trkpt lat="48.71157" lon="2.58093">
        <ele>95</ele>
        <time>2017-09-05T10:24:10Z</time>
      </trkpt>
      <trkpt lat="48.71159" lon="2.58094">
        <ele>95</ele>
        <time>2017-09-05T10:24:10Z</time>
      </trkpt>
      <trkpt lat="48.71163" lon="2.581">
        <ele>95</ele>
        <time>2017-09-05T10:24:10Z</time>
      </trkpt>
      <trkpt lat="48.71167" lon="2.58107">
        <ele>95</ele>
        <time>2017-09-05T10:24:26Z</time>
      </trkpt>
      <trkpt lat="48.71167" lon="2.58113">
        <ele>95</ele>
        <time>2017-09-05T10:24:26Z</time>
      </trkpt>
      <trkpt lat="48.7117" lon="2.58119">
        <ele>95</ele>
        <time>2017-09-05T10:24:26Z</time>
      </trkpt>
      <trkpt lat="48.71169" lon="2.58125">
        <ele>95</ele>
        <time>2017-09-05T10:24:26Z</time>
      </trkpt>
      <trkpt lat="48.71167" lon="2.5813">
        <ele>96</ele>
        <time>2017-09-05T10:24:42Z</time>
      </trkpt>
      <trkpt lat="48.71168" lon="2.58138">
        <ele>96</ele>
        <time>2017-09-05T10:24:42Z</time>
      </trkpt>
      <trkpt lat="48.71168" lon="2.58143">
        <ele>96</ele>
        <time>2017-09-05T10:24:42Z</time>
      </trkpt>
      <trkpt lat="48.7117" lon="2.58147">
        <ele>96</ele>
        <time>2017-09-05T10:24:42Z</time>
      </trkpt>
      <trkpt lat="48.71173" lon="2.5815">
        <ele>96</ele>
        <time>2017-09-05T10:25:02Z</time>
      </trkpt>
      <trkpt lat="48.71175" lon="2.58152">
        <ele>96</ele>
        <time>2017-09-05T10:25:02Z</time>
      </trkpt>
      <trkpt lat="48.71177" lon="2.58156">
        <ele>96</ele>
        <time>2017-09-05T10:25:02Z</time>
      </trkpt>
      <trkpt lat="48.71179" lon="2.58158">
        <ele>96</ele>
        <time>2017-09-05T10:25:02Z</time>
      </trkpt>
      <trkpt lat="48.71183" lon="2.58165">
        <ele>96</ele>
        <time>2017-09-05T10:25:02Z</time>
      </trkpt>
      <trkpt lat="48.71188" lon="2.58171">
        <ele>96</ele>
        <time>2017-09-05T10:25:18Z</time>
      </trkpt>
      <trkpt lat="48.71193" lon="2.58177">
        <ele>96</ele>
        <time>2017-09-05T10:25:18Z</time>
      </trkpt>
      <trkpt lat="48.71198" lon="2.58181">
        <ele>96</ele>
        <time>2017-09-05T10:25:18Z</time>
      </trkpt>
      <trkpt lat="48.71203" lon="2.58184">
        <ele>96</ele>
        <time>2017-09-05T10:25:18Z</time>
      </trkpt>
      <trkpt lat="48.71208" lon="2.5819">
        <ele>96</ele>
        <time>2017-09-05T10:25:34Z</time>
      </trkpt>
      <trkpt lat="48.7121" lon="2.58194">
        <ele>95</ele>
        <time>2017-09-05T10:25:34Z</time>
      </trkpt>
      <trkpt lat="48.71214" lon="2.58203">
        <ele>95</ele>
        <time>2017-09-05T10:25:34Z</time>
      </trkpt>
      <trkpt lat="48.71218" lon="2.5821">
        <ele>95</ele>
        <time>2017-09-05T10:25:34Z</time>
      </trkpt>
      <trkpt lat="48.71224" lon="2.58217">
        <ele>95</ele>
        <time>2017-09-05T10:25:50Z</time>
      </trkpt>
      <trkpt lat="48.71227" lon="2.58223">
        <ele>95</ele>
        <time>2017-09-05T10:25:50Z</time>
      </trkpt>
      <trkpt lat="48.71229" lon="2.58228">
        <ele>95</ele>
        <time>2017-09-05T10:25:50Z</time>
      </trkpt>
      <trkpt lat="48.71238" lon="2.58234">
        <ele>95</ele>
        <time>2017-09-05T10:25:50Z</time>
      </trkpt>
      <trkpt lat="48.71245" lon="2.58238">
        <ele>95</ele>
        <time>2017-09-05T10:26:06Z</time>
      </trkpt>
      <trkpt lat="48.71249" lon="2.58242">
        <ele>95</ele>
        <time>2017-09-05T10:26:06Z</time>
      </trkpt>
      <trkpt lat="48.71254" lon="2.58246">
        <ele>95</ele>
        <time>2017-09-05T10:26:06Z</time>
      </trkpt>
      <trkpt lat="48.71258" lon="2.58252">
        <ele>95</ele>
        <time>2017-09-05T10:26:06Z</time>
      </trkpt>
      <trkpt lat="48.71264" lon="2.58256">
        <ele>95</ele>
        <time>2017-09-05T10:26:22Z</time>
      </trkpt>
      <trkpt lat="48.71269" lon="2.5826">
        <ele>95</ele>
        <time>2017-09-05T10:26:22Z</time>
      </trkpt>
      <trkpt lat="48.71275" lon="2.58264">
        <ele>95</ele>
        <time>2017-09-05T10:26:22Z</time>
      </trkpt>
      <trkpt lat="48.71279" lon="2.58268">
        <ele>95</ele>
        <time>2017-09-05T10:26:22Z</time>
      </trkpt>
      <trkpt lat="48.71283" lon="2.58269">
        <ele>95</ele>
        <time>2017-09-05T10:26:38Z</time>
      </trkpt>
      <trkpt lat="48.71283" lon="2.58261">
        <ele>95</ele>
        <time>2017-09-05T10:26:38Z</time>
      </trkpt>
      <trkpt lat="48.71286" lon="2.5825">
        <ele>95</ele>
        <time>2017-09-05T10:26:38Z</time>
      </trkpt>
      <trkpt lat="48.71288" lon="2.58243">
        <ele>95</ele>
        <time>2017-09-05T10:26:38Z</time>
      </trkpt>
      <trkpt lat="48.71291" lon="2.58236">
        <ele>95</ele>
        <time>2017-09-05T10:26:54Z</time>
      </trkpt>
      <trkpt lat="48.71294" lon="2.58229">
        <ele>99</ele>
        <time>2017-09-05T10:26:54Z</time>
      </trkpt>
      <trkpt lat="48.71298" lon="2.58222">
        <ele>99</ele>
        <time>2017-09-05T10:26:54Z</time>
      </trkpt>
      <trkpt lat="48.71302" lon="2.58215">
        <ele>99</ele>
        <time>2017-09-05T10:26:54Z</time>
      </trkpt>
      <trkpt lat="48.71303" lon="2.58205">
        <ele>98</ele>
        <time>2017-09-05T10:27:10Z</time>
      </trkpt>
      <trkpt lat="48.71306" lon="2.58201">
        <ele>98</ele>
        <time>2017-09-05T10:27:10Z</time>
      </trkpt>
      <trkpt lat="48.7131" lon="2.58195">
        <ele>98</ele>
        <time>2017-09-05T10:27:10Z</time>
      </trkpt>
      <trkpt lat="48.71314" lon="2.58188">
        <ele>98</ele>
        <time>2017-09-05T10:27:10Z</time>
      </trkpt>
      <trkpt lat="48.71317" lon="2.58182">
        <ele>98</ele>
        <time>2017-09-05T10:27:26Z</time>
      </trkpt>
      <trkpt lat="48.7132" lon="2.58176">
        <ele>98</ele>
        <time>2017-09-05T10:27:26Z</time>
      </trkpt>
      <trkpt lat="48.71323" lon="2.58169">
        <ele>98</ele>
        <time>2017-09-05T10:27:26Z</time>
      </trkpt>
      <trkpt lat="48.71325" lon="2.58162">
        <ele>98</ele>
        <time>2017-09-05T10:27:26Z</time>
      </trkpt>
      <trkpt lat="48.71328" lon="2.58155">
        <ele>98</ele>
        <time>2017-09-05T10:27:42Z</time>
      </trkpt>
      <trkpt lat="48.71332" lon="2.58148">
        <ele>98</ele>
        <time>2017-09-05T10:27:42Z</time>
      </trkpt>
      <trkpt lat="48.71334" lon="2.58141">
        <ele>98</ele>
        <time>2017-09-05T10:27:42Z</time>
      </trkpt>
      <trkpt lat="48.71338" lon="2.58134">
        <ele>98</ele>
        <time>2017-09-05T10:27:42Z</time>
      </trkpt>
      <trkpt lat="48.71341" lon="2.58128">
        <ele>98</ele>
        <time>2017-09-05T10:27:58Z</time>
      </trkpt>
      <trkpt lat="48.71343" lon="2.58121">
        <ele>96</ele>
        <time>2017-09-05T10:27:58Z</time>
      </trkpt>
      <trkpt lat="48.71347" lon="2.58113">
        <ele>96</ele>
        <time>2017-09-05T10:27:58Z</time>
      </trkpt>
      <trkpt lat="48.71349" lon="2.58106">
        <ele>96</ele>
        <time>2017-09-05T10:27:58Z</time>
      </trkpt>
      <trkpt lat="48.71352" lon="2.58101">
        <ele>96</ele>
        <time>2017-09-05T10:28:14Z</time>
      </trkpt>
      <trkpt lat="48.71355" lon="2.58095">
        <ele>96</ele>
        <time>2017-09-05T10:28:14Z</time>
      </trkpt>
      <trkpt lat="48.71358" lon="2.58088">
        <ele>96</ele>
        <time>2017-09-05T10:28:14Z</time>
      </trkpt>
      <trkpt lat="48.71363" lon="2.58081">
        <ele>96</ele>
        <time>2017-09-05T10:28:14Z</time>
      </trkpt>
      <trkpt lat="48.71367" lon="2.58074">
        <ele>96</ele>
        <time>2017-09-05T10:28:34Z</time>
      </trkpt>
      <trkpt lat="48.71371" lon="2.58068">
        <ele>96</ele>
        <time>2017-09-05T10:28:34Z</time>
      </trkpt>
      <trkpt lat="48.71373" lon="2.58068">
        <ele>96</ele>
        <time>2017-09-05T10:28:34Z</time>
      </trkpt>
      <trkpt lat="48.71375" lon="2.5807">
        <ele>96</ele>
        <time>2017-09-05T10:28:34Z</time>
      </trkpt>
      <trkpt lat="48.71377" lon="2.58076">
        <ele>96</ele>
        <time>2017-09-05T10:28:34Z</time>
      </trkpt>
      <trkpt lat="48.7138" lon="2.58082">
        <ele>96</ele>
        <time>2017-09-05T10:28:50Z</time>
      </trkpt>
      <trkpt lat="48.71385" lon="2.58086">
        <ele>96</ele>
        <time>2017-09-05T10:28:50Z</time>
      </trkpt>
      <trkpt lat="48.71389" lon="2.5809">
        <ele>96</ele>
        <time>2017-09-05T10:28:50Z</time>
      </trkpt>
      <trkpt lat="48.71394" lon="2.58095">
        <ele>96</ele>
        <time>2017-09-05T10:28:50Z</time>
      </trkpt>
      <trkpt lat="48.71399" lon="2.58099">
        <ele>96</ele>
        <time>2017-09-05T10:29:06Z</time>
      </trkpt>
      <trkpt lat="48.71404" lon="2.58103">
        <ele>96</ele>
        <time>2017-09-05T10:29:06Z</time>
      </trkpt>
      <trkpt lat="48.71409" lon="2.58107">
        <ele>96</ele>
        <time>2017-09-05T10:29:06Z</time>
      </trkpt>
      <trkpt lat="48.71415" lon="2.5811">
        <ele>96</ele>
        <time>2017-09-05T10:29:06Z</time>
      </trkpt>
      <trkpt lat="48.7142" lon="2.58114">
        <ele>96</ele>
        <time>2017-09-05T10:29:22Z</time>
      </trkpt>
      <trkpt lat="48.71424" lon="2.58118">
        <ele>96</ele>
        <time>2017-09-05T10:29:22Z</time>
      </trkpt>
      <trkpt lat="48.71428" lon="2.58124">
        <ele>96</ele>
        <time>2017-09-05T10:29:22Z</time>
      </trkpt>
      <trkpt lat="48.71432" lon="2.58129">
        <ele>98</ele>
        <time>2017-09-05T10:29:22Z</time>
      </trkpt>
      <trkpt lat="48.71437" lon="2.58131">
        <ele>98</ele>
        <time>2017-09-05T10:29:38Z</time>
      </trkpt>
      <trkpt lat="48.71441" lon="2.58134">
        <ele>98</ele>
        <time>2017-09-05T10:29:38Z</time>
      </trkpt>
      <trkpt lat="48.71445" lon="2.58138">
        <ele>98</ele>
        <time>2017-09-05T10:29:38Z</time>
      </trkpt>
      <trkpt lat="48.71449" lon="2.58141">
        <ele>98</ele>
        <time>2017-09-05T10:29:38Z</time>
      </trkpt>
      <trkpt lat="48.71452" lon="2.58144">
        <ele>98</ele>
        <time>2017-09-05T10:29:54Z</time>
      </trkpt>
      <trkpt lat="48.71457" lon="2.58147">
        <ele>98</ele>
        <time>2017-09-05T10:29:54Z</time>
      </trkpt>
      <trkpt lat="48.71463" lon="2.58153">
        <ele>97</ele>
        <time>2017-09-05T10:29:54Z</time>
      </trkpt>
      <trkpt lat="48.71468" lon="2.58156">
        <ele>97</ele>
        <time>2017-09-05T10:29:54Z</time>
      </trkpt>
      <trkpt lat="48.71474" lon="2.58158">
        <ele>97</ele>
        <time>2017-09-05T10:30:10Z</time>
      </trkpt>
      <trkpt lat="48.7148" lon="2.58161">
        <ele>97</ele>
        <time>2017-09-05T10:30:10Z</time>
      </trkpt>
      <trkpt lat="48.71485" lon="2.58163">
        <ele>97</ele>
        <time>2017-09-05T10:30:10Z</time>
      </trkpt>
      <trkpt lat="48.71491" lon="2.58164">
        <ele>97</ele>
        <time>2017-09-05T10:30:10Z</time>
      </trkpt>
      <trkpt lat="48.71495" lon="2.58165">
        <ele>97</ele>
        <time>2017-09-05T10:30:26Z</time>
      </trkpt>
      <trkpt lat="48.71499" lon="2.58167">
        <ele>97</ele>
        <time>2017-09-05T10:30:26Z</time>
      </trkpt>
      <trkpt lat="48.71505" lon="2.58169">
        <ele>97</ele>
        <time>2017-09-05T10:30:26Z</time>
      </trkpt>
      <trkpt lat="48.71511" lon="2.58171">
        <ele>97</ele>
        <time>2017-09-05T10:30:26Z</time>
      </trkpt>
      <trkpt lat="48.71517" lon="2.58174">
        <ele>97</ele>
        <time>2017-09-05T10:30:42Z</time>
      </trkpt>
      <trkpt lat="48.71523" lon="2.58176">
        <ele>97</ele>
        <time>2017-09-05T10:30:42Z</time>
      </trkpt>
      <trkpt lat="48.71528" lon="2.58177">
        <ele>97</ele>
        <time>2017-09-05T10:30:42Z</time>
      </trkpt>
      <trkpt lat="48.71534" lon="2.58178">
        <ele>97</ele>
        <time>2017-09-05T10:30:42Z</time>
      </trkpt>
      <trkpt lat="48.7154" lon="2.5818">
        <ele>97</ele>
        <time>2017-09-05T10:30:58Z</time>
      </trkpt>
      <trkpt lat="48.71545" lon="2.58183">
        <ele>95</ele>
        <time>2017-09-05T10:30:58Z</time>
      </trkpt>
      <trkpt lat="48.7155" lon="2.58183">
        <ele>95</ele>
        <time>2017-09-05T10:30:58Z</time>
      </trkpt>
      <trkpt lat="48.71555" lon="2.58185">
        <ele>95</ele>
        <time>2017-09-05T10:30:58Z</time>
      </trkpt>
      <trkpt lat="48.7156" lon="2.58187">
        <ele>95</ele>
        <time>2017-09-05T10:31:14Z</time>
      </trkpt>
      <trkpt lat="48.71565" lon="2.58189">
        <ele>95</ele>
        <time>2017-09-05T10:31:14Z</time>
      </trkpt>
      <trkpt lat="48.71569" lon="2.58192">
        <ele>95</ele>
        <time>2017-09-05T10:31:14Z</time>
      </trkpt>
      <trkpt lat="48.71574" lon="2.58195">
        <ele>95</ele>
        <time>2017-09-05T10:31:14Z</time>
      </trkpt>
      <trkpt lat="48.71579" lon="2.58201">
        <ele>95</ele>
        <time>2017-09-05T10:31:30Z</time>
      </trkpt>
      <trkpt lat="48.71583" lon="2.58209">
        <ele>95</ele>
        <time>2017-09-05T10:31:30Z</time>
      </trkpt>
      <trkpt lat="48.71586" lon="2.58216">
        <ele>95</ele>
        <time>2017-09-05T10:31:30Z</time>
      </trkpt>
      <trkpt lat="48.7159" lon="2.58222">
        <ele>95</ele>
        <time>2017-09-05T10:31:30Z</time>
      </trkpt>
      <trkpt lat="48.71595" lon="2.58225">
        <ele>95</ele>
        <time>2017-09-05T10:31:46Z</time>
      </trkpt>
      <trkpt lat="48.71599" lon="2.58228">
        <ele>95</ele>
        <time>2017-09-05T10:31:46Z</time>
      </trkpt>
      <trkpt lat="48.71604" lon="2.58232">
        <ele>95</ele>
        <time>2017-09-05T10:31:46Z</time>
      </trkpt>
      <trkpt lat="48.71609" lon="2.58236">
        <ele>95</ele>
        <time>2017-09-05T10:31:46Z</time>
      </trkpt>
      <trkpt lat="48.71614" lon="2.58238">
        <ele>95</ele>
        <time>2017-09-05T10:32:02Z</time>
      </trkpt>
      <trkpt lat="48.7162" lon="2.58243">
        <ele>95</ele>
        <time>2017-09-05T10:32:02Z</time>
      </trkpt>
      <trkpt lat="48.71625" lon="2.58247">
        <ele>98</ele>
        <time>2017-09-05T10:32:02Z</time>
      </trkpt>
      <trkpt lat="48.7163" lon="2.5825">
        <ele>98</ele>
        <time>2017-09-05T10:32:02Z</time>
      </trkpt>
      <trkpt lat="48.71635" lon="2.58251">
        <ele>98</ele>
        <time>2017-09-05T10:32:18Z</time>
      </trkpt>
      <trkpt lat="48.7164" lon="2.58252">
        <ele>98</ele>
        <time>2017-09-05T10:32:18Z</time>
      </trkpt>
      <trkpt lat="48.71644" lon="2.58254">
        <ele>98</ele>
        <time>2017-09-05T10:32:18Z</time>
      </trkpt>
      <trkpt lat="48.71647" lon="2.58258">
        <ele>98</ele>
        <time>2017-09-05T10:32:18Z</time>
      </trkpt>
      <trkpt lat="48.7165" lon="2.58261">
        <ele>98</ele>
        <time>2017-09-05T10:32:34Z</time>
      </trkpt>
      <trkpt lat="48.71655" lon="2.58264">
        <ele>98</ele>
        <time>2017-09-05T10:32:34Z</time>
      </trkpt>
      <trkpt lat="48.7166" lon="2.58267">
        <ele>98</ele>
        <time>2017-09-05T10:32:34Z</time>
      </trkpt>
      <trkpt lat="48.71665" lon="2.58273">
        <ele>98</ele>
        <time>2017-09-05T10:32:34Z</time>
      </trkpt>
      <trkpt lat="48.7167" lon="2.58274">
        <ele>98</ele>
        <time>2017-09-05T10:32:50Z</time>
      </trkpt>
      <trkpt lat="48.71671" lon="2.58281">
        <ele>98</ele>
        <time>2017-09-05T10:32:50Z</time>
      </trkpt>
      <trkpt lat="48.71669" lon="2.58288">
        <ele>98</ele>
        <time>2017-09-05T10:32:50Z</time>
      </trkpt>
      <trkpt lat="48.71668" lon="2.58294">
        <ele>98</ele>
        <time>2017-09-05T10:32:50Z</time>
      </trkpt>
      <trkpt lat="48.71668" lon="2.583">
        <ele>98</ele>
        <time>2017-09-05T10:33:06Z</time>
      </trkpt>
      <trkpt lat="48.71666" lon="2.58309">
        <ele>98</ele>
        <time>2017-09-05T10:33:06Z</time>
      </trkpt>
      <trkpt lat="48.71664" lon="2.58315">
        <ele>98</ele>
        <time>2017-09-05T10:33:06Z</time>
      </trkpt>
      <trkpt lat="48.71662" lon="2.58324">
        <ele>98</ele>
        <time>2017-09-05T10:33:06Z</time>
      </trkpt>
      <trkpt lat="48.7166" lon="2.58332">
        <ele>98</ele>
        <time>2017-09-05T10:33:22Z</time>
      </trkpt>
      <trkpt lat="48.71656" lon="2.58341">
        <ele>98</ele>
        <time>2017-09-05T10:33:22Z</time>
      </trkpt>
      <trkpt lat="48.71652" lon="2.58349">
        <ele>98</ele>
        <time>2017-09-05T10:33:22Z</time>
      </trkpt>
      <trkpt lat="48.7165" lon="2.58358">
        <ele>98</ele>
        <time>2017-09-05T10:33:22Z</time>
      </trkpt>
      <trkpt lat="48.71646" lon="2.58366">
        <ele>98</ele>
        <time>2017-09-05T10:33:38Z</time>
      </trkpt>
      <trkpt lat="48.71646" lon="2.5837">
        <ele>98</ele>
        <time>2017-09-05T10:33:38Z</time>
      </trkpt>
      <trkpt lat="48.71645" lon="2.58375">
        <ele>98</ele>
        <time>2017-09-05T10:33:38Z</time>
      </trkpt>
      <trkpt lat="48.71643" lon="2.5838">
        <ele>97</ele>
        <time>2017-09-05T10:33:38Z</time>
      </trkpt>
      <trkpt lat="48.71639" lon="2.58387">
        <ele>97</ele>
        <time>2017-09-05T10:33:54Z</time>
      </trkpt>
      <trkpt lat="48.71637" lon="2.58391">
        <ele>97</ele>
        <time>2017-09-05T10:33:54Z</time>
      </trkpt>
      <trkpt lat="48.71633" lon="2.584">
        <ele>97</ele>
        <time>2017-09-05T10:33:54Z</time>
      </trkpt>
      <trkpt lat="48.71631" lon="2.58408">
        <ele>97</ele>
        <time>2017-09-05T10:33:54Z</time>
      </trkpt>
      <trkpt lat="48.7163" lon="2.5842">
        <ele>97</ele>
        <time>2017-09-05T10:34:10Z</time>
      </trkpt>
      <trkpt lat="48.71628" lon="2.58432">
        <ele>97</ele>
        <time>2017-09-05T10:34:10Z</time>
      </trkpt>
      <trkpt lat="48.71626" lon="2.58441">
        <ele>97</ele>
        <time>2017-09-05T10:34:10Z</time>
      </trkpt>
      <trkpt lat="48.71626" lon="2.58449">
        <ele>97</ele>
        <time>2017-09-05T10:34:10Z</time>
      </trkpt>
      <trkpt lat="48.71625" lon="2.58459">
        <ele>93</ele>
        <time>2017-09-05T10:34:26Z</time>
      </trkpt>
      <trkpt lat="48.71625" lon="2.58467">
        <ele>93</ele>
        <time>2017-09-05T10:34:26Z</time>
      </trkpt>
      <trkpt lat="48.71624" lon="2.58474">
        <ele>93</ele>
        <time>2017-09-05T10:34:26Z</time>
      </trkpt>
      <trkpt lat="48.71624" lon="2.58483">
        <ele>93</ele>
        <time>2017-09-05T10:34:26Z</time>
      </trkpt>
      <trkpt lat="48.71623" lon="2.58492">
        <ele>93</ele>
        <time>2017-09-05T10:34:42Z</time>
      </trkpt>
      <trkpt lat="48.71623" lon="2.585">
        <ele>93</ele>
        <time>2017-09-05T10:34:42Z</time>
      </trkpt>
      <trkpt lat="48.71622" lon="2.5851">
        <ele>93</ele>
        <time>2017-09-05T10:34:42Z</time>
      </trkpt>
      <trkpt lat="48.71621" lon="2.58518">
        <ele>93</ele>
        <time>2017-09-05T10:34:42Z</time>
      </trkpt>
      <trkpt lat="48.71621" lon="2.58526">
        <ele>93</ele>
        <time>2017-09-05T10:34:58Z</time>
      </trkpt>
      <trkpt lat="48.71621" lon="2.58531">
        <ele>93</ele>
        <time>2017-09-05T10:34:58Z</time>
      </trkpt>
      <trkpt lat="48.7162" lon="2.58537">
        <ele>93</ele>
        <time>2017-09-05T10:34:58Z</time>
      </trkpt>
      <trkpt lat="48.7162" lon="2.58545">
        <ele>91</ele>
        <time>2017-09-05T10:34:58Z</time>
      </trkpt>
      <trkpt lat="48.71617" lon="2.58554">
        <ele>91</ele>
        <time>2017-09-05T10:35:14Z</time>
      </trkpt>
      <trkpt lat="48.71615" lon="2.58561">
        <ele>91</ele>
        <time>2017-09-05T10:35:14Z</time>
      </trkpt>
      <trkpt lat="48.71614" lon="2.58569">
        <ele>91</ele>
        <time>2017-09-05T10:35:14Z</time>
      </trkpt>
      <trkpt lat="48.71617" lon="2.58576">
        <ele>91</ele>
        <time>2017-09-05T10:35:14Z</time>
      </trkpt>
      <trkpt lat="48.71621" lon="2.58578">
        <ele>91</ele>
        <time>2017-09-05T10:35:30Z</time>
      </trkpt>
      <trkpt lat="48.71626" lon="2.58579">
        <ele>91</ele>
        <time>2017-09-05T10:35:30Z</time>
      </trkpt>
      <trkpt lat="48.7163" lon="2.58581">
        <ele>91</ele>
        <time>2017-09-05T10:35:30Z</time>
      </trkpt>
      <trkpt lat="48.71633" lon="2.58585">
        <ele>91</ele>
        <time>2017-09-05T10:35:30Z</time>
      </trkpt>
      <trkpt lat="48.71639" lon="2.58588">
        <ele>91</ele>
        <time>2017-09-05T10:35:46Z</time>
      </trkpt>
      <trkpt lat="48.71643" lon="2.58591">
        <ele>91</ele>
        <time>2017-09-05T10:35:46Z</time>
      </trkpt>
      <trkpt lat="48.71648" lon="2.58593">
        <ele>91</ele>
        <time>2017-09-05T10:35:46Z</time>
      </trkpt>
      <trkpt lat="48.71653" lon="2.58595">
        <ele>91</ele>
        <time>2017-09-05T10:35:46Z</time>
      </trkpt>
      <trkpt lat="48.71658" lon="2.58598">
        <ele>91</ele>
        <time>2017-09-05T10:36:02Z</time>
      </trkpt>
      <trkpt lat="48.71664" lon="2.58601">
        <ele>91</ele>
        <time>2017-09-05T10:36:02Z</time>
      </trkpt>
      <trkpt lat="48.71669" lon="2.58606">
        <ele>91</ele>
        <time>2017-09-05T10:36:02Z</time>
      </trkpt>
      <trkpt lat="48.71673" lon="2.58612">
        <ele>91</ele>
        <time>2017-09-05T10:36:02Z</time>
      </trkpt>
      <trkpt lat="48.71677" lon="2.58617">
        <ele>91</ele>
        <time>2017-09-05T10:36:18Z</time>
      </trkpt>
      <trkpt lat="48.71681" lon="2.58624">
        <ele>91</ele>
        <time>2017-09-05T10:36:18Z</time>
      </trkpt>
      <trkpt lat="48.71685" lon="2.58631">
        <ele>90</ele>
        <time>2017-09-05T10:36:18Z</time>
      </trkpt>
      <trkpt lat="48.71687" lon="2.58637">
        <ele>90</ele>
        <time>2017-09-05T10:36:18Z</time>
      </trkpt>
      <trkpt lat="48.71692" lon="2.58642">
        <ele>90</ele>
        <time>2017-09-05T10:36:34Z</time>
      </trkpt>
      <trkpt lat="48.71696" lon="2.58647">
        <ele>90</ele>
        <time>2017-09-05T10:36:34Z</time>
      </trkpt>
      <trkpt lat="48.71701" lon="2.58651">
        <ele>90</ele>
        <time>2017-09-05T10:36:34Z</time>
      </trkpt>
      <trkpt lat="48.71706" lon="2.58655">
        <ele>90</ele>
        <time>2017-09-05T10:36:34Z</time>
      </trkpt>
      <trkpt lat="48.71711" lon="2.58658">
        <ele>84</ele>
        <time>2017-09-05T10:36:50Z</time>
      </trkpt>
      <trkpt lat="48.71717" lon="2.58659">
        <ele>84</ele>
        <time>2017-09-05T10:36:50Z</time>
      </trkpt>
      <trkpt lat="48.71722" lon="2.58661">
        <ele>84</ele>
        <time>2017-09-05T10:36:50Z</time>
      </trkpt>
      <trkpt lat="48.71727" lon="2.58668">
        <ele>84</ele>
        <time>2017-09-05T10:36:50Z</time>
      </trkpt>
      <trkpt lat="48.71733" lon="2.58673">
        <ele>84</ele>
        <time>2017-09-05T10:37:06Z</time>
      </trkpt>
      <trkpt lat="48.71739" lon="2.58677">
        <ele>84</ele>
        <time>2017-09-05T10:37:06Z</time>
      </trkpt>
      <trkpt lat="48.71742" lon="2.58681">
        <ele>84</ele>
        <time>2017-09-05T10:37:06Z</time>
      </trkpt>
      <trkpt lat="48.71746" lon="2.58685">
        <ele>84</ele>
        <time>2017-09-05T10:37:06Z</time>
      </trkpt>
      <trkpt lat="48.71748" lon="2.58686">
        <ele>84</ele>
        <time>2017-09-05T10:37:26Z</time>
      </trkpt>
      <trkpt lat="48.71749" lon="2.58684">
        <ele>84</ele>
        <time>2017-09-05T10:37:26Z</time>
      </trkpt>
      <trkpt lat="48.71747" lon="2.58682">
        <ele>84</ele>
        <time>2017-09-05T10:37:26Z</time>
      </trkpt>
      <trkpt lat="48.71744" lon="2.58679">
        <ele>84</ele>
        <time>2017-09-05T10:37:26Z</time>
      </trkpt>
      <trkpt lat="48.7174" lon="2.58677">
        <ele>84</ele>
        <time>2017-09-05T10:37:26Z</time>
      </trkpt>
      <trkpt lat="48.71736" lon="2.58676">
        <ele>84</ele>
        <time>2017-09-05T10:37:42Z</time>
      </trkpt>
      <trkpt lat="48.71731" lon="2.58673">
        <ele>84</ele>
        <time>2017-09-05T10:37:42Z</time>
      </trkpt>
      <trkpt lat="48.71728" lon="2.58668">
        <ele>84</ele>
        <time>2017-09-05T10:37:42Z</time>
      </trkpt>
      <trkpt lat="48.71723" lon="2.58666">
        <ele>84</ele>
        <time>2017-09-05T10:37:42Z</time>
      </trkpt>
      <trkpt lat="48.71719" lon="2.58663">
        <ele>84</ele>
        <time>2017-09-05T10:38:02Z</time>
      </trkpt>
      <trkpt lat="48.71721" lon="2.58659">
        <ele>84</ele>
        <time>2017-09-05T10:38:02Z</time>
      </trkpt>
      <trkpt lat="48.71723" lon="2.58661">
        <ele>84</ele>
        <time>2017-09-05T10:38:02Z</time>
      </trkpt>
      <trkpt lat="48.71727" lon="2.58659">
        <ele>84</ele>
        <time>2017-09-05T10:38:02Z</time>
      </trkpt>
      <trkpt lat="48.71732" lon="2.58659">
        <ele>84</ele>
        <time>2017-09-05T10:38:02Z</time>
      </trkpt>
      <trkpt lat="48.71738" lon="2.58656">
        <ele>84</ele>
        <time>2017-09-05T10:38:18Z</time>
      </trkpt>
      <trkpt lat="48.71745" lon="2.58648">
        <ele>84</ele>
        <time>2017-09-05T10:38:18Z</time>
      </trkpt>
      <trkpt lat="48.7175" lon="2.58641">
        <ele>84</ele>
        <time>2017-09-05T10:38:18Z</time>
      </trkpt>
      <trkpt lat="48.71752" lon="2.58634">
        <ele>84</ele>
        <time>2017-09-05T10:38:18Z</time>
      </trkpt>
      <trkpt lat="48.71756" lon="2.58629">
        <ele>84</ele>
        <time>2017-09-05T10:38:34Z</time>
      </trkpt>
      <trkpt lat="48.71759" lon="2.58622">
        <ele>89</ele>
        <time>2017-09-05T10:38:34Z</time>
      </trkpt>
      <trkpt lat="48.71763" lon="2.58617">
        <ele>89</ele>
        <time>2017-09-05T10:38:34Z</time>
      </trkpt>
      <trkpt lat="48.71767" lon="2.58614">
        <ele>89</ele>
        <time>2017-09-05T10:38:34Z</time>
      </trkpt>
      <trkpt lat="48.7177" lon="2.58626">
        <ele>84</ele>
        <time>2017-09-05T10:38:50Z</time>
      </trkpt>
      <trkpt lat="48.7177" lon="2.58635">
        <ele>84</ele>
        <time>2017-09-05T10:38:50Z</time>
      </trkpt>
      <trkpt lat="48.71774" lon="2.58644">
        <ele>84</ele>
        <time>2017-09-05T10:38:50Z</time>
      </trkpt>
      <trkpt lat="48.71776" lon="2.58649">
        <ele>84</ele>
        <time>2017-09-05T10:38:50Z</time>
      </trkpt>
      <trkpt lat="48.71778" lon="2.58653">
        <ele>84</ele>
        <time>2017-09-05T10:39:10Z</time>
      </trkpt>
      <trkpt lat="48.71779" lon="2.58657">
        <ele>84</ele>
        <time>2017-09-05T10:39:10Z</time>
      </trkpt>
      <trkpt lat="48.71781" lon="2.5866">
        <ele>84</ele>
        <time>2017-09-05T10:39:10Z</time>
      </trkpt>
      <trkpt lat="48.71785" lon="2.58659">
        <ele>84</ele>
        <time>2017-09-05T10:39:10Z</time>
      </trkpt>
      <trkpt lat="48.7179" lon="2.58659">
        <ele>84</ele>
        <time>2017-09-05T10:39:10Z</time>
      </trkpt>
      <trkpt lat="48.71795" lon="2.58662">
        <ele>76</ele>
        <time>2017-09-05T10:39:26Z</time>
      </trkpt>
      <trkpt lat="48.71801" lon="2.58662">
        <ele>76</ele>
        <time>2017-09-05T10:39:26Z</time>
      </trkpt>
      <trkpt lat="48.71806" lon="2.58662">
        <ele>76</ele>
        <time>2017-09-05T10:39:26Z</time>
      </trkpt>
      <trkpt lat="48.7181" lon="2.58664">
        <ele>76</ele>
        <time>2017-09-05T10:39:26Z</time>
      </trkpt>
      <trkpt lat="48.71816" lon="2.58666">
        <ele>76</ele>
        <time>2017-09-05T10:39:42Z</time>
      </trkpt>
      <trkpt lat="48.71821" lon="2.58669">
        <ele>76</ele>
        <time>2017-09-05T10:39:42Z</time>
      </trkpt>
      <trkpt lat="48.71828" lon="2.58674">
        <ele>76</ele>
        <time>2017-09-05T10:39:42Z</time>
      </trkpt>
      <trkpt lat="48.71833" lon="2.58676">
        <ele>76</ele>
        <time>2017-09-05T10:39:42Z</time>
      </trkpt>
      <trkpt lat="48.7184" lon="2.58678">
        <ele>76</ele>
        <time>2017-09-05T10:39:58Z</time>
      </trkpt>
      <trkpt lat="48.71844" lon="2.58679">
        <ele>76</ele>
        <time>2017-09-05T10:39:58Z</time>
      </trkpt>
      <trkpt lat="48.71847" lon="2.58682">
        <ele>76</ele>
        <time>2017-09-05T10:39:58Z</time>
      </trkpt>
      <trkpt lat="48.71851" lon="2.58681">
        <ele>76</ele>
        <time>2017-09-05T10:39:58Z</time>
      </trkpt>
      <trkpt lat="48.71857" lon="2.58684">
        <ele>76</ele>
        <time>2017-09-05T10:40:14Z</time>
      </trkpt>
      <trkpt lat="48.7186" lon="2.58686">
        <ele>76</ele>
        <time>2017-09-05T10:40:14Z</time>
      </trkpt>
      <trkpt lat="48.71864" lon="2.58686">
        <ele>76</ele>
        <time>2017-09-05T10:40:14Z</time>
      </trkpt>
      <trkpt lat="48.7187" lon="2.58687">
        <ele>76</ele>
        <time>2017-09-05T10:40:14Z</time>
      </trkpt>
      <trkpt lat="48.71876" lon="2.58686">
        <ele>72</ele>
        <time>2017-09-05T10:40:30Z</time>
      </trkpt>
      <trkpt lat="48.71882" lon="2.58682">
        <ele>72</ele>
        <time>2017-09-05T10:40:30Z</time>
      </trkpt>
      <trkpt lat="48.71887" lon="2.5868">
        <ele>72</ele>
        <time>2017-09-05T10:40:30Z</time>
      </trkpt>
      <trkpt lat="48.71889" lon="2.58679">
        <ele>72</ele>
        <time>2017-09-05T10:40:30Z</time>
      </trkpt>
      <trkpt lat="48.71895" lon="2.58679">
        <ele>72</ele>
        <time>2017-09-05T10:40:46Z</time>
      </trkpt>
      <trkpt lat="48.71899" lon="2.58678">
        <ele>72</ele>
        <time>2017-09-05T10:40:46Z</time>
      </trkpt>
      <trkpt lat="48.71905" lon="2.58678">
        <ele>72</ele>
        <time>2017-09-05T10:40:46Z</time>
      </trkpt>
      <trkpt lat="48.7191" lon="2.58676">
        <ele>72</ele>
        <time>2017-09-05T10:40:46Z</time>
      </trkpt>
      <trkpt lat="48.71913" lon="2.58678">
        <ele>72</ele>
        <time>2017-09-05T10:41:02Z</time>
      </trkpt>
      <trkpt lat="48.71917" lon="2.58679">
        <ele>72</ele>
        <time>2017-09-05T10:41:02Z</time>
      </trkpt>
      <trkpt lat="48.71923" lon="2.5868">
        <ele>72</ele>
        <time>2017-09-05T10:41:02Z</time>
      </trkpt>
      <trkpt lat="48.71928" lon="2.5868">
        <ele>72</ele>
        <time>2017-09-05T10:41:02Z</time>
      </trkpt>
      <trkpt lat="48.71932" lon="2.58681">
        <ele>72</ele>
        <time>2017-09-05T10:41:18Z</time>
      </trkpt>
      <trkpt lat="48.71937" lon="2.58682">
        <ele>72</ele>
        <time>2017-09-05T10:41:18Z</time>
      </trkpt>
      <trkpt lat="48.71941" lon="2.58686">
        <ele>72</ele>
        <time>2017-09-05T10:41:18Z</time>
      </trkpt>
      <trkpt lat="48.71946" lon="2.58687">
        <ele>72</ele>
        <time>2017-09-05T10:41:18Z</time>
      </trkpt>
      <trkpt lat="48.71952" lon="2.58688">
        <ele>72</ele>
        <time>2017-09-05T10:41:34Z</time>
      </trkpt>
      <trkpt lat="48.71956" lon="2.58691">
        <ele>72</ele>
        <time>2017-09-05T10:41:34Z</time>
      </trkpt>
      <trkpt lat="48.71961" lon="2.58691">
        <ele>73</ele>
        <time>2017-09-05T10:41:34Z</time>
      </trkpt>
      <trkpt lat="48.71966" lon="2.58686">
        <ele>73</ele>
        <time>2017-09-05T10:41:34Z</time>
      </trkpt>
      <trkpt lat="48.71968" lon="2.58681">
        <ele>73</ele>
        <time>2017-09-05T10:41:50Z</time>
      </trkpt>
      <trkpt lat="48.71969" lon="2.58674">
        <ele>73</ele>
        <time>2017-09-05T10:41:50Z</time>
      </trkpt>
      <trkpt lat="48.71971" lon="2.58667">
        <ele>73</ele>
        <time>2017-09-05T10:41:50Z</time>
      </trkpt>
      <trkpt lat="48.71973" lon="2.58658">
        <ele>73</ele>
        <time>2017-09-05T10:41:50Z</time>
      </trkpt>
      <trkpt lat="48.71975" lon="2.58651">
        <ele>73</ele>
        <time>2017-09-05T10:42:06Z</time>
      </trkpt>
      <trkpt lat="48.71978" lon="2.58647">
        <ele>73</ele>
        <time>2017-09-05T10:42:06Z</time>
      </trkpt>
      <trkpt lat="48.71981" lon="2.58642">
        <ele>73</ele>
        <time>2017-09-05T10:42:06Z</time>
      </trkpt>
      <trkpt lat="48.71984" lon="2.58637">
        <ele>73</ele>
        <time>2017-09-05T10:42:06Z</time>
      </trkpt>
      <trkpt lat="48.71988" lon="2.58633">
        <ele>73</ele>
        <time>2017-09-05T10:42:22Z</time>
      </trkpt>
      <trkpt lat="48.71992" lon="2.58628">
        <ele>73</ele>
        <time>2017-09-05T10:42:22Z</time>
      </trkpt>
      <trkpt lat="48.71995" lon="2.58622">
        <ele>69</ele>
        <time>2017-09-05T10:42:22Z</time>
      </trkpt>
      <trkpt lat="48.71998" lon="2.58615">
        <ele>69</ele>
        <time>2017-09-05T10:42:22Z</time>
      </trkpt>
      <trkpt lat="48.72001" lon="2.58609">
        <ele>69</ele>
        <time>2017-09-05T10:42:38Z</time>
      </trkpt>
      <trkpt lat="48.72003" lon="2.58604">
        <ele>69</ele>
        <time>2017-09-05T10:42:38Z</time>
      </trkpt>
      <trkpt lat="48.72007" lon="2.58599">
        <ele>69</ele>
        <time>2017-09-05T10:42:38Z</time>
      </trkpt>
      <trkpt lat="48.72011" lon="2.58593">
        <ele>69</ele>
        <time>2017-09-05T10:42:38Z</time>
      </trkpt>
      <trkpt lat="48.72015" lon="2.58588">
        <ele>69</ele>
        <time>2017-09-05T10:42:54Z</time>
      </trkpt>
      <trkpt lat="48.72019" lon="2.58584">
        <ele>69</ele>
        <time>2017-09-05T10:42:54Z</time>
      </trkpt>
      <trkpt lat="48.72022" lon="2.58581">
        <ele>69</ele>
        <time>2017-09-05T10:42:54Z</time>
      </trkpt>
      <trkpt lat="48.72026" lon="2.58575">
        <ele>69</ele>
        <time>2017-09-05T10:42:54Z</time>
      </trkpt>
      <trkpt lat="48.72031" lon="2.58569">
        <ele>69</ele>
        <time>2017-09-05T10:43:10Z</time>
      </trkpt>
      <trkpt lat="48.72035" lon="2.58564">
        <ele>69</ele>
        <time>2017-09-05T10:43:10Z</time>
      </trkpt>
      <trkpt lat="48.72041" lon="2.58559">
        <ele>69</ele>
        <time>2017-09-05T10:43:10Z</time>
      </trkpt>
      <trkpt lat="48.72044" lon="2.58555">
        <ele>68</ele>
        <time>2017-09-05T10:43:10Z</time>
      </trkpt>
      <trkpt lat="48.72048" lon="2.58551">
        <ele>68</ele>
        <time>2017-09-05T10:43:26Z</time>
      </trkpt>
      <trkpt lat="48.72051" lon="2.58549">
        <ele>68</ele>
        <time>2017-09-05T10:43:26Z</time>
      </trkpt>
      <trkpt lat="48.72057" lon="2.58545">
        <ele>68</ele>
        <time>2017-09-05T10:43:26Z</time>
      </trkpt>
      <trkpt lat="48.7206" lon="2.58542">
        <ele>68</ele>
        <time>2017-09-05T10:43:26Z</time>
      </trkpt>
      <trkpt lat="48.72063" lon="2.58539">
        <ele>68</ele>
        <time>2017-09-05T10:43:42Z</time>
      </trkpt>
      <trkpt lat="48.72067" lon="2.58537">
        <ele>68</ele>
        <time>2017-09-05T10:43:42Z</time>
      </trkpt>
      <trkpt lat="48.7207" lon="2.58533">
        <ele>68</ele>
        <time>2017-09-05T10:43:42Z</time>
      </trkpt>
      <trkpt lat="48.72072" lon="2.5853">
        <ele>68</ele>
        <time>2017-09-05T10:43:42Z</time>
      </trkpt>
      <trkpt lat="48.72075" lon="2.58525">
        <ele>68</ele>
        <time>2017-09-05T10:43:58Z</time>
      </trkpt>
      <trkpt lat="48.7208" lon="2.58521">
        <ele>68</ele>
        <time>2017-09-05T10:43:58Z</time>
      </trkpt>
      <trkpt lat="48.72082" lon="2.58516">
        <ele>68</ele>
        <time>2017-09-05T10:43:58Z</time>
      </trkpt>
      <trkpt lat="48.72084" lon="2.58509">
        <ele>68</ele>
        <time>2017-09-05T10:43:58Z</time>
      </trkpt>
      <trkpt lat="48.72086" lon="2.58503">
        <ele>68</ele>
        <time>2017-09-05T10:44:14Z</time>
      </trkpt>
      <trkpt lat="48.72087" lon="2.58499">
        <ele>68</ele>
        <time>2017-09-05T10:44:14Z</time>
      </trkpt>
      <trkpt lat="48.72089" lon="2.58493">
        <ele>68</ele>
        <time>2017-09-05T10:44:14Z</time>
      </trkpt>
      <trkpt lat="48.72091" lon="2.58487">
        <ele>68</ele>
        <time>2017-09-05T10:44:14Z</time>
      </trkpt>
      <trkpt lat="48.72093" lon="2.58483">
        <ele>68</ele>
        <time>2017-09-05T10:44:30Z</time>
      </trkpt>
      <trkpt lat="48.72094" lon="2.58476">
        <ele>68</ele>
        <time>2017-09-05T10:44:30Z</time>
      </trkpt>
      <trkpt lat="48.72096" lon="2.5847">
        <ele>68</ele>
        <time>2017-09-05T10:44:30Z</time>
      </trkpt>
      <trkpt lat="48.721" lon="2.58464">
        <ele>68</ele>
        <time>2017-09-05T10:44:30Z</time>
      </trkpt>
      <trkpt lat="48.72103" lon="2.58459">
        <ele>68</ele>
        <time>2017-09-05T10:44:46Z</time>
      </trkpt>
      <trkpt lat="48.72107" lon="2.58456">
        <ele>69</ele>
        <time>2017-09-05T10:44:46Z</time>
      </trkpt>
      <trkpt lat="48.72112" lon="2.58452">
        <ele>69</ele>
        <time>2017-09-05T10:44:46Z</time>
      </trkpt>
      <trkpt lat="48.72117" lon="2.58448">
        <ele>69</ele>
        <time>2017-09-05T10:44:46Z</time>
      </trkpt>
      <trkpt lat="48.72124" lon="2.58453">
        <ele>69</ele>
        <time>2017-09-05T10:45:10Z</time>
      </trkpt>
      <trkpt lat="48.72126" lon="2.58454">
        <ele>67</ele>
        <time>2017-09-05T10:45:10Z</time>
      </trkpt>
      <trkpt lat="48.72126" lon="2.58454">
        <ele>67</ele>
        <time>2017-09-05T10:45:10Z</time>
      </trkpt>
      <trkpt lat="48.72127" lon="2.58455">
        <ele>67</ele>
        <time>2017-09-05T10:45:10Z</time>
      </trkpt>
      <trkpt lat="48.72127" lon="2.58456">
        <ele>67</ele>
        <time>2017-09-05T10:45:10Z</time>
      </trkpt>
      <trkpt lat="48.72125" lon="2.58443">
        <ele>67</ele>
        <time>2017-09-05T10:54:22Z</time>
      </trkpt>
      <trkpt lat="48.72125" lon="2.58442">
        <ele>67</ele>
        <time>2017-09-05T10:54:22Z</time>
      </trkpt>
      <trkpt lat="48.72125" lon="2.58442">
        <ele>67</ele>
        <time>2017-09-05T10:54:22Z</time>
      </trkpt>
      <trkpt lat="48.72125" lon="2.58441">
        <ele>67</ele>
        <time>2017-09-05T10:54:22Z</time>
      </trkpt>
      <trkpt lat="48.72125" lon="2.58441">
        <ele>67</ele>
        <time>2017-09-05T10:54:22Z</time>
      </trkpt>
      <trkpt lat="48.72124" lon="2.58448">
        <ele>69</ele>
        <time>2017-09-05T10:56:14Z</time>
      </trkpt>
      <trkpt lat="48.72123" lon="2.58448">
        <ele>69</ele>
        <time>2017-09-05T10:56:14Z</time>
      </trkpt>
      <trkpt lat="48.72126" lon="2.58449">
        <ele>67</ele>
        <time>2017-09-05T10:56:14Z</time>
      </trkpt>
      <trkpt lat="48.7213" lon="2.58448">
        <ele>67</ele>
        <time>2017-09-05T10:56:14Z</time>
      </trkpt>
      <trkpt lat="48.72133" lon="2.58449">
        <ele>67</ele>
        <time>2017-09-05T10:56:14Z</time>
      </trkpt>
      <trkpt lat="48.72137" lon="2.58449">
        <ele>67</ele>
        <time>2017-09-05T10:56:30Z</time>
      </trkpt>
      <trkpt lat="48.72142" lon="2.58449">
        <ele>67</ele>
        <time>2017-09-05T10:56:30Z</time>
      </trkpt>
      <trkpt lat="48.72146" lon="2.58446">
        <ele>67</ele>
        <time>2017-09-05T10:56:30Z</time>
      </trkpt>
      <trkpt lat="48.72149" lon="2.5845">
        <ele>67</ele>
        <time>2017-09-05T10:56:30Z</time>
      </trkpt>
      <trkpt lat="48.72148" lon="2.58455">
        <ele>67</ele>
        <time>2017-09-05T10:56:46Z</time>
      </trkpt>
      <trkpt lat="48.72147" lon="2.58458">
        <ele>67</ele>
        <time>2017-09-05T10:56:46Z</time>
      </trkpt>
      <trkpt lat="48.72142" lon="2.58458">
        <ele>67</ele>
        <time>2017-09-05T10:56:46Z</time>
      </trkpt>
      <trkpt lat="48.72138" lon="2.58457">
        <ele>67</ele>
        <time>2017-09-05T10:56:46Z</time>
      </trkpt>
      <trkpt lat="48.72139" lon="2.58456">
        <ele>67</ele>
        <time>2017-09-05T10:57:06Z</time>
      </trkpt>
      <trkpt lat="48.72139" lon="2.58453">
        <ele>67</ele>
        <time>2017-09-05T10:57:06Z</time>
      </trkpt>
      <trkpt lat="48.72142" lon="2.58451">
        <ele>67</ele>
        <time>2017-09-05T10:57:06Z</time>
      </trkpt>
      <trkpt lat="48.72146" lon="2.58449">
        <ele>67</ele>
        <time>2017-09-05T10:57:06Z</time>
      </trkpt>
      <trkpt lat="48.7215" lon="2.58446">
        <ele>67</ele>
        <time>2017-09-05T10:57:06Z</time>
      </trkpt>
      <trkpt lat="48.72154" lon="2.58439">
        <ele>67</ele>
        <time>2017-09-05T10:57:22Z</time>
      </trkpt>
      <trkpt lat="48.72156" lon="2.58434">
        <ele>67</ele>
        <time>2017-09-05T10:57:22Z</time>
      </trkpt>
      <trkpt lat="48.72157" lon="2.58426">
        <ele>67</ele>
        <time>2017-09-05T10:57:22Z</time>
      </trkpt>
      <trkpt lat="48.72157" lon="2.58417">
        <ele>67</ele>
        <time>2017-09-05T10:57:22Z</time>
      </trkpt>
      <trkpt lat="48.72157" lon="2.58411">
        <ele>67</ele>
        <time>2017-09-05T10:57:38Z</time>
      </trkpt>
      <trkpt lat="48.72157" lon="2.58402">
        <ele>67</ele>
        <time>2017-09-05T10:57:38Z</time>
      </trkpt>
      <trkpt lat="48.72156" lon="2.58394">
        <ele>67</ele>
        <time>2017-09-05T10:57:38Z</time>
      </trkpt>
      <trkpt lat="48.72156" lon="2.58387">
        <ele>67</ele>
        <time>2017-09-05T10:57:38Z</time>
      </trkpt>
      <trkpt lat="48.72156" lon="2.58379">
        <ele>67</ele>
        <time>2017-09-05T10:57:54Z</time>
      </trkpt>
      <trkpt lat="48.72157" lon="2.58372">
        <ele>69</ele>
        <time>2017-09-05T10:57:54Z</time>
      </trkpt>
      <trkpt lat="48.72157" lon="2.58364">
        <ele>69</ele>
        <time>2017-09-05T10:57:54Z</time>
      </trkpt>
      <trkpt lat="48.72157" lon="2.58356">
        <ele>69</ele>
        <time>2017-09-05T10:57:54Z</time>
      </trkpt>
      <trkpt lat="48.72158" lon="2.58348">
        <ele>69</ele>
        <time>2017-09-05T10:58:10Z</time>
      </trkpt>
      <trkpt lat="48.72159" lon="2.58342">
        <ele>69</ele>
        <time>2017-09-05T10:58:10Z</time>
      </trkpt>
      <trkpt lat="48.72161" lon="2.58335">
        <ele>69</ele>
        <time>2017-09-05T10:58:10Z</time>
      </trkpt>
      <trkpt lat="48.72163" lon="2.58328">
        <ele>69</ele>
        <time>2017-09-05T10:58:10Z</time>
      </trkpt>
      <trkpt lat="48.72163" lon="2.58321">
        <ele>69</ele>
        <time>2017-09-05T10:58:26Z</time>
      </trkpt>
      <trkpt lat="48.72164" lon="2.58313">
        <ele>69</ele>
        <time>2017-09-05T10:58:26Z</time>
      </trkpt>
      <trkpt lat="48.72164" lon="2.58305">
        <ele>69</ele>
        <time>2017-09-05T10:58:26Z</time>
      </trkpt>
      <trkpt lat="48.72163" lon="2.58298">
        <ele>69</ele>
        <time>2017-09-05T10:58:26Z</time>
      </trkpt>
      <trkpt lat="48.72163" lon="2.58291">
        <ele>69</ele>
        <time>2017-09-05T10:58:42Z</time>
      </trkpt>
      <trkpt lat="48.72161" lon="2.58284">
        <ele>69</ele>
        <time>2017-09-05T10:58:42Z</time>
      </trkpt>
      <trkpt lat="48.7216" lon="2.58278">
        <ele>69</ele>
        <time>2017-09-05T10:58:42Z</time>
      </trkpt>
      <trkpt lat="48.72158" lon="2.58271">
        <ele>69</ele>
        <time>2017-09-05T10:58:42Z</time>
      </trkpt>
      <trkpt lat="48.72156" lon="2.58266">
        <ele>69</ele>
        <time>2017-09-05T10:58:58Z</time>
      </trkpt>
      <trkpt lat="48.72154" lon="2.5826">
        <ele>69</ele>
        <time>2017-09-05T10:58:58Z</time>
      </trkpt>
      <trkpt lat="48.72152" lon="2.58255">
        <ele>69</ele>
        <time>2017-09-05T10:58:58Z</time>
      </trkpt>
      <trkpt lat="48.7215" lon="2.58249">
        <ele>69</ele>
        <time>2017-09-05T10:58:58Z</time>
      </trkpt>
      <trkpt lat="48.72148" lon="2.58243">
        <ele>69</ele>
        <time>2017-09-05T10:59:14Z</time>
      </trkpt>
      <trkpt lat="48.72145" lon="2.58234">
        <ele>69</ele>
        <time>2017-09-05T10:59:14Z</time>
      </trkpt>
      <trkpt lat="48.72143" lon="2.58227">
        <ele>69</ele>
        <time>2017-09-05T10:59:14Z</time>
      </trkpt>
      <trkpt lat="48.72141" lon="2.58221">
        <ele>69</ele>
        <time>2017-09-05T10:59:14Z</time>
      </trkpt>
      <trkpt lat="48.7214" lon="2.58216">
        <ele>69</ele>
        <time>2017-09-05T10:59:30Z</time>
      </trkpt>
      <trkpt lat="48.72138" lon="2.58209">
        <ele>69</ele>
        <time>2017-09-05T10:59:30Z</time>
      </trkpt>
      <trkpt lat="48.72138" lon="2.58203">
        <ele>66</ele>
        <time>2017-09-05T10:59:30Z</time>
      </trkpt>
      <trkpt lat="48.72137" lon="2.58193">
        <ele>66</ele>
        <time>2017-09-05T10:59:30Z</time>
      </trkpt>
      <trkpt lat="48.72138" lon="2.58185">
        <ele>66</ele>
        <time>2017-09-05T10:59:46Z</time>
      </trkpt>
      <trkpt lat="48.72142" lon="2.58179">
        <ele>66</ele>
        <time>2017-09-05T10:59:46Z</time>
      </trkpt>
      <trkpt lat="48.72144" lon="2.58174">
        <ele>66</ele>
        <time>2017-09-05T10:59:46Z</time>
      </trkpt>
      <trkpt lat="48.72146" lon="2.58168">
        <ele>66</ele>
        <time>2017-09-05T10:59:46Z</time>
      </trkpt>
      <trkpt lat="48.72147" lon="2.58163">
        <ele>66</ele>
        <time>2017-09-05T11:00:02Z</time>
      </trkpt>
      <trkpt lat="48.72149" lon="2.58156">
        <ele>66</ele>
        <time>2017-09-05T11:00:02Z</time>
      </trkpt>
      <trkpt lat="48.72151" lon="2.5815">
        <ele>66</ele>
        <time>2017-09-05T11:00:02Z</time>
      </trkpt>
      <trkpt lat="48.72154" lon="2.58146">
        <ele>66</ele>
        <time>2017-09-05T11:00:02Z</time>
      </trkpt>
      <trkpt lat="48.72158" lon="2.5814">
        <ele>66</ele>
        <time>2017-09-05T11:00:18Z</time>
      </trkpt>
      <trkpt lat="48.7216" lon="2.58134">
        <ele>66</ele>
        <time>2017-09-05T11:00:18Z</time>
      </trkpt>
      <trkpt lat="48.72162" lon="2.58125">
        <ele>66</ele>
        <time>2017-09-05T11:00:18Z</time>
      </trkpt>
      <trkpt lat="48.72164" lon="2.58116">
        <ele>67</ele>
        <time>2017-09-05T11:00:18Z</time>
      </trkpt>
      <trkpt lat="48.72166" lon="2.58107">
        <ele>67</ele>
        <time>2017-09-05T11:00:34Z</time>
      </trkpt>
      <trkpt lat="48.72168" lon="2.581">
        <ele>67</ele>
        <time>2017-09-05T11:00:34Z</time>
      </trkpt>
      <trkpt lat="48.7217" lon="2.58095">
        <ele>67</ele>
        <time>2017-09-05T11:00:34Z</time>
      </trkpt>
      <trkpt lat="48.72172" lon="2.58086">
        <ele>67</ele>
        <time>2017-09-05T11:00:34Z</time>
      </trkpt>
      <trkpt lat="48.72175" lon="2.58076">
        <ele>67</ele>
        <time>2017-09-05T11:00:50Z</time>
      </trkpt>
      <trkpt lat="48.72178" lon="2.58068">
        <ele>67</ele>
        <time>2017-09-05T11:00:50Z</time>
      </trkpt>
      <trkpt lat="48.7218" lon="2.58062">
        <ele>67</ele>
        <time>2017-09-05T11:00:50Z</time>
      </trkpt>
      <trkpt lat="48.72183" lon="2.58057">
        <ele>67</ele>
        <time>2017-09-05T11:00:50Z</time>
      </trkpt>
      <trkpt lat="48.72185" lon="2.58051">
        <ele>67</ele>
        <time>2017-09-05T11:01:06Z</time>
      </trkpt>
      <trkpt lat="48.72187" lon="2.58046">
        <ele>67</ele>
        <time>2017-09-05T11:01:06Z</time>
      </trkpt>
      <trkpt lat="48.7219" lon="2.58038">
        <ele>69</ele>
        <time>2017-09-05T11:01:06Z</time>
      </trkpt>
      <trkpt lat="48.72194" lon="2.58031">
        <ele>69</ele>
        <time>2017-09-05T11:01:06Z</time>
      </trkpt>
      <trkpt lat="48.72197" lon="2.58027">
        <ele>69</ele>
        <time>2017-09-05T11:01:22Z</time>
      </trkpt>
      <trkpt lat="48.72201" lon="2.58019">
        <ele>69</ele>
        <time>2017-09-05T11:01:22Z</time>
      </trkpt>
      <trkpt lat="48.72202" lon="2.58012">
        <ele>69</ele>
        <time>2017-09-05T11:01:22Z</time>
      </trkpt>
      <trkpt lat="48.72204" lon="2.58">
        <ele>69</ele>
        <time>2017-09-05T11:01:22Z</time>
      </trkpt>
      <trkpt lat="48.72204" lon="2.5799">
        <ele>69</ele>
        <time>2017-09-05T11:01:38Z</time>
      </trkpt>
      <trkpt lat="48.72203" lon="2.57985">
        <ele>69</ele>
        <time>2017-09-05T11:01:38Z</time>
      </trkpt>
      <trkpt lat="48.72202" lon="2.57979">
        <ele>69</ele>
        <time>2017-09-05T11:01:38Z</time>
      </trkpt>
      <trkpt lat="48.72199" lon="2.57975">
        <ele>69</ele>
        <time>2017-09-05T11:01:38Z</time>
      </trkpt>
      <trkpt lat="48.72196" lon="2.5797">
        <ele>69</ele>
        <time>2017-09-05T11:01:54Z</time>
      </trkpt>
      <trkpt lat="48.72194" lon="2.57964">
        <ele>69</ele>
        <time>2017-09-05T11:01:54Z</time>
      </trkpt>
      <trkpt lat="48.72191" lon="2.57958">
        <ele>70</ele>
        <time>2017-09-05T11:01:54Z</time>
      </trkpt>
      <trkpt lat="48.72188" lon="2.57952">
        <ele>70</ele>
        <time>2017-09-05T11:01:54Z</time>
      </trkpt>
      <trkpt lat="48.72185" lon="2.57943">
        <ele>70</ele>
        <time>2017-09-05T11:02:10Z</time>
      </trkpt>
      <trkpt lat="48.72184" lon="2.57937">
        <ele>70</ele>
        <time>2017-09-05T11:02:10Z</time>
      </trkpt>
      <trkpt lat="48.72181" lon="2.57933">
        <ele>70</ele>
        <time>2017-09-05T11:02:10Z</time>
      </trkpt>
      <trkpt lat="48.72179" lon="2.57928">
        <ele>70</ele>
        <time>2017-09-05T11:02:10Z</time>
      </trkpt>
      <trkpt lat="48.72177" lon="2.57924">
        <ele>70</ele>
        <time>2017-09-05T11:02:26Z</time>
      </trkpt>
      <trkpt lat="48.72173" lon="2.57919">
        <ele>70</ele>
        <time>2017-09-05T11:02:26Z</time>
      </trkpt>
      <trkpt lat="48.72169" lon="2.57914">
        <ele>70</ele>
        <time>2017-09-05T11:02:26Z</time>
      </trkpt>
      <trkpt lat="48.72165" lon="2.57908">
        <ele>70</ele>
        <time>2017-09-05T11:02:26Z</time>
      </trkpt>
      <trkpt lat="48.72161" lon="2.57903">
        <ele>70</ele>
        <time>2017-09-05T11:02:42Z</time>
      </trkpt>
      <trkpt lat="48.72158" lon="2.57898">
        <ele>70</ele>
        <time>2017-09-05T11:02:42Z</time>
      </trkpt>
      <trkpt lat="48.72153" lon="2.57895">
        <ele>70</ele>
        <time>2017-09-05T11:02:42Z</time>
      </trkpt>
      <trkpt lat="48.72151" lon="2.57892">
        <ele>70</ele>
        <time>2017-09-05T11:02:42Z</time>
      </trkpt>
      <trkpt lat="48.72146" lon="2.57891">
        <ele>70</ele>
        <time>2017-09-05T11:02:58Z</time>
      </trkpt>
      <trkpt lat="48.72143" lon="2.57889">
        <ele>70</ele>
        <time>2017-09-05T11:02:58Z</time>
      </trkpt>
      <trkpt lat="48.7214" lon="2.57886">
        <ele>70</ele>
        <time>2017-09-05T11:02:58Z</time>
      </trkpt>
      <trkpt lat="48.72136" lon="2.57884">
        <ele>70</ele>
        <time>2017-09-05T11:02:58Z</time>
      </trkpt>
      <trkpt lat="48.7213" lon="2.57881">
        <ele>70</ele>
        <time>2017-09-05T11:03:14Z</time>
      </trkpt>
      <trkpt lat="48.72123" lon="2.57876">
        <ele>75</ele>
        <time>2017-09-05T11:03:14Z</time>
      </trkpt>
      <trkpt lat="48.72118" lon="2.57871">
        <ele>76</ele>
        <time>2017-09-05T11:03:14Z</time>
      </trkpt>
      <trkpt lat="48.72116" lon="2.57868">
        <ele>76</ele>
        <time>2017-09-05T11:03:14Z</time>
      </trkpt>
      <trkpt lat="48.72112" lon="2.57864">
        <ele>76</ele>
        <time>2017-09-05T11:03:30Z</time>
      </trkpt>
      <trkpt lat="48.72106" lon="2.57862">
        <ele>76</ele>
        <time>2017-09-05T11:03:30Z</time>
      </trkpt>
      <trkpt lat="48.721" lon="2.5786">
        <ele>76</ele>
        <time>2017-09-05T11:03:30Z</time>
      </trkpt>
      <trkpt lat="48.72093" lon="2.57858">
        <ele>76</ele>
        <time>2017-09-05T11:03:30Z</time>
      </trkpt>
      <trkpt lat="48.72088" lon="2.57856">
        <ele>76</ele>
        <time>2017-09-05T11:03:46Z</time>
      </trkpt>
      <trkpt lat="48.72083" lon="2.57856">
        <ele>76</ele>
        <time>2017-09-05T11:03:46Z</time>
      </trkpt>
      <trkpt lat="48.72078" lon="2.57854">
        <ele>76</ele>
        <time>2017-09-05T11:03:46Z</time>
      </trkpt>
      <trkpt lat="48.72074" lon="2.57849">
        <ele>76</ele>
        <time>2017-09-05T11:03:46Z</time>
      </trkpt>
      <trkpt lat="48.72077" lon="2.57841">
        <ele>76</ele>
        <time>2017-09-05T11:04:02Z</time>
      </trkpt>
      <trkpt lat="48.72078" lon="2.57835">
        <ele>76</ele>
        <time>2017-09-05T11:04:02Z</time>
      </trkpt>
      <trkpt lat="48.7208" lon="2.5783">
        <ele>76</ele>
        <time>2017-09-05T11:04:02Z</time>
      </trkpt>
      <trkpt lat="48.72082" lon="2.57823">
        <ele>76</ele>
        <time>2017-09-05T11:04:02Z</time>
      </trkpt>
      <trkpt lat="48.72084" lon="2.57816">
        <ele>76</ele>
        <time>2017-09-05T11:04:18Z</time>
      </trkpt>
      <trkpt lat="48.72087" lon="2.5781">
        <ele>76</ele>
        <time>2017-09-05T11:04:18Z</time>
      </trkpt>
      <trkpt lat="48.7209" lon="2.57803">
        <ele>76</ele>
        <time>2017-09-05T11:04:18Z</time>
      </trkpt>
      <trkpt lat="48.72091" lon="2.57797">
        <ele>76</ele>
        <time>2017-09-05T11:04:18Z</time>
      </trkpt>
      <trkpt lat="48.72093" lon="2.57791">
        <ele>78</ele>
        <time>2017-09-05T11:04:38Z</time>
      </trkpt>
      <trkpt lat="48.72096" lon="2.57782">
        <ele>78</ele>
        <time>2017-09-05T11:04:38Z</time>
      </trkpt>
      <trkpt lat="48.72096" lon="2.5778">
        <ele>78</ele>
        <time>2017-09-05T11:04:38Z</time>
      </trkpt>
      <trkpt lat="48.72096" lon="2.5778">
        <ele>78</ele>
        <time>2017-09-05T11:04:38Z</time>
      </trkpt>
      <trkpt lat="48.72098" lon="2.57777">
        <ele>78</ele>
        <time>2017-09-05T11:04:38Z</time>
      </trkpt>
      <trkpt lat="48.72099" lon="2.57774">
        <ele>78</ele>
        <time>2017-09-05T11:04:54Z</time>
      </trkpt>
      <trkpt lat="48.72101" lon="2.57769">
        <ele>78</ele>
        <time>2017-09-05T11:04:54Z</time>
      </trkpt>
      <trkpt lat="48.72103" lon="2.57765">
        <ele>78</ele>
        <time>2017-09-05T11:04:54Z</time>
      </trkpt>
      <trkpt lat="48.72107" lon="2.57759">
        <ele>78</ele>
        <time>2017-09-05T11:04:54Z</time>
      </trkpt>
      <trkpt lat="48.72109" lon="2.57751">
        <ele>78</ele>
        <time>2017-09-05T11:05:10Z</time>
      </trkpt>
      <trkpt lat="48.72111" lon="2.57743">
        <ele>78</ele>
        <time>2017-09-05T11:05:10Z</time>
      </trkpt>
      <trkpt lat="48.72114" lon="2.57732">
        <ele>78</ele>
        <time>2017-09-05T11:05:10Z</time>
      </trkpt>
      <trkpt lat="48.72116" lon="2.57725">
        <ele>78</ele>
        <time>2017-09-05T11:05:10Z</time>
      </trkpt>
      <trkpt lat="48.72119" lon="2.57717">
        <ele>78</ele>
        <time>2017-09-05T11:05:26Z</time>
      </trkpt>
      <trkpt lat="48.7212" lon="2.57709">
        <ele>78</ele>
        <time>2017-09-05T11:05:26Z</time>
      </trkpt>
      <trkpt lat="48.72121" lon="2.57703">
        <ele>75</ele>
        <time>2017-09-05T11:05:26Z</time>
      </trkpt>
      <trkpt lat="48.72123" lon="2.57696">
        <ele>75</ele>
        <time>2017-09-05T11:05:26Z</time>
      </trkpt>
      <trkpt lat="48.72126" lon="2.57688">
        <ele>68</ele>
        <time>2017-09-05T11:05:42Z</time>
      </trkpt>
      <trkpt lat="48.72128" lon="2.57681">
        <ele>68</ele>
        <time>2017-09-05T11:05:42Z</time>
      </trkpt>
      <trkpt lat="48.72129" lon="2.57676">
        <ele>68</ele>
        <time>2017-09-05T11:05:42Z</time>
      </trkpt>
      <trkpt lat="48.72131" lon="2.57669">
        <ele>68</ele>
        <time>2017-09-05T11:05:42Z</time>
      </trkpt>
      <trkpt lat="48.72132" lon="2.57662">
        <ele>68</ele>
        <time>2017-09-05T11:05:58Z</time>
      </trkpt>
      <trkpt lat="48.72134" lon="2.57656">
        <ele>68</ele>
        <time>2017-09-05T11:05:58Z</time>
      </trkpt>
      <trkpt lat="48.72136" lon="2.57649">
        <ele>68</ele>
        <time>2017-09-05T11:05:58Z</time>
      </trkpt>
      <trkpt lat="48.72137" lon="2.57642">
        <ele>68</ele>
        <time>2017-09-05T11:05:58Z</time>
      </trkpt>
      <trkpt lat="48.72139" lon="2.57634">
        <ele>68</ele>
        <time>2017-09-05T11:06:14Z</time>
      </trkpt>
      <trkpt lat="48.7214" lon="2.57627">
        <ele>68</ele>
        <time>2017-09-05T11:06:14Z</time>
      </trkpt>
      <trkpt lat="48.72141" lon="2.57622">
        <ele>68</ele>
        <time>2017-09-05T11:06:14Z</time>
      </trkpt>
      <trkpt lat="48.72144" lon="2.57616">
        <ele>68</ele>
        <time>2017-09-05T11:06:14Z</time>
      </trkpt>
      <trkpt lat="48.72143" lon="2.57609">
        <ele>68</ele>
        <time>2017-09-05T11:06:30Z</time>
      </trkpt>
      <trkpt lat="48.72145" lon="2.57604">
        <ele>68</ele>
        <time>2017-09-05T11:06:30Z</time>
      </trkpt>
      <trkpt lat="48.72147" lon="2.57596">
        <ele>68</ele>
        <time>2017-09-05T11:06:30Z</time>
      </trkpt>
      <trkpt lat="48.72149" lon="2.57588">
        <ele>68</ele>
        <time>2017-09-05T11:06:30Z</time>
      </trkpt>
      <trkpt lat="48.7215" lon="2.57579">
        <ele>68</ele>
        <time>2017-09-05T11:06:46Z</time>
      </trkpt>
      <trkpt lat="48.72151" lon="2.57573">
        <ele>68</ele>
        <time>2017-09-05T11:06:46Z</time>
      </trkpt>
      <trkpt lat="48.72153" lon="2.57568">
        <ele>68</ele>
        <time>2017-09-05T11:06:46Z</time>
      </trkpt>
      <trkpt lat="48.72155" lon="2.57558">
        <ele>68</ele>
        <time>2017-09-05T11:06:46Z</time>
      </trkpt>
      <trkpt lat="48.72157" lon="2.57553">
        <ele>68</ele>
        <time>2017-09-05T11:07:02Z</time>
      </trkpt>
      <trkpt lat="48.72159" lon="2.57546">
        <ele>68</ele>
        <time>2017-09-05T11:07:02Z</time>
      </trkpt>
      <trkpt lat="48.7216" lon="2.57537">
        <ele>69</ele>
        <time>2017-09-05T11:07:02Z</time>
      </trkpt>
      <trkpt lat="48.72162" lon="2.5753">
        <ele>69</ele>
        <time>2017-09-05T11:07:02Z</time>
      </trkpt>
      <trkpt lat="48.72163" lon="2.57522">
        <ele>69</ele>
        <time>2017-09-05T11:07:18Z</time>
      </trkpt>
      <trkpt lat="48.72164" lon="2.57514">
        <ele>69</ele>
        <time>2017-09-05T11:07:18Z</time>
      </trkpt>
      <trkpt lat="48.72166" lon="2.57507">
        <ele>69</ele>
        <time>2017-09-05T11:07:18Z</time>
      </trkpt>
      <trkpt lat="48.72167" lon="2.575">
        <ele>69</ele>
        <time>2017-09-05T11:07:18Z</time>
      </trkpt>
      <trkpt lat="48.72168" lon="2.57493">
        <ele>69</ele>
        <time>2017-09-05T11:07:34Z</time>
      </trkpt>
      <trkpt lat="48.7217" lon="2.57487">
        <ele>69</ele>
        <time>2017-09-05T11:07:34Z</time>
      </trkpt>
      <trkpt lat="48.72171" lon="2.57478">
        <ele>69</ele>
        <time>2017-09-05T11:07:34Z</time>
      </trkpt>
      <trkpt lat="48.72173" lon="2.57474">
        <ele>69</ele>
        <time>2017-09-05T11:07:34Z</time>
      </trkpt>
      <trkpt lat="48.72174" lon="2.57468">
        <ele>69</ele>
        <time>2017-09-05T11:07:50Z</time>
      </trkpt>
      <trkpt lat="48.72177" lon="2.57463">
        <ele>69</ele>
        <time>2017-09-05T11:07:50Z</time>
      </trkpt>
      <trkpt lat="48.72182" lon="2.57458">
        <ele>71</ele>
        <time>2017-09-05T11:07:50Z</time>
      </trkpt>
      <trkpt lat="48.72184" lon="2.57455">
        <ele>71</ele>
        <time>2017-09-05T11:07:50Z</time>
      </trkpt>
      <trkpt lat="48.72188" lon="2.57451">
        <ele>71</ele>
        <time>2017-09-05T11:08:06Z</time>
      </trkpt>
      <trkpt lat="48.72191" lon="2.57448">
        <ele>71</ele>
        <time>2017-09-05T11:08:06Z</time>
      </trkpt>
      <trkpt lat="48.72193" lon="2.57445">
        <ele>71</ele>
        <time>2017-09-05T11:08:06Z</time>
      </trkpt>
      <trkpt lat="48.72197" lon="2.57443">
        <ele>71</ele>
        <time>2017-09-05T11:08:06Z</time>
      </trkpt>
      <trkpt lat="48.72201" lon="2.57439">
        <ele>71</ele>
        <time>2017-09-05T11:08:22Z</time>
      </trkpt>
      <trkpt lat="48.72205" lon="2.57435">
        <ele>71</ele>
        <time>2017-09-05T11:08:22Z</time>
      </trkpt>
      <trkpt lat="48.72208" lon="2.5743">
        <ele>71</ele>
        <time>2017-09-05T11:08:22Z</time>
      </trkpt>
      <trkpt lat="48.72212" lon="2.57425">
        <ele>66</ele>
        <time>2017-09-05T11:08:22Z</time>
      </trkpt>
      <trkpt lat="48.72215" lon="2.5742">
        <ele>66</ele>
        <time>2017-09-05T11:08:38Z</time>
      </trkpt>
      <trkpt lat="48.72219" lon="2.57415">
        <ele>66</ele>
        <time>2017-09-05T11:08:38Z</time>
      </trkpt>
      <trkpt lat="48.72223" lon="2.57411">
        <ele>66</ele>
        <time>2017-09-05T11:08:38Z</time>
      </trkpt>
      <trkpt lat="48.72227" lon="2.57406">
        <ele>66</ele>
        <time>2017-09-05T11:08:38Z</time>
      </trkpt>
      <trkpt lat="48.72228" lon="2.57405">
        <ele>66</ele>
        <time>2017-09-05T11:08:54Z</time>
      </trkpt>
      <trkpt lat="48.72234" lon="2.57397">
        <ele>66</ele>
        <time>2017-09-05T11:08:54Z</time>
      </trkpt>
      <trkpt lat="48.72236" lon="2.57393">
        <ele>66</ele>
        <time>2017-09-05T11:08:54Z</time>
      </trkpt>
      <trkpt lat="48.72242" lon="2.57392">
        <ele>66</ele>
        <time>2017-09-05T11:08:54Z</time>
      </trkpt>
      <trkpt lat="48.72248" lon="2.57394">
        <ele>66</ele>
        <time>2017-09-05T11:09:10Z</time>
      </trkpt>
      <trkpt lat="48.72251" lon="2.57393">
        <ele>66</ele>
        <time>2017-09-05T11:09:10Z</time>
      </trkpt>
      <trkpt lat="48.72254" lon="2.57391">
        <ele>66</ele>
        <time>2017-09-05T11:09:10Z</time>
      </trkpt>
      <trkpt lat="48.72261" lon="2.57387">
        <ele>66</ele>
        <time>2017-09-05T11:09:10Z</time>
      </trkpt>
      <trkpt lat="48.72267" lon="2.57384">
        <ele>66</ele>
        <time>2017-09-05T11:09:26Z</time>
      </trkpt>
      <trkpt lat="48.7227" lon="2.57382">
        <ele>66</ele>
        <time>2017-09-05T11:09:26Z</time>
      </trkpt>
      <trkpt lat="48.72273" lon="2.57379">
        <ele>66</ele>
        <time>2017-09-05T11:09:26Z</time>
      </trkpt>
      <trkpt lat="48.72277" lon="2.57377">
        <ele>66</ele>
        <time>2017-09-05T11:09:26Z</time>
      </trkpt>
      <trkpt lat="48.72281" lon="2.57374">
        <ele>68</ele>
        <time>2017-09-05T11:09:42Z</time>
      </trkpt>
      <trkpt lat="48.72285" lon="2.57372">
        <ele>68</ele>
        <time>2017-09-05T11:09:42Z</time>
      </trkpt>
      <trkpt lat="48.7229" lon="2.57368">
        <ele>68</ele>
        <time>2017-09-05T11:09:42Z</time>
      </trkpt>
      <trkpt lat="48.72296" lon="2.57364">
        <ele>66</ele>
        <time>2017-09-05T11:09:42Z</time>
      </trkpt>
      <trkpt lat="48.72302" lon="2.57365">
        <ele>66</ele>
        <time>2017-09-05T11:09:58Z</time>
      </trkpt>
      <trkpt lat="48.72304" lon="2.57365">
        <ele>66</ele>
        <time>2017-09-05T11:09:58Z</time>
      </trkpt>
      <trkpt lat="48.72311" lon="2.57364">
        <ele>66</ele>
        <time>2017-09-05T11:09:58Z</time>
      </trkpt>
      <trkpt lat="48.72317" lon="2.57361">
        <ele>66</ele>
        <time>2017-09-05T11:09:58Z</time>
      </trkpt>
      <trkpt lat="48.72323" lon="2.57359">
        <ele>66</ele>
        <time>2017-09-05T11:10:14Z</time>
      </trkpt>
      <trkpt lat="48.72328" lon="2.57357">
        <ele>66</ele>
        <time>2017-09-05T11:10:14Z</time>
      </trkpt>
      <trkpt lat="48.72332" lon="2.57351">
        <ele>66</ele>
        <time>2017-09-05T11:10:14Z</time>
      </trkpt>
      <trkpt lat="48.72336" lon="2.57344">
        <ele>66</ele>
        <time>2017-09-05T11:10:14Z</time>
      </trkpt>
      <trkpt lat="48.72338" lon="2.57336">
        <ele>66</ele>
        <time>2017-09-05T11:10:30Z</time>
      </trkpt>
      <trkpt lat="48.7234" lon="2.57328">
        <ele>66</ele>
        <time>2017-09-05T11:10:30Z</time>
      </trkpt>
      <trkpt lat="48.72344" lon="2.57322">
        <ele>66</ele>
        <time>2017-09-05T11:10:30Z</time>
      </trkpt>
      <trkpt lat="48.72348" lon="2.57318">
        <ele>66</ele>
        <time>2017-09-05T11:10:30Z</time>
      </trkpt>
      <trkpt lat="48.72352" lon="2.57317">
        <ele>66</ele>
        <time>2017-09-05T11:10:46Z</time>
      </trkpt>
      <trkpt lat="48.72357" lon="2.57317">
        <ele>66</ele>
        <time>2017-09-05T11:10:46Z</time>
      </trkpt>
      <trkpt lat="48.72361" lon="2.57318">
        <ele>66</ele>
        <time>2017-09-05T11:10:46Z</time>
      </trkpt>
      <trkpt lat="48.72366" lon="2.57318">
        <ele>66</ele>
        <time>2017-09-05T11:10:46Z</time>
      </trkpt>
      <trkpt lat="48.7237" lon="2.57319">
        <ele>66</ele>
        <time>2017-09-05T11:11:02Z</time>
      </trkpt>
      <trkpt lat="48.72375" lon="2.5732">
        <ele>68</ele>
        <time>2017-09-05T11:11:02Z</time>
      </trkpt>
      <trkpt lat="48.72379" lon="2.57321">
        <ele>68</ele>
        <time>2017-09-05T11:11:02Z</time>
      </trkpt>
      <trkpt lat="48.72383" lon="2.57322">
        <ele>68</ele>
        <time>2017-09-05T11:11:02Z</time>
      </trkpt>
      <trkpt lat="48.72387" lon="2.57322">
        <ele>68</ele>
        <time>2017-09-05T11:11:18Z</time>
      </trkpt>
      <trkpt lat="48.72393" lon="2.57324">
        <ele>68</ele>
        <time>2017-09-05T11:11:18Z</time>
      </trkpt>
      <trkpt lat="48.72398" lon="2.57328">
        <ele>68</ele>
        <time>2017-09-05T11:11:18Z</time>
      </trkpt>
      <trkpt lat="48.72403" lon="2.57331">
        <ele>68</ele>
        <time>2017-09-05T11:11:18Z</time>
      </trkpt>
      <trkpt lat="48.72409" lon="2.57332">
        <ele>68</ele>
        <time>2017-09-05T11:11:34Z</time>
      </trkpt>
      <trkpt lat="48.72416" lon="2.57336">
        <ele>68</ele>
        <time>2017-09-05T11:11:34Z</time>
      </trkpt>
      <trkpt lat="48.7242" lon="2.57339">
        <ele>68</ele>
        <time>2017-09-05T11:11:34Z</time>
      </trkpt>
      <trkpt lat="48.72422" lon="2.57341">
        <ele>68</ele>
        <time>2017-09-05T11:11:34Z</time>
      </trkpt>
      <trkpt lat="48.72424" lon="2.57342">
        <ele>68</ele>
        <time>2017-09-05T11:11:50Z</time>
      </trkpt>
      <trkpt lat="48.72429" lon="2.57344">
        <ele>68</ele>
        <time>2017-09-05T11:11:50Z</time>
      </trkpt>
      <trkpt lat="48.72434" lon="2.57345">
        <ele>68</ele>
        <time>2017-09-05T11:11:50Z</time>
      </trkpt>
      <trkpt lat="48.7244" lon="2.57348">
        <ele>68</ele>
        <time>2017-09-05T11:11:50Z</time>
      </trkpt>
      <trkpt lat="48.72446" lon="2.5735">
        <ele>68</ele>
        <time>2017-09-05T11:12:06Z</time>
      </trkpt>
      <trkpt lat="48.7245" lon="2.57349">
        <ele>68</ele>
        <time>2017-09-05T11:12:06Z</time>
      </trkpt>
      <trkpt lat="48.72452" lon="2.57348">
        <ele>68</ele>
        <time>2017-09-05T11:12:06Z</time>
      </trkpt>
      <trkpt lat="48.72456" lon="2.57343">
        <ele>68</ele>
        <time>2017-09-05T11:12:06Z</time>
      </trkpt>
      <trkpt lat="48.72461" lon="2.57339">
        <ele>74</ele>
        <time>2017-09-05T11:12:22Z</time>
      </trkpt>
      <trkpt lat="48.72465" lon="2.57335">
        <ele>74</ele>
        <time>2017-09-05T11:12:22Z</time>
      </trkpt>
      <trkpt lat="48.72467" lon="2.57329">
        <ele>74</ele>
        <time>2017-09-05T11:12:22Z</time>
      </trkpt>
      <trkpt lat="48.72469" lon="2.57324">
        <ele>74</ele>
        <time>2017-09-05T11:12:22Z</time>
      </trkpt>
      <trkpt lat="48.72475" lon="2.57319">
        <ele>74</ele>
        <time>2017-09-05T11:12:54Z</time>
      </trkpt>
      <trkpt lat="48.72477" lon="2.57319">
        <ele>74</ele>
        <time>2017-09-05T11:12:54Z</time>
      </trkpt>
      <trkpt lat="48.72478" lon="2.57318">
        <ele>74</ele>
        <time>2017-09-05T11:12:54Z</time>
      </trkpt>
      <trkpt lat="48.72478" lon="2.57318">
        <ele>74</ele>
        <time>2017-09-05T11:12:54Z</time>
      </trkpt>
      <trkpt lat="48.7248" lon="2.57314">
        <ele>74</ele>
        <time>2017-09-05T11:12:54Z</time>
      </trkpt>
      <trkpt lat="48.72483" lon="2.5731">
        <ele>74</ele>
        <time>2017-09-05T11:13:10Z</time>
      </trkpt>
      <trkpt lat="48.72485" lon="2.57308">
        <ele>74</ele>
        <time>2017-09-05T11:13:10Z</time>
      </trkpt>
      <trkpt lat="48.72485" lon="2.57301">
        <ele>74</ele>
        <time>2017-09-05T11:13:10Z</time>
      </trkpt>
      <trkpt lat="48.72488" lon="2.57297">
        <ele>74</ele>
        <time>2017-09-05T11:13:10Z</time>
      </trkpt>
      <trkpt lat="48.72493" lon="2.57293">
        <ele>74</ele>
        <time>2017-09-05T11:13:26Z</time>
      </trkpt>
      <trkpt lat="48.72495" lon="2.57287">
        <ele>74</ele>
        <time>2017-09-05T11:13:26Z</time>
      </trkpt>
      <trkpt lat="48.72497" lon="2.57282">
        <ele>74</ele>
        <time>2017-09-05T11:13:26Z</time>
      </trkpt>
      <trkpt lat="48.72499" lon="2.57276">
        <ele>74</ele>
        <time>2017-09-05T11:13:26Z</time>
      </trkpt>
      <trkpt lat="48.72503" lon="2.57268">
        <ele>74</ele>
        <time>2017-09-05T11:13:42Z</time>
      </trkpt>
      <trkpt lat="48.72505" lon="2.57262">
        <ele>74</ele>
        <time>2017-09-05T11:13:42Z</time>
      </trkpt>
      <trkpt lat="48.72507" lon="2.57256">
        <ele>74</ele>
        <time>2017-09-05T11:13:42Z</time>
      </trkpt>
      <trkpt lat="48.7251" lon="2.57252">
        <ele>74</ele>
        <time>2017-09-05T11:13:42Z</time>
      </trkpt>
      <trkpt lat="48.72515" lon="2.57251">
        <ele>74</ele>
        <time>2017-09-05T11:14:02Z</time>
      </trkpt>
      <trkpt lat="48.7252" lon="2.57248">
        <ele>74</ele>
        <time>2017-09-05T11:14:02Z</time>
      </trkpt>
      <trkpt lat="48.72521" lon="2.57247">
        <ele>74</ele>
        <time>2017-09-05T11:14:02Z</time>
      </trkpt>
      <trkpt lat="48.72523" lon="2.57244">
        <ele>74</ele>
        <time>2017-09-05T11:14:02Z</time>
      </trkpt>
      <trkpt lat="48.72528" lon="2.5724">
        <ele>74</ele>
        <time>2017-09-05T11:14:02Z</time>
      </trkpt>
      <trkpt lat="48.72532" lon="2.5724">
        <ele>74</ele>
        <time>2017-09-05T11:14:18Z</time>
      </trkpt>
      <trkpt lat="48.72536" lon="2.5724">
        <ele>74</ele>
        <time>2017-09-05T11:14:18Z</time>
      </trkpt>
      <trkpt lat="48.72539" lon="2.57238">
        <ele>74</ele>
        <time>2017-09-05T11:14:18Z</time>
      </trkpt>
      <trkpt lat="48.72544" lon="2.57236">
        <ele>80</ele>
        <time>2017-09-05T11:14:18Z</time>
      </trkpt>
      <trkpt lat="48.72548" lon="2.57233">
        <ele>80</ele>
        <time>2017-09-05T11:14:34Z</time>
      </trkpt>
      <trkpt lat="48.7255" lon="2.57232">
        <ele>80</ele>
        <time>2017-09-05T11:14:34Z</time>
      </trkpt>
      <trkpt lat="48.72553" lon="2.5723">
        <ele>80</ele>
        <time>2017-09-05T11:14:34Z</time>
      </trkpt>
      <trkpt lat="48.72559" lon="2.57228">
        <ele>80</ele>
        <time>2017-09-05T11:14:34Z</time>
      </trkpt>
      <trkpt lat="48.7256" lon="2.57231">
        <ele>80</ele>
        <time>2017-09-05T11:14:50Z</time>
      </trkpt>
      <trkpt lat="48.72562" lon="2.57237">
        <ele>80</ele>
        <time>2017-09-05T11:14:50Z</time>
      </trkpt>
      <trkpt lat="48.72563" lon="2.57244">
        <ele>80</ele>
        <time>2017-09-05T11:14:50Z</time>
      </trkpt>
      <trkpt lat="48.72564" lon="2.5725">
        <ele>80</ele>
        <time>2017-09-05T11:14:50Z</time>
      </trkpt>
      <trkpt lat="48.72566" lon="2.57258">
        <ele>80</ele>
        <time>2017-09-05T11:15:14Z</time>
      </trkpt>
      <trkpt lat="48.72566" lon="2.57258">
        <ele>80</ele>
        <time>2017-09-05T11:15:14Z</time>
      </trkpt>
      <trkpt lat="48.72566" lon="2.57259">
        <ele>80</ele>
        <time>2017-09-05T11:15:14Z</time>
      </trkpt>
      <trkpt lat="48.72568" lon="2.57262">
        <ele>80</ele>
        <time>2017-09-05T11:15:14Z</time>
      </trkpt>
      <trkpt lat="48.7257" lon="2.57267">
        <ele>80</ele>
        <time>2017-09-05T11:15:14Z</time>
      </trkpt>
      <trkpt lat="48.72572" lon="2.57276">
        <ele>80</ele>
        <time>2017-09-05T11:15:30Z</time>
      </trkpt>
      <trkpt lat="48.72575" lon="2.57282">
        <ele>80</ele>
        <time>2017-09-05T11:15:30Z</time>
      </trkpt>
      <trkpt lat="48.72579" lon="2.57286">
        <ele>80</ele>
        <time>2017-09-05T11:15:30Z</time>
      </trkpt>
      <trkpt lat="48.72584" lon="2.57288">
        <ele>80</ele>
        <time>2017-09-05T11:15:30Z</time>
      </trkpt>
      <trkpt lat="48.72587" lon="2.57291">
        <ele>80</ele>
        <time>2017-09-05T11:15:46Z</time>
      </trkpt>
      <trkpt lat="48.72591" lon="2.57292">
        <ele>80</ele>
        <time>2017-09-05T11:15:46Z</time>
      </trkpt>
      <trkpt lat="48.72597" lon="2.57295">
        <ele>82</ele>
        <time>2017-09-05T11:15:46Z</time>
      </trkpt>
      <trkpt lat="48.72603" lon="2.57297">
        <ele>82</ele>
        <time>2017-09-05T11:15:46Z</time>
      </trkpt>
      <trkpt lat="48.72606" lon="2.573">
        <ele>82</ele>
        <time>2017-09-05T11:16:02Z</time>
      </trkpt>
      <trkpt lat="48.72608" lon="2.57303">
        <ele>82</ele>
        <time>2017-09-05T11:16:02Z</time>
      </trkpt>
      <trkpt lat="48.72612" lon="2.57305">
        <ele>82</ele>
        <time>2017-09-05T11:16:02Z</time>
      </trkpt>
      <trkpt lat="48.72617" lon="2.57311">
        <ele>82</ele>
        <time>2017-09-05T11:16:02Z</time>
      </trkpt>
      <trkpt lat="48.72617" lon="2.57319">
        <ele>82</ele>
        <time>2017-09-05T11:16:18Z</time>
      </trkpt>
      <trkpt lat="48.72617" lon="2.57323">
        <ele>82</ele>
        <time>2017-09-05T11:16:18Z</time>
      </trkpt>
      <trkpt lat="48.72616" lon="2.5733">
        <ele>82</ele>
        <time>2017-09-05T11:16:18Z</time>
      </trkpt>
      <trkpt lat="48.72617" lon="2.57337">
        <ele>82</ele>
        <time>2017-09-05T11:16:18Z</time>
      </trkpt>
      <trkpt lat="48.72615" lon="2.57346">
        <ele>82</ele>
        <time>2017-09-05T11:16:34Z</time>
      </trkpt>
      <trkpt lat="48.72615" lon="2.57355">
        <ele>82</ele>
        <time>2017-09-05T11:16:34Z</time>
      </trkpt>
      <trkpt lat="48.72614" lon="2.57362">
        <ele>82</ele>
        <time>2017-09-05T11:16:34Z</time>
      </trkpt>
      <trkpt lat="48.72614" lon="2.57369">
        <ele>82</ele>
        <time>2017-09-05T11:16:34Z</time>
      </trkpt>
      <trkpt lat="48.72613" lon="2.57376">
        <ele>81</ele>
        <time>2017-09-05T11:16:50Z</time>
      </trkpt>
      <trkpt lat="48.72614" lon="2.57382">
        <ele>81</ele>
        <time>2017-09-05T11:16:50Z</time>
      </trkpt>
      <trkpt lat="48.72614" lon="2.57389">
        <ele>81</ele>
        <time>2017-09-05T11:16:50Z</time>
      </trkpt>
      <trkpt lat="48.72616" lon="2.57393">
        <ele>81</ele>
        <time>2017-09-05T11:16:50Z</time>
      </trkpt>
      <trkpt lat="48.7262" lon="2.57398">
        <ele>81</ele>
        <time>2017-09-05T11:17:06Z</time>
      </trkpt>
      <trkpt lat="48.72624" lon="2.57403">
        <ele>81</ele>
        <time>2017-09-05T11:17:06Z</time>
      </trkpt>
      <trkpt lat="48.72629" lon="2.57407">
        <ele>85</ele>
        <time>2017-09-05T11:17:06Z</time>
      </trkpt>
      <trkpt lat="48.72634" lon="2.5741">
        <ele>85</ele>
        <time>2017-09-05T11:17:06Z</time>
      </trkpt>
      <trkpt lat="48.7264" lon="2.57411">
        <ele>85</ele>
        <time>2017-09-05T11:17:22Z</time>
      </trkpt>
      <trkpt lat="48.72645" lon="2.57415">
        <ele>85</ele>
        <time>2017-09-05T11:17:22Z</time>
      </trkpt>
      <trkpt lat="48.72648" lon="2.57418">
        <ele>85</ele>
        <time>2017-09-05T11:17:22Z</time>
      </trkpt>
      <trkpt lat="48.72652" lon="2.57418">
        <ele>85</ele>
        <time>2017-09-05T11:17:22Z</time>
      </trkpt>
      <trkpt lat="48.72656" lon="2.57427">
        <ele>85</ele>
        <time>2017-09-05T11:17:38Z</time>
      </trkpt>
      <trkpt lat="48.72658" lon="2.57428">
        <ele>85</ele>
        <time>2017-09-05T11:17:38Z</time>
      </trkpt>
      <trkpt lat="48.72664" lon="2.57432">
        <ele>85</ele>
        <time>2017-09-05T11:17:38Z</time>
      </trkpt>
      <trkpt lat="48.72669" lon="2.57433">
        <ele>85</ele>
        <time>2017-09-05T11:17:38Z</time>
      </trkpt>
      <trkpt lat="48.72676" lon="2.57433">
        <ele>85</ele>
        <time>2017-09-05T11:17:54Z</time>
      </trkpt>
      <trkpt lat="48.72681" lon="2.57435">
        <ele>85</ele>
        <time>2017-09-05T11:17:54Z</time>
      </trkpt>
      <trkpt lat="48.72685" lon="2.57437">
        <ele>85</ele>
        <time>2017-09-05T11:17:54Z</time>
      </trkpt>
      <trkpt lat="48.72688" lon="2.57437">
        <ele>85</ele>
        <time>2017-09-05T11:17:54Z</time>
      </trkpt>
      <trkpt lat="48.72692" lon="2.57437">
        <ele>85</ele>
        <time>2017-09-05T11:18:10Z</time>
      </trkpt>
      <trkpt lat="48.72697" lon="2.57436">
        <ele>85</ele>
        <time>2017-09-05T11:18:10Z</time>
      </trkpt>
      <trkpt lat="48.72704" lon="2.57437">
        <ele>85</ele>
        <time>2017-09-05T11:18:10Z</time>
      </trkpt>
      <trkpt lat="48.72711" lon="2.57437">
        <ele>90</ele>
        <time>2017-09-05T11:18:10Z</time>
      </trkpt>
      <trkpt lat="48.72719" lon="2.57437">
        <ele>90</ele>
        <time>2017-09-05T11:18:26Z</time>
      </trkpt>
      <trkpt lat="48.72724" lon="2.57438">
        <ele>90</ele>
        <time>2017-09-05T11:18:26Z</time>
      </trkpt>
      <trkpt lat="48.72729" lon="2.5744">
        <ele>90</ele>
        <time>2017-09-05T11:18:26Z</time>
      </trkpt>
      <trkpt lat="48.72736" lon="2.57439">
        <ele>90</ele>
        <time>2017-09-05T11:18:26Z</time>
      </trkpt>
      <trkpt lat="48.72741" lon="2.57438">
        <ele>90</ele>
        <time>2017-09-05T11:18:42Z</time>
      </trkpt>
      <trkpt lat="48.72747" lon="2.5744">
        <ele>90</ele>
        <time>2017-09-05T11:18:42Z</time>
      </trkpt>
      <trkpt lat="48.72753" lon="2.5744">
        <ele>90</ele>
        <time>2017-09-05T11:18:42Z</time>
      </trkpt>
      <trkpt lat="48.72758" lon="2.57443">
        <ele>90</ele>
        <time>2017-09-05T11:18:42Z</time>
      </trkpt>
      <trkpt lat="48.72762" lon="2.57445">
        <ele>90</ele>
        <time>2017-09-05T11:18:58Z</time>
      </trkpt>
      <trkpt lat="48.72768" lon="2.57447">
        <ele>90</ele>
        <time>2017-09-05T11:18:58Z</time>
      </trkpt>
      <trkpt lat="48.72774" lon="2.57447">
        <ele>90</ele>
        <time>2017-09-05T11:18:58Z</time>
      </trkpt>
      <trkpt lat="48.7278" lon="2.57447">
        <ele>90</ele>
        <time>2017-09-05T11:18:58Z</time>
      </trkpt>
      <trkpt lat="48.72784" lon="2.57449">
        <ele>90</ele>
        <time>2017-09-05T11:19:14Z</time>
      </trkpt>
      <trkpt lat="48.72789" lon="2.5745">
        <ele>90</ele>
        <time>2017-09-05T11:19:14Z</time>
      </trkpt>
      <trkpt lat="48.72792" lon="2.57449">
        <ele>93</ele>
        <time>2017-09-05T11:19:14Z</time>
      </trkpt>
      <trkpt lat="48.72797" lon="2.5745">
        <ele>93</ele>
        <time>2017-09-05T11:19:14Z</time>
      </trkpt>
      <trkpt lat="48.72801" lon="2.57453">
        <ele>93</ele>
        <time>2017-09-05T11:19:30Z</time>
      </trkpt>
      <trkpt lat="48.72805" lon="2.57454">
        <ele>93</ele>
        <time>2017-09-05T11:19:30Z</time>
      </trkpt>
      <trkpt lat="48.7281" lon="2.57454">
        <ele>93</ele>
        <time>2017-09-05T11:19:30Z</time>
      </trkpt>
      <trkpt lat="48.72816" lon="2.57454">
        <ele>93</ele>
        <time>2017-09-05T11:19:30Z</time>
      </trkpt>
      <trkpt lat="48.72818" lon="2.57457">
        <ele>93</ele>
        <time>2017-09-05T11:19:46Z</time>
      </trkpt>
      <trkpt lat="48.72826" lon="2.57463">
        <ele>91</ele>
        <time>2017-09-05T11:19:46Z</time>
      </trkpt>
      <trkpt lat="48.72831" lon="2.57466">
        <ele>91</ele>
        <time>2017-09-05T11:19:46Z</time>
      </trkpt>
      <trkpt lat="48.72836" lon="2.57468">
        <ele>91</ele>
        <time>2017-09-05T11:19:46Z</time>
      </trkpt>
      <trkpt lat="48.72839" lon="2.57467">
        <ele>91</ele>
        <time>2017-09-05T11:20:02Z</time>
      </trkpt>
      <trkpt lat="48.72844" lon="2.57465">
        <ele>91</ele>
        <time>2017-09-05T11:20:02Z</time>
      </trkpt>
      <trkpt lat="48.72846" lon="2.57465">
        <ele>91</ele>
        <time>2017-09-05T11:20:02Z</time>
      </trkpt>
      <trkpt lat="48.72851" lon="2.57467">
        <ele>91</ele>
        <time>2017-09-05T11:20:02Z</time>
      </trkpt>
      <trkpt lat="48.72855" lon="2.57471">
        <ele>91</ele>
        <time>2017-09-05T11:20:18Z</time>
      </trkpt>
      <trkpt lat="48.7286" lon="2.5747">
        <ele>91</ele>
        <time>2017-09-05T11:20:18Z</time>
      </trkpt>
      <trkpt lat="48.72864" lon="2.5747">
        <ele>91</ele>
        <time>2017-09-05T11:20:18Z</time>
      </trkpt>
      <trkpt lat="48.72866" lon="2.57469">
        <ele>91</ele>
        <time>2017-09-05T11:20:18Z</time>
      </trkpt>
      <trkpt lat="48.72868" lon="2.57469">
        <ele>91</ele>
        <time>2017-09-05T11:20:34Z</time>
      </trkpt>
      <trkpt lat="48.72872" lon="2.5747">
        <ele>91</ele>
        <time>2017-09-05T11:20:34Z</time>
      </trkpt>
      <trkpt lat="48.72876" lon="2.57474">
        <ele>91</ele>
        <time>2017-09-05T11:20:34Z</time>
      </trkpt>
      <trkpt lat="48.72882" lon="2.57473">
        <ele>91</ele>
        <time>2017-09-05T11:20:34Z</time>
      </trkpt>
      <trkpt lat="48.72888" lon="2.5747">
        <ele>91</ele>
        <time>2017-09-05T11:20:50Z</time>
      </trkpt>
      <trkpt lat="48.72895" lon="2.5747">
        <ele>91</ele>
        <time>2017-09-05T11:20:50Z</time>
      </trkpt>
      <trkpt lat="48.72902" lon="2.5747">
        <ele>91</ele>
        <time>2017-09-05T11:20:50Z</time>
      </trkpt>
      <trkpt lat="48.72907" lon="2.57483">
        <ele>91</ele>
        <time>2017-09-05T11:20:50Z</time>
      </trkpt>
      <trkpt lat="48.72911" lon="2.57488">
        <ele>91</ele>
        <time>2017-09-05T11:21:06Z</time>
      </trkpt>
      <trkpt lat="48.72915" lon="2.57493">
        <ele>91</ele>
        <time>2017-09-05T11:21:06Z</time>
      </trkpt>
      <trkpt lat="48.72919" lon="2.57496">
        <ele>91</ele>
        <time>2017-09-05T11:21:06Z</time>
      </trkpt>
      <trkpt lat="48.72927" lon="2.57501">
        <ele>91</ele>
        <time>2017-09-05T11:21:06Z</time>
      </trkpt>
      <trkpt lat="48.72934" lon="2.57503">
        <ele>91</ele>
        <time>2017-09-05T11:21:22Z</time>
      </trkpt>
      <trkpt lat="48.7294" lon="2.57503">
        <ele>91</ele>
        <time>2017-09-05T11:21:22Z</time>
      </trkpt>
      <trkpt lat="48.72945" lon="2.575">
        <ele>91</ele>
        <time>2017-09-05T11:21:22Z</time>
      </trkpt>
      <trkpt lat="48.7295" lon="2.57493">
        <ele>91</ele>
        <time>2017-09-05T11:21:22Z</time>
      </trkpt>
      <trkpt lat="48.72951" lon="2.57488">
        <ele>91</ele>
        <time>2017-09-05T11:21:38Z</time>
      </trkpt>
      <trkpt lat="48.72952" lon="2.57484">
        <ele>91</ele>
        <time>2017-09-05T11:21:38Z</time>
      </trkpt>
      <trkpt lat="48.72954" lon="2.57475">
        <ele>91</ele>
        <time>2017-09-05T11:21:38Z</time>
      </trkpt>
      <trkpt lat="48.72955" lon="2.5747">
        <ele>91</ele>
        <time>2017-09-05T11:21:38Z</time>
      </trkpt>
      <trkpt lat="48.72955" lon="2.57465">
        <ele>91</ele>
        <time>2017-09-05T11:21:54Z</time>
      </trkpt>
      <trkpt lat="48.72956" lon="2.57459">
        <ele>91</ele>
        <time>2017-09-05T11:21:54Z</time>
      </trkpt>
      <trkpt lat="48.72956" lon="2.57451">
        <ele>92</ele>
        <time>2017-09-05T11:21:54Z</time>
      </trkpt>
      <trkpt lat="48.72959" lon="2.57443">
        <ele>94</ele>
        <time>2017-09-05T11:21:54Z</time>
      </trkpt>
      <trkpt lat="48.72959" lon="2.57439">
        <ele>94</ele>
        <time>2017-09-05T11:22:10Z</time>
      </trkpt>
      <trkpt lat="48.72958" lon="2.57429">
        <ele>94</ele>
        <time>2017-09-05T11:22:10Z</time>
      </trkpt>
      <trkpt lat="48.72961" lon="2.57421">
        <ele>94</ele>
        <time>2017-09-05T11:22:10Z</time>
      </trkpt>
      <trkpt lat="48.72961" lon="2.57419">
        <ele>94</ele>
        <time>2017-09-05T11:22:10Z</time>
      </trkpt>
      <trkpt lat="48.72965" lon="2.57413">
        <ele>94</ele>
        <time>2017-09-05T11:22:26Z</time>
      </trkpt>
      <trkpt lat="48.72972" lon="2.57408">
        <ele>94</ele>
        <time>2017-09-05T11:22:26Z</time>
      </trkpt>
      <trkpt lat="48.72979" lon="2.57401">
        <ele>94</ele>
        <time>2017-09-05T11:22:26Z</time>
      </trkpt>
      <trkpt lat="48.72983" lon="2.57396">
        <ele>94</ele>
        <time>2017-09-05T11:22:26Z</time>
      </trkpt>
      <trkpt lat="48.72989" lon="2.57388">
        <ele>94</ele>
        <time>2017-09-05T11:22:42Z</time>
      </trkpt>
      <trkpt lat="48.72991" lon="2.57378">
        <ele>94</ele>
        <time>2017-09-05T11:22:42Z</time>
      </trkpt>
      <trkpt lat="48.72995" lon="2.57371">
        <ele>94</ele>
        <time>2017-09-05T11:22:42Z</time>
      </trkpt>
      <trkpt lat="48.73" lon="2.57367">
        <ele>94</ele>
        <time>2017-09-05T11:22:42Z</time>
      </trkpt>
      <trkpt lat="48.73002" lon="2.57356">
        <ele>94</ele>
        <time>2017-09-05T11:22:58Z</time>
      </trkpt>
      <trkpt lat="48.73004" lon="2.5735">
        <ele>94</ele>
        <time>2017-09-05T11:22:58Z</time>
      </trkpt>
      <trkpt lat="48.73005" lon="2.57344">
        <ele>94</ele>
        <time>2017-09-05T11:22:58Z</time>
      </trkpt>
      <trkpt lat="48.73005" lon="2.57337">
        <ele>94</ele>
        <time>2017-09-05T11:22:58Z</time>
      </trkpt>
      <trkpt lat="48.73001" lon="2.57331">
        <ele>94</ele>
        <time>2017-09-05T11:23:14Z</time>
      </trkpt>
      <trkpt lat="48.72999" lon="2.57321">
        <ele>94</ele>
        <time>2017-09-05T11:23:14Z</time>
      </trkpt>
      <trkpt lat="48.73001" lon="2.57311">
        <ele>94</ele>
        <time>2017-09-05T11:23:14Z</time>
      </trkpt>
      <trkpt lat="48.73002" lon="2.57304">
        <ele>94</ele>
        <time>2017-09-05T11:23:14Z</time>
      </trkpt>
      <trkpt lat="48.73002" lon="2.57298">
        <ele>94</ele>
        <time>2017-09-05T11:23:30Z</time>
      </trkpt>
      <trkpt lat="48.73001" lon="2.5729">
        <ele>95</ele>
        <time>2017-09-05T11:23:30Z</time>
      </trkpt>
      <trkpt lat="48.72999" lon="2.57282">
        <ele>95</ele>
        <time>2017-09-05T11:23:30Z</time>
      </trkpt>
      <trkpt lat="48.73" lon="2.57274">
        <ele>95</ele>
        <time>2017-09-05T11:23:30Z</time>
      </trkpt>
      <trkpt lat="48.73" lon="2.57266">
        <ele>95</ele>
        <time>2017-09-05T11:23:46Z</time>
      </trkpt>
      <trkpt lat="48.73" lon="2.5726">
        <ele>95</ele>
        <time>2017-09-05T11:23:46Z</time>
      </trkpt>
      <trkpt lat="48.73" lon="2.57251">
        <ele>95</ele>
        <time>2017-09-05T11:23:46Z</time>
      </trkpt>
      <trkpt lat="48.73" lon="2.57242">
        <ele>95</ele>
        <time>2017-09-05T11:23:46Z</time>
      </trkpt>
      <trkpt lat="48.72995" lon="2.5724">
        <ele>95</ele>
        <time>2017-09-05T11:24:02Z</time>
      </trkpt>
      <trkpt lat="48.72989" lon="2.57239">
        <ele>95</ele>
        <time>2017-09-05T11:24:02Z</time>
      </trkpt>
      <trkpt lat="48.72984" lon="2.57234">
        <ele>95</ele>
        <time>2017-09-05T11:24:02Z</time>
      </trkpt>
      <trkpt lat="48.72981" lon="2.57229">
        <ele>95</ele>
        <time>2017-09-05T11:24:02Z</time>
      </trkpt>
      <trkpt lat="48.72975" lon="2.57221">
        <ele>95</ele>
        <time>2017-09-05T11:24:18Z</time>
      </trkpt>
      <trkpt lat="48.72968" lon="2.57215">
        <ele>95</ele>
        <time>2017-09-05T11:24:18Z</time>
      </trkpt>
      <trkpt lat="48.7296" lon="2.57209">
        <ele>95</ele>
        <time>2017-09-05T11:24:18Z</time>
      </trkpt>
      <trkpt lat="48.72955" lon="2.57208">
        <ele>90</ele>
        <time>2017-09-05T11:24:18Z</time>
      </trkpt>
      <trkpt lat="48.72951" lon="2.57208">
        <ele>90</ele>
        <time>2017-09-05T11:24:34Z</time>
      </trkpt>
      <trkpt lat="48.72944" lon="2.57206">
        <ele>90</ele>
        <time>2017-09-05T11:24:34Z</time>
      </trkpt>
      <trkpt lat="48.72937" lon="2.57207">
        <ele>90</ele>
        <time>2017-09-05T11:24:34Z</time>
      </trkpt>
      <trkpt lat="48.72932" lon="2.57202">
        <ele>90</ele>
        <time>2017-09-05T11:24:34Z</time>
      </trkpt>
      <trkpt lat="48.72928" lon="2.57199">
        <ele>90</ele>
        <time>2017-09-05T11:24:50Z</time>
      </trkpt>
      <trkpt lat="48.72924" lon="2.57195">
        <ele>90</ele>
        <time>2017-09-05T11:24:50Z</time>
      </trkpt>
      <trkpt lat="48.7292" lon="2.57193">
        <ele>90</ele>
        <time>2017-09-05T11:24:50Z</time>
      </trkpt>
      <trkpt lat="48.72919" lon="2.57189">
        <ele>90</ele>
        <time>2017-09-05T11:24:50Z</time>
      </trkpt>
      <trkpt lat="48.72919" lon="2.57186">
        <ele>90</ele>
        <time>2017-09-05T11:25:06Z</time>
      </trkpt>
      <trkpt lat="48.72917" lon="2.57183">
        <ele>90</ele>
        <time>2017-09-05T11:25:06Z</time>
      </trkpt>
      <trkpt lat="48.72914" lon="2.57179">
        <ele>90</ele>
        <time>2017-09-05T11:25:06Z</time>
      </trkpt>
      <trkpt lat="48.72911" lon="2.57174">
        <ele>90</ele>
        <time>2017-09-05T11:25:06Z</time>
      </trkpt>
      <trkpt lat="48.72908" lon="2.5717">
        <ele>90</ele>
        <time>2017-09-05T11:25:22Z</time>
      </trkpt>
      <trkpt lat="48.72903" lon="2.57165">
        <ele>90</ele>
        <time>2017-09-05T11:25:22Z</time>
      </trkpt>
      <trkpt lat="48.72897" lon="2.57162">
        <ele>90</ele>
        <time>2017-09-05T11:25:22Z</time>
      </trkpt>
      <trkpt lat="48.72893" lon="2.57163">
        <ele>90</ele>
        <time>2017-09-05T11:25:22Z</time>
      </trkpt>
      <trkpt lat="48.72889" lon="2.57161">
        <ele>90</ele>
        <time>2017-09-05T11:25:38Z</time>
      </trkpt>
      <trkpt lat="48.72889" lon="2.57154">
        <ele>90</ele>
        <time>2017-09-05T11:25:38Z</time>
      </trkpt>
      <trkpt lat="48.72888" lon="2.57148">
        <ele>90</ele>
        <time>2017-09-05T11:25:38Z</time>
      </trkpt>
      <trkpt lat="48.72888" lon="2.57139">
        <ele>90</ele>
        <time>2017-09-05T11:25:38Z</time>
      </trkpt>
      <trkpt lat="48.72888" lon="2.57131">
        <ele>90</ele>
        <time>2017-09-05T11:25:54Z</time>
      </trkpt>
      <trkpt lat="48.72888" lon="2.57123">
        <ele>91</ele>
        <time>2017-09-05T11:25:54Z</time>
      </trkpt>
      <trkpt lat="48.72888" lon="2.57113">
        <ele>91</ele>
        <time>2017-09-05T11:25:54Z</time>
      </trkpt>
      <trkpt lat="48.72886" lon="2.57107">
        <ele>91</ele>
        <time>2017-09-05T11:25:54Z</time>
      </trkpt>
      <trkpt lat="48.72884" lon="2.57099">
        <ele>91</ele>
        <time>2017-09-05T11:26:14Z</time>
      </trkpt>
      <trkpt lat="48.72882" lon="2.57095">
        <ele>91</ele>
        <time>2017-09-05T11:26:14Z</time>
      </trkpt>
      <trkpt lat="48.72879" lon="2.57092">
        <ele>91</ele>
        <time>2017-09-05T11:26:14Z</time>
      </trkpt>
      <trkpt lat="48.72877" lon="2.57092">
        <ele>91</ele>
        <time>2017-09-05T11:26:14Z</time>
      </trkpt>
      <trkpt lat="48.72872" lon="2.57091">
        <ele>87</ele>
        <time>2017-09-05T11:26:14Z</time>
      </trkpt>
      <trkpt lat="48.72862" lon="2.57087">
        <ele>87</ele>
        <time>2017-09-05T11:26:30Z</time>
      </trkpt>
      <trkpt lat="48.72856" lon="2.57086">
        <ele>87</ele>
        <time>2017-09-05T11:26:30Z</time>
      </trkpt>
      <trkpt lat="48.72852" lon="2.57087">
        <ele>87</ele>
        <time>2017-09-05T11:26:30Z</time>
      </trkpt>
      <trkpt lat="48.72846" lon="2.57088">
        <ele>87</ele>
        <time>2017-09-05T11:26:30Z</time>
      </trkpt>
      <trkpt lat="48.7284" lon="2.57088">
        <ele>87</ele>
        <time>2017-09-05T11:26:46Z</time>
      </trkpt>
      <trkpt lat="48.72834" lon="2.5709">
        <ele>87</ele>
        <time>2017-09-05T11:26:46Z</time>
      </trkpt>
      <trkpt lat="48.7283" lon="2.57094">
        <ele>87</ele>
        <time>2017-09-05T11:26:46Z</time>
      </trkpt>
      <trkpt lat="48.72826" lon="2.57094">
        <ele>87</ele>
        <time>2017-09-05T11:26:46Z</time>
      </trkpt>
      <trkpt lat="48.72821" lon="2.57097">
        <ele>87</ele>
        <time>2017-09-05T11:27:02Z</time>
      </trkpt>
      <trkpt lat="48.72816" lon="2.57098">
        <ele>87</ele>
        <time>2017-09-05T11:27:02Z</time>
      </trkpt>
      <trkpt lat="48.72812" lon="2.57099">
        <ele>87</ele>
        <time>2017-09-05T11:27:02Z</time>
      </trkpt>
      <trkpt lat="48.72808" lon="2.57099">
        <ele>87</ele>
        <time>2017-09-05T11:27:02Z</time>
      </trkpt>
      <trkpt lat="48.72805" lon="2.57102">
        <ele>87</ele>
        <time>2017-09-05T11:27:18Z</time>
      </trkpt>
      <trkpt lat="48.72803" lon="2.57103">
        <ele>87</ele>
        <time>2017-09-05T11:27:18Z</time>
      </trkpt>
      <trkpt lat="48.72798" lon="2.57104">
        <ele>87</ele>
        <time>2017-09-05T11:27:18Z</time>
      </trkpt>
      <trkpt lat="48.72792" lon="2.57107">
        <ele>87</ele>
        <time>2017-09-05T11:27:18Z</time>
      </trkpt>
      <trkpt lat="48.72787" lon="2.57108">
        <ele>80</ele>
        <time>2017-09-05T11:27:34Z</time>
      </trkpt>
      <trkpt lat="48.72781" lon="2.57111">
        <ele>80</ele>
        <time>2017-09-05T11:27:34Z</time>
      </trkpt>
      <trkpt lat="48.72777" lon="2.57113">
        <ele>80</ele>
        <time>2017-09-05T11:27:34Z</time>
      </trkpt>
      <trkpt lat="48.72773" lon="2.57112">
        <ele>80</ele>
        <time>2017-09-05T11:27:34Z</time>
      </trkpt>
      <trkpt lat="48.72765" lon="2.57111">
        <ele>80</ele>
        <time>2017-09-05T11:28:02Z</time>
      </trkpt>
      <trkpt lat="48.72763" lon="2.57106">
        <ele>80</ele>
        <time>2017-09-05T11:28:02Z</time>
      </trkpt>
      <trkpt lat="48.72762" lon="2.57103">
        <ele>80</ele>
        <time>2017-09-05T11:28:02Z</time>
      </trkpt>
      <trkpt lat="48.72765" lon="2.57099">
        <ele>80</ele>
        <time>2017-09-05T11:28:02Z</time>
      </trkpt>
      <trkpt lat="48.72768" lon="2.57094">
        <ele>80</ele>
        <time>2017-09-05T11:28:02Z</time>
      </trkpt>
      <trkpt lat="48.72772" lon="2.57086">
        <ele>80</ele>
        <time>2017-09-05T11:28:18Z</time>
      </trkpt>
      <trkpt lat="48.72775" lon="2.5708">
        <ele>80</ele>
        <time>2017-09-05T11:28:18Z</time>
      </trkpt>
      <trkpt lat="48.72778" lon="2.57074">
        <ele>80</ele>
        <time>2017-09-05T11:28:18Z</time>
      </trkpt>
      <trkpt lat="48.72781" lon="2.57071">
        <ele>80</ele>
        <time>2017-09-05T11:28:18Z</time>
      </trkpt>
      <trkpt lat="48.72784" lon="2.57065">
        <ele>80</ele>
        <time>2017-09-05T11:28:34Z</time>
      </trkpt>
      <trkpt lat="48.72788" lon="2.57058">
        <ele>80</ele>
        <time>2017-09-05T11:28:34Z</time>
      </trkpt>
      <trkpt lat="48.7279" lon="2.57051">
        <ele>80</ele>
        <time>2017-09-05T11:28:34Z</time>
      </trkpt>
      <trkpt lat="48.72793" lon="2.57045">
        <ele>87</ele>
        <time>2017-09-05T11:28:34Z</time>
      </trkpt>
      <trkpt lat="48.72795" lon="2.57039">
        <ele>84</ele>
        <time>2017-09-05T11:28:50Z</time>
      </trkpt>
      <trkpt lat="48.72797" lon="2.57034">
        <ele>84</ele>
        <time>2017-09-05T11:28:50Z</time>
      </trkpt>
      <trkpt lat="48.72801" lon="2.57029">
        <ele>84</ele>
        <time>2017-09-05T11:28:50Z</time>
      </trkpt>
      <trkpt lat="48.72804" lon="2.57021">
        <ele>84</ele>
        <time>2017-09-05T11:28:50Z</time>
      </trkpt>
      <trkpt lat="48.72806" lon="2.57015">
        <ele>84</ele>
        <time>2017-09-05T11:29:06Z</time>
      </trkpt>
      <trkpt lat="48.72808" lon="2.57009">
        <ele>84</ele>
        <time>2017-09-05T11:29:06Z</time>
      </trkpt>
      <trkpt lat="48.72811" lon="2.57005">
        <ele>84</ele>
        <time>2017-09-05T11:29:06Z</time>
      </trkpt>
      <trkpt lat="48.72815" lon="2.56998">
        <ele>84</ele>
        <time>2017-09-05T11:29:06Z</time>
      </trkpt>
      <trkpt lat="48.72817" lon="2.56993">
        <ele>84</ele>
        <time>2017-09-05T11:29:22Z</time>
      </trkpt>
      <trkpt lat="48.72821" lon="2.56986">
        <ele>84</ele>
        <time>2017-09-05T11:29:22Z</time>
      </trkpt>
      <trkpt lat="48.72825" lon="2.56978">
        <ele>84</ele>
        <time>2017-09-05T11:29:22Z</time>
      </trkpt>
      <trkpt lat="48.72829" lon="2.5697">
        <ele>84</ele>
        <time>2017-09-05T11:29:22Z</time>
      </trkpt>
      <trkpt lat="48.72832" lon="2.56964">
        <ele>84</ele>
        <time>2017-09-05T11:29:38Z</time>
      </trkpt>
      <trkpt lat="48.72835" lon="2.56957">
        <ele>79</ele>
        <time>2017-09-05T11:29:38Z</time>
      </trkpt>
      <trkpt lat="48.72838" lon="2.5695">
        <ele>79</ele>
        <time>2017-09-05T11:29:38Z</time>
      </trkpt>
      <trkpt lat="48.72841" lon="2.56942">
        <ele>79</ele>
        <time>2017-09-05T11:29:38Z</time>
      </trkpt>
      <trkpt lat="48.72842" lon="2.56935">
        <ele>79</ele>
        <time>2017-09-05T11:29:54Z</time>
      </trkpt>
      <trkpt lat="48.72843" lon="2.56929">
        <ele>79</ele>
        <time>2017-09-05T11:29:54Z</time>
      </trkpt>
      <trkpt lat="48.72843" lon="2.5692">
        <ele>79</ele>
        <time>2017-09-05T11:29:54Z</time>
      </trkpt>
      <trkpt lat="48.72845" lon="2.56913">
        <ele>79</ele>
        <time>2017-09-05T11:29:54Z</time>
      </trkpt>
      <trkpt lat="48.72846" lon="2.56908">
        <ele>79</ele>
        <time>2017-09-05T11:30:10Z</time>
      </trkpt>
      <trkpt lat="48.72847" lon="2.56903">
        <ele>79</ele>
        <time>2017-09-05T11:30:10Z</time>
      </trkpt>
      <trkpt lat="48.72849" lon="2.56895">
        <ele>79</ele>
        <time>2017-09-05T11:30:10Z</time>
      </trkpt>
      <trkpt lat="48.72851" lon="2.56891">
        <ele>79</ele>
        <time>2017-09-05T11:30:10Z</time>
      </trkpt>
      <trkpt lat="48.72851" lon="2.56886">
        <ele>79</ele>
        <time>2017-09-05T11:30:26Z</time>
      </trkpt>
      <trkpt lat="48.72852" lon="2.56879">
        <ele>79</ele>
        <time>2017-09-05T11:30:26Z</time>
      </trkpt>
      <trkpt lat="48.72853" lon="2.56871">
        <ele>76</ele>
        <time>2017-09-05T11:30:26Z</time>
      </trkpt>
      <trkpt lat="48.72853" lon="2.56864">
        <ele>76</ele>
        <time>2017-09-05T11:30:26Z</time>
      </trkpt>
      <trkpt lat="48.72856" lon="2.56857">
        <ele>76</ele>
        <time>2017-09-05T11:30:42Z</time>
      </trkpt>
      <trkpt lat="48.72859" lon="2.56848">
        <ele>76</ele>
        <time>2017-09-05T11:30:42Z</time>
      </trkpt>
      <trkpt lat="48.72861" lon="2.56839">
        <ele>76</ele>
        <time>2017-09-05T11:30:42Z</time>
      </trkpt>
      <trkpt lat="48.72862" lon="2.56833">
        <ele>76</ele>
        <time>2017-09-05T11:30:42Z</time>
      </trkpt>
      <trkpt lat="48.72864" lon="2.56826">
        <ele>76</ele>
        <time>2017-09-05T11:30:58Z</time>
      </trkpt>
      <trkpt lat="48.72867" lon="2.56819">
        <ele>76</ele>
        <time>2017-09-05T11:30:58Z</time>
      </trkpt>
      <trkpt lat="48.72869" lon="2.56815">
        <ele>76</ele>
        <time>2017-09-05T11:30:58Z</time>
      </trkpt>
      <trkpt lat="48.72872" lon="2.5681">
        <ele>76</ele>
        <time>2017-09-05T11:30:58Z</time>
      </trkpt>
      <trkpt lat="48.72873" lon="2.56802">
        <ele>76</ele>
        <time>2017-09-05T11:31:14Z</time>
      </trkpt>
      <trkpt lat="48.72875" lon="2.56794">
        <ele>76</ele>
        <time>2017-09-05T11:31:14Z</time>
      </trkpt>
      <trkpt lat="48.72876" lon="2.56786">
        <ele>83</ele>
        <time>2017-09-05T11:31:14Z</time>
      </trkpt>
      <trkpt lat="48.72878" lon="2.56779">
        <ele>83</ele>
        <time>2017-09-05T11:31:14Z</time>
      </trkpt>
      <trkpt lat="48.72881" lon="2.56773">
        <ele>83</ele>
        <time>2017-09-05T11:31:30Z</time>
      </trkpt>
      <trkpt lat="48.72883" lon="2.56767">
        <ele>83</ele>
        <time>2017-09-05T11:31:30Z</time>
      </trkpt>
      <trkpt lat="48.72886" lon="2.56759">
        <ele>83</ele>
        <time>2017-09-05T11:31:30Z</time>
      </trkpt>
      <trkpt lat="48.72887" lon="2.56754">
        <ele>83</ele>
        <time>2017-09-05T11:31:30Z</time>
      </trkpt>
      <trkpt lat="48.72889" lon="2.56746">
        <ele>83</ele>
        <time>2017-09-05T11:31:46Z</time>
      </trkpt>
      <trkpt lat="48.72891" lon="2.56737">
        <ele>83</ele>
        <time>2017-09-05T11:31:46Z</time>
      </trkpt>
      <trkpt lat="48.72891" lon="2.56729">
        <ele>83</ele>
        <time>2017-09-05T11:31:46Z</time>
      </trkpt>
      <trkpt lat="48.72895" lon="2.56722">
        <ele>83</ele>
        <time>2017-09-05T11:31:46Z</time>
      </trkpt>
      <trkpt lat="48.72897" lon="2.56715">
        <ele>83</ele>
        <time>2017-09-05T11:32:02Z</time>
      </trkpt>
      <trkpt lat="48.729" lon="2.56709">
        <ele>83</ele>
        <time>2017-09-05T11:32:02Z</time>
      </trkpt>
      <trkpt lat="48.72904" lon="2.56704">
        <ele>79</ele>
        <time>2017-09-05T11:32:02Z</time>
      </trkpt>
      <trkpt lat="48.72906" lon="2.56694">
        <ele>79</ele>
        <time>2017-09-05T11:32:02Z</time>
      </trkpt>
      <trkpt lat="48.72907" lon="2.56687">
        <ele>79</ele>
        <time>2017-09-05T11:32:18Z</time>
      </trkpt>
      <trkpt lat="48.72907" lon="2.5668">
        <ele>79</ele>
        <time>2017-09-05T11:32:18Z</time>
      </trkpt>
      <trkpt lat="48.72908" lon="2.56672">
        <ele>79</ele>
        <time>2017-09-05T11:32:18Z</time>
      </trkpt>
      <trkpt lat="48.72911" lon="2.56666">
        <ele>79</ele>
        <time>2017-09-05T11:32:18Z</time>
      </trkpt>
      <trkpt lat="48.72912" lon="2.56659">
        <ele>79</ele>
        <time>2017-09-05T11:32:34Z</time>
      </trkpt>
      <trkpt lat="48.72914" lon="2.56652">
        <ele>79</ele>
        <time>2017-09-05T11:32:34Z</time>
      </trkpt>
      <trkpt lat="48.72915" lon="2.56645">
        <ele>79</ele>
        <time>2017-09-05T11:32:34Z</time>
      </trkpt>
      <trkpt lat="48.72916" lon="2.56637">
        <ele>79</ele>
        <time>2017-09-05T11:32:34Z</time>
      </trkpt>
      <trkpt lat="48.72918" lon="2.5663">
        <ele>79</ele>
        <time>2017-09-05T11:32:50Z</time>
      </trkpt>
      <trkpt lat="48.72917" lon="2.56621">
        <ele>78</ele>
        <time>2017-09-05T11:32:50Z</time>
      </trkpt>
      <trkpt lat="48.72918" lon="2.56616">
        <ele>78</ele>
        <time>2017-09-05T11:32:50Z</time>
      </trkpt>
      <trkpt lat="48.72923" lon="2.56611">
        <ele>78</ele>
        <time>2017-09-05T11:32:50Z</time>
      </trkpt>
      <trkpt lat="48.72926" lon="2.56603">
        <ele>78</ele>
        <time>2017-09-05T11:33:06Z</time>
      </trkpt>
      <trkpt lat="48.72926" lon="2.56597">
        <ele>78</ele>
        <time>2017-09-05T11:33:06Z</time>
      </trkpt>
      <trkpt lat="48.7293" lon="2.5659">
        <ele>78</ele>
        <time>2017-09-05T11:33:06Z</time>
      </trkpt>
      <trkpt lat="48.72932" lon="2.56583">
        <ele>78</ele>
        <time>2017-09-05T11:33:06Z</time>
      </trkpt>
      <trkpt lat="48.72934" lon="2.56578">
        <ele>78</ele>
        <time>2017-09-05T11:33:22Z</time>
      </trkpt>
      <trkpt lat="48.72937" lon="2.56572">
        <ele>78</ele>
        <time>2017-09-05T11:33:22Z</time>
      </trkpt>
      <trkpt lat="48.72941" lon="2.56566">
        <ele>78</ele>
        <time>2017-09-05T11:33:22Z</time>
      </trkpt>
      <trkpt lat="48.72941" lon="2.56557">
        <ele>78</ele>
        <time>2017-09-05T11:33:22Z</time>
      </trkpt>
      <trkpt lat="48.72944" lon="2.56549">
        <ele>78</ele>
        <time>2017-09-05T11:33:38Z</time>
      </trkpt>
      <trkpt lat="48.72947" lon="2.56544">
        <ele>78</ele>
        <time>2017-09-05T11:33:38Z</time>
      </trkpt>
      <trkpt lat="48.72949" lon="2.56538">
        <ele>75</ele>
        <time>2017-09-05T11:33:38Z</time>
      </trkpt>
      <trkpt lat="48.72951" lon="2.56533">
        <ele>75</ele>
        <time>2017-09-05T11:33:38Z</time>
      </trkpt>
      <trkpt lat="48.72951" lon="2.56529">
        <ele>75</ele>
        <time>2017-09-05T11:33:58Z</time>
      </trkpt>
      <trkpt lat="48.72951" lon="2.56524">
        <ele>75</ele>
        <time>2017-09-05T11:33:58Z</time>
      </trkpt>
      <trkpt lat="48.72951" lon="2.56519">
        <ele>75</ele>
        <time>2017-09-05T11:33:58Z</time>
      </trkpt>
      <trkpt lat="48.72951" lon="2.56516">
        <ele>75</ele>
        <time>2017-09-05T11:33:58Z</time>
      </trkpt>
      <trkpt lat="48.72952" lon="2.56515">
        <ele>75</ele>
        <time>2017-09-05T11:33:58Z</time>
      </trkpt>
      <trkpt lat="48.72952" lon="2.56508">
        <ele>75</ele>
        <time>2017-09-05T11:34:14Z</time>
      </trkpt>
      <trkpt lat="48.72957" lon="2.56502">
        <ele>75</ele>
        <time>2017-09-05T11:34:14Z</time>
      </trkpt>
      <trkpt lat="48.72959" lon="2.56496">
        <ele>82</ele>
        <time>2017-09-05T11:34:14Z</time>
      </trkpt>
      <trkpt lat="48.72961" lon="2.56492">
        <ele>82</ele>
        <time>2017-09-05T11:34:14Z</time>
      </trkpt>
      <trkpt lat="48.72963" lon="2.56484">
        <ele>82</ele>
        <time>2017-09-05T11:34:30Z</time>
      </trkpt>
      <trkpt lat="48.72968" lon="2.56479">
        <ele>82</ele>
        <time>2017-09-05T11:34:30Z</time>
      </trkpt>
      <trkpt lat="48.72969" lon="2.56463">
        <ele>82</ele>
        <time>2017-09-05T11:34:30Z</time>
      </trkpt>
      <trkpt lat="48.7297" lon="2.56455">
        <ele>77</ele>
        <time>2017-09-05T11:34:30Z</time>
      </trkpt>
      <trkpt lat="48.72972" lon="2.56454">
        <ele>77</ele>
        <time>2017-09-05T11:34:46Z</time>
      </trkpt>
      <trkpt lat="48.72973" lon="2.56449">
        <ele>77</ele>
        <time>2017-09-05T11:34:46Z</time>
      </trkpt>
      <trkpt lat="48.72976" lon="2.56445">
        <ele>77</ele>
        <time>2017-09-05T11:34:46Z</time>
      </trkpt>
      <trkpt lat="48.72977" lon="2.56443">
        <ele>77</ele>
        <time>2017-09-05T11:34:46Z</time>
      </trkpt>
      <trkpt lat="48.72978" lon="2.56437">
        <ele>77</ele>
        <time>2017-09-05T11:35:02Z</time>
      </trkpt>
      <trkpt lat="48.7298" lon="2.56428">
        <ele>77</ele>
        <time>2017-09-05T11:35:02Z</time>
      </trkpt>
      <trkpt lat="48.72983" lon="2.5642">
        <ele>77</ele>
        <time>2017-09-05T11:35:02Z</time>
      </trkpt>
      <trkpt lat="48.72983" lon="2.56411">
        <ele>77</ele>
        <time>2017-09-05T11:35:02Z</time>
      </trkpt>
      <trkpt lat="48.72989" lon="2.56407">
        <ele>77</ele>
        <time>2017-09-05T11:35:18Z</time>
      </trkpt>
      <trkpt lat="48.72991" lon="2.564">
        <ele>77</ele>
        <time>2017-09-05T11:35:18Z</time>
      </trkpt>
      <trkpt lat="48.72994" lon="2.56394">
        <ele>77</ele>
        <time>2017-09-05T11:35:18Z</time>
      </trkpt>
      <trkpt lat="48.72997" lon="2.56389">
        <ele>77</ele>
        <time>2017-09-05T11:35:18Z</time>
      </trkpt>
      <trkpt lat="48.72999" lon="2.56383">
        <ele>77</ele>
        <time>2017-09-05T11:35:34Z</time>
      </trkpt>
      <trkpt lat="48.73003" lon="2.56376">
        <ele>77</ele>
        <time>2017-09-05T11:35:34Z</time>
      </trkpt>
      <trkpt lat="48.73006" lon="2.56369">
        <ele>74</ele>
        <time>2017-09-05T11:35:34Z</time>
      </trkpt>
      <trkpt lat="48.73007" lon="2.56361">
        <ele>74</ele>
        <time>2017-09-05T11:35:34Z</time>
      </trkpt>
      <trkpt lat="48.73008" lon="2.56354">
        <ele>74</ele>
        <time>2017-09-05T11:35:50Z</time>
      </trkpt>
      <trkpt lat="48.73008" lon="2.56349">
        <ele>74</ele>
        <time>2017-09-05T11:35:50Z</time>
      </trkpt>
      <trkpt lat="48.7301" lon="2.56341">
        <ele>74</ele>
        <time>2017-09-05T11:35:50Z</time>
      </trkpt>
      <trkpt lat="48.73012" lon="2.56336">
        <ele>74</ele>
        <time>2017-09-05T11:35:50Z</time>
      </trkpt>
      <trkpt lat="48.73014" lon="2.56331">
        <ele>74</ele>
        <time>2017-09-05T11:36:06Z</time>
      </trkpt>
      <trkpt lat="48.73016" lon="2.56325">
        <ele>74</ele>
        <time>2017-09-05T11:36:06Z</time>
      </trkpt>
      <trkpt lat="48.73017" lon="2.56319">
        <ele>74</ele>
        <time>2017-09-05T11:36:06Z</time>
      </trkpt>
      <trkpt lat="48.73019" lon="2.56314">
        <ele>74</ele>
        <time>2017-09-05T11:36:06Z</time>
      </trkpt>
      <trkpt lat="48.7302" lon="2.56306">
        <ele>74</ele>
        <time>2017-09-05T11:36:26Z</time>
      </trkpt>
      <trkpt lat="48.73022" lon="2.56302">
        <ele>74</ele>
        <time>2017-09-05T11:36:26Z</time>
      </trkpt>
      <trkpt lat="48.73023" lon="2.56299">
        <ele>74</ele>
        <time>2017-09-05T11:36:26Z</time>
      </trkpt>
      <trkpt lat="48.73024" lon="2.56295">
        <ele>74</ele>
        <time>2017-09-05T11:36:26Z</time>
      </trkpt>
      <trkpt lat="48.73024" lon="2.56289">
        <ele>76</ele>
        <time>2017-09-05T11:36:26Z</time>
      </trkpt>
      <trkpt lat="48.73028" lon="2.56286">
        <ele>76</ele>
        <time>2017-09-05T11:36:42Z</time>
      </trkpt>
      <trkpt lat="48.73033" lon="2.56282">
        <ele>76</ele>
        <time>2017-09-05T11:36:42Z</time>
      </trkpt>
      <trkpt lat="48.73036" lon="2.56275">
        <ele>76</ele>
        <time>2017-09-05T11:36:42Z</time>
      </trkpt>
      <trkpt lat="48.73038" lon="2.56267">
        <ele>76</ele>
        <time>2017-09-05T11:36:42Z</time>
      </trkpt>
      <trkpt lat="48.73041" lon="2.56259">
        <ele>76</ele>
        <time>2017-09-05T11:36:58Z</time>
      </trkpt>
      <trkpt lat="48.73043" lon="2.56255">
        <ele>83</ele>
        <time>2017-09-05T11:36:58Z</time>
      </trkpt>
      <trkpt lat="48.73048" lon="2.56244">
        <ele>83</ele>
        <time>2017-09-05T11:36:58Z</time>
      </trkpt>
      <trkpt lat="48.7305" lon="2.56238">
        <ele>83</ele>
        <time>2017-09-05T11:36:58Z</time>
      </trkpt>
      <trkpt lat="48.73052" lon="2.56234">
        <ele>83</ele>
        <time>2017-09-05T11:37:14Z</time>
      </trkpt>
      <trkpt lat="48.73054" lon="2.56226">
        <ele>83</ele>
        <time>2017-09-05T11:37:14Z</time>
      </trkpt>
      <trkpt lat="48.73054" lon="2.5622">
        <ele>83</ele>
        <time>2017-09-05T11:37:14Z</time>
      </trkpt>
      <trkpt lat="48.73054" lon="2.56213">
        <ele>83</ele>
        <time>2017-09-05T11:37:14Z</time>
      </trkpt>
      <trkpt lat="48.73058" lon="2.56213">
        <ele>83</ele>
        <time>2017-09-05T11:37:34Z</time>
      </trkpt>
      <trkpt lat="48.73061" lon="2.56212">
        <ele>83</ele>
        <time>2017-09-05T11:37:34Z</time>
      </trkpt>
      <trkpt lat="48.73063" lon="2.56213">
        <ele>83</ele>
        <time>2017-09-05T11:37:34Z</time>
      </trkpt>
      <trkpt lat="48.73064" lon="2.56218">
        <ele>83</ele>
        <time>2017-09-05T11:37:34Z</time>
      </trkpt>
      <trkpt lat="48.7307" lon="2.56222">
        <ele>83</ele>
        <time>2017-09-05T11:37:34Z</time>
      </trkpt>
      <trkpt lat="48.73073" lon="2.56228">
        <ele>83</ele>
        <time>2017-09-05T11:37:50Z</time>
      </trkpt>
      <trkpt lat="48.73076" lon="2.56233">
        <ele>83</ele>
        <time>2017-09-05T11:37:50Z</time>
      </trkpt>
      <trkpt lat="48.7308" lon="2.56236">
        <ele>83</ele>
        <time>2017-09-05T11:37:50Z</time>
      </trkpt>
      <trkpt lat="48.73082" lon="2.56242">
        <ele>83</ele>
        <time>2017-09-05T11:37:50Z</time>
      </trkpt>
      <trkpt lat="48.73086" lon="2.56248">
        <ele>83</ele>
        <time>2017-09-05T11:38:06Z</time>
      </trkpt>
      <trkpt lat="48.73091" lon="2.56251">
        <ele>83</ele>
        <time>2017-09-05T11:38:06Z</time>
      </trkpt>
      <trkpt lat="48.73093" lon="2.56256">
        <ele>83</ele>
        <time>2017-09-05T11:38:06Z</time>
      </trkpt>
      <trkpt lat="48.73098" lon="2.56259">
        <ele>83</ele>
        <time>2017-09-05T11:38:06Z</time>
      </trkpt>
      <trkpt lat="48.731" lon="2.56261">
        <ele>83</ele>
        <time>2017-09-05T11:38:26Z</time>
      </trkpt>
      <trkpt lat="48.73099" lon="2.5626">
        <ele>83</ele>
        <time>2017-09-05T11:38:26Z</time>
      </trkpt>
      <trkpt lat="48.73099" lon="2.56256">
        <ele>83</ele>
        <time>2017-09-05T11:38:26Z</time>
      </trkpt>
      <trkpt lat="48.73101" lon="2.5625">
        <ele>83</ele>
        <time>2017-09-05T11:38:26Z</time>
      </trkpt>
      <trkpt lat="48.73103" lon="2.56243">
        <ele>83</ele>
        <time>2017-09-05T11:38:26Z</time>
      </trkpt>
      <trkpt lat="48.73106" lon="2.56237">
        <ele>83</ele>
        <time>2017-09-05T11:38:42Z</time>
      </trkpt>
      <trkpt lat="48.73107" lon="2.56227">
        <ele>83</ele>
        <time>2017-09-05T11:38:42Z</time>
      </trkpt>
      <trkpt lat="48.73108" lon="2.56222">
        <ele>83</ele>
        <time>2017-09-05T11:38:42Z</time>
      </trkpt>
      <trkpt lat="48.7311" lon="2.56215">
        <ele>83</ele>
        <time>2017-09-05T11:38:42Z</time>
      </trkpt>
      <trkpt lat="48.7311" lon="2.56209">
        <ele>83</ele>
        <time>2017-09-05T11:38:58Z</time>
      </trkpt>
      <trkpt lat="48.73114" lon="2.56202">
        <ele>86</ele>
        <time>2017-09-05T11:38:58Z</time>
      </trkpt>
      <trkpt lat="48.73117" lon="2.56199">
        <ele>86</ele>
        <time>2017-09-05T11:38:58Z</time>
      </trkpt>
      <trkpt lat="48.73122" lon="2.56199">
        <ele>86</ele>
        <time>2017-09-05T11:38:58Z</time>
      </trkpt>
      <trkpt lat="48.73128" lon="2.562">
        <ele>89</ele>
        <time>2017-09-05T11:39:14Z</time>
      </trkpt>
      <trkpt lat="48.73133" lon="2.56203">
        <ele>89</ele>
        <time>2017-09-05T11:39:14Z</time>
      </trkpt>
      <trkpt lat="48.73138" lon="2.56204">
        <ele>89</ele>
        <time>2017-09-05T11:39:14Z</time>
      </trkpt>
      <trkpt lat="48.73141" lon="2.56206">
        <ele>89</ele>
        <time>2017-09-05T11:39:14Z</time>
      </trkpt>
      <trkpt lat="48.73146" lon="2.5621">
        <ele>88</ele>
        <time>2017-09-05T11:39:30Z</time>
      </trkpt>
      <trkpt lat="48.73152" lon="2.56213">
        <ele>88</ele>
        <time>2017-09-05T11:39:30Z</time>
      </trkpt>
      <trkpt lat="48.73155" lon="2.56215">
        <ele>88</ele>
        <time>2017-09-05T11:39:30Z</time>
      </trkpt>
      <trkpt lat="48.73159" lon="2.56216">
        <ele>88</ele>
        <time>2017-09-05T11:39:30Z</time>
      </trkpt>
      <trkpt lat="48.73163" lon="2.56213">
        <ele>88</ele>
        <time>2017-09-05T11:39:50Z</time>
      </trkpt>
      <trkpt lat="48.73163" lon="2.56213">
        <ele>88</ele>
        <time>2017-09-05T11:39:50Z</time>
      </trkpt>
      <trkpt lat="48.73163" lon="2.56211">
        <ele>88</ele>
        <time>2017-09-05T11:39:50Z</time>
      </trkpt>
      <trkpt lat="48.73166" lon="2.56207">
        <ele>89</ele>
        <time>2017-09-05T11:39:50Z</time>
      </trkpt>
      <trkpt lat="48.73171" lon="2.56202">
        <ele>89</ele>
        <time>2017-09-05T11:39:50Z</time>
      </trkpt>
      <trkpt lat="48.73176" lon="2.56195">
        <ele>89</ele>
        <time>2017-09-05T11:40:10Z</time>
      </trkpt>
      <trkpt lat="48.73179" lon="2.56192">
        <ele>89</ele>
        <time>2017-09-05T11:40:10Z</time>
      </trkpt>
      <trkpt lat="48.73181" lon="2.56191">
        <ele>89</ele>
        <time>2017-09-05T11:40:10Z</time>
      </trkpt>
      <trkpt lat="48.73183" lon="2.5619">
        <ele>89</ele>
        <time>2017-09-05T11:40:10Z</time>
      </trkpt>
      <trkpt lat="48.73188" lon="2.56187">
        <ele>89</ele>
        <time>2017-09-05T11:40:10Z</time>
      </trkpt>
      <trkpt lat="48.73191" lon="2.56182">
        <ele>89</ele>
        <time>2017-09-05T11:40:26Z</time>
      </trkpt>
      <trkpt lat="48.73196" lon="2.56177">
        <ele>89</ele>
        <time>2017-09-05T11:40:26Z</time>
      </trkpt>
      <trkpt lat="48.73201" lon="2.56171">
        <ele>89</ele>
        <time>2017-09-05T11:40:26Z</time>
      </trkpt>
      <trkpt lat="48.73205" lon="2.56164">
        <ele>89</ele>
        <time>2017-09-05T11:40:26Z</time>
      </trkpt>
      <trkpt lat="48.73209" lon="2.56156">
        <ele>88</ele>
        <time>2017-09-05T11:40:42Z</time>
      </trkpt>
      <trkpt lat="48.73213" lon="2.56152">
        <ele>88</ele>
        <time>2017-09-05T11:40:42Z</time>
      </trkpt>
      <trkpt lat="48.73215" lon="2.56146">
        <ele>88</ele>
        <time>2017-09-05T11:40:42Z</time>
      </trkpt>
      <trkpt lat="48.73217" lon="2.56138">
        <ele>88</ele>
        <time>2017-09-05T11:40:42Z</time>
      </trkpt>
      <trkpt lat="48.7322" lon="2.56133">
        <ele>88</ele>
        <time>2017-09-05T11:40:58Z</time>
      </trkpt>
      <trkpt lat="48.73223" lon="2.56126">
        <ele>88</ele>
        <time>2017-09-05T11:40:58Z</time>
      </trkpt>
      <trkpt lat="48.73226" lon="2.5612">
        <ele>89</ele>
        <time>2017-09-05T11:40:58Z</time>
      </trkpt>
      <trkpt lat="48.73229" lon="2.56114">
        <ele>89</ele>
        <time>2017-09-05T11:40:58Z</time>
      </trkpt>
      <trkpt lat="48.73232" lon="2.56107">
        <ele>89</ele>
        <time>2017-09-05T11:41:14Z</time>
      </trkpt>
      <trkpt lat="48.73235" lon="2.56104">
        <ele>89</ele>
        <time>2017-09-05T11:41:14Z</time>
      </trkpt>
      <trkpt lat="48.73239" lon="2.56096">
        <ele>89</ele>
        <time>2017-09-05T11:41:14Z</time>
      </trkpt>
      <trkpt lat="48.73241" lon="2.56089">
        <ele>89</ele>
        <time>2017-09-05T11:41:14Z</time>
      </trkpt>
      <trkpt lat="48.73243" lon="2.56081">
        <ele>89</ele>
        <time>2017-09-05T11:41:30Z</time>
      </trkpt>
      <trkpt lat="48.73246" lon="2.56074">
        <ele>89</ele>
        <time>2017-09-05T11:41:30Z</time>
      </trkpt>
      <trkpt lat="48.73248" lon="2.56069">
        <ele>89</ele>
        <time>2017-09-05T11:41:30Z</time>
      </trkpt>
      <trkpt lat="48.7325" lon="2.56063">
        <ele>89</ele>
        <time>2017-09-05T11:41:30Z</time>
      </trkpt>
      <trkpt lat="48.73252" lon="2.56057">
        <ele>89</ele>
        <time>2017-09-05T11:41:46Z</time>
      </trkpt>
      <trkpt lat="48.73254" lon="2.56049">
        <ele>89</ele>
        <time>2017-09-05T11:41:46Z</time>
      </trkpt>
      <trkpt lat="48.73256" lon="2.56042">
        <ele>89</ele>
        <time>2017-09-05T11:41:46Z</time>
      </trkpt>
      <trkpt lat="48.73259" lon="2.56035">
        <ele>89</ele>
        <time>2017-09-05T11:41:46Z</time>
      </trkpt>
      <trkpt lat="48.73262" lon="2.56028">
        <ele>89</ele>
        <time>2017-09-05T11:42:02Z</time>
      </trkpt>
      <trkpt lat="48.73263" lon="2.56022">
        <ele>89</ele>
        <time>2017-09-05T11:42:02Z</time>
      </trkpt>
      <trkpt lat="48.73266" lon="2.56018">
        <ele>89</ele>
        <time>2017-09-05T11:42:02Z</time>
      </trkpt>
      <trkpt lat="48.73268" lon="2.56012">
        <ele>89</ele>
        <time>2017-09-05T11:42:02Z</time>
      </trkpt>
      <trkpt lat="48.7327" lon="2.56004">
        <ele>89</ele>
        <time>2017-09-05T11:42:22Z</time>
      </trkpt>
      <trkpt lat="48.73273" lon="2.55999">
        <ele>89</ele>
        <time>2017-09-05T11:42:22Z</time>
      </trkpt>
      <trkpt lat="48.73273" lon="2.55998">
        <ele>89</ele>
        <time>2017-09-05T11:42:22Z</time>
      </trkpt>
      <trkpt lat="48.73274" lon="2.55991">
        <ele>89</ele>
        <time>2017-09-05T11:42:22Z</time>
      </trkpt>
      <trkpt lat="48.73275" lon="2.55987">
        <ele>89</ele>
        <time>2017-09-05T11:42:22Z</time>
      </trkpt>
      <trkpt lat="48.73277" lon="2.55979">
        <ele>89</ele>
        <time>2017-09-05T11:42:38Z</time>
      </trkpt>
      <trkpt lat="48.7328" lon="2.55975">
        <ele>89</ele>
        <time>2017-09-05T11:42:38Z</time>
      </trkpt>
      <trkpt lat="48.73282" lon="2.5597">
        <ele>89</ele>
        <time>2017-09-05T11:42:38Z</time>
      </trkpt>
      <trkpt lat="48.73282" lon="2.5596">
        <ele>89</ele>
        <time>2017-09-05T11:42:38Z</time>
      </trkpt>
      <trkpt lat="48.73286" lon="2.55954">
        <ele>90</ele>
        <time>2017-09-05T11:42:54Z</time>
      </trkpt>
      <trkpt lat="48.73289" lon="2.5595">
        <ele>90</ele>
        <time>2017-09-05T11:42:54Z</time>
      </trkpt>
      <trkpt lat="48.73291" lon="2.55943">
        <ele>90</ele>
        <time>2017-09-05T11:42:54Z</time>
      </trkpt>
      <trkpt lat="48.73292" lon="2.55932">
        <ele>92</ele>
        <time>2017-09-05T11:42:54Z</time>
      </trkpt>
      <trkpt lat="48.73293" lon="2.55924">
        <ele>92</ele>
        <time>2017-09-05T11:43:10Z</time>
      </trkpt>
      <trkpt lat="48.73294" lon="2.55917">
        <ele>92</ele>
        <time>2017-09-05T11:43:10Z</time>
      </trkpt>
      <trkpt lat="48.73295" lon="2.55908">
        <ele>92</ele>
        <time>2017-09-05T11:43:10Z</time>
      </trkpt>
      <trkpt lat="48.73296" lon="2.55902">
        <ele>92</ele>
        <time>2017-09-05T11:43:10Z</time>
      </trkpt>
      <trkpt lat="48.73298" lon="2.55893">
        <ele>92</ele>
        <time>2017-09-05T11:43:26Z</time>
      </trkpt>
      <trkpt lat="48.73298" lon="2.55883">
        <ele>92</ele>
        <time>2017-09-05T11:43:26Z</time>
      </trkpt>
      <trkpt lat="48.73299" lon="2.55877">
        <ele>92</ele>
        <time>2017-09-05T11:43:26Z</time>
      </trkpt>
      <trkpt lat="48.73302" lon="2.55868">
        <ele>90</ele>
        <time>2017-09-05T11:43:26Z</time>
      </trkpt>
      <trkpt lat="48.73304" lon="2.5586">
        <ele>90</ele>
        <time>2017-09-05T11:43:42Z</time>
      </trkpt>
      <trkpt lat="48.73305" lon="2.5585">
        <ele>90</ele>
        <time>2017-09-05T11:43:42Z</time>
      </trkpt>
      <trkpt lat="48.73305" lon="2.5584">
        <ele>90</ele>
        <time>2017-09-05T11:43:42Z</time>
      </trkpt>
      <trkpt lat="48.73305" lon="2.5583">
        <ele>90</ele>
        <time>2017-09-05T11:43:42Z</time>
      </trkpt>
      <trkpt lat="48.73307" lon="2.55826">
        <ele>90</ele>
        <time>2017-09-05T11:43:58Z</time>
      </trkpt>
      <trkpt lat="48.7331" lon="2.5582">
        <ele>90</ele>
        <time>2017-09-05T11:43:58Z</time>
      </trkpt>
      <trkpt lat="48.7331" lon="2.55815">
        <ele>90</ele>
        <time>2017-09-05T11:43:58Z</time>
      </trkpt>
      <trkpt lat="48.73311" lon="2.55806">
        <ele>90</ele>
        <time>2017-09-05T11:43:58Z</time>
      </trkpt>
      <trkpt lat="48.73311" lon="2.55799">
        <ele>90</ele>
        <time>2017-09-05T11:44:14Z</time>
      </trkpt>
      <trkpt lat="48.73311" lon="2.55792">
        <ele>92</ele>
        <time>2017-09-05T11:44:14Z</time>
      </trkpt>
      <trkpt lat="48.73311" lon="2.55783">
        <ele>92</ele>
        <time>2017-09-05T11:44:14Z</time>
      </trkpt>
      <trkpt lat="48.73311" lon="2.55775">
        <ele>92</ele>
        <time>2017-09-05T11:44:14Z</time>
      </trkpt>
      <trkpt lat="48.73313" lon="2.5577">
        <ele>92</ele>
        <time>2017-09-05T11:44:30Z</time>
      </trkpt>
      <trkpt lat="48.73319" lon="2.55761">
        <ele>92</ele>
        <time>2017-09-05T11:44:30Z</time>
      </trkpt>
      <trkpt lat="48.73322" lon="2.55753">
        <ele>92</ele>
        <time>2017-09-05T11:44:30Z</time>
      </trkpt>
      <trkpt lat="48.73324" lon="2.5574">
        <ele>92</ele>
        <time>2017-09-05T11:44:30Z</time>
      </trkpt>
      <trkpt lat="48.73324" lon="2.55731">
        <ele>92</ele>
        <time>2017-09-05T11:44:46Z</time>
      </trkpt>
      <trkpt lat="48.73327" lon="2.55724">
        <ele>92</ele>
        <time>2017-09-05T11:44:46Z</time>
      </trkpt>
      <trkpt lat="48.7333" lon="2.55718">
        <ele>92</ele>
        <time>2017-09-05T11:44:46Z</time>
      </trkpt>
      <trkpt lat="48.73333" lon="2.55717">
        <ele>92</ele>
        <time>2017-09-05T11:44:46Z</time>
      </trkpt>
      <trkpt lat="48.73338" lon="2.55712">
        <ele>92</ele>
        <time>2017-09-05T11:45:02Z</time>
      </trkpt>
      <trkpt lat="48.73339" lon="2.55707">
        <ele>94</ele>
        <time>2017-09-05T11:45:02Z</time>
      </trkpt>
      <trkpt lat="48.73336" lon="2.55703">
        <ele>94</ele>
        <time>2017-09-05T11:45:02Z</time>
      </trkpt>
      <trkpt lat="48.73331" lon="2.55697">
        <ele>94</ele>
        <time>2017-09-05T11:45:02Z</time>
      </trkpt>
      <trkpt lat="48.73327" lon="2.55692">
        <ele>94</ele>
        <time>2017-09-05T11:45:18Z</time>
      </trkpt>
      <trkpt lat="48.73321" lon="2.55683">
        <ele>94</ele>
        <time>2017-09-05T11:45:18Z</time>
      </trkpt>
      <trkpt lat="48.7331" lon="2.55679">
        <ele>94</ele>
        <time>2017-09-05T11:45:18Z</time>
      </trkpt>
      <trkpt lat="48.73305" lon="2.55678">
        <ele>94</ele>
        <time>2017-09-05T11:45:18Z</time>
      </trkpt>
      <trkpt lat="48.73299" lon="2.55674">
        <ele>94</ele>
        <time>2017-09-05T11:45:34Z</time>
      </trkpt>
      <trkpt lat="48.73292" lon="2.55674">
        <ele>90</ele>
        <time>2017-09-05T11:45:34Z</time>
      </trkpt>
      <trkpt lat="48.73287" lon="2.55674">
        <ele>90</ele>
        <time>2017-09-05T11:45:34Z</time>
      </trkpt>
      <trkpt lat="48.73282" lon="2.55672">
        <ele>90</ele>
        <time>2017-09-05T11:45:34Z</time>
      </trkpt>
      <trkpt lat="48.73277" lon="2.55669">
        <ele>90</ele>
        <time>2017-09-05T11:45:50Z</time>
      </trkpt>
      <trkpt lat="48.73273" lon="2.55667">
        <ele>90</ele>
        <time>2017-09-05T11:45:50Z</time>
      </trkpt>
      <trkpt lat="48.73268" lon="2.55668">
        <ele>90</ele>
        <time>2017-09-05T11:45:50Z</time>
      </trkpt>
      <trkpt lat="48.73262" lon="2.55667">
        <ele>90</ele>
        <time>2017-09-05T11:45:50Z</time>
      </trkpt>
      <trkpt lat="48.73256" lon="2.55667">
        <ele>90</ele>
        <time>2017-09-05T11:46:06Z</time>
      </trkpt>
      <trkpt lat="48.73251" lon="2.55666">
        <ele>90</ele>
        <time>2017-09-05T11:46:06Z</time>
      </trkpt>
      <trkpt lat="48.73246" lon="2.55664">
        <ele>90</ele>
        <time>2017-09-05T11:46:06Z</time>
      </trkpt>
      <trkpt lat="48.73243" lon="2.55662">
        <ele>90</ele>
        <time>2017-09-05T11:46:06Z</time>
      </trkpt>
      <trkpt lat="48.73238" lon="2.5566">
        <ele>90</ele>
        <time>2017-09-05T11:46:22Z</time>
      </trkpt>
      <trkpt lat="48.73234" lon="2.5566">
        <ele>90</ele>
        <time>2017-09-05T11:46:22Z</time>
      </trkpt>
      <trkpt lat="48.73228" lon="2.55658">
        <ele>90</ele>
        <time>2017-09-05T11:46:22Z</time>
      </trkpt>
      <trkpt lat="48.73223" lon="2.55655">
        <ele>90</ele>
        <time>2017-09-05T11:46:22Z</time>
      </trkpt>
      <trkpt lat="48.73219" lon="2.55654">
        <ele>90</ele>
        <time>2017-09-05T11:46:38Z</time>
      </trkpt>
      <trkpt lat="48.73213" lon="2.55654">
        <ele>90</ele>
        <time>2017-09-05T11:46:38Z</time>
      </trkpt>
      <trkpt lat="48.73208" lon="2.55656">
        <ele>85</ele>
        <time>2017-09-05T11:46:38Z</time>
      </trkpt>
      <trkpt lat="48.73201" lon="2.55655">
        <ele>85</ele>
        <time>2017-09-05T11:46:38Z</time>
      </trkpt>
      <trkpt lat="48.73196" lon="2.55652">
        <ele>85</ele>
        <time>2017-09-05T11:46:54Z</time>
      </trkpt>
      <trkpt lat="48.73192" lon="2.5565">
        <ele>85</ele>
        <time>2017-09-05T11:46:54Z</time>
      </trkpt>
      <trkpt lat="48.73188" lon="2.5565">
        <ele>85</ele>
        <time>2017-09-05T11:46:54Z</time>
      </trkpt>
      <trkpt lat="48.73184" lon="2.55647">
        <ele>85</ele>
        <time>2017-09-05T11:46:54Z</time>
      </trkpt>
      <trkpt lat="48.73179" lon="2.55647">
        <ele>85</ele>
        <time>2017-09-05T11:47:10Z</time>
      </trkpt>
      <trkpt lat="48.73174" lon="2.55645">
        <ele>85</ele>
        <time>2017-09-05T11:47:10Z</time>
      </trkpt>
      <trkpt lat="48.73168" lon="2.55642">
        <ele>85</ele>
        <time>2017-09-05T11:47:10Z</time>
      </trkpt>
      <trkpt lat="48.73164" lon="2.5564">
        <ele>85</ele>
        <time>2017-09-05T11:47:10Z</time>
      </trkpt>
      <trkpt lat="48.73157" lon="2.55639">
        <ele>85</ele>
        <time>2017-09-05T11:47:26Z</time>
      </trkpt>
      <trkpt lat="48.73151" lon="2.55639">
        <ele>85</ele>
        <time>2017-09-05T11:47:26Z</time>
      </trkpt>
      <trkpt lat="48.73148" lon="2.55639">
        <ele>85</ele>
        <time>2017-09-05T11:47:26Z</time>
      </trkpt>
      <trkpt lat="48.73142" lon="2.55637">
        <ele>85</ele>
        <time>2017-09-05T11:47:26Z</time>
      </trkpt>
      <trkpt lat="48.73137" lon="2.55637">
        <ele>85</ele>
        <time>2017-09-05T11:47:42Z</time>
      </trkpt>
      <trkpt lat="48.73131" lon="2.55639">
        <ele>85</ele>
        <time>2017-09-05T11:47:42Z</time>
      </trkpt>
      <trkpt lat="48.73126" lon="2.55636">
        <ele>85</ele>
        <time>2017-09-05T11:47:42Z</time>
      </trkpt>
      <trkpt lat="48.7312" lon="2.55636">
        <ele>78</ele>
        <time>2017-09-05T11:47:42Z</time>
      </trkpt>
      <trkpt lat="48.73117" lon="2.55629">
        <ele>78</ele>
        <time>2017-09-05T11:47:58Z</time>
      </trkpt>
      <trkpt lat="48.73118" lon="2.55619">
        <ele>75</ele>
        <time>2017-09-05T11:47:58Z</time>
      </trkpt>
      <trkpt lat="48.7312" lon="2.55612">
        <ele>75</ele>
        <time>2017-09-05T11:47:58Z</time>
      </trkpt>
      <trkpt lat="48.7312" lon="2.55603">
        <ele>75</ele>
        <time>2017-09-05T11:47:58Z</time>
      </trkpt>
      <trkpt lat="48.73122" lon="2.55596">
        <ele>75</ele>
        <time>2017-09-05T11:48:14Z</time>
      </trkpt>
      <trkpt lat="48.73123" lon="2.55589">
        <ele>75</ele>
        <time>2017-09-05T11:48:14Z</time>
      </trkpt>
      <trkpt lat="48.73125" lon="2.55581">
        <ele>84</ele>
        <time>2017-09-05T11:48:14Z</time>
      </trkpt>
      <trkpt lat="48.73127" lon="2.55576">
        <ele>84</ele>
        <time>2017-09-05T11:48:14Z</time>
      </trkpt>
      <trkpt lat="48.7313" lon="2.55571">
        <ele>84</ele>
        <time>2017-09-05T11:48:30Z</time>
      </trkpt>
      <trkpt lat="48.73133" lon="2.55566">
        <ele>84</ele>
        <time>2017-09-05T11:48:30Z</time>
      </trkpt>
      <trkpt lat="48.73135" lon="2.55559">
        <ele>84</ele>
        <time>2017-09-05T11:48:30Z</time>
      </trkpt>
      <trkpt lat="48.73135" lon="2.55551">
        <ele>84</ele>
        <time>2017-09-05T11:48:30Z</time>
      </trkpt>
      <trkpt lat="48.73137" lon="2.55543">
        <ele>84</ele>
        <time>2017-09-05T11:48:46Z</time>
      </trkpt>
      <trkpt lat="48.73141" lon="2.55536">
        <ele>79</ele>
        <time>2017-09-05T11:48:46Z</time>
      </trkpt>
      <trkpt lat="48.73145" lon="2.55532">
        <ele>79</ele>
        <time>2017-09-05T11:48:46Z</time>
      </trkpt>
      <trkpt lat="48.73149" lon="2.55529">
        <ele>79</ele>
        <time>2017-09-05T11:48:46Z</time>
      </trkpt>
      <trkpt lat="48.7315" lon="2.55525">
        <ele>79</ele>
        <time>2017-09-05T11:49:02Z</time>
      </trkpt>
      <trkpt lat="48.73155" lon="2.55521">
        <ele>79</ele>
        <time>2017-09-05T11:49:02Z</time>
      </trkpt>
      <trkpt lat="48.73158" lon="2.55517">
        <ele>79</ele>
        <time>2017-09-05T11:49:02Z</time>
      </trkpt>
      <trkpt lat="48.73161" lon="2.55512">
        <ele>79</ele>
        <time>2017-09-05T11:49:02Z</time>
      </trkpt>
      <trkpt lat="48.73163" lon="2.55508">
        <ele>79</ele>
        <time>2017-09-05T11:49:18Z</time>
      </trkpt>
      <trkpt lat="48.73167" lon="2.55503">
        <ele>79</ele>
        <time>2017-09-05T11:49:18Z</time>
      </trkpt>
      <trkpt lat="48.73173" lon="2.555">
        <ele>79</ele>
        <time>2017-09-05T11:49:18Z</time>
      </trkpt>
      <trkpt lat="48.73177" lon="2.55496">
        <ele>79</ele>
        <time>2017-09-05T11:49:18Z</time>
      </trkpt>
      <trkpt lat="48.73183" lon="2.5549">
        <ele>79</ele>
        <time>2017-09-05T11:49:34Z</time>
      </trkpt>
      <trkpt lat="48.73185" lon="2.55483">
        <ele>79</ele>
        <time>2017-09-05T11:49:34Z</time>
      </trkpt>
      <trkpt lat="48.73185" lon="2.55475">
        <ele>79</ele>
        <time>2017-09-05T11:49:34Z</time>
      </trkpt>
      <trkpt lat="48.73186" lon="2.55467">
        <ele>79</ele>
        <time>2017-09-05T11:49:34Z</time>
      </trkpt>
      <trkpt lat="48.73187" lon="2.55461">
        <ele>79</ele>
        <time>2017-09-05T11:49:50Z</time>
      </trkpt>
      <trkpt lat="48.73188" lon="2.55454">
        <ele>78</ele>
        <time>2017-09-05T11:49:50Z</time>
      </trkpt>
      <trkpt lat="48.7319" lon="2.55451">
        <ele>78</ele>
        <time>2017-09-05T11:49:50Z</time>
      </trkpt>
      <trkpt lat="48.73192" lon="2.55443">
        <ele>78</ele>
        <time>2017-09-05T11:49:50Z</time>
      </trkpt>
      <trkpt lat="48.73194" lon="2.55436">
        <ele>78</ele>
        <time>2017-09-05T11:50:06Z</time>
      </trkpt>
      <trkpt lat="48.73195" lon="2.55431">
        <ele>78</ele>
        <time>2017-09-05T11:50:06Z</time>
      </trkpt>
      <trkpt lat="48.73196" lon="2.55425">
        <ele>78</ele>
        <time>2017-09-05T11:50:06Z</time>
      </trkpt>
      <trkpt lat="48.73197" lon="2.55417">
        <ele>78</ele>
        <time>2017-09-05T11:50:06Z</time>
      </trkpt>
      <trkpt lat="48.73197" lon="2.55411">
        <ele>78</ele>
        <time>2017-09-05T11:50:22Z</time>
      </trkpt>
      <trkpt lat="48.73198" lon="2.55405">
        <ele>78</ele>
        <time>2017-09-05T11:50:22Z</time>
      </trkpt>
      <trkpt lat="48.73201" lon="2.55399">
        <ele>78</ele>
        <time>2017-09-05T11:50:22Z</time>
      </trkpt>
      <trkpt lat="48.73202" lon="2.55393">
        <ele>78</ele>
        <time>2017-09-05T11:50:22Z</time>
      </trkpt>
      <trkpt lat="48.73202" lon="2.55381">
        <ele>78</ele>
        <time>2017-09-05T11:50:38Z</time>
      </trkpt>
      <trkpt lat="48.73203" lon="2.55375">
        <ele>79</ele>
        <time>2017-09-05T11:50:38Z</time>
      </trkpt>
      <trkpt lat="48.73204" lon="2.55366">
        <ele>79</ele>
        <time>2017-09-05T11:50:38Z</time>
      </trkpt>
      <trkpt lat="48.73204" lon="2.55356">
        <ele>79</ele>
        <time>2017-09-05T11:50:38Z</time>
      </trkpt>
      <trkpt lat="48.73205" lon="2.55349">
        <ele>79</ele>
        <time>2017-09-05T11:50:54Z</time>
      </trkpt>
      <trkpt lat="48.73206" lon="2.55341">
        <ele>79</ele>
        <time>2017-09-05T11:50:54Z</time>
      </trkpt>
      <trkpt lat="48.73207" lon="2.55336">
        <ele>79</ele>
        <time>2017-09-05T11:50:54Z</time>
      </trkpt>
      <trkpt lat="48.73207" lon="2.55328">
        <ele>79</ele>
        <time>2017-09-05T11:50:54Z</time>
      </trkpt>
      <trkpt lat="48.7321" lon="2.55319">
        <ele>86</ele>
        <time>2017-09-05T11:51:10Z</time>
      </trkpt>
      <trkpt lat="48.73209" lon="2.55311">
        <ele>86</ele>
        <time>2017-09-05T11:51:10Z</time>
      </trkpt>
      <trkpt lat="48.73208" lon="2.55305">
        <ele>79</ele>
        <time>2017-09-05T11:51:10Z</time>
      </trkpt>
      <trkpt lat="48.73207" lon="2.55297">
        <ele>79</ele>
        <time>2017-09-05T11:51:10Z</time>
      </trkpt>
      <trkpt lat="48.73207" lon="2.5529">
        <ele>79</ele>
        <time>2017-09-05T11:51:26Z</time>
      </trkpt>
      <trkpt lat="48.73208" lon="2.55283">
        <ele>79</ele>
        <time>2017-09-05T11:51:26Z</time>
      </trkpt>
      <trkpt lat="48.73207" lon="2.55275">
        <ele>79</ele>
        <time>2017-09-05T11:51:26Z</time>
      </trkpt>
      <trkpt lat="48.73208" lon="2.55267">
        <ele>79</ele>
        <time>2017-09-05T11:51:26Z</time>
      </trkpt>
      <trkpt lat="48.73207" lon="2.55262">
        <ele>79</ele>
        <time>2017-09-05T11:51:42Z</time>
      </trkpt>
      <trkpt lat="48.73205" lon="2.55252">
        <ele>79</ele>
        <time>2017-09-05T11:51:42Z</time>
      </trkpt>
      <trkpt lat="48.73203" lon="2.55244">
        <ele>79</ele>
        <time>2017-09-05T11:51:42Z</time>
      </trkpt>
      <trkpt lat="48.732" lon="2.55238">
        <ele>79</ele>
        <time>2017-09-05T11:51:42Z</time>
      </trkpt>
      <trkpt lat="48.73197" lon="2.5523">
        <ele>79</ele>
        <time>2017-09-05T11:51:58Z</time>
      </trkpt>
      <trkpt lat="48.73195" lon="2.55222">
        <ele>79</ele>
        <time>2017-09-05T11:51:58Z</time>
      </trkpt>
      <trkpt lat="48.73193" lon="2.55214">
        <ele>79</ele>
        <time>2017-09-05T11:51:58Z</time>
      </trkpt>
      <trkpt lat="48.73191" lon="2.55205">
        <ele>80</ele>
        <time>2017-09-05T11:51:58Z</time>
      </trkpt>
      <trkpt lat="48.73188" lon="2.55196">
        <ele>80</ele>
        <time>2017-09-05T11:52:14Z</time>
      </trkpt>
      <trkpt lat="48.73186" lon="2.55188">
        <ele>80</ele>
        <time>2017-09-05T11:52:14Z</time>
      </trkpt>
      <trkpt lat="48.73181" lon="2.55184">
        <ele>80</ele>
        <time>2017-09-05T11:52:14Z</time>
      </trkpt>
      <trkpt lat="48.73176" lon="2.55184">
        <ele>80</ele>
        <time>2017-09-05T11:52:14Z</time>
      </trkpt>
      <trkpt lat="48.73171" lon="2.55189">
        <ele>80</ele>
        <time>2017-09-05T11:52:30Z</time>
      </trkpt>
      <trkpt lat="48.73169" lon="2.55194">
        <ele>80</ele>
        <time>2017-09-05T11:52:30Z</time>
      </trkpt>
      <trkpt lat="48.73166" lon="2.55202">
        <ele>80</ele>
        <time>2017-09-05T11:52:30Z</time>
      </trkpt>
      <trkpt lat="48.73163" lon="2.55211">
        <ele>79</ele>
        <time>2017-09-05T11:52:30Z</time>
      </trkpt>
      <trkpt lat="48.73158" lon="2.55216">
        <ele>79</ele>
        <time>2017-09-05T11:52:46Z</time>
      </trkpt>
      <trkpt lat="48.73152" lon="2.55217">
        <ele>79</ele>
        <time>2017-09-05T11:52:46Z</time>
      </trkpt>
      <trkpt lat="48.73148" lon="2.55219">
        <ele>79</ele>
        <time>2017-09-05T11:52:46Z</time>
      </trkpt>
      <trkpt lat="48.73145" lon="2.55221">
        <ele>79</ele>
        <time>2017-09-05T11:52:46Z</time>
      </trkpt>
      <trkpt lat="48.73141" lon="2.55221">
        <ele>79</ele>
        <time>2017-09-05T11:53:02Z</time>
      </trkpt>
      <trkpt lat="48.73138" lon="2.55222">
        <ele>79</ele>
        <time>2017-09-05T11:53:02Z</time>
      </trkpt>
      <trkpt lat="48.73133" lon="2.55224">
        <ele>79</ele>
        <time>2017-09-05T11:53:02Z</time>
      </trkpt>
      <trkpt lat="48.73128" lon="2.55225">
        <ele>79</ele>
        <time>2017-09-05T11:53:02Z</time>
      </trkpt>
      <trkpt lat="48.73122" lon="2.55226">
        <ele>70</ele>
        <time>2017-09-05T11:53:18Z</time>
      </trkpt>
      <trkpt lat="48.73116" lon="2.55228">
        <ele>70</ele>
        <time>2017-09-05T11:53:18Z</time>
      </trkpt>
      <trkpt lat="48.73113" lon="2.55227">
        <ele>70</ele>
        <time>2017-09-05T11:53:18Z</time>
      </trkpt>
      <trkpt lat="48.73109" lon="2.55225">
        <ele>70</ele>
        <time>2017-09-05T11:53:18Z</time>
      </trkpt>
      <trkpt lat="48.73106" lon="2.55227">
        <ele>70</ele>
        <time>2017-09-05T11:53:34Z</time>
      </trkpt>
      <trkpt lat="48.731" lon="2.55225">
        <ele>70</ele>
        <time>2017-09-05T11:53:34Z</time>
      </trkpt>
      <trkpt lat="48.73097" lon="2.55222">
        <ele>70</ele>
        <time>2017-09-05T11:53:34Z</time>
      </trkpt>
      <trkpt lat="48.73094" lon="2.5522">
        <ele>70</ele>
        <time>2017-09-05T11:53:34Z</time>
      </trkpt>
      <trkpt lat="48.73088" lon="2.55224">
        <ele>70</ele>
        <time>2017-09-05T11:53:50Z</time>
      </trkpt>
      <trkpt lat="48.73083" lon="2.55221">
        <ele>70</ele>
        <time>2017-09-05T11:53:50Z</time>
      </trkpt>
      <trkpt lat="48.73081" lon="2.55221">
        <ele>70</ele>
        <time>2017-09-05T11:53:50Z</time>
      </trkpt>
      <trkpt lat="48.73077" lon="2.55219">
        <ele>70</ele>
        <time>2017-09-05T11:53:50Z</time>
      </trkpt>
      <trkpt lat="48.73074" lon="2.55218">
        <ele>70</ele>
        <time>2017-09-05T11:54:06Z</time>
      </trkpt>
      <trkpt lat="48.73072" lon="2.55211">
        <ele>70</ele>
        <time>2017-09-05T11:54:06Z</time>
      </trkpt>
      <trkpt lat="48.73068" lon="2.55206">
        <ele>71</ele>
        <time>2017-09-05T11:54:06Z</time>
      </trkpt>
      <trkpt lat="48.73065" lon="2.552">
        <ele>71</ele>
        <time>2017-09-05T11:54:06Z</time>
      </trkpt>
      <trkpt lat="48.73063" lon="2.55194">
        <ele>71</ele>
        <time>2017-09-05T11:54:22Z</time>
      </trkpt>
      <trkpt lat="48.73061" lon="2.55188">
        <ele>71</ele>
        <time>2017-09-05T11:54:22Z</time>
      </trkpt>
      <trkpt lat="48.73059" lon="2.5518">
        <ele>71</ele>
        <time>2017-09-05T11:54:22Z</time>
      </trkpt>
      <trkpt lat="48.73057" lon="2.55167">
        <ele>71</ele>
        <time>2017-09-05T11:54:22Z</time>
      </trkpt>
      <trkpt lat="48.73057" lon="2.55159">
        <ele>71</ele>
        <time>2017-09-05T11:54:38Z</time>
      </trkpt>
      <trkpt lat="48.73056" lon="2.55151">
        <ele>71</ele>
        <time>2017-09-05T11:54:38Z</time>
      </trkpt>
      <trkpt lat="48.73056" lon="2.55144">
        <ele>71</ele>
        <time>2017-09-05T11:54:38Z</time>
      </trkpt>
      <trkpt lat="48.73054" lon="2.55137">
        <ele>71</ele>
        <time>2017-09-05T11:54:38Z</time>
      </trkpt>
      <trkpt lat="48.73052" lon="2.55128">
        <ele>71</ele>
        <time>2017-09-05T11:54:54Z</time>
      </trkpt>
      <trkpt lat="48.73052" lon="2.55122">
        <ele>70</ele>
        <time>2017-09-05T11:54:54Z</time>
      </trkpt>
      <trkpt lat="48.7305" lon="2.55117">
        <ele>70</ele>
        <time>2017-09-05T11:54:54Z</time>
      </trkpt>
      <trkpt lat="48.73049" lon="2.55113">
        <ele>70</ele>
        <time>2017-09-05T11:54:54Z</time>
      </trkpt>
      <trkpt lat="48.73047" lon="2.55106">
        <ele>70</ele>
        <time>2017-09-05T11:55:10Z</time>
      </trkpt>
      <trkpt lat="48.73043" lon="2.55099">
        <ele>70</ele>
        <time>2017-09-05T11:55:10Z</time>
      </trkpt>
      <trkpt lat="48.7304" lon="2.55089">
        <ele>60</ele>
        <time>2017-09-05T11:55:10Z</time>
      </trkpt>
      <trkpt lat="48.73038" lon="2.55082">
        <ele>60</ele>
        <time>2017-09-05T11:55:10Z</time>
      </trkpt>
      <trkpt lat="48.73036" lon="2.55074">
        <ele>60</ele>
        <time>2017-09-05T11:55:26Z</time>
      </trkpt>
      <trkpt lat="48.73033" lon="2.5507">
        <ele>60</ele>
        <time>2017-09-05T11:55:26Z</time>
      </trkpt>
      <trkpt lat="48.73029" lon="2.55064">
        <ele>60</ele>
        <time>2017-09-05T11:55:26Z</time>
      </trkpt>
      <trkpt lat="48.73025" lon="2.55057">
        <ele>60</ele>
        <time>2017-09-05T11:55:26Z</time>
      </trkpt>
      <trkpt lat="48.73022" lon="2.55051">
        <ele>60</ele>
        <time>2017-09-05T11:55:42Z</time>
      </trkpt>
      <trkpt lat="48.73021" lon="2.55046">
        <ele>60</ele>
        <time>2017-09-05T11:55:42Z</time>
      </trkpt>
      <trkpt lat="48.73018" lon="2.5504">
        <ele>64</ele>
        <time>2017-09-05T11:55:42Z</time>
      </trkpt>
      <trkpt lat="48.73015" lon="2.5503">
        <ele>64</ele>
        <time>2017-09-05T11:55:42Z</time>
      </trkpt>
      <trkpt lat="48.73013" lon="2.55023">
        <ele>64</ele>
        <time>2017-09-05T11:55:58Z</time>
      </trkpt>
      <trkpt lat="48.73012" lon="2.55018">
        <ele>64</ele>
        <time>2017-09-05T11:55:58Z</time>
      </trkpt>
      <trkpt lat="48.73009" lon="2.55013">
        <ele>64</ele>
        <time>2017-09-05T11:55:58Z</time>
      </trkpt>
      <trkpt lat="48.73008" lon="2.55008">
        <ele>64</ele>
        <time>2017-09-05T11:55:58Z</time>
      </trkpt>
      <trkpt lat="48.73008" lon="2.55004">
        <ele>64</ele>
        <time>2017-09-05T11:56:46Z</time>
      </trkpt>
      <trkpt lat="48.73007" lon="2.54999">
        <ele>64</ele>
        <time>2017-09-05T11:56:46Z</time>
      </trkpt>
      <trkpt lat="48.73011" lon="2.54996">
        <ele>64</ele>
        <time>2017-09-05T11:56:46Z</time>
      </trkpt>
      <trkpt lat="48.73011" lon="2.54995">
        <ele>64</ele>
        <time>2017-09-05T11:56:46Z</time>
      </trkpt>
      <trkpt lat="48.73014" lon="2.5499">
        <ele>64</ele>
        <time>2017-09-05T11:56:46Z</time>
      </trkpt>
      <trkpt lat="48.73013" lon="2.54974">
        <ele>64</ele>
        <time>2017-09-05T11:59:30Z</time>
      </trkpt>
      <trkpt lat="48.73011" lon="2.54973">
        <ele>64</ele>
        <time>2017-09-05T11:59:30Z</time>
      </trkpt>
      <trkpt lat="48.7301" lon="2.54974">
        <ele>64</ele>
        <time>2017-09-05T11:59:30Z</time>
      </trkpt>
      <trkpt lat="48.73008" lon="2.54973">
        <ele>64</ele>
        <time>2017-09-05T11:59:30Z</time>
      </trkpt>
      <trkpt lat="48.73008" lon="2.54973">
        <ele>64</ele>
        <time>2017-09-05T11:59:30Z</time>
      </trkpt>
      <trkpt lat="48.7301" lon="2.54977">
        <ele>64</ele>
        <time>2017-09-05T12:01:34Z</time>
      </trkpt>
      <trkpt lat="48.7301" lon="2.54977">
        <ele>64</ele>
        <time>2017-09-05T12:01:34Z</time>
      </trkpt>
      <trkpt lat="48.7301" lon="2.54977">
        <ele>64</ele>
        <time>2017-09-05T12:01:34Z</time>
      </trkpt>
      <trkpt lat="48.7301" lon="2.54978">
        <ele>64</ele>
        <time>2017-09-05T12:01:34Z</time>
      </trkpt>
      <trkpt lat="48.73053" lon="2.54994">
        <ele>72</ele>
        <time>2017-09-05T12:01:34Z</time>
      </trkpt>
      <trkpt lat="48.73109" lon="2.55066">
        <ele>70</ele>
        <time>2017-09-05T12:01:50Z</time>
      </trkpt>
      <trkpt lat="48.73074" lon="2.55046">
        <ele>70</ele>
        <time>2017-09-05T12:01:50Z</time>
      </trkpt>
      <trkpt lat="48.73041" lon="2.55021">
        <ele>64</ele>
        <time>2017-09-05T12:01:50Z</time>
      </trkpt>
      <trkpt lat="48.73041" lon="2.5502">
        <ele>64</ele>
        <time>2017-09-05T12:01:50Z</time>
      </trkpt>
      <trkpt lat="48.73038" lon="2.55009">
        <ele>64</ele>
        <time>2017-09-05T12:02:54Z</time>
      </trkpt>
      <trkpt lat="48.73038" lon="2.55008">
        <ele>64</ele>
        <time>2017-09-05T12:02:54Z</time>
      </trkpt>
      <trkpt lat="48.73037" lon="2.55008">
        <ele>64</ele>
        <time>2017-09-05T12:02:54Z</time>
      </trkpt>
      <trkpt lat="48.73037" lon="2.55007">
        <ele>64</ele>
        <time>2017-09-05T12:02:54Z</time>
      </trkpt>
      <trkpt lat="48.73037" lon="2.55006">
        <ele>64</ele>
        <time>2017-09-05T12:02:54Z</time>
      </trkpt>
      <trkpt lat="48.73032" lon="2.54998">
        <ele>64</ele>
        <time>2017-09-05T12:04:06Z</time>
      </trkpt>
      <trkpt lat="48.73031" lon="2.54998">
        <ele>64</ele>
        <time>2017-09-05T12:04:06Z</time>
      </trkpt>
      <trkpt lat="48.73031" lon="2.54997">
        <ele>64</ele>
        <time>2017-09-05T12:04:06Z</time>
      </trkpt>
      <trkpt lat="48.7303" lon="2.54997">
        <ele>64</ele>
        <time>2017-09-05T12:04:06Z</time>
      </trkpt>
      <trkpt lat="48.7303" lon="2.54996">
        <ele>64</ele>
        <time>2017-09-05T12:04:06Z</time>
      </trkpt>
      <trkpt lat="48.73023" lon="2.54988">
        <ele>64</ele>
        <time>2017-09-05T12:05:50Z</time>
      </trkpt>
      <trkpt lat="48.73022" lon="2.54987">
        <ele>64</ele>
        <time>2017-09-05T12:05:50Z</time>
      </trkpt>
      <trkpt lat="48.73022" lon="2.54987">
        <ele>64</ele>
        <time>2017-09-05T12:05:50Z</time>
      </trkpt>
      <trkpt lat="48.73022" lon="2.54987">
        <ele>64</ele>
        <time>2017-09-05T12:05:50Z</time>
      </trkpt>
      <trkpt lat="48.73022" lon="2.54987">
        <ele>64</ele>
        <time>2017-09-05T12:05:50Z</time>
      </trkpt>
      <trkpt lat="48.73016" lon="2.54981">
        <ele>64</ele>
        <time>2017-09-05T12:07:22Z</time>
      </trkpt>
      <trkpt lat="48.73015" lon="2.5498">
        <ele>64</ele>
        <time>2017-09-05T12:07:22Z</time>
      </trkpt>
      <trkpt lat="48.73015" lon="2.54979">
        <ele>64</ele>
        <time>2017-09-05T12:07:22Z</time>
      </trkpt>
      <trkpt lat="48.73015" lon="2.54978">
        <ele>64</ele>
        <time>2017-09-05T12:07:22Z</time>
      </trkpt>
      <trkpt lat="48.73014" lon="2.54977">
        <ele>64</ele>
        <time>2017-09-05T12:07:22Z</time>
      </trkpt>
      <trkpt lat="48.73012" lon="2.54981">
        <ele>64</ele>
        <time>2017-09-05T12:42:30Z</time>
      </trkpt>
      <trkpt lat="48.73012" lon="2.54981">
        <ele>64</ele>
        <time>2017-09-05T12:42:30Z</time>
      </trkpt>
      <trkpt lat="48.73013" lon="2.54982">
        <ele>64</ele>
        <time>2017-09-05T12:42:30Z</time>
      </trkpt>
      <trkpt lat="48.73015" lon="2.54988">
        <ele>64</ele>
        <time>2017-09-05T12:42:30Z</time>
      </trkpt>
      <trkpt lat="48.73017" lon="2.54992">
        <ele>64</ele>
        <time>2017-09-05T12:42:30Z</time>
      </trkpt>
      <trkpt lat="48.73013" lon="2.5499">
        <ele>64</ele>
        <time>2017-09-05T12:44:06Z</time>
      </trkpt>
      <trkpt lat="48.73013" lon="2.54986">
        <ele>64</ele>
        <time>2017-09-05T12:44:06Z</time>
      </trkpt>
      <trkpt lat="48.73011" lon="2.54981">
        <ele>64</ele>
        <time>2017-09-05T12:44:06Z</time>
      </trkpt>
      <trkpt lat="48.73011" lon="2.54979">
        <ele>64</ele>
        <time>2017-09-05T12:44:06Z</time>
      </trkpt>
      <trkpt lat="48.73011" lon="2.54977">
        <ele>64</ele>
        <time>2017-09-05T12:44:06Z</time>
      </trkpt>
      <trkpt lat="48.73009" lon="2.54976">
        <ele>64</ele>
        <time>2017-09-05T12:45:50Z</time>
      </trkpt>
      <trkpt lat="48.73008" lon="2.54976">
        <ele>64</ele>
        <time>2017-09-05T12:45:50Z</time>
      </trkpt>
      <trkpt lat="48.73006" lon="2.54972">
        <ele>64</ele>
        <time>2017-09-05T12:45:50Z</time>
      </trkpt>
      <trkpt lat="48.73003" lon="2.54971">
        <ele>64</ele>
        <time>2017-09-05T12:45:50Z</time>
      </trkpt>
      <trkpt lat="48.72999" lon="2.54969">
        <ele>64</ele>
        <time>2017-09-05T12:45:50Z</time>
      </trkpt>
      <trkpt lat="48.72998" lon="2.54965">
        <ele>64</ele>
        <time>2017-09-05T12:46:06Z</time>
      </trkpt>
      <trkpt lat="48.72996" lon="2.5496">
        <ele>64</ele>
        <time>2017-09-05T12:46:06Z</time>
      </trkpt>
      <trkpt lat="48.72995" lon="2.54956">
        <ele>66</ele>
        <time>2017-09-05T12:46:06Z</time>
      </trkpt>
      <trkpt lat="48.72992" lon="2.54952">
        <ele>66</ele>
        <time>2017-09-05T12:46:06Z</time>
      </trkpt>
      <trkpt lat="48.72989" lon="2.54947">
        <ele>66</ele>
        <time>2017-09-05T12:46:22Z</time>
      </trkpt>
      <trkpt lat="48.72986" lon="2.54942">
        <ele>66</ele>
        <time>2017-09-05T12:46:22Z</time>
      </trkpt>
      <trkpt lat="48.72983" lon="2.54939">
        <ele>66</ele>
        <time>2017-09-05T12:46:22Z</time>
      </trkpt>
      <trkpt lat="48.72979" lon="2.54933">
        <ele>66</ele>
        <time>2017-09-05T12:46:22Z</time>
      </trkpt>
      <trkpt lat="48.72976" lon="2.54928">
        <ele>66</ele>
        <time>2017-09-05T12:46:38Z</time>
      </trkpt>
      <trkpt lat="48.72973" lon="2.54923">
        <ele>66</ele>
        <time>2017-09-05T12:46:38Z</time>
      </trkpt>
      <trkpt lat="48.7297" lon="2.54916">
        <ele>66</ele>
        <time>2017-09-05T12:46:38Z</time>
      </trkpt>
      <trkpt lat="48.72966" lon="2.54911">
        <ele>66</ele>
        <time>2017-09-05T12:46:38Z</time>
      </trkpt>
      <trkpt lat="48.72963" lon="2.54907">
        <ele>66</ele>
        <time>2017-09-05T12:46:54Z</time>
      </trkpt>
      <trkpt lat="48.72961" lon="2.54903">
        <ele>66</ele>
        <time>2017-09-05T12:46:54Z</time>
      </trkpt>
      <trkpt lat="48.72959" lon="2.54898">
        <ele>66</ele>
        <time>2017-09-05T12:46:54Z</time>
      </trkpt>
      <trkpt lat="48.72958" lon="2.54889">
        <ele>62</ele>
        <time>2017-09-05T12:46:54Z</time>
      </trkpt>
      <trkpt lat="48.72958" lon="2.54884">
        <ele>62</ele>
        <time>2017-09-05T12:47:10Z</time>
      </trkpt>
      <trkpt lat="48.72956" lon="2.54879">
        <ele>62</ele>
        <time>2017-09-05T12:47:10Z</time>
      </trkpt>
      <trkpt lat="48.72954" lon="2.54872">
        <ele>60</ele>
        <time>2017-09-05T12:47:10Z</time>
      </trkpt>
      <trkpt lat="48.72952" lon="2.54866">
        <ele>60</ele>
        <time>2017-09-05T12:47:10Z</time>
      </trkpt>
      <trkpt lat="48.72951" lon="2.54861">
        <ele>60</ele>
        <time>2017-09-05T12:47:26Z</time>
      </trkpt>
      <trkpt lat="48.7295" lon="2.54854">
        <ele>60</ele>
        <time>2017-09-05T12:47:26Z</time>
      </trkpt>
      <trkpt lat="48.72946" lon="2.54849">
        <ele>60</ele>
        <time>2017-09-05T12:47:26Z</time>
      </trkpt>
      <trkpt lat="48.72943" lon="2.54842">
        <ele>60</ele>
        <time>2017-09-05T12:47:26Z</time>
      </trkpt>
      <trkpt lat="48.72942" lon="2.54833">
        <ele>60</ele>
        <time>2017-09-05T12:47:42Z</time>
      </trkpt>
      <trkpt lat="48.72943" lon="2.54824">
        <ele>60</ele>
        <time>2017-09-05T12:47:42Z</time>
      </trkpt>
      <trkpt lat="48.72942" lon="2.54816">
        <ele>60</ele>
        <time>2017-09-05T12:47:42Z</time>
      </trkpt>
      <trkpt lat="48.72942" lon="2.54808">
        <ele>60</ele>
        <time>2017-09-05T12:47:42Z</time>
      </trkpt>
      <trkpt lat="48.72942" lon="2.54803">
        <ele>60</ele>
        <time>2017-09-05T12:47:58Z</time>
      </trkpt>
      <trkpt lat="48.72941" lon="2.54795">
        <ele>60</ele>
        <time>2017-09-05T12:47:58Z</time>
      </trkpt>
      <trkpt lat="48.72941" lon="2.54787">
        <ele>60</ele>
        <time>2017-09-05T12:47:58Z</time>
      </trkpt>
      <trkpt lat="48.72941" lon="2.54779">
        <ele>60</ele>
        <time>2017-09-05T12:47:58Z</time>
      </trkpt>
      <trkpt lat="48.72941" lon="2.54773">
        <ele>60</ele>
        <time>2017-09-05T12:48:14Z</time>
      </trkpt>
      <trkpt lat="48.72941" lon="2.54768">
        <ele>60</ele>
        <time>2017-09-05T12:48:14Z</time>
      </trkpt>
      <trkpt lat="48.72941" lon="2.54761">
        <ele>60</ele>
        <time>2017-09-05T12:48:14Z</time>
      </trkpt>
      <trkpt lat="48.72942" lon="2.54755">
        <ele>60</ele>
        <time>2017-09-05T12:48:14Z</time>
      </trkpt>
      <trkpt lat="48.72941" lon="2.54748">
        <ele>60</ele>
        <time>2017-09-05T12:48:30Z</time>
      </trkpt>
      <trkpt lat="48.72942" lon="2.54743">
        <ele>60</ele>
        <time>2017-09-05T12:48:30Z</time>
      </trkpt>
      <trkpt lat="48.72944" lon="2.54738">
        <ele>60</ele>
        <time>2017-09-05T12:48:30Z</time>
      </trkpt>
      <trkpt lat="48.72944" lon="2.54733">
        <ele>60</ele>
        <time>2017-09-05T12:48:30Z</time>
      </trkpt>
      <trkpt lat="48.72943" lon="2.54724">
        <ele>60</ele>
        <time>2017-09-05T12:48:46Z</time>
      </trkpt>
      <trkpt lat="48.72942" lon="2.54717">
        <ele>60</ele>
        <time>2017-09-05T12:48:46Z</time>
      </trkpt>
      <trkpt lat="48.72941" lon="2.5471">
        <ele>60</ele>
        <time>2017-09-05T12:48:46Z</time>
      </trkpt>
      <trkpt lat="48.7294" lon="2.54704">
        <ele>61</ele>
        <time>2017-09-05T12:48:46Z</time>
      </trkpt>
      <trkpt lat="48.72937" lon="2.54699">
        <ele>61</ele>
        <time>2017-09-05T12:49:02Z</time>
      </trkpt>
      <trkpt lat="48.72936" lon="2.54693">
        <ele>61</ele>
        <time>2017-09-05T12:49:02Z</time>
      </trkpt>
      <trkpt lat="48.72936" lon="2.54688">
        <ele>61</ele>
        <time>2017-09-05T12:49:02Z</time>
      </trkpt>
      <trkpt lat="48.72934" lon="2.54682">
        <ele>61</ele>
        <time>2017-09-05T12:49:02Z</time>
      </trkpt>
      <trkpt lat="48.72934" lon="2.54677">
        <ele>61</ele>
        <time>2017-09-05T12:49:18Z</time>
      </trkpt>
      <trkpt lat="48.72932" lon="2.54669">
        <ele>61</ele>
        <time>2017-09-05T12:49:18Z</time>
      </trkpt>
      <trkpt lat="48.72932" lon="2.5466">
        <ele>61</ele>
        <time>2017-09-05T12:49:18Z</time>
      </trkpt>
      <trkpt lat="48.72932" lon="2.54655">
        <ele>61</ele>
        <time>2017-09-05T12:49:18Z</time>
      </trkpt>
      <trkpt lat="48.72932" lon="2.54652">
        <ele>61</ele>
        <time>2017-09-05T12:49:34Z</time>
      </trkpt>
      <trkpt lat="48.7293" lon="2.54646">
        <ele>61</ele>
        <time>2017-09-05T12:49:34Z</time>
      </trkpt>
      <trkpt lat="48.72925" lon="2.54639">
        <ele>61</ele>
        <time>2017-09-05T12:49:34Z</time>
      </trkpt>
      <trkpt lat="48.72922" lon="2.54634">
        <ele>61</ele>
        <time>2017-09-05T12:49:34Z</time>
      </trkpt>
      <trkpt lat="48.7292" lon="2.54629">
        <ele>61</ele>
        <time>2017-09-05T12:49:50Z</time>
      </trkpt>
      <trkpt lat="48.72916" lon="2.54626">
        <ele>61</ele>
        <time>2017-09-05T12:49:50Z</time>
      </trkpt>
      <trkpt lat="48.72913" lon="2.54622">
        <ele>60</ele>
        <time>2017-09-05T12:49:50Z</time>
      </trkpt>
      <trkpt lat="48.7291" lon="2.54618">
        <ele>60</ele>
        <time>2017-09-05T12:49:50Z</time>
      </trkpt>
      <trkpt lat="48.72908" lon="2.54614">
        <ele>60</ele>
        <time>2017-09-05T12:50:06Z</time>
      </trkpt>
      <trkpt lat="48.72905" lon="2.54607">
        <ele>60</ele>
        <time>2017-09-05T12:50:06Z</time>
      </trkpt>
      <trkpt lat="48.72902" lon="2.54602">
        <ele>60</ele>
        <time>2017-09-05T12:50:06Z</time>
      </trkpt>
      <trkpt lat="48.72898" lon="2.54597">
        <ele>60</ele>
        <time>2017-09-05T12:50:06Z</time>
      </trkpt>
      <trkpt lat="48.72894" lon="2.54592">
        <ele>60</ele>
        <time>2017-09-05T12:50:22Z</time>
      </trkpt>
      <trkpt lat="48.72889" lon="2.54587">
        <ele>60</ele>
        <time>2017-09-05T12:50:22Z</time>
      </trkpt>
      <trkpt lat="48.72886" lon="2.54585">
        <ele>60</ele>
        <time>2017-09-05T12:50:22Z</time>
      </trkpt>
      <trkpt lat="48.72881" lon="2.54582">
        <ele>60</ele>
        <time>2017-09-05T12:50:22Z</time>
      </trkpt>
      <trkpt lat="48.72876" lon="2.54578">
        <ele>60</ele>
        <time>2017-09-05T12:50:38Z</time>
      </trkpt>
      <trkpt lat="48.7287" lon="2.54576">
        <ele>57</ele>
        <time>2017-09-05T12:50:38Z</time>
      </trkpt>
      <trkpt lat="48.72866" lon="2.54572">
        <ele>57</ele>
        <time>2017-09-05T12:50:38Z</time>
      </trkpt>
      <trkpt lat="48.72862" lon="2.5457">
        <ele>57</ele>
        <time>2017-09-05T12:50:38Z</time>
      </trkpt>
      <trkpt lat="48.72858" lon="2.54569">
        <ele>57</ele>
        <time>2017-09-05T12:50:54Z</time>
      </trkpt>
      <trkpt lat="48.72854" lon="2.54568">
        <ele>57</ele>
        <time>2017-09-05T12:50:54Z</time>
      </trkpt>
      <trkpt lat="48.72849" lon="2.54567">
        <ele>57</ele>
        <time>2017-09-05T12:50:54Z</time>
      </trkpt>
      <trkpt lat="48.72842" lon="2.54566">
        <ele>57</ele>
        <time>2017-09-05T12:50:54Z</time>
      </trkpt>
      <trkpt lat="48.72837" lon="2.54567">
        <ele>57</ele>
        <time>2017-09-05T12:51:10Z</time>
      </trkpt>
      <trkpt lat="48.72833" lon="2.54566">
        <ele>57</ele>
        <time>2017-09-05T12:51:10Z</time>
      </trkpt>
      <trkpt lat="48.72829" lon="2.54567">
        <ele>57</ele>
        <time>2017-09-05T12:51:10Z</time>
      </trkpt>
      <trkpt lat="48.72824" lon="2.54566">
        <ele>57</ele>
        <time>2017-09-05T12:51:10Z</time>
      </trkpt>
      <trkpt lat="48.7282" lon="2.54563">
        <ele>57</ele>
        <time>2017-09-05T12:51:26Z</time>
      </trkpt>
      <trkpt lat="48.72816" lon="2.5456">
        <ele>57</ele>
        <time>2017-09-05T12:51:26Z</time>
      </trkpt>
      <trkpt lat="48.72814" lon="2.54558">
        <ele>57</ele>
        <time>2017-09-05T12:51:26Z</time>
      </trkpt>
      <trkpt lat="48.7281" lon="2.54556">
        <ele>57</ele>
        <time>2017-09-05T12:51:26Z</time>
      </trkpt>
      <trkpt lat="48.72804" lon="2.54553">
        <ele>57</ele>
        <time>2017-09-05T12:51:42Z</time>
      </trkpt>
      <trkpt lat="48.72802" lon="2.54552">
        <ele>57</ele>
        <time>2017-09-05T12:51:42Z</time>
      </trkpt>
      <trkpt lat="48.72798" lon="2.5455">
        <ele>57</ele>
        <time>2017-09-05T12:51:42Z</time>
      </trkpt>
      <trkpt lat="48.72792" lon="2.54547">
        <ele>57</ele>
        <time>2017-09-05T12:51:42Z</time>
      </trkpt>
      <trkpt lat="48.72787" lon="2.54542">
        <ele>60</ele>
        <time>2017-09-05T12:51:58Z</time>
      </trkpt>
      <trkpt lat="48.72781" lon="2.5454">
        <ele>61</ele>
        <time>2017-09-05T12:51:58Z</time>
      </trkpt>
      <trkpt lat="48.72777" lon="2.54543">
        <ele>60</ele>
        <time>2017-09-05T12:51:58Z</time>
      </trkpt>
      <trkpt lat="48.72774" lon="2.54545">
        <ele>60</ele>
        <time>2017-09-05T12:51:58Z</time>
      </trkpt>
      <trkpt lat="48.72772" lon="2.54545">
        <ele>60</ele>
        <time>2017-09-05T12:52:18Z</time>
      </trkpt>
      <trkpt lat="48.72765" lon="2.54556">
        <ele>60</ele>
        <time>2017-09-05T12:52:18Z</time>
      </trkpt>
      <trkpt lat="48.7275" lon="2.54553">
        <ele>60</ele>
        <time>2017-09-05T12:52:18Z</time>
      </trkpt>
      <trkpt lat="48.72745" lon="2.54552">
        <ele>60</ele>
        <time>2017-09-05T12:52:18Z</time>
      </trkpt>
      <trkpt lat="48.7274" lon="2.5455">
        <ele>60</ele>
        <time>2017-09-05T12:52:34Z</time>
      </trkpt>
      <trkpt lat="48.72735" lon="2.5455">
        <ele>60</ele>
        <time>2017-09-05T12:52:34Z</time>
      </trkpt>
      <trkpt lat="48.72729" lon="2.54549">
        <ele>60</ele>
        <time>2017-09-05T12:52:34Z</time>
      </trkpt>
      <trkpt lat="48.72724" lon="2.54548">
        <ele>60</ele>
        <time>2017-09-05T12:52:34Z</time>
      </trkpt>
      <trkpt lat="48.72719" lon="2.54549">
        <ele>60</ele>
        <time>2017-09-05T12:52:50Z</time>
      </trkpt>
      <trkpt lat="48.72715" lon="2.5455">
        <ele>60</ele>
        <time>2017-09-05T12:52:50Z</time>
      </trkpt>
      <trkpt lat="48.72711" lon="2.54552">
        <ele>60</ele>
        <time>2017-09-05T12:52:50Z</time>
      </trkpt>
      <trkpt lat="48.72706" lon="2.54552">
        <ele>59</ele>
        <time>2017-09-05T12:52:50Z</time>
      </trkpt>
      <trkpt lat="48.72701" lon="2.54551">
        <ele>59</ele>
        <time>2017-09-05T12:53:06Z</time>
      </trkpt>
      <trkpt lat="48.72696" lon="2.54548">
        <ele>59</ele>
        <time>2017-09-05T12:53:06Z</time>
      </trkpt>
      <trkpt lat="48.72692" lon="2.54546">
        <ele>59</ele>
        <time>2017-09-05T12:53:06Z</time>
      </trkpt>
      <trkpt lat="48.72686" lon="2.54544">
        <ele>59</ele>
        <time>2017-09-05T12:53:06Z</time>
      </trkpt>
      <trkpt lat="48.72682" lon="2.54542">
        <ele>59</ele>
        <time>2017-09-05T12:53:22Z</time>
      </trkpt>
      <trkpt lat="48.72678" lon="2.54538">
        <ele>59</ele>
        <time>2017-09-05T12:53:22Z</time>
      </trkpt>
      <trkpt lat="48.72674" lon="2.54532">
        <ele>59</ele>
        <time>2017-09-05T12:53:22Z</time>
      </trkpt>
      <trkpt lat="48.72671" lon="2.54528">
        <ele>59</ele>
        <time>2017-09-05T12:53:22Z</time>
      </trkpt>
      <trkpt lat="48.72668" lon="2.54523">
        <ele>59</ele>
        <time>2017-09-05T12:53:38Z</time>
      </trkpt>
      <trkpt lat="48.72664" lon="2.54515">
        <ele>59</ele>
        <time>2017-09-05T12:53:38Z</time>
      </trkpt>
      <trkpt lat="48.72658" lon="2.5451">
        <ele>59</ele>
        <time>2017-09-05T12:53:38Z</time>
      </trkpt>
      <trkpt lat="48.72655" lon="2.54505">
        <ele>59</ele>
        <time>2017-09-05T12:53:38Z</time>
      </trkpt>
      <trkpt lat="48.72652" lon="2.54499">
        <ele>59</ele>
        <time>2017-09-05T12:53:54Z</time>
      </trkpt>
      <trkpt lat="48.72648" lon="2.54492">
        <ele>59</ele>
        <time>2017-09-05T12:53:54Z</time>
      </trkpt>
      <trkpt lat="48.72644" lon="2.54485">
        <ele>59</ele>
        <time>2017-09-05T12:53:54Z</time>
      </trkpt>
      <trkpt lat="48.72641" lon="2.54481">
        <ele>59</ele>
        <time>2017-09-05T12:53:54Z</time>
      </trkpt>
      <trkpt lat="48.72638" lon="2.54475">
        <ele>59</ele>
        <time>2017-09-05T12:54:10Z</time>
      </trkpt>
      <trkpt lat="48.72634" lon="2.54469">
        <ele>59</ele>
        <time>2017-09-05T12:54:10Z</time>
      </trkpt>
      <trkpt lat="48.72631" lon="2.54464">
        <ele>59</ele>
        <time>2017-09-05T12:54:10Z</time>
      </trkpt>
      <trkpt lat="48.72628" lon="2.54459">
        <ele>59</ele>
        <time>2017-09-05T12:54:10Z</time>
      </trkpt>
      <trkpt lat="48.72624" lon="2.54453">
        <ele>61</ele>
        <time>2017-09-05T12:54:26Z</time>
      </trkpt>
      <trkpt lat="48.7262" lon="2.54449">
        <ele>61</ele>
        <time>2017-09-05T12:54:26Z</time>
      </trkpt>
      <trkpt lat="48.72614" lon="2.54442">
        <ele>61</ele>
        <time>2017-09-05T12:54:26Z</time>
      </trkpt>
      <trkpt lat="48.7261" lon="2.54437">
        <ele>61</ele>
        <time>2017-09-05T12:54:26Z</time>
      </trkpt>
      <trkpt lat="48.72607" lon="2.54432">
        <ele>61</ele>
        <time>2017-09-05T12:54:42Z</time>
      </trkpt>
      <trkpt lat="48.72602" lon="2.54426">
        <ele>61</ele>
        <time>2017-09-05T12:54:42Z</time>
      </trkpt>
      <trkpt lat="48.726" lon="2.54424">
        <ele>61</ele>
        <time>2017-09-05T12:54:42Z</time>
      </trkpt>
      <trkpt lat="48.72595" lon="2.5442">
        <ele>61</ele>
        <time>2017-09-05T12:54:42Z</time>
      </trkpt>
      <trkpt lat="48.72592" lon="2.54418">
        <ele>61</ele>
        <time>2017-09-05T12:54:58Z</time>
      </trkpt>
      <trkpt lat="48.72585" lon="2.54414">
        <ele>61</ele>
        <time>2017-09-05T12:54:58Z</time>
      </trkpt>
      <trkpt lat="48.72576" lon="2.54413">
        <ele>61</ele>
        <time>2017-09-05T12:54:58Z</time>
      </trkpt>
      <trkpt lat="48.72572" lon="2.5441">
        <ele>61</ele>
        <time>2017-09-05T12:54:58Z</time>
      </trkpt>
      <trkpt lat="48.72568" lon="2.54402">
        <ele>61</ele>
        <time>2017-09-05T12:55:14Z</time>
      </trkpt>
      <trkpt lat="48.72564" lon="2.54396">
        <ele>61</ele>
        <time>2017-09-05T12:55:14Z</time>
      </trkpt>
      <trkpt lat="48.72564" lon="2.54393">
        <ele>61</ele>
        <time>2017-09-05T12:55:14Z</time>
      </trkpt>
      <trkpt lat="48.72562" lon="2.5439">
        <ele>61</ele>
        <time>2017-09-05T12:55:14Z</time>
      </trkpt>
      <trkpt lat="48.7256" lon="2.54385">
        <ele>61</ele>
        <time>2017-09-05T12:55:30Z</time>
      </trkpt>
      <trkpt lat="48.7256" lon="2.54377">
        <ele>61</ele>
        <time>2017-09-05T12:55:30Z</time>
      </trkpt>
      <trkpt lat="48.72563" lon="2.54371">
        <ele>64</ele>
        <time>2017-09-05T12:55:30Z</time>
      </trkpt>
      <trkpt lat="48.72563" lon="2.54368">
        <ele>64</ele>
        <time>2017-09-05T12:55:30Z</time>
      </trkpt>
      <trkpt lat="48.72566" lon="2.5436">
        <ele>64</ele>
        <time>2017-09-05T12:55:46Z</time>
      </trkpt>
      <trkpt lat="48.72568" lon="2.54354">
        <ele>64</ele>
        <time>2017-09-05T12:55:46Z</time>
      </trkpt>
      <trkpt lat="48.7257" lon="2.54351">
        <ele>64</ele>
        <time>2017-09-05T12:55:46Z</time>
      </trkpt>
      <trkpt lat="48.72571" lon="2.54345">
        <ele>64</ele>
        <time>2017-09-05T12:55:46Z</time>
      </trkpt>
      <trkpt lat="48.72574" lon="2.54338">
        <ele>64</ele>
        <time>2017-09-05T12:56:02Z</time>
      </trkpt>
      <trkpt lat="48.72575" lon="2.54332">
        <ele>64</ele>
        <time>2017-09-05T12:56:02Z</time>
      </trkpt>
      <trkpt lat="48.72576" lon="2.54325">
        <ele>64</ele>
        <time>2017-09-05T12:56:02Z</time>
      </trkpt>
      <trkpt lat="48.72577" lon="2.5432">
        <ele>64</ele>
        <time>2017-09-05T12:56:02Z</time>
      </trkpt>
      <trkpt lat="48.72577" lon="2.54314">
        <ele>64</ele>
        <time>2017-09-05T12:56:18Z</time>
      </trkpt>
      <trkpt lat="48.72578" lon="2.54308">
        <ele>64</ele>
        <time>2017-09-05T12:56:18Z</time>
      </trkpt>
      <trkpt lat="48.72579" lon="2.54301">
        <ele>64</ele>
        <time>2017-09-05T12:56:18Z</time>
      </trkpt>
      <trkpt lat="48.72578" lon="2.54297">
        <ele>64</ele>
        <time>2017-09-05T12:56:18Z</time>
      </trkpt>
      <trkpt lat="48.72579" lon="2.54292">
        <ele>65</ele>
        <time>2017-09-05T12:56:34Z</time>
      </trkpt>
      <trkpt lat="48.7258" lon="2.54283">
        <ele>65</ele>
        <time>2017-09-05T12:56:34Z</time>
      </trkpt>
      <trkpt lat="48.72582" lon="2.54276">
        <ele>65</ele>
        <time>2017-09-05T12:56:34Z</time>
      </trkpt>
      <trkpt lat="48.72583" lon="2.5427">
        <ele>65</ele>
        <time>2017-09-05T12:56:34Z</time>
      </trkpt>
      <trkpt lat="48.72584" lon="2.54267">
        <ele>65</ele>
        <time>2017-09-05T12:56:50Z</time>
      </trkpt>
      <trkpt lat="48.72586" lon="2.5426">
        <ele>65</ele>
        <time>2017-09-05T12:56:50Z</time>
      </trkpt>
      <trkpt lat="48.72589" lon="2.54256">
        <ele>65</ele>
        <time>2017-09-05T12:56:50Z</time>
      </trkpt>
      <trkpt lat="48.72591" lon="2.54251">
        <ele>65</ele>
        <time>2017-09-05T12:56:50Z</time>
      </trkpt>
      <trkpt lat="48.72594" lon="2.54245">
        <ele>65</ele>
        <time>2017-09-05T12:57:06Z</time>
      </trkpt>
      <trkpt lat="48.72594" lon="2.54238">
        <ele>65</ele>
        <time>2017-09-05T12:57:06Z</time>
      </trkpt>
      <trkpt lat="48.72596" lon="2.54231">
        <ele>65</ele>
        <time>2017-09-05T12:57:06Z</time>
      </trkpt>
      <trkpt lat="48.72598" lon="2.54223">
        <ele>65</ele>
        <time>2017-09-05T12:57:06Z</time>
      </trkpt>
      <trkpt lat="48.726" lon="2.54216">
        <ele>65</ele>
        <time>2017-09-05T12:57:22Z</time>
      </trkpt>
      <trkpt lat="48.726" lon="2.5421">
        <ele>65</ele>
        <time>2017-09-05T12:57:22Z</time>
      </trkpt>
      <trkpt lat="48.72601" lon="2.54206">
        <ele>67</ele>
        <time>2017-09-05T12:57:22Z</time>
      </trkpt>
      <trkpt lat="48.72603" lon="2.54199">
        <ele>67</ele>
        <time>2017-09-05T12:57:22Z</time>
      </trkpt>
      <trkpt lat="48.72604" lon="2.54192">
        <ele>67</ele>
        <time>2017-09-05T12:57:38Z</time>
      </trkpt>
      <trkpt lat="48.72606" lon="2.54186">
        <ele>67</ele>
        <time>2017-09-05T12:57:38Z</time>
      </trkpt>
      <trkpt lat="48.72608" lon="2.54179">
        <ele>67</ele>
        <time>2017-09-05T12:57:38Z</time>
      </trkpt>
      <trkpt lat="48.7261" lon="2.54174">
        <ele>67</ele>
        <time>2017-09-05T12:57:38Z</time>
      </trkpt>
      <trkpt lat="48.72613" lon="2.54168">
        <ele>67</ele>
        <time>2017-09-05T12:57:54Z</time>
      </trkpt>
      <trkpt lat="48.72614" lon="2.54161">
        <ele>67</ele>
        <time>2017-09-05T12:57:54Z</time>
      </trkpt>
      <trkpt lat="48.72615" lon="2.54154">
        <ele>67</ele>
        <time>2017-09-05T12:57:54Z</time>
      </trkpt>
      <trkpt lat="48.72616" lon="2.54148">
        <ele>67</ele>
        <time>2017-09-05T12:57:54Z</time>
      </trkpt>
      <trkpt lat="48.72617" lon="2.5414">
        <ele>67</ele>
        <time>2017-09-05T12:58:10Z</time>
      </trkpt>
      <trkpt lat="48.72617" lon="2.54134">
        <ele>67</ele>
        <time>2017-09-05T12:58:10Z</time>
      </trkpt>
      <trkpt lat="48.72619" lon="2.54131">
        <ele>67</ele>
        <time>2017-09-05T12:58:10Z</time>
      </trkpt>
      <trkpt lat="48.72619" lon="2.54125">
        <ele>67</ele>
        <time>2017-09-05T12:58:10Z</time>
      </trkpt>
      <trkpt lat="48.7262" lon="2.54117">
        <ele>67</ele>
        <time>2017-09-05T12:58:26Z</time>
      </trkpt>
      <trkpt lat="48.72621" lon="2.5411">
        <ele>67</ele>
        <time>2017-09-05T12:58:26Z</time>
      </trkpt>
      <trkpt lat="48.72622" lon="2.54103">
        <ele>67</ele>
        <time>2017-09-05T12:58:26Z</time>
      </trkpt>
      <trkpt lat="48.72622" lon="2.54098">
        <ele>67</ele>
        <time>2017-09-05T12:58:26Z</time>
      </trkpt>
      <trkpt lat="48.72623" lon="2.54089">
        <ele>67</ele>
        <time>2017-09-05T12:58:42Z</time>
      </trkpt>
      <trkpt lat="48.72625" lon="2.54083">
        <ele>67</ele>
        <time>2017-09-05T12:58:42Z</time>
      </trkpt>
      <trkpt lat="48.72626" lon="2.54077">
        <ele>65</ele>
        <time>2017-09-05T12:58:42Z</time>
      </trkpt>
      <trkpt lat="48.72625" lon="2.5407">
        <ele>65</ele>
        <time>2017-09-05T12:58:42Z</time>
      </trkpt>
      <trkpt lat="48.72626" lon="2.54063">
        <ele>65</ele>
        <time>2017-09-05T12:58:58Z</time>
      </trkpt>
      <trkpt lat="48.72622" lon="2.54058">
        <ele>67</ele>
        <time>2017-09-05T12:58:58Z</time>
      </trkpt>
      <trkpt lat="48.72622" lon="2.54053">
        <ele>67</ele>
        <time>2017-09-05T12:58:58Z</time>
      </trkpt>
      <trkpt lat="48.7262" lon="2.54048">
        <ele>67</ele>
        <time>2017-09-05T12:58:58Z</time>
      </trkpt>
      <trkpt lat="48.72619" lon="2.5404">
        <ele>69</ele>
        <time>2017-09-05T12:59:14Z</time>
      </trkpt>
      <trkpt lat="48.7262" lon="2.54034">
        <ele>69</ele>
        <time>2017-09-05T12:59:14Z</time>
      </trkpt>
      <trkpt lat="48.7262" lon="2.54023">
        <ele>69</ele>
        <time>2017-09-05T12:59:14Z</time>
      </trkpt>
      <trkpt lat="48.72621" lon="2.54016">
        <ele>69</ele>
        <time>2017-09-05T12:59:14Z</time>
      </trkpt>
      <trkpt lat="48.72622" lon="2.5401">
        <ele>69</ele>
        <time>2017-09-05T12:59:30Z</time>
      </trkpt>
      <trkpt lat="48.72623" lon="2.54003">
        <ele>69</ele>
        <time>2017-09-05T12:59:30Z</time>
      </trkpt>
      <trkpt lat="48.72622" lon="2.53996">
        <ele>69</ele>
        <time>2017-09-05T12:59:30Z</time>
      </trkpt>
      <trkpt lat="48.72622" lon="2.53988">
        <ele>69</ele>
        <time>2017-09-05T12:59:30Z</time>
      </trkpt>
      <trkpt lat="48.72624" lon="2.5398">
        <ele>69</ele>
        <time>2017-09-05T12:59:46Z</time>
      </trkpt>
      <trkpt lat="48.72625" lon="2.53975">
        <ele>69</ele>
        <time>2017-09-05T12:59:46Z</time>
      </trkpt>
      <trkpt lat="48.72626" lon="2.53972">
        <ele>66</ele>
        <time>2017-09-05T12:59:46Z</time>
      </trkpt>
      <trkpt lat="48.72627" lon="2.53964">
        <ele>66</ele>
        <time>2017-09-05T12:59:46Z</time>
      </trkpt>
      <trkpt lat="48.72628" lon="2.53956">
        <ele>69</ele>
        <time>2017-09-05T13:00:02Z</time>
      </trkpt>
      <trkpt lat="48.72629" lon="2.53949">
        <ele>69</ele>
        <time>2017-09-05T13:00:02Z</time>
      </trkpt>
      <trkpt lat="48.72629" lon="2.53943">
        <ele>69</ele>
        <time>2017-09-05T13:00:02Z</time>
      </trkpt>
      <trkpt lat="48.72629" lon="2.53937">
        <ele>69</ele>
        <time>2017-09-05T13:00:02Z</time>
      </trkpt>
      <trkpt lat="48.7263" lon="2.53929">
        <ele>69</ele>
        <time>2017-09-05T13:00:18Z</time>
      </trkpt>
      <trkpt lat="48.72632" lon="2.53921">
        <ele>69</ele>
        <time>2017-09-05T13:00:18Z</time>
      </trkpt>
      <trkpt lat="48.72633" lon="2.53915">
        <ele>69</ele>
        <time>2017-09-05T13:00:18Z</time>
      </trkpt>
      <trkpt lat="48.72633" lon="2.53907">
        <ele>69</ele>
        <time>2017-09-05T13:00:18Z</time>
      </trkpt>
      <trkpt lat="48.72633" lon="2.539">
        <ele>69</ele>
        <time>2017-09-05T13:00:34Z</time>
      </trkpt>
      <trkpt lat="48.72633" lon="2.53892">
        <ele>69</ele>
        <time>2017-09-05T13:00:34Z</time>
      </trkpt>
      <trkpt lat="48.72634" lon="2.53883">
        <ele>69</ele>
        <time>2017-09-05T13:00:34Z</time>
      </trkpt>
      <trkpt lat="48.72635" lon="2.53876">
        <ele>69</ele>
        <time>2017-09-05T13:00:34Z</time>
      </trkpt>
      <trkpt lat="48.72636" lon="2.53868">
        <ele>71</ele>
        <time>2017-09-05T13:00:50Z</time>
      </trkpt>
      <trkpt lat="48.72637" lon="2.53861">
        <ele>71</ele>
        <time>2017-09-05T13:00:50Z</time>
      </trkpt>
      <trkpt lat="48.72638" lon="2.53856">
        <ele>71</ele>
        <time>2017-09-05T13:00:50Z</time>
      </trkpt>
      <trkpt lat="48.72639" lon="2.53848">
        <ele>71</ele>
        <time>2017-09-05T13:00:50Z</time>
      </trkpt>
      <trkpt lat="48.72639" lon="2.53838">
        <ele>71</ele>
        <time>2017-09-05T13:01:06Z</time>
      </trkpt>
      <trkpt lat="48.72639" lon="2.53831">
        <ele>71</ele>
        <time>2017-09-05T13:01:06Z</time>
      </trkpt>
      <trkpt lat="48.72641" lon="2.53823">
        <ele>71</ele>
        <time>2017-09-05T13:01:06Z</time>
      </trkpt>
      <trkpt lat="48.72641" lon="2.53816">
        <ele>71</ele>
        <time>2017-09-05T13:01:06Z</time>
      </trkpt>
      <trkpt lat="48.7264" lon="2.53805">
        <ele>71</ele>
        <time>2017-09-05T13:01:22Z</time>
      </trkpt>
      <trkpt lat="48.7264" lon="2.53796">
        <ele>71</ele>
        <time>2017-09-05T13:01:22Z</time>
      </trkpt>
      <trkpt lat="48.7264" lon="2.53786">
        <ele>73</ele>
        <time>2017-09-05T13:01:22Z</time>
      </trkpt>
      <trkpt lat="48.72639" lon="2.5378">
        <ele>73</ele>
        <time>2017-09-05T13:01:22Z</time>
      </trkpt>
      <trkpt lat="48.72639" lon="2.53773">
        <ele>73</ele>
        <time>2017-09-05T13:01:38Z</time>
      </trkpt>
      <trkpt lat="48.72639" lon="2.53764">
        <ele>73</ele>
        <time>2017-09-05T13:01:38Z</time>
      </trkpt>
      <trkpt lat="48.72639" lon="2.53756">
        <ele>73</ele>
        <time>2017-09-05T13:01:38Z</time>
      </trkpt>
      <trkpt lat="48.72639" lon="2.53747">
        <ele>73</ele>
        <time>2017-09-05T13:01:38Z</time>
      </trkpt>
      <trkpt lat="48.72637" lon="2.5374">
        <ele>73</ele>
        <time>2017-09-05T13:01:54Z</time>
      </trkpt>
      <trkpt lat="48.72637" lon="2.53733">
        <ele>73</ele>
        <time>2017-09-05T13:01:54Z</time>
      </trkpt>
      <trkpt lat="48.72637" lon="2.53725">
        <ele>73</ele>
        <time>2017-09-05T13:01:54Z</time>
      </trkpt>
      <trkpt lat="48.72636" lon="2.53718">
        <ele>73</ele>
        <time>2017-09-05T13:01:54Z</time>
      </trkpt>
      <trkpt lat="48.72636" lon="2.53711">
        <ele>73</ele>
        <time>2017-09-05T13:02:10Z</time>
      </trkpt>
      <trkpt lat="48.72636" lon="2.53703">
        <ele>76</ele>
        <time>2017-09-05T13:02:10Z</time>
      </trkpt>
      <trkpt lat="48.72636" lon="2.53696">
        <ele>76</ele>
        <time>2017-09-05T13:02:10Z</time>
      </trkpt>
      <trkpt lat="48.72636" lon="2.53689">
        <ele>76</ele>
        <time>2017-09-05T13:02:10Z</time>
      </trkpt>
      <trkpt lat="48.72635" lon="2.53682">
        <ele>76</ele>
        <time>2017-09-05T13:02:26Z</time>
      </trkpt>
      <trkpt lat="48.72635" lon="2.53674">
        <ele>76</ele>
        <time>2017-09-05T13:02:26Z</time>
      </trkpt>
      <trkpt lat="48.72634" lon="2.53667">
        <ele>76</ele>
        <time>2017-09-05T13:02:26Z</time>
      </trkpt>
      <trkpt lat="48.72633" lon="2.53659">
        <ele>76</ele>
        <time>2017-09-05T13:02:26Z</time>
      </trkpt>
      <trkpt lat="48.72633" lon="2.53652">
        <ele>76</ele>
        <time>2017-09-05T13:02:42Z</time>
      </trkpt>
      <trkpt lat="48.72633" lon="2.53644">
        <ele>76</ele>
        <time>2017-09-05T13:02:42Z</time>
      </trkpt>
      <trkpt lat="48.72633" lon="2.53637">
        <ele>76</ele>
        <time>2017-09-05T13:02:42Z</time>
      </trkpt>
      <trkpt lat="48.72632" lon="2.53629">
        <ele>76</ele>
        <time>2017-09-05T13:02:42Z</time>
      </trkpt>
      <trkpt lat="48.72631" lon="2.53621">
        <ele>80</ele>
        <time>2017-09-05T13:02:58Z</time>
      </trkpt>
      <trkpt lat="48.72631" lon="2.53614">
        <ele>80</ele>
        <time>2017-09-05T13:02:58Z</time>
      </trkpt>
      <trkpt lat="48.72631" lon="2.53605">
        <ele>80</ele>
        <time>2017-09-05T13:02:58Z</time>
      </trkpt>
      <trkpt lat="48.7263" lon="2.53598">
        <ele>80</ele>
        <time>2017-09-05T13:02:58Z</time>
      </trkpt>
      <trkpt lat="48.72629" lon="2.53591">
        <ele>80</ele>
        <time>2017-09-05T13:03:14Z</time>
      </trkpt>
      <trkpt lat="48.72629" lon="2.53586">
        <ele>80</ele>
        <time>2017-09-05T13:03:14Z</time>
      </trkpt>
      <trkpt lat="48.72629" lon="2.53579">
        <ele>80</ele>
        <time>2017-09-05T13:03:14Z</time>
      </trkpt>
      <trkpt lat="48.72629" lon="2.53572">
        <ele>80</ele>
        <time>2017-09-05T13:03:14Z</time>
      </trkpt>
      <trkpt lat="48.72628" lon="2.53563">
        <ele>80</ele>
        <time>2017-09-05T13:03:30Z</time>
      </trkpt>
      <trkpt lat="48.72628" lon="2.53557">
        <ele>80</ele>
        <time>2017-09-05T13:03:30Z</time>
      </trkpt>
      <trkpt lat="48.72628" lon="2.53549">
        <ele>80</ele>
        <time>2017-09-05T13:03:30Z</time>
      </trkpt>
      <trkpt lat="48.72629" lon="2.53538">
        <ele>83</ele>
        <time>2017-09-05T13:03:30Z</time>
      </trkpt>
      <trkpt lat="48.72631" lon="2.53531">
        <ele>83</ele>
        <time>2017-09-05T13:03:46Z</time>
      </trkpt>
      <trkpt lat="48.72632" lon="2.53522">
        <ele>83</ele>
        <time>2017-09-05T13:03:46Z</time>
      </trkpt>
      <trkpt lat="48.72633" lon="2.53515">
        <ele>83</ele>
        <time>2017-09-05T13:03:46Z</time>
      </trkpt>
      <trkpt lat="48.72634" lon="2.53511">
        <ele>83</ele>
        <time>2017-09-05T13:03:46Z</time>
      </trkpt>
      <trkpt lat="48.72634" lon="2.53505">
        <ele>83</ele>
        <time>2017-09-05T13:04:02Z</time>
      </trkpt>
      <trkpt lat="48.72634" lon="2.53496">
        <ele>83</ele>
        <time>2017-09-05T13:04:02Z</time>
      </trkpt>
      <trkpt lat="48.72633" lon="2.53486">
        <ele>83</ele>
        <time>2017-09-05T13:04:02Z</time>
      </trkpt>
      <trkpt lat="48.72632" lon="2.53477">
        <ele>83</ele>
        <time>2017-09-05T13:04:02Z</time>
      </trkpt>
      <trkpt lat="48.72632" lon="2.53469">
        <ele>83</ele>
        <time>2017-09-05T13:04:18Z</time>
      </trkpt>
      <trkpt lat="48.72632" lon="2.53461">
        <ele>83</ele>
        <time>2017-09-05T13:04:18Z</time>
      </trkpt>
      <trkpt lat="48.72631" lon="2.53452">
        <ele>85</ele>
        <time>2017-09-05T13:04:18Z</time>
      </trkpt>
      <trkpt lat="48.72631" lon="2.53444">
        <ele>85</ele>
        <time>2017-09-05T13:04:18Z</time>
      </trkpt>
      <trkpt lat="48.7263" lon="2.53435">
        <ele>85</ele>
        <time>2017-09-05T13:04:34Z</time>
      </trkpt>
      <trkpt lat="48.7263" lon="2.53426">
        <ele>85</ele>
        <time>2017-09-05T13:04:34Z</time>
      </trkpt>
      <trkpt lat="48.7263" lon="2.53416">
        <ele>85</ele>
        <time>2017-09-05T13:04:34Z</time>
      </trkpt>
      <trkpt lat="48.7263" lon="2.53405">
        <ele>85</ele>
        <time>2017-09-05T13:04:34Z</time>
      </trkpt>
      <trkpt lat="48.7263" lon="2.53395">
        <ele>85</ele>
        <time>2017-09-05T13:04:50Z</time>
      </trkpt>
      <trkpt lat="48.72631" lon="2.53386">
        <ele>85</ele>
        <time>2017-09-05T13:04:50Z</time>
      </trkpt>
      <trkpt lat="48.72631" lon="2.53376">
        <ele>85</ele>
        <time>2017-09-05T13:04:50Z</time>
      </trkpt>
      <trkpt lat="48.72631" lon="2.53367">
        <ele>88</ele>
        <time>2017-09-05T13:04:50Z</time>
      </trkpt>
      <trkpt lat="48.72631" lon="2.53361">
        <ele>88</ele>
        <time>2017-09-05T13:05:06Z</time>
      </trkpt>
      <trkpt lat="48.7263" lon="2.53353">
        <ele>88</ele>
        <time>2017-09-05T13:05:06Z</time>
      </trkpt>
      <trkpt lat="48.72629" lon="2.53344">
        <ele>88</ele>
        <time>2017-09-05T13:05:06Z</time>
      </trkpt>
      <trkpt lat="48.7263" lon="2.53334">
        <ele>88</ele>
        <time>2017-09-05T13:05:06Z</time>
      </trkpt>
      <trkpt lat="48.72629" lon="2.53328">
        <ele>88</ele>
        <time>2017-09-05T13:05:22Z</time>
      </trkpt>
      <trkpt lat="48.72629" lon="2.53318">
        <ele>88</ele>
        <time>2017-09-05T13:05:22Z</time>
      </trkpt>
      <trkpt lat="48.72628" lon="2.53306">
        <ele>88</ele>
        <time>2017-09-05T13:05:22Z</time>
      </trkpt>
      <trkpt lat="48.72627" lon="2.53294">
        <ele>88</ele>
        <time>2017-09-05T13:05:22Z</time>
      </trkpt>
      <trkpt lat="48.72626" lon="2.53284">
        <ele>88</ele>
        <time>2017-09-05T13:05:38Z</time>
      </trkpt>
      <trkpt lat="48.72627" lon="2.53277">
        <ele>88</ele>
        <time>2017-09-05T13:05:38Z</time>
      </trkpt>
      <trkpt lat="48.72626" lon="2.53269">
        <ele>88</ele>
        <time>2017-09-05T13:05:38Z</time>
      </trkpt>
      <trkpt lat="48.72626" lon="2.53262">
        <ele>88</ele>
        <time>2017-09-05T13:05:38Z</time>
      </trkpt>
      <trkpt lat="48.72627" lon="2.53256">
        <ele>88</ele>
        <time>2017-09-05T13:05:54Z</time>
      </trkpt>
      <trkpt lat="48.72628" lon="2.53248">
        <ele>88</ele>
        <time>2017-09-05T13:05:54Z</time>
      </trkpt>
      <trkpt lat="48.72629" lon="2.53238">
        <ele>88</ele>
        <time>2017-09-05T13:05:54Z</time>
      </trkpt>
      <trkpt lat="48.7263" lon="2.5323">
        <ele>88</ele>
        <time>2017-09-05T13:05:54Z</time>
      </trkpt>
      <trkpt lat="48.72632" lon="2.53223">
        <ele>88</ele>
        <time>2017-09-05T13:06:10Z</time>
      </trkpt>
      <trkpt lat="48.72632" lon="2.53215">
        <ele>88</ele>
        <time>2017-09-05T13:06:10Z</time>
      </trkpt>
      <trkpt lat="48.72632" lon="2.53207">
        <ele>88</ele>
        <time>2017-09-05T13:06:10Z</time>
      </trkpt>
      <trkpt lat="48.72633" lon="2.532">
        <ele>88</ele>
        <time>2017-09-05T13:06:10Z</time>
      </trkpt>
      <trkpt lat="48.72631" lon="2.53193">
        <ele>88</ele>
        <time>2017-09-05T13:06:26Z</time>
      </trkpt>
      <trkpt lat="48.72625" lon="2.53186">
        <ele>89</ele>
        <time>2017-09-05T13:06:26Z</time>
      </trkpt>
      <trkpt lat="48.72621" lon="2.53179">
        <ele>89</ele>
        <time>2017-09-05T13:06:26Z</time>
      </trkpt>
      <trkpt lat="48.72618" lon="2.53174">
        <ele>89</ele>
        <time>2017-09-05T13:06:26Z</time>
      </trkpt>
      <trkpt lat="48.72617" lon="2.53172">
        <ele>89</ele>
        <time>2017-09-05T13:06:46Z</time>
      </trkpt>
      <trkpt lat="48.72615" lon="2.5317">
        <ele>89</ele>
        <time>2017-09-05T13:06:46Z</time>
      </trkpt>
      <trkpt lat="48.72613" lon="2.53167">
        <ele>89</ele>
        <time>2017-09-05T13:06:46Z</time>
      </trkpt>
      <trkpt lat="48.72611" lon="2.53164">
        <ele>89</ele>
        <time>2017-09-05T13:06:46Z</time>
      </trkpt>
      <trkpt lat="48.72609" lon="2.53159">
        <ele>89</ele>
        <time>2017-09-05T13:06:46Z</time>
      </trkpt>
      <trkpt lat="48.7261" lon="2.53154">
        <ele>89</ele>
        <time>2017-09-05T13:07:02Z</time>
      </trkpt>
      <trkpt lat="48.72614" lon="2.53148">
        <ele>89</ele>
        <time>2017-09-05T13:07:02Z</time>
      </trkpt>
      <trkpt lat="48.72618" lon="2.53143">
        <ele>89</ele>
        <time>2017-09-05T13:07:02Z</time>
      </trkpt>
      <trkpt lat="48.7262" lon="2.53139">
        <ele>89</ele>
        <time>2017-09-05T13:07:02Z</time>
      </trkpt>
      <trkpt lat="48.7262" lon="2.53134">
        <ele>89</ele>
        <time>2017-09-05T13:07:22Z</time>
      </trkpt>
      <trkpt lat="48.72621" lon="2.53135">
        <ele>89</ele>
        <time>2017-09-05T13:07:22Z</time>
      </trkpt>
      <trkpt lat="48.72621" lon="2.53129">
        <ele>89</ele>
        <time>2017-09-05T13:07:22Z</time>
      </trkpt>
      <trkpt lat="48.72624" lon="2.53122">
        <ele>90</ele>
        <time>2017-09-05T13:07:22Z</time>
      </trkpt>
      <trkpt lat="48.72628" lon="2.53116">
        <ele>89</ele>
        <time>2017-09-05T13:07:22Z</time>
      </trkpt>
      <trkpt lat="48.72632" lon="2.53105">
        <ele>89</ele>
        <time>2017-09-05T13:07:46Z</time>
      </trkpt>
      <trkpt lat="48.72633" lon="2.53103">
        <ele>89</ele>
        <time>2017-09-05T13:07:46Z</time>
      </trkpt>
      <trkpt lat="48.72635" lon="2.531">
        <ele>89</ele>
        <time>2017-09-05T13:07:46Z</time>
      </trkpt>
      <trkpt lat="48.72637" lon="2.53099">
        <ele>89</ele>
        <time>2017-09-05T13:07:46Z</time>
      </trkpt>
      <trkpt lat="48.72641" lon="2.53094">
        <ele>89</ele>
        <time>2017-09-05T13:07:46Z</time>
      </trkpt>
      <trkpt lat="48.72644" lon="2.53089">
        <ele>89</ele>
        <time>2017-09-05T13:08:02Z</time>
      </trkpt>
      <trkpt lat="48.72646" lon="2.53082">
        <ele>89</ele>
        <time>2017-09-05T13:08:02Z</time>
      </trkpt>
      <trkpt lat="48.72649" lon="2.53073">
        <ele>89</ele>
        <time>2017-09-05T13:08:02Z</time>
      </trkpt>
      <trkpt lat="48.7265" lon="2.53065">
        <ele>89</ele>
        <time>2017-09-05T13:08:02Z</time>
      </trkpt>
      <trkpt lat="48.72651" lon="2.53056">
        <ele>89</ele>
        <time>2017-09-05T13:08:18Z</time>
      </trkpt>
      <trkpt lat="48.72652" lon="2.53047">
        <ele>89</ele>
        <time>2017-09-05T13:08:18Z</time>
      </trkpt>
      <trkpt lat="48.72653" lon="2.53037">
        <ele>90</ele>
        <time>2017-09-05T13:08:18Z</time>
      </trkpt>
      <trkpt lat="48.72654" lon="2.5303">
        <ele>90</ele>
        <time>2017-09-05T13:08:18Z</time>
      </trkpt>
      <trkpt lat="48.72655" lon="2.53022">
        <ele>90</ele>
        <time>2017-09-05T13:08:34Z</time>
      </trkpt>
      <trkpt lat="48.72657" lon="2.53013">
        <ele>90</ele>
        <time>2017-09-05T13:08:34Z</time>
      </trkpt>
      <trkpt lat="48.72659" lon="2.53005">
        <ele>90</ele>
        <time>2017-09-05T13:08:34Z</time>
      </trkpt>
      <trkpt lat="48.72661" lon="2.52999">
        <ele>90</ele>
        <time>2017-09-05T13:08:34Z</time>
      </trkpt>
      <trkpt lat="48.72663" lon="2.52993">
        <ele>90</ele>
        <time>2017-09-05T13:08:50Z</time>
      </trkpt>
      <trkpt lat="48.72665" lon="2.52986">
        <ele>90</ele>
        <time>2017-09-05T13:08:50Z</time>
      </trkpt>
      <trkpt lat="48.72666" lon="2.52977">
        <ele>90</ele>
        <time>2017-09-05T13:08:50Z</time>
      </trkpt>
      <trkpt lat="48.72667" lon="2.52969">
        <ele>90</ele>
        <time>2017-09-05T13:08:50Z</time>
      </trkpt>
      <trkpt lat="48.72669" lon="2.52962">
        <ele>90</ele>
        <time>2017-09-05T13:09:06Z</time>
      </trkpt>
      <trkpt lat="48.72672" lon="2.52955">
        <ele>90</ele>
        <time>2017-09-05T13:09:06Z</time>
      </trkpt>
      <trkpt lat="48.72675" lon="2.52948">
        <ele>90</ele>
        <time>2017-09-05T13:09:06Z</time>
      </trkpt>
      <trkpt lat="48.72676" lon="2.52942">
        <ele>90</ele>
        <time>2017-09-05T13:09:06Z</time>
      </trkpt>
      <trkpt lat="48.72679" lon="2.52935">
        <ele>90</ele>
        <time>2017-09-05T13:09:22Z</time>
      </trkpt>
      <trkpt lat="48.7268" lon="2.52929">
        <ele>90</ele>
        <time>2017-09-05T13:09:22Z</time>
      </trkpt>
      <trkpt lat="48.72682" lon="2.52922">
        <ele>90</ele>
        <time>2017-09-05T13:09:22Z</time>
      </trkpt>
      <trkpt lat="48.72684" lon="2.52915">
        <ele>90</ele>
        <time>2017-09-05T13:09:22Z</time>
      </trkpt>
      <trkpt lat="48.72686" lon="2.52908">
        <ele>90</ele>
        <time>2017-09-05T13:09:38Z</time>
      </trkpt>
      <trkpt lat="48.72689" lon="2.529">
        <ele>90</ele>
        <time>2017-09-05T13:09:38Z</time>
      </trkpt>
      <trkpt lat="48.72691" lon="2.52891">
        <ele>90</ele>
        <time>2017-09-05T13:09:38Z</time>
      </trkpt>
      <trkpt lat="48.72693" lon="2.52883">
        <ele>90</ele>
        <time>2017-09-05T13:09:38Z</time>
      </trkpt>
      <trkpt lat="48.72695" lon="2.52875">
        <ele>90</ele>
        <time>2017-09-05T13:09:54Z</time>
      </trkpt>
      <trkpt lat="48.72697" lon="2.52867">
        <ele>92</ele>
        <time>2017-09-05T13:09:54Z</time>
      </trkpt>
      <trkpt lat="48.72699" lon="2.52859">
        <ele>92</ele>
        <time>2017-09-05T13:09:54Z</time>
      </trkpt>
      <trkpt lat="48.72701" lon="2.52852">
        <ele>92</ele>
        <time>2017-09-05T13:09:54Z</time>
      </trkpt>
      <trkpt lat="48.72705" lon="2.52846">
        <ele>92</ele>
        <time>2017-09-05T13:10:10Z</time>
      </trkpt>
      <trkpt lat="48.72709" lon="2.52842">
        <ele>93</ele>
        <time>2017-09-05T13:10:10Z</time>
      </trkpt>
      <trkpt lat="48.72711" lon="2.52835">
        <ele>93</ele>
        <time>2017-09-05T13:10:10Z</time>
      </trkpt>
      <trkpt lat="48.72714" lon="2.52828">
        <ele>93</ele>
        <time>2017-09-05T13:10:10Z</time>
      </trkpt>
      <trkpt lat="48.72717" lon="2.52821">
        <ele>93</ele>
        <time>2017-09-05T13:10:26Z</time>
      </trkpt>
      <trkpt lat="48.72717" lon="2.52812">
        <ele>93</ele>
        <time>2017-09-05T13:10:26Z</time>
      </trkpt>
      <trkpt lat="48.7272" lon="2.52805">
        <ele>93</ele>
        <time>2017-09-05T13:10:26Z</time>
      </trkpt>
      <trkpt lat="48.72724" lon="2.52802">
        <ele>93</ele>
        <time>2017-09-05T13:10:26Z</time>
      </trkpt>
      <trkpt lat="48.72729" lon="2.52798">
        <ele>93</ele>
        <time>2017-09-05T13:10:42Z</time>
      </trkpt>
      <trkpt lat="48.72733" lon="2.52791">
        <ele>95</ele>
        <time>2017-09-05T13:10:42Z</time>
      </trkpt>
      <trkpt lat="48.72734" lon="2.52785">
        <ele>95</ele>
        <time>2017-09-05T13:10:42Z</time>
      </trkpt>
      <trkpt lat="48.72736" lon="2.52778">
        <ele>95</ele>
        <time>2017-09-05T13:10:42Z</time>
      </trkpt>
      <trkpt lat="48.7274" lon="2.52773">
        <ele>95</ele>
        <time>2017-09-05T13:10:58Z</time>
      </trkpt>
      <trkpt lat="48.72744" lon="2.52766">
        <ele>95</ele>
        <time>2017-09-05T13:10:58Z</time>
      </trkpt>
      <trkpt lat="48.72745" lon="2.52758">
        <ele>95</ele>
        <time>2017-09-05T13:10:58Z</time>
      </trkpt>
      <trkpt lat="48.7275" lon="2.52753">
        <ele>95</ele>
        <time>2017-09-05T13:10:58Z</time>
      </trkpt>
      <trkpt lat="48.72753" lon="2.52749">
        <ele>95</ele>
        <time>2017-09-05T13:11:14Z</time>
      </trkpt>
      <trkpt lat="48.72756" lon="2.52744">
        <ele>95</ele>
        <time>2017-09-05T13:11:14Z</time>
      </trkpt>
      <trkpt lat="48.72756" lon="2.52736">
        <ele>95</ele>
        <time>2017-09-05T13:11:14Z</time>
      </trkpt>
      <trkpt lat="48.7276" lon="2.52728">
        <ele>95</ele>
        <time>2017-09-05T13:11:14Z</time>
      </trkpt>
      <trkpt lat="48.72763" lon="2.5272">
        <ele>95</ele>
        <time>2017-09-05T13:11:30Z</time>
      </trkpt>
      <trkpt lat="48.72765" lon="2.52714">
        <ele>95</ele>
        <time>2017-09-05T13:11:30Z</time>
      </trkpt>
      <trkpt lat="48.72768" lon="2.52707">
        <ele>95</ele>
        <time>2017-09-05T13:11:30Z</time>
      </trkpt>
      <trkpt lat="48.72771" lon="2.527">
        <ele>95</ele>
        <time>2017-09-05T13:11:30Z</time>
      </trkpt>
      <trkpt lat="48.72775" lon="2.52696">
        <ele>95</ele>
        <time>2017-09-05T13:11:46Z</time>
      </trkpt>
      <trkpt lat="48.72777" lon="2.52689">
        <ele>95</ele>
        <time>2017-09-05T13:11:46Z</time>
      </trkpt>
      <trkpt lat="48.72781" lon="2.52686">
        <ele>95</ele>
        <time>2017-09-05T13:11:46Z</time>
      </trkpt>
      <trkpt lat="48.72782" lon="2.52686">
        <ele>95</ele>
        <time>2017-09-05T13:11:46Z</time>
      </trkpt>
      <trkpt lat="48.72785" lon="2.52685">
        <ele>95</ele>
        <time>2017-09-05T13:12:02Z</time>
      </trkpt>
      <trkpt lat="48.7279" lon="2.52686">
        <ele>95</ele>
        <time>2017-09-05T13:12:02Z</time>
      </trkpt>
      <trkpt lat="48.72791" lon="2.52676">
        <ele>95</ele>
        <time>2017-09-05T13:12:02Z</time>
      </trkpt>
      <trkpt lat="48.72791" lon="2.52669">
        <ele>95</ele>
        <time>2017-09-05T13:12:02Z</time>
      </trkpt>
      <trkpt lat="48.72791" lon="2.52663">
        <ele>95</ele>
        <time>2017-09-05T13:12:18Z</time>
      </trkpt>
      <trkpt lat="48.72793" lon="2.52657">
        <ele>92</ele>
        <time>2017-09-05T13:12:18Z</time>
      </trkpt>
      <trkpt lat="48.72796" lon="2.52648">
        <ele>92</ele>
        <time>2017-09-05T13:12:18Z</time>
      </trkpt>
      <trkpt lat="48.72798" lon="2.5264">
        <ele>92</ele>
        <time>2017-09-05T13:12:18Z</time>
      </trkpt>
      <trkpt lat="48.728" lon="2.5263">
        <ele>92</ele>
        <time>2017-09-05T13:12:34Z</time>
      </trkpt>
      <trkpt lat="48.72802" lon="2.52621">
        <ele>93</ele>
        <time>2017-09-05T13:12:34Z</time>
      </trkpt>
      <trkpt lat="48.72805" lon="2.52614">
        <ele>93</ele>
        <time>2017-09-05T13:12:34Z</time>
      </trkpt>
      <trkpt lat="48.72807" lon="2.52606">
        <ele>93</ele>
        <time>2017-09-05T13:12:34Z</time>
      </trkpt>
      <trkpt lat="48.7281" lon="2.526">
        <ele>93</ele>
        <time>2017-09-05T13:12:50Z</time>
      </trkpt>
      <trkpt lat="48.72812" lon="2.52592">
        <ele>93</ele>
        <time>2017-09-05T13:12:50Z</time>
      </trkpt>
      <trkpt lat="48.72815" lon="2.52585">
        <ele>93</ele>
        <time>2017-09-05T13:12:50Z</time>
      </trkpt>
      <trkpt lat="48.72818" lon="2.52578">
        <ele>93</ele>
        <time>2017-09-05T13:12:50Z</time>
      </trkpt>
      <trkpt lat="48.72819" lon="2.52572">
        <ele>93</ele>
        <time>2017-09-05T13:13:06Z</time>
      </trkpt>
      <trkpt lat="48.72821" lon="2.52566">
        <ele>93</ele>
        <time>2017-09-05T13:13:06Z</time>
      </trkpt>
      <trkpt lat="48.72825" lon="2.52559">
        <ele>93</ele>
        <time>2017-09-05T13:13:06Z</time>
      </trkpt>
      <trkpt lat="48.72827" lon="2.5255">
        <ele>93</ele>
        <time>2017-09-05T13:13:06Z</time>
      </trkpt>
      <trkpt lat="48.72828" lon="2.52542">
        <ele>93</ele>
        <time>2017-09-05T13:13:22Z</time>
      </trkpt>
      <trkpt lat="48.72829" lon="2.52532">
        <ele>94</ele>
        <time>2017-09-05T13:13:22Z</time>
      </trkpt>
      <trkpt lat="48.72831" lon="2.52525">
        <ele>94</ele>
        <time>2017-09-05T13:13:22Z</time>
      </trkpt>
      <trkpt lat="48.72833" lon="2.52517">
        <ele>94</ele>
        <time>2017-09-05T13:13:22Z</time>
      </trkpt>
      <trkpt lat="48.72835" lon="2.5251">
        <ele>94</ele>
        <time>2017-09-05T13:13:38Z</time>
      </trkpt>
      <trkpt lat="48.72838" lon="2.52502">
        <ele>94</ele>
        <time>2017-09-05T13:13:38Z</time>
      </trkpt>
      <trkpt lat="48.72841" lon="2.52494">
        <ele>94</ele>
        <time>2017-09-05T13:13:38Z</time>
      </trkpt>
      <trkpt lat="48.72842" lon="2.52487">
        <ele>94</ele>
        <time>2017-09-05T13:13:38Z</time>
      </trkpt>
      <trkpt lat="48.72844" lon="2.52479">
        <ele>94</ele>
        <time>2017-09-05T13:13:54Z</time>
      </trkpt>
      <trkpt lat="48.72845" lon="2.5247">
        <ele>94</ele>
        <time>2017-09-05T13:13:54Z</time>
      </trkpt>
      <trkpt lat="48.72847" lon="2.52463">
        <ele>94</ele>
        <time>2017-09-05T13:13:54Z</time>
      </trkpt>
      <trkpt lat="48.7285" lon="2.52455">
        <ele>96</ele>
        <time>2017-09-05T13:13:54Z</time>
      </trkpt>
      <trkpt lat="48.72853" lon="2.52448">
        <ele>96</ele>
        <time>2017-09-05T13:14:10Z</time>
      </trkpt>
      <trkpt lat="48.72856" lon="2.52441">
        <ele>96</ele>
        <time>2017-09-05T13:14:10Z</time>
      </trkpt>
      <trkpt lat="48.72859" lon="2.52434">
        <ele>96</ele>
        <time>2017-09-05T13:14:10Z</time>
      </trkpt>
      <trkpt lat="48.72861" lon="2.52426">
        <ele>96</ele>
        <time>2017-09-05T13:14:10Z</time>
      </trkpt>
      <trkpt lat="48.72865" lon="2.52419">
        <ele>96</ele>
        <time>2017-09-05T13:14:26Z</time>
      </trkpt>
      <trkpt lat="48.72869" lon="2.52412">
        <ele>96</ele>
        <time>2017-09-05T13:14:26Z</time>
      </trkpt>
      <trkpt lat="48.72872" lon="2.52404">
        <ele>96</ele>
        <time>2017-09-05T13:14:26Z</time>
      </trkpt>
      <trkpt lat="48.72873" lon="2.52396">
        <ele>96</ele>
        <time>2017-09-05T13:14:26Z</time>
      </trkpt>
      <trkpt lat="48.72876" lon="2.5239">
        <ele>95</ele>
        <time>2017-09-05T13:14:42Z</time>
      </trkpt>
      <trkpt lat="48.72881" lon="2.52384">
        <ele>95</ele>
        <time>2017-09-05T13:14:42Z</time>
      </trkpt>
      <trkpt lat="48.72884" lon="2.52377">
        <ele>95</ele>
        <time>2017-09-05T13:14:42Z</time>
      </trkpt>
      <trkpt lat="48.72887" lon="2.5237">
        <ele>96</ele>
        <time>2017-09-05T13:14:42Z</time>
      </trkpt>
      <trkpt lat="48.72889" lon="2.52364">
        <ele>96</ele>
        <time>2017-09-05T13:14:58Z</time>
      </trkpt>
      <trkpt lat="48.72891" lon="2.52355">
        <ele>96</ele>
        <time>2017-09-05T13:14:58Z</time>
      </trkpt>
      <trkpt lat="48.72894" lon="2.52348">
        <ele>96</ele>
        <time>2017-09-05T13:14:58Z</time>
      </trkpt>
      <trkpt lat="48.72896" lon="2.52341">
        <ele>96</ele>
        <time>2017-09-05T13:14:58Z</time>
      </trkpt>
      <trkpt lat="48.72898" lon="2.52333">
        <ele>96</ele>
        <time>2017-09-05T13:15:14Z</time>
      </trkpt>
      <trkpt lat="48.72899" lon="2.52325">
        <ele>96</ele>
        <time>2017-09-05T13:15:14Z</time>
      </trkpt>
      <trkpt lat="48.72901" lon="2.52317">
        <ele>96</ele>
        <time>2017-09-05T13:15:14Z</time>
      </trkpt>
      <trkpt lat="48.72903" lon="2.52308">
        <ele>96</ele>
        <time>2017-09-05T13:15:14Z</time>
      </trkpt>
      <trkpt lat="48.72906" lon="2.52302">
        <ele>96</ele>
        <time>2017-09-05T13:15:30Z</time>
      </trkpt>
      <trkpt lat="48.72908" lon="2.52295">
        <ele>96</ele>
        <time>2017-09-05T13:15:30Z</time>
      </trkpt>
      <trkpt lat="48.7291" lon="2.52286">
        <ele>97</ele>
        <time>2017-09-05T13:15:30Z</time>
      </trkpt>
      <trkpt lat="48.72912" lon="2.52278">
        <ele>97</ele>
        <time>2017-09-05T13:15:30Z</time>
      </trkpt>
      <trkpt lat="48.72916" lon="2.52271">
        <ele>97</ele>
        <time>2017-09-05T13:15:46Z</time>
      </trkpt>
      <trkpt lat="48.7292" lon="2.52264">
        <ele>97</ele>
        <time>2017-09-05T13:15:46Z</time>
      </trkpt>
      <trkpt lat="48.72925" lon="2.52257">
        <ele>97</ele>
        <time>2017-09-05T13:15:46Z</time>
      </trkpt>
      <trkpt lat="48.72929" lon="2.5225">
        <ele>97</ele>
        <time>2017-09-05T13:15:46Z</time>
      </trkpt>
      <trkpt lat="48.72933" lon="2.52243">
        <ele>97</ele>
        <time>2017-09-05T13:16:02Z</time>
      </trkpt>
      <trkpt lat="48.72936" lon="2.52235">
        <ele>97</ele>
        <time>2017-09-05T13:16:02Z</time>
      </trkpt>
      <trkpt lat="48.7294" lon="2.52229">
        <ele>97</ele>
        <time>2017-09-05T13:16:02Z</time>
      </trkpt>
      <trkpt lat="48.72944" lon="2.52222">
        <ele>97</ele>
        <time>2017-09-05T13:16:02Z</time>
      </trkpt>
      <trkpt lat="48.72947" lon="2.52214">
        <ele>97</ele>
        <time>2017-09-05T13:16:18Z</time>
      </trkpt>
      <trkpt lat="48.7295" lon="2.52208">
        <ele>98</ele>
        <time>2017-09-05T13:16:18Z</time>
      </trkpt>
      <trkpt lat="48.72954" lon="2.52205">
        <ele>98</ele>
        <time>2017-09-05T13:16:18Z</time>
      </trkpt>
      <trkpt lat="48.72955" lon="2.52199">
        <ele>98</ele>
        <time>2017-09-05T13:16:18Z</time>
      </trkpt>
      <trkpt lat="48.72956" lon="2.52191">
        <ele>98</ele>
        <time>2017-09-05T13:16:34Z</time>
      </trkpt>
      <trkpt lat="48.7296" lon="2.52182">
        <ele>91</ele>
        <time>2017-09-05T13:16:34Z</time>
      </trkpt>
      <trkpt lat="48.72963" lon="2.52174">
        <ele>91</ele>
        <time>2017-09-05T13:16:34Z</time>
      </trkpt>
      <trkpt lat="48.72966" lon="2.52167">
        <ele>91</ele>
        <time>2017-09-05T13:16:34Z</time>
      </trkpt>
      <trkpt lat="48.7297" lon="2.5216">
        <ele>91</ele>
        <time>2017-09-05T13:16:50Z</time>
      </trkpt>
      <trkpt lat="48.72975" lon="2.52155">
        <ele>91</ele>
        <time>2017-09-05T13:16:50Z</time>
      </trkpt>
      <trkpt lat="48.72979" lon="2.5215">
        <ele>91</ele>
        <time>2017-09-05T13:16:50Z</time>
      </trkpt>
      <trkpt lat="48.72982" lon="2.52145">
        <ele>91</ele>
        <time>2017-09-05T13:16:50Z</time>
      </trkpt>
      <trkpt lat="48.72986" lon="2.5214">
        <ele>91</ele>
        <time>2017-09-05T13:17:06Z</time>
      </trkpt>
      <trkpt lat="48.72989" lon="2.52134">
        <ele>91</ele>
        <time>2017-09-05T13:17:06Z</time>
      </trkpt>
      <trkpt lat="48.72992" lon="2.52128">
        <ele>91</ele>
        <time>2017-09-05T13:17:06Z</time>
      </trkpt>
      <trkpt lat="48.72995" lon="2.52123">
        <ele>93</ele>
        <time>2017-09-05T13:17:06Z</time>
      </trkpt>
      <trkpt lat="48.72998" lon="2.52116">
        <ele>93</ele>
        <time>2017-09-05T13:17:22Z</time>
      </trkpt>
      <trkpt lat="48.73001" lon="2.52109">
        <ele>93</ele>
        <time>2017-09-05T13:17:22Z</time>
      </trkpt>
      <trkpt lat="48.73004" lon="2.52103">
        <ele>93</ele>
        <time>2017-09-05T13:17:22Z</time>
      </trkpt>
      <trkpt lat="48.73007" lon="2.52097">
        <ele>93</ele>
        <time>2017-09-05T13:17:22Z</time>
      </trkpt>
      <trkpt lat="48.73014" lon="2.52081">
        <ele>93</ele>
        <time>2017-09-05T13:18:10Z</time>
      </trkpt>
      <trkpt lat="48.73012" lon="2.52079">
        <ele>93</ele>
        <time>2017-09-05T13:18:10Z</time>
      </trkpt>
      <trkpt lat="48.73015" lon="2.52074">
        <ele>93</ele>
        <time>2017-09-05T13:18:10Z</time>
      </trkpt>
      <trkpt lat="48.73018" lon="2.52068">
        <ele>93</ele>
        <time>2017-09-05T13:18:10Z</time>
      </trkpt>
      <trkpt lat="48.73019" lon="2.52064">
        <ele>93</ele>
        <time>2017-09-05T13:18:10Z</time>
      </trkpt>
      <trkpt lat="48.73021" lon="2.52061">
        <ele>93</ele>
        <time>2017-09-05T13:18:26Z</time>
      </trkpt>
      <trkpt lat="48.73023" lon="2.52055">
        <ele>93</ele>
        <time>2017-09-05T13:18:26Z</time>
      </trkpt>
      <trkpt lat="48.73025" lon="2.52048">
        <ele>93</ele>
        <time>2017-09-05T13:18:26Z</time>
      </trkpt>
      <trkpt lat="48.7303" lon="2.52043">
        <ele>93</ele>
        <time>2017-09-05T13:18:26Z</time>
      </trkpt>
      <trkpt lat="48.73034" lon="2.52035">
        <ele>96</ele>
        <time>2017-09-05T13:18:42Z</time>
      </trkpt>
      <trkpt lat="48.73035" lon="2.52027">
        <ele>96</ele>
        <time>2017-09-05T13:18:42Z</time>
      </trkpt>
      <trkpt lat="48.73039" lon="2.5202">
        <ele>96</ele>
        <time>2017-09-05T13:18:42Z</time>
      </trkpt>
      <trkpt lat="48.73041" lon="2.52012">
        <ele>96</ele>
        <time>2017-09-05T13:18:42Z</time>
      </trkpt>
      <trkpt lat="48.73043" lon="2.52004">
        <ele>96</ele>
        <time>2017-09-05T13:18:58Z</time>
      </trkpt>
      <trkpt lat="48.73044" lon="2.51996">
        <ele>96</ele>
        <time>2017-09-05T13:18:58Z</time>
      </trkpt>
      <trkpt lat="48.73046" lon="2.51988">
        <ele>96</ele>
        <time>2017-09-05T13:18:58Z</time>
      </trkpt>
      <trkpt lat="48.73048" lon="2.5198">
        <ele>96</ele>
        <time>2017-09-05T13:18:58Z</time>
      </trkpt>
      <trkpt lat="48.73051" lon="2.51972">
        <ele>96</ele>
        <time>2017-09-05T13:19:14Z</time>
      </trkpt>
      <trkpt lat="48.73053" lon="2.51965">
        <ele>96</ele>
        <time>2017-09-05T13:19:14Z</time>
      </trkpt>
      <trkpt lat="48.73056" lon="2.51958">
        <ele>97</ele>
        <time>2017-09-05T13:19:14Z</time>
      </trkpt>
      <trkpt lat="48.7306" lon="2.51952">
        <ele>97</ele>
        <time>2017-09-05T13:19:14Z</time>
      </trkpt>
      <trkpt lat="48.73063" lon="2.51945">
        <ele>97</ele>
        <time>2017-09-05T13:19:30Z</time>
      </trkpt>
      <trkpt lat="48.73066" lon="2.51938">
        <ele>97</ele>
        <time>2017-09-05T13:19:30Z</time>
      </trkpt>
      <trkpt lat="48.73067" lon="2.51931">
        <ele>97</ele>
        <time>2017-09-05T13:19:30Z</time>
      </trkpt>
      <trkpt lat="48.7307" lon="2.51924">
        <ele>97</ele>
        <time>2017-09-05T13:19:30Z</time>
      </trkpt>
      <trkpt lat="48.73071" lon="2.51918">
        <ele>97</ele>
        <time>2017-09-05T13:19:46Z</time>
      </trkpt>
      <trkpt lat="48.73072" lon="2.51909">
        <ele>97</ele>
        <time>2017-09-05T13:19:46Z</time>
      </trkpt>
      <trkpt lat="48.73074" lon="2.51901">
        <ele>97</ele>
        <time>2017-09-05T13:19:46Z</time>
      </trkpt>
      <trkpt lat="48.73076" lon="2.51893">
        <ele>97</ele>
        <time>2017-09-05T13:19:46Z</time>
      </trkpt>
      <trkpt lat="48.73079" lon="2.51887">
        <ele>97</ele>
        <time>2017-09-05T13:20:02Z</time>
      </trkpt>
      <trkpt lat="48.7308" lon="2.51881">
        <ele>97</ele>
        <time>2017-09-05T13:20:02Z</time>
      </trkpt>
      <trkpt lat="48.73081" lon="2.51873">
        <ele>96</ele>
        <time>2017-09-05T13:20:02Z</time>
      </trkpt>
      <trkpt lat="48.73085" lon="2.51866">
        <ele>96</ele>
        <time>2017-09-05T13:20:02Z</time>
      </trkpt>
      <trkpt lat="48.73089" lon="2.51861">
        <ele>96</ele>
        <time>2017-09-05T13:20:18Z</time>
      </trkpt>
      <trkpt lat="48.73093" lon="2.51855">
        <ele>96</ele>
        <time>2017-09-05T13:20:18Z</time>
      </trkpt>
      <trkpt lat="48.73095" lon="2.51847">
        <ele>96</ele>
        <time>2017-09-05T13:20:18Z</time>
      </trkpt>
      <trkpt lat="48.73097" lon="2.51838">
        <ele>96</ele>
        <time>2017-09-05T13:20:18Z</time>
      </trkpt>
      <trkpt lat="48.731" lon="2.51832">
        <ele>96</ele>
        <time>2017-09-05T13:20:34Z</time>
      </trkpt>
      <trkpt lat="48.73104" lon="2.51825">
        <ele>96</ele>
        <time>2017-09-05T13:20:34Z</time>
      </trkpt>
      <trkpt lat="48.73107" lon="2.5182">
        <ele>96</ele>
        <time>2017-09-05T13:20:34Z</time>
      </trkpt>
      <trkpt lat="48.73109" lon="2.51812">
        <ele>96</ele>
        <time>2017-09-05T13:20:34Z</time>
      </trkpt>
      <trkpt lat="48.73111" lon="2.51806">
        <ele>96</ele>
        <time>2017-09-05T13:20:50Z</time>
      </trkpt>
      <trkpt lat="48.73114" lon="2.51798">
        <ele>96</ele>
        <time>2017-09-05T13:20:50Z</time>
      </trkpt>
      <trkpt lat="48.73117" lon="2.51791">
        <ele>94</ele>
        <time>2017-09-05T13:20:50Z</time>
      </trkpt>
      <trkpt lat="48.73119" lon="2.51785">
        <ele>94</ele>
        <time>2017-09-05T13:20:50Z</time>
      </trkpt>
      <trkpt lat="48.73122" lon="2.51777">
        <ele>94</ele>
        <time>2017-09-05T13:21:06Z</time>
      </trkpt>
      <trkpt lat="48.73126" lon="2.51769">
        <ele>91</ele>
        <time>2017-09-05T13:21:06Z</time>
      </trkpt>
      <trkpt lat="48.7313" lon="2.51762">
        <ele>91</ele>
        <time>2017-09-05T13:21:06Z</time>
      </trkpt>
      <trkpt lat="48.73134" lon="2.51756">
        <ele>91</ele>
        <time>2017-09-05T13:21:06Z</time>
      </trkpt>
      <trkpt lat="48.73137" lon="2.51749">
        <ele>91</ele>
        <time>2017-09-05T13:21:22Z</time>
      </trkpt>
      <trkpt lat="48.7314" lon="2.51741">
        <ele>91</ele>
        <time>2017-09-05T13:21:22Z</time>
      </trkpt>
      <trkpt lat="48.73142" lon="2.51734">
        <ele>91</ele>
        <time>2017-09-05T13:21:22Z</time>
      </trkpt>
      <trkpt lat="48.73144" lon="2.51727">
        <ele>91</ele>
        <time>2017-09-05T13:21:22Z</time>
      </trkpt>
      <trkpt lat="48.73148" lon="2.5172">
        <ele>91</ele>
        <time>2017-09-05T13:21:38Z</time>
      </trkpt>
      <trkpt lat="48.73152" lon="2.51713">
        <ele>91</ele>
        <time>2017-09-05T13:21:38Z</time>
      </trkpt>
      <trkpt lat="48.73155" lon="2.51708">
        <ele>92</ele>
        <time>2017-09-05T13:21:38Z</time>
      </trkpt>
      <trkpt lat="48.73158" lon="2.51701">
        <ele>92</ele>
        <time>2017-09-05T13:21:38Z</time>
      </trkpt>
      <trkpt lat="48.73162" lon="2.51692">
        <ele>92</ele>
        <time>2017-09-05T13:21:54Z</time>
      </trkpt>
      <trkpt lat="48.73166" lon="2.51684">
        <ele>92</ele>
        <time>2017-09-05T13:21:54Z</time>
      </trkpt>
      <trkpt lat="48.73169" lon="2.51676">
        <ele>92</ele>
        <time>2017-09-05T13:21:54Z</time>
      </trkpt>
      <trkpt lat="48.73172" lon="2.5167">
        <ele>92</ele>
        <time>2017-09-05T13:21:54Z</time>
      </trkpt>
      <trkpt lat="48.73174" lon="2.51665">
        <ele>92</ele>
        <time>2017-09-05T13:22:10Z</time>
      </trkpt>
      <trkpt lat="48.73178" lon="2.5166">
        <ele>92</ele>
        <time>2017-09-05T13:22:10Z</time>
      </trkpt>
      <trkpt lat="48.73181" lon="2.51652">
        <ele>92</ele>
        <time>2017-09-05T13:22:10Z</time>
      </trkpt>
      <trkpt lat="48.73184" lon="2.51643">
        <ele>92</ele>
        <time>2017-09-05T13:22:10Z</time>
      </trkpt>
      <trkpt lat="48.73188" lon="2.51637">
        <ele>92</ele>
        <time>2017-09-05T13:22:26Z</time>
      </trkpt>
      <trkpt lat="48.73191" lon="2.51631">
        <ele>92</ele>
        <time>2017-09-05T13:22:26Z</time>
      </trkpt>
      <trkpt lat="48.7319" lon="2.51624">
        <ele>93</ele>
        <time>2017-09-05T13:22:26Z</time>
      </trkpt>
      <trkpt lat="48.73189" lon="2.5162">
        <ele>93</ele>
        <time>2017-09-05T13:22:26Z</time>
      </trkpt>
      <trkpt lat="48.73192" lon="2.51617">
        <ele>93</ele>
        <time>2017-09-05T13:22:42Z</time>
      </trkpt>
      <trkpt lat="48.73197" lon="2.5161">
        <ele>93</ele>
        <time>2017-09-05T13:22:42Z</time>
      </trkpt>
      <trkpt lat="48.73198" lon="2.51604">
        <ele>93</ele>
        <time>2017-09-05T13:22:42Z</time>
      </trkpt>
      <trkpt lat="48.73199" lon="2.51597">
        <ele>93</ele>
        <time>2017-09-05T13:22:42Z</time>
      </trkpt>
      <trkpt lat="48.732" lon="2.5159">
        <ele>93</ele>
        <time>2017-09-05T13:22:58Z</time>
      </trkpt>
      <trkpt lat="48.73203" lon="2.51584">
        <ele>93</ele>
        <time>2017-09-05T13:22:58Z</time>
      </trkpt>
      <trkpt lat="48.73205" lon="2.51576">
        <ele>93</ele>
        <time>2017-09-05T13:22:58Z</time>
      </trkpt>
      <trkpt lat="48.73207" lon="2.51569">
        <ele>93</ele>
        <time>2017-09-05T13:22:58Z</time>
      </trkpt>
      <trkpt lat="48.73209" lon="2.51562">
        <ele>93</ele>
        <time>2017-09-05T13:23:14Z</time>
      </trkpt>
      <trkpt lat="48.73212" lon="2.51557">
        <ele>93</ele>
        <time>2017-09-05T13:23:14Z</time>
      </trkpt>
      <trkpt lat="48.73213" lon="2.51549">
        <ele>93</ele>
        <time>2017-09-05T13:23:14Z</time>
      </trkpt>
      <trkpt lat="48.73216" lon="2.51543">
        <ele>93</ele>
        <time>2017-09-05T13:23:14Z</time>
      </trkpt>
      <trkpt lat="48.7322" lon="2.51537">
        <ele>92</ele>
        <time>2017-09-05T13:23:30Z</time>
      </trkpt>
      <trkpt lat="48.73222" lon="2.51529">
        <ele>92</ele>
        <time>2017-09-05T13:23:30Z</time>
      </trkpt>
      <trkpt lat="48.73224" lon="2.51521">
        <ele>92</ele>
        <time>2017-09-05T13:23:30Z</time>
      </trkpt>
      <trkpt lat="48.73228" lon="2.51513">
        <ele>92</ele>
        <time>2017-09-05T13:23:30Z</time>
      </trkpt>
      <trkpt lat="48.73231" lon="2.51506">
        <ele>92</ele>
        <time>2017-09-05T13:23:46Z</time>
      </trkpt>
      <trkpt lat="48.73235" lon="2.515">
        <ele>92</ele>
        <time>2017-09-05T13:23:46Z</time>
      </trkpt>
      <trkpt lat="48.73237" lon="2.51492">
        <ele>92</ele>
        <time>2017-09-05T13:23:46Z</time>
      </trkpt>
      <trkpt lat="48.73239" lon="2.51483">
        <ele>92</ele>
        <time>2017-09-05T13:23:46Z</time>
      </trkpt>
      <trkpt lat="48.73241" lon="2.51476">
        <ele>92</ele>
        <time>2017-09-05T13:24:02Z</time>
      </trkpt>
      <trkpt lat="48.73243" lon="2.5147">
        <ele>92</ele>
        <time>2017-09-05T13:24:02Z</time>
      </trkpt>
      <trkpt lat="48.73244" lon="2.51464">
        <ele>92</ele>
        <time>2017-09-05T13:24:02Z</time>
      </trkpt>
      <trkpt lat="48.73246" lon="2.51456">
        <ele>92</ele>
        <time>2017-09-05T13:24:02Z</time>
      </trkpt>
      <trkpt lat="48.73248" lon="2.51448">
        <ele>92</ele>
        <time>2017-09-05T13:24:18Z</time>
      </trkpt>
      <trkpt lat="48.7325" lon="2.51441">
        <ele>92</ele>
        <time>2017-09-05T13:24:18Z</time>
      </trkpt>
      <trkpt lat="48.73252" lon="2.51434">
        <ele>92</ele>
        <time>2017-09-05T13:24:18Z</time>
      </trkpt>
      <trkpt lat="48.73254" lon="2.51426">
        <ele>92</ele>
        <time>2017-09-05T13:24:18Z</time>
      </trkpt>
      <trkpt lat="48.73257" lon="2.5142">
        <ele>92</ele>
        <time>2017-09-05T13:24:34Z</time>
      </trkpt>
      <trkpt lat="48.7326" lon="2.51412">
        <ele>92</ele>
        <time>2017-09-05T13:24:34Z</time>
      </trkpt>
      <trkpt lat="48.73262" lon="2.51404">
        <ele>92</ele>
        <time>2017-09-05T13:24:34Z</time>
      </trkpt>
      <trkpt lat="48.73265" lon="2.51396">
        <ele>92</ele>
        <time>2017-09-05T13:24:34Z</time>
      </trkpt>
      <trkpt lat="48.73266" lon="2.51388">
        <ele>92</ele>
        <time>2017-09-05T13:24:50Z</time>
      </trkpt>
      <trkpt lat="48.73268" lon="2.5138">
        <ele>92</ele>
        <time>2017-09-05T13:24:50Z</time>
      </trkpt>
      <trkpt lat="48.7327" lon="2.51372">
        <ele>93</ele>
        <time>2017-09-05T13:24:50Z</time>
      </trkpt>
      <trkpt lat="48.73272" lon="2.51365">
        <ele>93</ele>
        <time>2017-09-05T13:24:50Z</time>
      </trkpt>
      <trkpt lat="48.73273" lon="2.51357">
        <ele>93</ele>
        <time>2017-09-05T13:25:06Z</time>
      </trkpt>
      <trkpt lat="48.73275" lon="2.51349">
        <ele>93</ele>
        <time>2017-09-05T13:25:06Z</time>
      </trkpt>
      <trkpt lat="48.73276" lon="2.51342">
        <ele>93</ele>
        <time>2017-09-05T13:25:06Z</time>
      </trkpt>
      <trkpt lat="48.73276" lon="2.51334">
        <ele>93</ele>
        <time>2017-09-05T13:25:06Z</time>
      </trkpt>
      <trkpt lat="48.73277" lon="2.51326">
        <ele>93</ele>
        <time>2017-09-05T13:25:22Z</time>
      </trkpt>
      <trkpt lat="48.73281" lon="2.51324">
        <ele>93</ele>
        <time>2017-09-05T13:25:22Z</time>
      </trkpt>
      <trkpt lat="48.73286" lon="2.5132">
        <ele>93</ele>
        <time>2017-09-05T13:25:22Z</time>
      </trkpt>
      <trkpt lat="48.7329" lon="2.51313">
        <ele>93</ele>
        <time>2017-09-05T13:25:22Z</time>
      </trkpt>
      <trkpt lat="48.73293" lon="2.51313">
        <ele>100</ele>
        <time>2017-09-05T13:25:50Z</time>
      </trkpt>
      <trkpt lat="48.73294" lon="2.51308">
        <ele>100</ele>
        <time>2017-09-05T13:25:50Z</time>
      </trkpt>
      <trkpt lat="48.73298" lon="2.51303">
        <ele>100</ele>
        <time>2017-09-05T13:25:50Z</time>
      </trkpt>
      <trkpt lat="48.733" lon="2.51294">
        <ele>100</ele>
        <time>2017-09-05T13:25:50Z</time>
      </trkpt>
      <trkpt lat="48.73303" lon="2.51287">
        <ele>99</ele>
        <time>2017-09-05T13:25:50Z</time>
      </trkpt>
      <trkpt lat="48.73306" lon="2.51277">
        <ele>99</ele>
        <time>2017-09-05T13:26:06Z</time>
      </trkpt>
      <trkpt lat="48.73307" lon="2.51272">
        <ele>99</ele>
        <time>2017-09-05T13:26:06Z</time>
      </trkpt>
      <trkpt lat="48.73308" lon="2.5127">
        <ele>99</ele>
        <time>2017-09-05T13:26:06Z</time>
      </trkpt>
      <trkpt lat="48.73313" lon="2.51267">
        <ele>99</ele>
        <time>2017-09-05T13:26:06Z</time>
      </trkpt>
      <trkpt lat="48.73317" lon="2.51265">
        <ele>99</ele>
        <time>2017-09-05T13:26:22Z</time>
      </trkpt>
      <trkpt lat="48.73321" lon="2.51263">
        <ele>99</ele>
        <time>2017-09-05T13:26:22Z</time>
      </trkpt>
      <trkpt lat="48.73327" lon="2.51261">
        <ele>99</ele>
        <time>2017-09-05T13:26:22Z</time>
      </trkpt>
      <trkpt lat="48.73331" lon="2.51261">
        <ele>99</ele>
        <time>2017-09-05T13:26:22Z</time>
      </trkpt>
      <trkpt lat="48.73339" lon="2.51253">
        <ele>99</ele>
        <time>2017-09-05T13:26:38Z</time>
      </trkpt>
      <trkpt lat="48.73342" lon="2.51247">
        <ele>99</ele>
        <time>2017-09-05T13:26:38Z</time>
      </trkpt>
      <trkpt lat="48.73349" lon="2.51244">
        <ele>99</ele>
        <time>2017-09-05T13:26:38Z</time>
      </trkpt>
      <trkpt lat="48.73352" lon="2.5124">
        <ele>99</ele>
        <time>2017-09-05T13:26:38Z</time>
      </trkpt>
      <trkpt lat="48.73356" lon="2.51239">
        <ele>99</ele>
        <time>2017-09-05T13:26:58Z</time>
      </trkpt>
      <trkpt lat="48.7336" lon="2.51239">
        <ele>99</ele>
        <time>2017-09-05T13:26:58Z</time>
      </trkpt>
      <trkpt lat="48.73363" lon="2.51237">
        <ele>99</ele>
        <time>2017-09-05T13:26:58Z</time>
      </trkpt>
      <trkpt lat="48.73364" lon="2.51233">
        <ele>99</ele>
        <time>2017-09-05T13:26:58Z</time>
      </trkpt>
      <trkpt lat="48.73365" lon="2.51231">
        <ele>99</ele>
        <time>2017-09-05T13:26:58Z</time>
      </trkpt>
      <trkpt lat="48.73367" lon="2.51229">
        <ele>99</ele>
        <time>2017-09-05T13:27:14Z</time>
      </trkpt>
      <trkpt lat="48.7337" lon="2.5123">
        <ele>99</ele>
        <time>2017-09-05T13:27:14Z</time>
      </trkpt>
      <trkpt lat="48.73376" lon="2.51232">
        <ele>101</ele>
        <time>2017-09-05T13:27:14Z</time>
      </trkpt>
      <trkpt lat="48.73378" lon="2.51229">
        <ele>101</ele>
        <time>2017-09-05T13:27:14Z</time>
      </trkpt>
      <trkpt lat="48.7338" lon="2.51228">
        <ele>101</ele>
        <time>2017-09-05T13:27:30Z</time>
      </trkpt>
      <trkpt lat="48.73384" lon="2.51227">
        <ele>101</ele>
        <time>2017-09-05T13:27:30Z</time>
      </trkpt>
      <trkpt lat="48.73385" lon="2.51229">
        <ele>101</ele>
        <time>2017-09-05T13:27:30Z</time>
      </trkpt>
      <trkpt lat="48.73389" lon="2.51223">
        <ele>101</ele>
        <time>2017-09-05T13:27:30Z</time>
      </trkpt>
      <trkpt lat="48.73394" lon="2.51215">
        <ele>101</ele>
        <time>2017-09-05T13:27:46Z</time>
      </trkpt>
      <trkpt lat="48.73403" lon="2.51211">
        <ele>101</ele>
        <time>2017-09-05T13:27:46Z</time>
      </trkpt>
      <trkpt lat="48.73409" lon="2.51212">
        <ele>101</ele>
        <time>2017-09-05T13:27:46Z</time>
      </trkpt>
      <trkpt lat="48.73417" lon="2.51219">
        <ele>101</ele>
        <time>2017-09-05T13:27:46Z</time>
      </trkpt>
      <trkpt lat="48.73424" lon="2.51221">
        <ele>101</ele>
        <time>2017-09-05T13:28:02Z</time>
      </trkpt>
      <trkpt lat="48.73428" lon="2.51223">
        <ele>101</ele>
        <time>2017-09-05T13:28:02Z</time>
      </trkpt>
      <trkpt lat="48.73431" lon="2.51223">
        <ele>101</ele>
        <time>2017-09-05T13:28:02Z</time>
      </trkpt>
      <trkpt lat="48.73436" lon="2.51222">
        <ele>101</ele>
        <time>2017-09-05T13:28:02Z</time>
      </trkpt>
      <trkpt lat="48.73454" lon="2.51222">
        <ele>101</ele>
        <time>2017-09-05T13:28:18Z</time>
      </trkpt>
      <trkpt lat="48.73463" lon="2.51224">
        <ele>98</ele>
        <time>2017-09-05T13:28:18Z</time>
      </trkpt>
      <trkpt lat="48.73467" lon="2.51226">
        <ele>98</ele>
        <time>2017-09-05T13:28:18Z</time>
      </trkpt>
      <trkpt lat="48.73474" lon="2.51229">
        <ele>98</ele>
        <time>2017-09-05T13:28:18Z</time>
      </trkpt>
      <trkpt lat="48.73479" lon="2.51229">
        <ele>98</ele>
        <time>2017-09-05T13:28:34Z</time>
      </trkpt>
      <trkpt lat="48.73484" lon="2.51229">
        <ele>98</ele>
        <time>2017-09-05T13:28:34Z</time>
      </trkpt>
      <trkpt lat="48.73487" lon="2.51228">
        <ele>98</ele>
        <time>2017-09-05T13:28:34Z</time>
      </trkpt>
      <trkpt lat="48.73492" lon="2.51228">
        <ele>98</ele>
        <time>2017-09-05T13:28:34Z</time>
      </trkpt>
      <trkpt lat="48.73499" lon="2.51227">
        <ele>98</ele>
        <time>2017-09-05T13:28:50Z</time>
      </trkpt>
      <trkpt lat="48.73504" lon="2.51227">
        <ele>98</ele>
        <time>2017-09-05T13:28:50Z</time>
      </trkpt>
      <trkpt lat="48.73509" lon="2.51228">
        <ele>98</ele>
        <time>2017-09-05T13:28:50Z</time>
      </trkpt>
      <trkpt lat="48.73514" lon="2.5123">
        <ele>98</ele>
        <time>2017-09-05T13:28:50Z</time>
      </trkpt>
      <trkpt lat="48.73516" lon="2.51229">
        <ele>98</ele>
        <time>2017-09-05T13:29:06Z</time>
      </trkpt>
      <trkpt lat="48.73522" lon="2.5123">
        <ele>98</ele>
        <time>2017-09-05T13:29:06Z</time>
      </trkpt>
      <trkpt lat="48.73529" lon="2.51228">
        <ele>98</ele>
        <time>2017-09-05T13:29:06Z</time>
      </trkpt>
      <trkpt lat="48.73532" lon="2.51231">
        <ele>98</ele>
        <time>2017-09-05T13:29:06Z</time>
      </trkpt>
      <trkpt lat="48.73537" lon="2.51232">
        <ele>98</ele>
        <time>2017-09-05T13:29:22Z</time>
      </trkpt>
      <trkpt lat="48.73542" lon="2.51228">
        <ele>98</ele>
        <time>2017-09-05T13:29:22Z</time>
      </trkpt>
      <trkpt lat="48.73545" lon="2.51227">
        <ele>98</ele>
        <time>2017-09-05T13:29:22Z</time>
      </trkpt>
      <trkpt lat="48.73548" lon="2.51227">
        <ele>98</ele>
        <time>2017-09-05T13:29:22Z</time>
      </trkpt>
      <trkpt lat="48.73554" lon="2.51228">
        <ele>98</ele>
        <time>2017-09-05T13:29:38Z</time>
      </trkpt>
      <trkpt lat="48.73558" lon="2.51227">
        <ele>98</ele>
        <time>2017-09-05T13:29:38Z</time>
      </trkpt>
      <trkpt lat="48.7356" lon="2.51228">
        <ele>98</ele>
        <time>2017-09-05T13:29:38Z</time>
      </trkpt>
      <trkpt lat="48.73565" lon="2.51225">
        <ele>98</ele>
        <time>2017-09-05T13:29:38Z</time>
      </trkpt>
      <trkpt lat="48.7357" lon="2.51222">
        <ele>98</ele>
        <time>2017-09-05T13:29:54Z</time>
      </trkpt>
      <trkpt lat="48.73575" lon="2.51224">
        <ele>98</ele>
        <time>2017-09-05T13:29:54Z</time>
      </trkpt>
      <trkpt lat="48.73582" lon="2.51225">
        <ele>98</ele>
        <time>2017-09-05T13:29:54Z</time>
      </trkpt>
      <trkpt lat="48.73587" lon="2.51225">
        <ele>98</ele>
        <time>2017-09-05T13:29:54Z</time>
      </trkpt>
      <trkpt lat="48.73602" lon="2.51221">
        <ele>98</ele>
        <time>2017-09-05T13:30:10Z</time>
      </trkpt>
      <trkpt lat="48.73607" lon="2.51213">
        <ele>98</ele>
        <time>2017-09-05T13:30:10Z</time>
      </trkpt>
      <trkpt lat="48.73609" lon="2.51207">
        <ele>97</ele>
        <time>2017-09-05T13:30:10Z</time>
      </trkpt>
      <trkpt lat="48.73612" lon="2.51201">
        <ele>97</ele>
        <time>2017-09-05T13:30:10Z</time>
      </trkpt>
      <trkpt lat="48.73614" lon="2.51192">
        <ele>97</ele>
        <time>2017-09-05T13:30:26Z</time>
      </trkpt>
      <trkpt lat="48.73616" lon="2.51185">
        <ele>97</ele>
        <time>2017-09-05T13:30:26Z</time>
      </trkpt>
      <trkpt lat="48.73618" lon="2.51179">
        <ele>97</ele>
        <time>2017-09-05T13:30:26Z</time>
      </trkpt>
      <trkpt lat="48.7362" lon="2.51172">
        <ele>97</ele>
        <time>2017-09-05T13:30:26Z</time>
      </trkpt>
      <trkpt lat="48.73622" lon="2.51164">
        <ele>97</ele>
        <time>2017-09-05T13:30:42Z</time>
      </trkpt>
      <trkpt lat="48.73623" lon="2.51156">
        <ele>97</ele>
        <time>2017-09-05T13:30:42Z</time>
      </trkpt>
      <trkpt lat="48.73623" lon="2.51149">
        <ele>97</ele>
        <time>2017-09-05T13:30:42Z</time>
      </trkpt>
      <trkpt lat="48.73625" lon="2.5114">
        <ele>97</ele>
        <time>2017-09-05T13:30:42Z</time>
      </trkpt>
      <trkpt lat="48.73627" lon="2.51131">
        <ele>98</ele>
        <time>2017-09-05T13:30:58Z</time>
      </trkpt>
      <trkpt lat="48.73628" lon="2.51121">
        <ele>96</ele>
        <time>2017-09-05T13:30:58Z</time>
      </trkpt>
      <trkpt lat="48.7363" lon="2.51115">
        <ele>96</ele>
        <time>2017-09-05T13:30:58Z</time>
      </trkpt>
      <trkpt lat="48.73632" lon="2.5111">
        <ele>96</ele>
        <time>2017-09-05T13:30:58Z</time>
      </trkpt>
      <trkpt lat="48.73634" lon="2.51103">
        <ele>96</ele>
        <time>2017-09-05T13:31:14Z</time>
      </trkpt>
      <trkpt lat="48.73636" lon="2.51097">
        <ele>96</ele>
        <time>2017-09-05T13:31:14Z</time>
      </trkpt>
      <trkpt lat="48.73638" lon="2.51086">
        <ele>96</ele>
        <time>2017-09-05T13:31:14Z</time>
      </trkpt>
      <trkpt lat="48.73639" lon="2.5108">
        <ele>96</ele>
        <time>2017-09-05T13:31:14Z</time>
      </trkpt>
      <trkpt lat="48.7364" lon="2.51074">
        <ele>96</ele>
        <time>2017-09-05T13:31:30Z</time>
      </trkpt>
      <trkpt lat="48.73641" lon="2.51066">
        <ele>96</ele>
        <time>2017-09-05T13:31:30Z</time>
      </trkpt>
      <trkpt lat="48.73643" lon="2.51059">
        <ele>96</ele>
        <time>2017-09-05T13:31:30Z</time>
      </trkpt>
      <trkpt lat="48.73646" lon="2.5105">
        <ele>96</ele>
        <time>2017-09-05T13:31:30Z</time>
      </trkpt>
      <trkpt lat="48.73649" lon="2.51044">
        <ele>96</ele>
        <time>2017-09-05T13:31:46Z</time>
      </trkpt>
      <trkpt lat="48.73652" lon="2.51037">
        <ele>96</ele>
        <time>2017-09-05T13:31:46Z</time>
      </trkpt>
      <trkpt lat="48.73653" lon="2.5103">
        <ele>96</ele>
        <time>2017-09-05T13:31:46Z</time>
      </trkpt>
      <trkpt lat="48.73656" lon="2.51025">
        <ele>96</ele>
        <time>2017-09-05T13:31:46Z</time>
      </trkpt>
      <trkpt lat="48.73656" lon="2.51019">
        <ele>96</ele>
        <time>2017-09-05T13:32:02Z</time>
      </trkpt>
      <trkpt lat="48.73655" lon="2.51009">
        <ele>96</ele>
        <time>2017-09-05T13:32:02Z</time>
      </trkpt>
      <trkpt lat="48.73658" lon="2.51001">
        <ele>96</ele>
        <time>2017-09-05T13:32:02Z</time>
      </trkpt>
      <trkpt lat="48.7366" lon="2.50995">
        <ele>96</ele>
        <time>2017-09-05T13:32:02Z</time>
      </trkpt>
      <trkpt lat="48.73661" lon="2.50986">
        <ele>96</ele>
        <time>2017-09-05T13:32:18Z</time>
      </trkpt>
      <trkpt lat="48.73661" lon="2.50977">
        <ele>96</ele>
        <time>2017-09-05T13:32:18Z</time>
      </trkpt>
      <trkpt lat="48.73665" lon="2.50969">
        <ele>96</ele>
        <time>2017-09-05T13:32:18Z</time>
      </trkpt>
      <trkpt lat="48.73667" lon="2.50961">
        <ele>96</ele>
        <time>2017-09-05T13:32:18Z</time>
      </trkpt>
      <trkpt lat="48.73669" lon="2.50954">
        <ele>97</ele>
        <time>2017-09-05T13:32:34Z</time>
      </trkpt>
      <trkpt lat="48.73672" lon="2.50943">
        <ele>97</ele>
        <time>2017-09-05T13:32:34Z</time>
      </trkpt>
      <trkpt lat="48.73675" lon="2.50937">
        <ele>97</ele>
        <time>2017-09-05T13:32:34Z</time>
      </trkpt>
      <trkpt lat="48.73674" lon="2.50932">
        <ele>97</ele>
        <time>2017-09-05T13:32:34Z</time>
      </trkpt>
      <trkpt lat="48.73678" lon="2.50925">
        <ele>97</ele>
        <time>2017-09-05T13:32:50Z</time>
      </trkpt>
      <trkpt lat="48.7368" lon="2.50917">
        <ele>97</ele>
        <time>2017-09-05T13:32:50Z</time>
      </trkpt>
      <trkpt lat="48.73684" lon="2.5091">
        <ele>97</ele>
        <time>2017-09-05T13:32:50Z</time>
      </trkpt>
      <trkpt lat="48.73689" lon="2.50902">
        <ele>97</ele>
        <time>2017-09-05T13:32:50Z</time>
      </trkpt>
      <trkpt lat="48.73693" lon="2.50894">
        <ele>97</ele>
        <time>2017-09-05T13:33:06Z</time>
      </trkpt>
      <trkpt lat="48.73695" lon="2.50888">
        <ele>97</ele>
        <time>2017-09-05T13:33:06Z</time>
      </trkpt>
      <trkpt lat="48.73699" lon="2.50883">
        <ele>97</ele>
        <time>2017-09-05T13:33:06Z</time>
      </trkpt>
      <trkpt lat="48.73702" lon="2.50875">
        <ele>99</ele>
        <time>2017-09-05T13:33:06Z</time>
      </trkpt>
      <trkpt lat="48.73704" lon="2.50866">
        <ele>99</ele>
        <time>2017-09-05T13:33:22Z</time>
      </trkpt>
      <trkpt lat="48.73706" lon="2.50859">
        <ele>99</ele>
        <time>2017-09-05T13:33:22Z</time>
      </trkpt>
      <trkpt lat="48.73706" lon="2.50855">
        <ele>99</ele>
        <time>2017-09-05T13:33:22Z</time>
      </trkpt>
      <trkpt lat="48.73703" lon="2.50851">
        <ele>99</ele>
        <time>2017-09-05T13:33:22Z</time>
      </trkpt>
      <trkpt lat="48.73696" lon="2.50838">
        <ele>99</ele>
        <time>2017-09-05T13:33:38Z</time>
      </trkpt>
      <trkpt lat="48.7369" lon="2.50824">
        <ele>99</ele>
        <time>2017-09-05T13:33:38Z</time>
      </trkpt>
      <trkpt lat="48.73685" lon="2.50812">
        <ele>99</ele>
        <time>2017-09-05T13:33:38Z</time>
      </trkpt>
      <trkpt lat="48.73682" lon="2.50805">
        <ele>99</ele>
        <time>2017-09-05T13:33:38Z</time>
      </trkpt>
      <trkpt lat="48.73679" lon="2.50798">
        <ele>99</ele>
        <time>2017-09-05T13:33:54Z</time>
      </trkpt>
      <trkpt lat="48.73676" lon="2.50787">
        <ele>99</ele>
        <time>2017-09-05T13:33:54Z</time>
      </trkpt>
      <trkpt lat="48.73673" lon="2.5078">
        <ele>99</ele>
        <time>2017-09-05T13:33:54Z</time>
      </trkpt>
      <trkpt lat="48.7367" lon="2.50773">
        <ele>99</ele>
        <time>2017-09-05T13:33:54Z</time>
      </trkpt>
      <trkpt lat="48.73668" lon="2.50763">
        <ele>99</ele>
        <time>2017-09-05T13:34:10Z</time>
      </trkpt>
      <trkpt lat="48.73666" lon="2.50758">
        <ele>99</ele>
        <time>2017-09-05T13:34:10Z</time>
      </trkpt>
      <trkpt lat="48.73664" lon="2.50752">
        <ele>99</ele>
        <time>2017-09-05T13:34:10Z</time>
      </trkpt>
      <trkpt lat="48.73661" lon="2.50743">
        <ele>99</ele>
        <time>2017-09-05T13:34:10Z</time>
      </trkpt>
      <trkpt lat="48.73658" lon="2.50733">
        <ele>99</ele>
        <time>2017-09-05T13:34:26Z</time>
      </trkpt>
      <trkpt lat="48.73656" lon="2.50726">
        <ele>99</ele>
        <time>2017-09-05T13:34:26Z</time>
      </trkpt>
      <trkpt lat="48.73656" lon="2.5072">
        <ele>99</ele>
        <time>2017-09-05T13:34:26Z</time>
      </trkpt>
      <trkpt lat="48.73654" lon="2.50712">
        <ele>99</ele>
        <time>2017-09-05T13:34:26Z</time>
      </trkpt>
      <trkpt lat="48.73652" lon="2.50705">
        <ele>97</ele>
        <time>2017-09-05T13:34:42Z</time>
      </trkpt>
      <trkpt lat="48.73648" lon="2.50694">
        <ele>97</ele>
        <time>2017-09-05T13:34:42Z</time>
      </trkpt>
      <trkpt lat="48.73646" lon="2.50689">
        <ele>97</ele>
        <time>2017-09-05T13:34:42Z</time>
      </trkpt>
      <trkpt lat="48.73646" lon="2.50682">
        <ele>97</ele>
        <time>2017-09-05T13:34:42Z</time>
      </trkpt>
      <trkpt lat="48.73646" lon="2.50673">
        <ele>97</ele>
        <time>2017-09-05T13:34:58Z</time>
      </trkpt>
      <trkpt lat="48.73645" lon="2.50663">
        <ele>97</ele>
        <time>2017-09-05T13:34:58Z</time>
      </trkpt>
      <trkpt lat="48.73649" lon="2.50655">
        <ele>97</ele>
        <time>2017-09-05T13:34:58Z</time>
      </trkpt>
      <trkpt lat="48.73652" lon="2.50647">
        <ele>97</ele>
        <time>2017-09-05T13:34:58Z</time>
      </trkpt>
      <trkpt lat="48.73655" lon="2.50638">
        <ele>97</ele>
        <time>2017-09-05T13:35:14Z</time>
      </trkpt>
      <trkpt lat="48.73657" lon="2.50629">
        <ele>97</ele>
        <time>2017-09-05T13:35:14Z</time>
      </trkpt>
      <trkpt lat="48.7366" lon="2.50621">
        <ele>97</ele>
        <time>2017-09-05T13:35:14Z</time>
      </trkpt>
      <trkpt lat="48.73662" lon="2.50611">
        <ele>97</ele>
        <time>2017-09-05T13:35:14Z</time>
      </trkpt>
      <trkpt lat="48.73665" lon="2.50603">
        <ele>97</ele>
        <time>2017-09-05T13:35:30Z</time>
      </trkpt>
      <trkpt lat="48.73667" lon="2.50593">
        <ele>97</ele>
        <time>2017-09-05T13:35:30Z</time>
      </trkpt>
      <trkpt lat="48.73672" lon="2.50589">
        <ele>97</ele>
        <time>2017-09-05T13:35:30Z</time>
      </trkpt>
      <trkpt lat="48.73675" lon="2.50582">
        <ele>97</ele>
        <time>2017-09-05T13:35:30Z</time>
      </trkpt>
      <trkpt lat="48.73674" lon="2.50573">
        <ele>97</ele>
        <time>2017-09-05T13:35:46Z</time>
      </trkpt>
      <trkpt lat="48.73673" lon="2.50564">
        <ele>97</ele>
        <time>2017-09-05T13:35:46Z</time>
      </trkpt>
      <trkpt lat="48.73674" lon="2.50555">
        <ele>97</ele>
        <time>2017-09-05T13:35:46Z</time>
      </trkpt>
      <trkpt lat="48.73676" lon="2.5055">
        <ele>97</ele>
        <time>2017-09-05T13:35:46Z</time>
      </trkpt>
      <trkpt lat="48.73678" lon="2.50541">
        <ele>96</ele>
        <time>2017-09-05T13:36:02Z</time>
      </trkpt>
      <trkpt lat="48.73681" lon="2.50533">
        <ele>96</ele>
        <time>2017-09-05T13:36:02Z</time>
      </trkpt>
      <trkpt lat="48.73682" lon="2.50525">
        <ele>96</ele>
        <time>2017-09-05T13:36:02Z</time>
      </trkpt>
      <trkpt lat="48.73686" lon="2.50517">
        <ele>96</ele>
        <time>2017-09-05T13:36:02Z</time>
      </trkpt>
      <trkpt lat="48.73689" lon="2.5051">
        <ele>96</ele>
        <time>2017-09-05T13:36:18Z</time>
      </trkpt>
      <trkpt lat="48.73692" lon="2.50502">
        <ele>96</ele>
        <time>2017-09-05T13:36:18Z</time>
      </trkpt>
      <trkpt lat="48.73694" lon="2.50496">
        <ele>96</ele>
        <time>2017-09-05T13:36:18Z</time>
      </trkpt>
      <trkpt lat="48.73698" lon="2.50488">
        <ele>96</ele>
        <time>2017-09-05T13:36:18Z</time>
      </trkpt>
      <trkpt lat="48.737" lon="2.50481">
        <ele>96</ele>
        <time>2017-09-05T13:36:34Z</time>
      </trkpt>
      <trkpt lat="48.73702" lon="2.50474">
        <ele>96</ele>
        <time>2017-09-05T13:36:34Z</time>
      </trkpt>
      <trkpt lat="48.73704" lon="2.50468">
        <ele>96</ele>
        <time>2017-09-05T13:36:34Z</time>
      </trkpt>
      <trkpt lat="48.73707" lon="2.50461">
        <ele>96</ele>
        <time>2017-09-05T13:36:34Z</time>
      </trkpt>
      <trkpt lat="48.73709" lon="2.50454">
        <ele>97</ele>
        <time>2017-09-05T13:36:50Z</time>
      </trkpt>
      <trkpt lat="48.73713" lon="2.50449">
        <ele>97</ele>
        <time>2017-09-05T13:36:50Z</time>
      </trkpt>
      <trkpt lat="48.73715" lon="2.50441">
        <ele>97</ele>
        <time>2017-09-05T13:36:50Z</time>
      </trkpt>
      <trkpt lat="48.73717" lon="2.50434">
        <ele>97</ele>
        <time>2017-09-05T13:36:50Z</time>
      </trkpt>
      <trkpt lat="48.73719" lon="2.50425">
        <ele>97</ele>
        <time>2017-09-05T13:37:06Z</time>
      </trkpt>
      <trkpt lat="48.73723" lon="2.50416">
        <ele>97</ele>
        <time>2017-09-05T13:37:06Z</time>
      </trkpt>
      <trkpt lat="48.73725" lon="2.50408">
        <ele>97</ele>
        <time>2017-09-05T13:37:06Z</time>
      </trkpt>
      <trkpt lat="48.73727" lon="2.50401">
        <ele>97</ele>
        <time>2017-09-05T13:37:06Z</time>
      </trkpt>
      <trkpt lat="48.73729" lon="2.50393">
        <ele>97</ele>
        <time>2017-09-05T13:37:22Z</time>
      </trkpt>
      <trkpt lat="48.73731" lon="2.50385">
        <ele>97</ele>
        <time>2017-09-05T13:37:22Z</time>
      </trkpt>
      <trkpt lat="48.73733" lon="2.50376">
        <ele>97</ele>
        <time>2017-09-05T13:37:22Z</time>
      </trkpt>
      <trkpt lat="48.73736" lon="2.5037">
        <ele>95</ele>
        <time>2017-09-05T13:37:22Z</time>
      </trkpt>
      <trkpt lat="48.73738" lon="2.50363">
        <ele>95</ele>
        <time>2017-09-05T13:37:38Z</time>
      </trkpt>
      <trkpt lat="48.73739" lon="2.50356">
        <ele>95</ele>
        <time>2017-09-05T13:37:38Z</time>
      </trkpt>
      <trkpt lat="48.73738" lon="2.50349">
        <ele>95</ele>
        <time>2017-09-05T13:37:38Z</time>
      </trkpt>
      <trkpt lat="48.7374" lon="2.5034">
        <ele>95</ele>
        <time>2017-09-05T13:37:38Z</time>
      </trkpt>
      <trkpt lat="48.73741" lon="2.5033">
        <ele>95</ele>
        <time>2017-09-05T13:37:54Z</time>
      </trkpt>
      <trkpt lat="48.73744" lon="2.50322">
        <ele>95</ele>
        <time>2017-09-05T13:37:54Z</time>
      </trkpt>
      <trkpt lat="48.73745" lon="2.50312">
        <ele>95</ele>
        <time>2017-09-05T13:37:54Z</time>
      </trkpt>
      <trkpt lat="48.73742" lon="2.50303">
        <ele>95</ele>
        <time>2017-09-05T13:37:54Z</time>
      </trkpt>
      <trkpt lat="48.73734" lon="2.50292">
        <ele>95</ele>
        <time>2017-09-05T13:38:10Z</time>
      </trkpt>
      <trkpt lat="48.73728" lon="2.50287">
        <ele>96</ele>
        <time>2017-09-05T13:38:10Z</time>
      </trkpt>
      <trkpt lat="48.73723" lon="2.50285">
        <ele>96</ele>
        <time>2017-09-05T13:38:10Z</time>
      </trkpt>
      <trkpt lat="48.73718" lon="2.50286">
        <ele>96</ele>
        <time>2017-09-05T13:38:10Z</time>
      </trkpt>
      <trkpt lat="48.73712" lon="2.50285">
        <ele>96</ele>
        <time>2017-09-05T13:38:26Z</time>
      </trkpt>
      <trkpt lat="48.73707" lon="2.50282">
        <ele>96</ele>
        <time>2017-09-05T13:38:26Z</time>
      </trkpt>
      <trkpt lat="48.73702" lon="2.50282">
        <ele>96</ele>
        <time>2017-09-05T13:38:26Z</time>
      </trkpt>
      <trkpt lat="48.73699" lon="2.50284">
        <ele>96</ele>
        <time>2017-09-05T13:38:26Z</time>
      </trkpt>
      <trkpt lat="48.73697" lon="2.50294">
        <ele>95</ele>
        <time>2017-09-05T13:38:42Z</time>
      </trkpt>
      <trkpt lat="48.73695" lon="2.50298">
        <ele>95</ele>
        <time>2017-09-05T13:38:42Z</time>
      </trkpt>
      <trkpt lat="48.73693" lon="2.50305">
        <ele>95</ele>
        <time>2017-09-05T13:38:42Z</time>
      </trkpt>
      <trkpt lat="48.73692" lon="2.50313">
        <ele>95</ele>
        <time>2017-09-05T13:38:42Z</time>
      </trkpt>
      <trkpt lat="48.73693" lon="2.50303">
        <ele>95</ele>
        <time>2017-09-05T13:39:58Z</time>
      </trkpt>
      <trkpt lat="48.73694" lon="2.50301">
        <ele>95</ele>
        <time>2017-09-05T13:39:58Z</time>
      </trkpt>
      <trkpt lat="48.73694" lon="2.50297">
        <ele>95</ele>
        <time>2017-09-05T13:39:58Z</time>
      </trkpt>
      <trkpt lat="48.73694" lon="2.50296">
        <ele>95</ele>
        <time>2017-09-05T13:39:58Z</time>
      </trkpt>
      <trkpt lat="48.73695" lon="2.50292">
        <ele>95</ele>
        <time>2017-09-05T13:39:58Z</time>
      </trkpt>
      <trkpt lat="48.73687" lon="2.50293">
        <ele>95</ele>
        <time>2017-09-05T13:40:54Z</time>
      </trkpt>
      <trkpt lat="48.73687" lon="2.50292">
        <ele>95</ele>
        <time>2017-09-05T13:40:54Z</time>
      </trkpt>
      <trkpt lat="48.73685" lon="2.50293">
        <ele>95</ele>
        <time>2017-09-05T13:40:54Z</time>
      </trkpt>
      <trkpt lat="48.73683" lon="2.50294">
        <ele>95</ele>
        <time>2017-09-05T13:40:54Z</time>
      </trkpt>
      <trkpt lat="48.73683" lon="2.50294">
        <ele>95</ele>
        <time>2017-09-05T13:40:54Z</time>
      </trkpt>
      <trkpt lat="48.73681" lon="2.5029">
        <ele>96</ele>
        <time>2017-09-05T13:41:46Z</time>
      </trkpt>
      <trkpt lat="48.73678" lon="2.50291">
        <ele>96</ele>
        <time>2017-09-05T13:41:46Z</time>
      </trkpt>
      <trkpt lat="48.73674" lon="2.50294">
        <ele>95</ele>
        <time>2017-09-05T13:41:46Z</time>
      </trkpt>
      <trkpt lat="48.73668" lon="2.50294">
        <ele>95</ele>
        <time>2017-09-05T13:41:46Z</time>
      </trkpt>
      <trkpt lat="48.73661" lon="2.5029">
        <ele>96</ele>
        <time>2017-09-05T13:41:46Z</time>
      </trkpt>
      <trkpt lat="48.73658" lon="2.50289">
        <ele>96</ele>
        <time>2017-09-05T13:42:02Z</time>
      </trkpt>
      <trkpt lat="48.73653" lon="2.50291">
        <ele>96</ele>
        <time>2017-09-05T13:42:02Z</time>
      </trkpt>
      <trkpt lat="48.73649" lon="2.50294">
        <ele>95</ele>
        <time>2017-09-05T13:42:02Z</time>
      </trkpt>
      <trkpt lat="48.73645" lon="2.50296">
        <ele>95</ele>
        <time>2017-09-05T13:42:02Z</time>
      </trkpt>
      <trkpt lat="48.73639" lon="2.50298">
        <ele>95</ele>
        <time>2017-09-05T13:42:18Z</time>
      </trkpt>
      <trkpt lat="48.73632" lon="2.50299">
        <ele>95</ele>
        <time>2017-09-05T13:42:18Z</time>
      </trkpt>
      <trkpt lat="48.73628" lon="2.50297">
        <ele>95</ele>
        <time>2017-09-05T13:42:18Z</time>
      </trkpt>
      <trkpt lat="48.73624" lon="2.50297">
        <ele>96</ele>
        <time>2017-09-05T13:42:18Z</time>
      </trkpt>
      <trkpt lat="48.7362" lon="2.50298">
        <ele>96</ele>
        <time>2017-09-05T13:42:34Z</time>
      </trkpt>
      <trkpt lat="48.73615" lon="2.50296">
        <ele>96</ele>
        <time>2017-09-05T13:42:34Z</time>
      </trkpt>
      <trkpt lat="48.73609" lon="2.50293">
        <ele>96</ele>
        <time>2017-09-05T13:42:34Z</time>
      </trkpt>
      <trkpt lat="48.73603" lon="2.50291">
        <ele>94</ele>
        <time>2017-09-05T13:42:34Z</time>
      </trkpt>
      <trkpt lat="48.736" lon="2.50291">
        <ele>94</ele>
        <time>2017-09-05T13:42:50Z</time>
      </trkpt>
      <trkpt lat="48.73595" lon="2.50294">
        <ele>96</ele>
        <time>2017-09-05T13:42:50Z</time>
      </trkpt>
      <trkpt lat="48.7359" lon="2.50295">
        <ele>96</ele>
        <time>2017-09-05T13:42:50Z</time>
      </trkpt>
      <trkpt lat="48.73586" lon="2.50292">
        <ele>96</ele>
        <time>2017-09-05T13:42:50Z</time>
      </trkpt>
      <trkpt lat="48.73582" lon="2.50294">
        <ele>96</ele>
        <time>2017-09-05T13:43:06Z</time>
      </trkpt>
      <trkpt lat="48.73575" lon="2.50293">
        <ele>96</ele>
        <time>2017-09-05T13:43:06Z</time>
      </trkpt>
      <trkpt lat="48.7357" lon="2.50296">
        <ele>96</ele>
        <time>2017-09-05T13:43:06Z</time>
      </trkpt>
      <trkpt lat="48.73567" lon="2.50298">
        <ele>96</ele>
        <time>2017-09-05T13:43:06Z</time>
      </trkpt>
      <trkpt lat="48.73564" lon="2.50296">
        <ele>96</ele>
        <time>2017-09-05T13:43:22Z</time>
      </trkpt>
      <trkpt lat="48.73559" lon="2.50295">
        <ele>96</ele>
        <time>2017-09-05T13:43:22Z</time>
      </trkpt>
      <trkpt lat="48.73553" lon="2.50296">
        <ele>96</ele>
        <time>2017-09-05T13:43:22Z</time>
      </trkpt>
      <trkpt lat="48.73544" lon="2.503">
        <ele>96</ele>
        <time>2017-09-05T13:43:22Z</time>
      </trkpt>
      <trkpt lat="48.73537" lon="2.50303">
        <ele>96</ele>
        <time>2017-09-05T13:43:38Z</time>
      </trkpt>
      <trkpt lat="48.73532" lon="2.50302">
        <ele>96</ele>
        <time>2017-09-05T13:43:38Z</time>
      </trkpt>
      <trkpt lat="48.73526" lon="2.50304">
        <ele>96</ele>
        <time>2017-09-05T13:43:38Z</time>
      </trkpt>
      <trkpt lat="48.7352" lon="2.50305">
        <ele>96</ele>
        <time>2017-09-05T13:43:38Z</time>
      </trkpt>
      <trkpt lat="48.73516" lon="2.50306">
        <ele>96</ele>
        <time>2017-09-05T13:43:54Z</time>
      </trkpt>
      <trkpt lat="48.73511" lon="2.50308">
        <ele>96</ele>
        <time>2017-09-05T13:43:54Z</time>
      </trkpt>
      <trkpt lat="48.73504" lon="2.50307">
        <ele>96</ele>
        <time>2017-09-05T13:43:54Z</time>
      </trkpt>
      <trkpt lat="48.73499" lon="2.50305">
        <ele>96</ele>
        <time>2017-09-05T13:43:54Z</time>
      </trkpt>
      <trkpt lat="48.73494" lon="2.50307">
        <ele>96</ele>
        <time>2017-09-05T13:44:10Z</time>
      </trkpt>
      <trkpt lat="48.73488" lon="2.50306">
        <ele>96</ele>
        <time>2017-09-05T13:44:10Z</time>
      </trkpt>
      <trkpt lat="48.73484" lon="2.50305">
        <ele>96</ele>
        <time>2017-09-05T13:44:10Z</time>
      </trkpt>
      <trkpt lat="48.73478" lon="2.50306">
        <ele>96</ele>
        <time>2017-09-05T13:44:10Z</time>
      </trkpt>
      <trkpt lat="48.73474" lon="2.50307">
        <ele>96</ele>
        <time>2017-09-05T13:44:26Z</time>
      </trkpt>
      <trkpt lat="48.73469" lon="2.50313">
        <ele>96</ele>
        <time>2017-09-05T13:44:26Z</time>
      </trkpt>
      <trkpt lat="48.73464" lon="2.50311">
        <ele>96</ele>
        <time>2017-09-05T13:44:26Z</time>
      </trkpt>
      <trkpt lat="48.73459" lon="2.50308">
        <ele>96</ele>
        <time>2017-09-05T13:44:26Z</time>
      </trkpt>
      <trkpt lat="48.73455" lon="2.50308">
        <ele>93</ele>
        <time>2017-09-05T13:44:42Z</time>
      </trkpt>
      <trkpt lat="48.73449" lon="2.50305">
        <ele>93</ele>
        <time>2017-09-05T13:44:42Z</time>
      </trkpt>
      <trkpt lat="48.73444" lon="2.50304">
        <ele>93</ele>
        <time>2017-09-05T13:44:42Z</time>
      </trkpt>
      <trkpt lat="48.73438" lon="2.50305">
        <ele>93</ele>
        <time>2017-09-05T13:44:42Z</time>
      </trkpt>
      <trkpt lat="48.73432" lon="2.50306">
        <ele>93</ele>
        <time>2017-09-05T13:44:58Z</time>
      </trkpt>
      <trkpt lat="48.73426" lon="2.50305">
        <ele>93</ele>
        <time>2017-09-05T13:44:58Z</time>
      </trkpt>
      <trkpt lat="48.73419" lon="2.50306">
        <ele>93</ele>
        <time>2017-09-05T13:44:58Z</time>
      </trkpt>
      <trkpt lat="48.73415" lon="2.50305">
        <ele>93</ele>
        <time>2017-09-05T13:44:58Z</time>
      </trkpt>
      <trkpt lat="48.73411" lon="2.50307">
        <ele>93</ele>
        <time>2017-09-05T13:45:14Z</time>
      </trkpt>
      <trkpt lat="48.73407" lon="2.5031">
        <ele>93</ele>
        <time>2017-09-05T13:45:14Z</time>
      </trkpt>
      <trkpt lat="48.73405" lon="2.5031">
        <ele>93</ele>
        <time>2017-09-05T13:45:14Z</time>
      </trkpt>
      <trkpt lat="48.73398" lon="2.50312">
        <ele>93</ele>
        <time>2017-09-05T13:45:14Z</time>
      </trkpt>
      <trkpt lat="48.7339" lon="2.50314">
        <ele>93</ele>
        <time>2017-09-05T13:45:30Z</time>
      </trkpt>
      <trkpt lat="48.73383" lon="2.50314">
        <ele>93</ele>
        <time>2017-09-05T13:45:30Z</time>
      </trkpt>
      <trkpt lat="48.73378" lon="2.50314">
        <ele>93</ele>
        <time>2017-09-05T13:45:30Z</time>
      </trkpt>
      <trkpt lat="48.73372" lon="2.50313">
        <ele>94</ele>
        <time>2017-09-05T13:45:30Z</time>
      </trkpt>
      <trkpt lat="48.73367" lon="2.50312">
        <ele>94</ele>
        <time>2017-09-05T13:45:46Z</time>
      </trkpt>
      <trkpt lat="48.73364" lon="2.50312">
        <ele>94</ele>
        <time>2017-09-05T13:45:46Z</time>
      </trkpt>
      <trkpt lat="48.73358" lon="2.50311">
        <ele>94</ele>
        <time>2017-09-05T13:45:46Z</time>
      </trkpt>
      <trkpt lat="48.73354" lon="2.50313">
        <ele>94</ele>
        <time>2017-09-05T13:45:46Z</time>
      </trkpt>
      <trkpt lat="48.73351" lon="2.50314">
        <ele>94</ele>
        <time>2017-09-05T13:46:02Z</time>
      </trkpt>
      <trkpt lat="48.7335" lon="2.50312">
        <ele>94</ele>
        <time>2017-09-05T13:46:02Z</time>
      </trkpt>
      <trkpt lat="48.7335" lon="2.50308">
        <ele>94</ele>
        <time>2017-09-05T13:46:02Z</time>
      </trkpt>
      <trkpt lat="48.73355" lon="2.50299">
        <ele>94</ele>
        <time>2017-09-05T13:46:02Z</time>
      </trkpt>
      <trkpt lat="48.73357" lon="2.50294">
        <ele>94</ele>
        <time>2017-09-05T13:46:18Z</time>
      </trkpt>
      <trkpt lat="48.7336" lon="2.50288">
        <ele>94</ele>
        <time>2017-09-05T13:46:18Z</time>
      </trkpt>
      <trkpt lat="48.73361" lon="2.50282">
        <ele>94</ele>
        <time>2017-09-05T13:46:18Z</time>
      </trkpt>
      <trkpt lat="48.73363" lon="2.50278">
        <ele>94</ele>
        <time>2017-09-05T13:46:18Z</time>
      </trkpt>
      <trkpt lat="48.73363" lon="2.50273">
        <ele>94</ele>
        <time>2017-09-05T13:46:34Z</time>
      </trkpt>
      <trkpt lat="48.73362" lon="2.50266">
        <ele>94</ele>
        <time>2017-09-05T13:46:34Z</time>
      </trkpt>
      <trkpt lat="48.73362" lon="2.50257">
        <ele>94</ele>
        <time>2017-09-05T13:46:34Z</time>
      </trkpt>
      <trkpt lat="48.73365" lon="2.50251">
        <ele>94</ele>
        <time>2017-09-05T13:46:34Z</time>
      </trkpt>
      <trkpt lat="48.73364" lon="2.50248">
        <ele>94</ele>
        <time>2017-09-05T13:46:50Z</time>
      </trkpt>
      <trkpt lat="48.73365" lon="2.50243">
        <ele>94</ele>
        <time>2017-09-05T13:46:50Z</time>
      </trkpt>
      <trkpt lat="48.73366" lon="2.50236">
        <ele>94</ele>
        <time>2017-09-05T13:46:50Z</time>
      </trkpt>
      <trkpt lat="48.73367" lon="2.50227">
        <ele>94</ele>
        <time>2017-09-05T13:46:50Z</time>
      </trkpt>
      <trkpt lat="48.73368" lon="2.50218">
        <ele>94</ele>
        <time>2017-09-05T13:47:06Z</time>
      </trkpt>
      <trkpt lat="48.73368" lon="2.50211">
        <ele>94</ele>
        <time>2017-09-05T13:47:06Z</time>
      </trkpt>
      <trkpt lat="48.73368" lon="2.502">
        <ele>95</ele>
        <time>2017-09-05T13:47:06Z</time>
      </trkpt>
      <trkpt lat="48.7337" lon="2.50188">
        <ele>95</ele>
        <time>2017-09-05T13:47:06Z</time>
      </trkpt>
      <trkpt lat="48.73371" lon="2.5018">
        <ele>95</ele>
        <time>2017-09-05T13:47:22Z</time>
      </trkpt>
      <trkpt lat="48.73371" lon="2.5017">
        <ele>95</ele>
        <time>2017-09-05T13:47:22Z</time>
      </trkpt>
      <trkpt lat="48.73372" lon="2.50162">
        <ele>95</ele>
        <time>2017-09-05T13:47:22Z</time>
      </trkpt>
      <trkpt lat="48.73373" lon="2.50156">
        <ele>95</ele>
        <time>2017-09-05T13:47:22Z</time>
      </trkpt>
      <trkpt lat="48.73371" lon="2.50144">
        <ele>95</ele>
        <time>2017-09-05T13:47:38Z</time>
      </trkpt>
      <trkpt lat="48.73371" lon="2.50134">
        <ele>95</ele>
        <time>2017-09-05T13:47:38Z</time>
      </trkpt>
      <trkpt lat="48.7337" lon="2.50126">
        <ele>95</ele>
        <time>2017-09-05T13:47:38Z</time>
      </trkpt>
      <trkpt lat="48.7337" lon="2.50118">
        <ele>92</ele>
        <time>2017-09-05T13:47:38Z</time>
      </trkpt>
      <trkpt lat="48.73372" lon="2.50109">
        <ele>92</ele>
        <time>2017-09-05T13:47:54Z</time>
      </trkpt>
      <trkpt lat="48.73374" lon="2.50102">
        <ele>92</ele>
        <time>2017-09-05T13:47:54Z</time>
      </trkpt>
      <trkpt lat="48.73375" lon="2.50096">
        <ele>92</ele>
        <time>2017-09-05T13:47:54Z</time>
      </trkpt>
      <trkpt lat="48.73375" lon="2.50089">
        <ele>92</ele>
        <time>2017-09-05T13:47:54Z</time>
      </trkpt>
      <trkpt lat="48.73376" lon="2.50078">
        <ele>89</ele>
        <time>2017-09-05T13:48:10Z</time>
      </trkpt>
      <trkpt lat="48.73378" lon="2.50067">
        <ele>89</ele>
        <time>2017-09-05T13:48:10Z</time>
      </trkpt>
      <trkpt lat="48.73381" lon="2.50063">
        <ele>89</ele>
        <time>2017-09-05T13:48:10Z</time>
      </trkpt>
      <trkpt lat="48.73384" lon="2.50056">
        <ele>89</ele>
        <time>2017-09-05T13:48:10Z</time>
      </trkpt>
      <trkpt lat="48.73385" lon="2.5005">
        <ele>89</ele>
        <time>2017-09-05T13:48:26Z</time>
      </trkpt>
      <trkpt lat="48.73386" lon="2.50043">
        <ele>89</ele>
        <time>2017-09-05T13:48:26Z</time>
      </trkpt>
      <trkpt lat="48.73387" lon="2.50035">
        <ele>88</ele>
        <time>2017-09-05T13:48:26Z</time>
      </trkpt>
      <trkpt lat="48.73388" lon="2.50027">
        <ele>88</ele>
        <time>2017-09-05T13:48:26Z</time>
      </trkpt>
      <trkpt lat="48.73387" lon="2.50021">
        <ele>88</ele>
        <time>2017-09-05T13:48:42Z</time>
      </trkpt>
      <trkpt lat="48.73385" lon="2.50013">
        <ele>88</ele>
        <time>2017-09-05T13:48:42Z</time>
      </trkpt>
      <trkpt lat="48.73383" lon="2.50004">
        <ele>88</ele>
        <time>2017-09-05T13:48:42Z</time>
      </trkpt>
      <trkpt lat="48.7338" lon="2.49993">
        <ele>88</ele>
        <time>2017-09-05T13:48:42Z</time>
      </trkpt>
      <trkpt lat="48.73378" lon="2.49983">
        <ele>88</ele>
        <time>2017-09-05T13:48:58Z</time>
      </trkpt>
      <trkpt lat="48.73376" lon="2.49972">
        <ele>88</ele>
        <time>2017-09-05T13:48:58Z</time>
      </trkpt>
      <trkpt lat="48.73375" lon="2.49964">
        <ele>91</ele>
        <time>2017-09-05T13:48:58Z</time>
      </trkpt>
      <trkpt lat="48.73375" lon="2.49954">
        <ele>90</ele>
        <time>2017-09-05T13:48:58Z</time>
      </trkpt>
      <trkpt lat="48.73377" lon="2.49944">
        <ele>90</ele>
        <time>2017-09-05T13:49:14Z</time>
      </trkpt>
      <trkpt lat="48.73378" lon="2.49936">
        <ele>90</ele>
        <time>2017-09-05T13:49:14Z</time>
      </trkpt>
      <trkpt lat="48.73379" lon="2.4993">
        <ele>90</ele>
        <time>2017-09-05T13:49:14Z</time>
      </trkpt>
      <trkpt lat="48.73381" lon="2.49924">
        <ele>90</ele>
        <time>2017-09-05T13:49:14Z</time>
      </trkpt>
      <trkpt lat="48.73382" lon="2.49919">
        <ele>90</ele>
        <time>2017-09-05T13:49:30Z</time>
      </trkpt>
      <trkpt lat="48.73384" lon="2.49912">
        <ele>90</ele>
        <time>2017-09-05T13:49:30Z</time>
      </trkpt>
      <trkpt lat="48.73385" lon="2.49905">
        <ele>90</ele>
        <time>2017-09-05T13:49:30Z</time>
      </trkpt>
      <trkpt lat="48.73386" lon="2.49898">
        <ele>90</ele>
        <time>2017-09-05T13:49:30Z</time>
      </trkpt>
      <trkpt lat="48.73387" lon="2.49887">
        <ele>90</ele>
        <time>2017-09-05T13:49:46Z</time>
      </trkpt>
      <trkpt lat="48.73387" lon="2.49879">
        <ele>90</ele>
        <time>2017-09-05T13:49:46Z</time>
      </trkpt>
      <trkpt lat="48.73388" lon="2.49872">
        <ele>90</ele>
        <time>2017-09-05T13:49:46Z</time>
      </trkpt>
      <trkpt lat="48.73389" lon="2.49862">
        <ele>90</ele>
        <time>2017-09-05T13:49:46Z</time>
      </trkpt>
      <trkpt lat="48.7339" lon="2.49853">
        <ele>90</ele>
        <time>2017-09-05T13:50:02Z</time>
      </trkpt>
      <trkpt lat="48.73389" lon="2.49846">
        <ele>90</ele>
        <time>2017-09-05T13:50:02Z</time>
      </trkpt>
      <trkpt lat="48.7339" lon="2.49838">
        <ele>90</ele>
        <time>2017-09-05T13:50:02Z</time>
      </trkpt>
      <trkpt lat="48.73388" lon="2.49828">
        <ele>90</ele>
        <time>2017-09-05T13:50:02Z</time>
      </trkpt>
      <trkpt lat="48.73387" lon="2.4982">
        <ele>90</ele>
        <time>2017-09-05T13:50:18Z</time>
      </trkpt>
      <trkpt lat="48.73387" lon="2.49811">
        <ele>90</ele>
        <time>2017-09-05T13:50:18Z</time>
      </trkpt>
      <trkpt lat="48.7339" lon="2.49805">
        <ele>90</ele>
        <time>2017-09-05T13:50:18Z</time>
      </trkpt>
      <trkpt lat="48.73392" lon="2.49798">
        <ele>90</ele>
        <time>2017-09-05T13:50:18Z</time>
      </trkpt>
      <trkpt lat="48.73394" lon="2.49787">
        <ele>90</ele>
        <time>2017-09-05T13:50:34Z</time>
      </trkpt>
      <trkpt lat="48.73396" lon="2.49778">
        <ele>90</ele>
        <time>2017-09-05T13:50:34Z</time>
      </trkpt>
      <trkpt lat="48.734" lon="2.49772">
        <ele>90</ele>
        <time>2017-09-05T13:50:34Z</time>
      </trkpt>
      <trkpt lat="48.73401" lon="2.49765">
        <ele>90</ele>
        <time>2017-09-05T13:50:34Z</time>
      </trkpt>
      <trkpt lat="48.73404" lon="2.49757">
        <ele>90</ele>
        <time>2017-09-05T13:50:50Z</time>
      </trkpt>
      <trkpt lat="48.73404" lon="2.49751">
        <ele>90</ele>
        <time>2017-09-05T13:50:50Z</time>
      </trkpt>
      <trkpt lat="48.73404" lon="2.49741">
        <ele>90</ele>
        <time>2017-09-05T13:50:50Z</time>
      </trkpt>
      <trkpt lat="48.73405" lon="2.49733">
        <ele>90</ele>
        <time>2017-09-05T13:50:50Z</time>
      </trkpt>
      <trkpt lat="48.73407" lon="2.49729">
        <ele>90</ele>
        <time>2017-09-05T13:51:10Z</time>
      </trkpt>
      <trkpt lat="48.73408" lon="2.49727">
        <ele>90</ele>
        <time>2017-09-05T13:51:10Z</time>
      </trkpt>
      <trkpt lat="48.73409" lon="2.49727">
        <ele>90</ele>
        <time>2017-09-05T13:51:10Z</time>
      </trkpt>
      <trkpt lat="48.73411" lon="2.4972">
        <ele>90</ele>
        <time>2017-09-05T13:51:10Z</time>
      </trkpt>
      <trkpt lat="48.73413" lon="2.49717">
        <ele>90</ele>
        <time>2017-09-05T13:51:10Z</time>
      </trkpt>
      <trkpt lat="48.73412" lon="2.49708">
        <ele>90</ele>
        <time>2017-09-05T13:51:26Z</time>
      </trkpt>
      <trkpt lat="48.73412" lon="2.49697">
        <ele>91</ele>
        <time>2017-09-05T13:51:26Z</time>
      </trkpt>
      <trkpt lat="48.73409" lon="2.4969">
        <ele>91</ele>
        <time>2017-09-05T13:51:26Z</time>
      </trkpt>
      <trkpt lat="48.7341" lon="2.49683">
        <ele>91</ele>
        <time>2017-09-05T13:51:26Z</time>
      </trkpt>
      <trkpt lat="48.73408" lon="2.49675">
        <ele>91</ele>
        <time>2017-09-05T13:51:42Z</time>
      </trkpt>
      <trkpt lat="48.73402" lon="2.49672">
        <ele>91</ele>
        <time>2017-09-05T13:51:42Z</time>
      </trkpt>
      <trkpt lat="48.73396" lon="2.49671">
        <ele>91</ele>
        <time>2017-09-05T13:51:42Z</time>
      </trkpt>
      <trkpt lat="48.73391" lon="2.4967">
        <ele>91</ele>
        <time>2017-09-05T13:51:42Z</time>
      </trkpt>
      <trkpt lat="48.73386" lon="2.49666">
        <ele>91</ele>
        <time>2017-09-05T13:52:02Z</time>
      </trkpt>
      <trkpt lat="48.73384" lon="2.49662">
        <ele>91</ele>
        <time>2017-09-05T13:52:02Z</time>
      </trkpt>
      <trkpt lat="48.73384" lon="2.49661">
        <ele>91</ele>
        <time>2017-09-05T13:52:02Z</time>
      </trkpt>
      <trkpt lat="48.73382" lon="2.49657">
        <ele>91</ele>
        <time>2017-09-05T13:52:02Z</time>
      </trkpt>
      <trkpt lat="48.73382" lon="2.49651">
        <ele>91</ele>
        <time>2017-09-05T13:52:02Z</time>
      </trkpt>
      <trkpt lat="48.73382" lon="2.49645">
        <ele>91</ele>
        <time>2017-09-05T13:52:18Z</time>
      </trkpt>
      <trkpt lat="48.73382" lon="2.49637">
        <ele>91</ele>
        <time>2017-09-05T13:52:18Z</time>
      </trkpt>
      <trkpt lat="48.7338" lon="2.49631">
        <ele>91</ele>
        <time>2017-09-05T13:52:18Z</time>
      </trkpt>
      <trkpt lat="48.73377" lon="2.49626">
        <ele>91</ele>
        <time>2017-09-05T13:52:18Z</time>
      </trkpt>
      <trkpt lat="48.73376" lon="2.49617">
        <ele>91</ele>
        <time>2017-09-05T13:52:34Z</time>
      </trkpt>
      <trkpt lat="48.73377" lon="2.49605">
        <ele>91</ele>
        <time>2017-09-05T13:52:34Z</time>
      </trkpt>
      <trkpt lat="48.73379" lon="2.49595">
        <ele>91</ele>
        <time>2017-09-05T13:52:34Z</time>
      </trkpt>
      <trkpt lat="48.73381" lon="2.49586">
        <ele>91</ele>
        <time>2017-09-05T13:52:34Z</time>
      </trkpt>
      <trkpt lat="48.73384" lon="2.49578">
        <ele>91</ele>
        <time>2017-09-05T13:52:50Z</time>
      </trkpt>
      <trkpt lat="48.73387" lon="2.4957">
        <ele>91</ele>
        <time>2017-09-05T13:52:50Z</time>
      </trkpt>
      <trkpt lat="48.73389" lon="2.49564">
        <ele>91</ele>
        <time>2017-09-05T13:52:50Z</time>
      </trkpt>
      <trkpt lat="48.73389" lon="2.49555">
        <ele>91</ele>
        <time>2017-09-05T13:52:50Z</time>
      </trkpt>
      <trkpt lat="48.7339" lon="2.49544">
        <ele>91</ele>
        <time>2017-09-05T13:53:06Z</time>
      </trkpt>
      <trkpt lat="48.7339" lon="2.49537">
        <ele>91</ele>
        <time>2017-09-05T13:53:06Z</time>
      </trkpt>
      <trkpt lat="48.73391" lon="2.4953">
        <ele>91</ele>
        <time>2017-09-05T13:53:06Z</time>
      </trkpt>
      <trkpt lat="48.73392" lon="2.49522">
        <ele>91</ele>
        <time>2017-09-05T13:53:06Z</time>
      </trkpt>
      <trkpt lat="48.73393" lon="2.49518">
        <ele>91</ele>
        <time>2017-09-05T13:53:22Z</time>
      </trkpt>
      <trkpt lat="48.73396" lon="2.4951">
        <ele>91</ele>
        <time>2017-09-05T13:53:22Z</time>
      </trkpt>
      <trkpt lat="48.73397" lon="2.49502">
        <ele>91</ele>
        <time>2017-09-05T13:53:22Z</time>
      </trkpt>
      <trkpt lat="48.73399" lon="2.49489">
        <ele>91</ele>
        <time>2017-09-05T13:53:22Z</time>
      </trkpt>
      <trkpt lat="48.734" lon="2.4948">
        <ele>91</ele>
        <time>2017-09-05T13:53:38Z</time>
      </trkpt>
      <trkpt lat="48.73401" lon="2.49472">
        <ele>91</ele>
        <time>2017-09-05T13:53:38Z</time>
      </trkpt>
      <trkpt lat="48.73403" lon="2.49464">
        <ele>91</ele>
        <time>2017-09-05T13:53:38Z</time>
      </trkpt>
      <trkpt lat="48.73405" lon="2.49459">
        <ele>91</ele>
        <time>2017-09-05T13:53:38Z</time>
      </trkpt>
      <trkpt lat="48.73407" lon="2.49453">
        <ele>92</ele>
        <time>2017-09-05T13:53:54Z</time>
      </trkpt>
      <trkpt lat="48.73407" lon="2.49443">
        <ele>92</ele>
        <time>2017-09-05T13:53:54Z</time>
      </trkpt>
      <trkpt lat="48.73406" lon="2.49434">
        <ele>92</ele>
        <time>2017-09-05T13:53:54Z</time>
      </trkpt>
      <trkpt lat="48.73405" lon="2.49426">
        <ele>92</ele>
        <time>2017-09-05T13:53:54Z</time>
      </trkpt>
      <trkpt lat="48.73404" lon="2.49419">
        <ele>92</ele>
        <time>2017-09-05T13:54:10Z</time>
      </trkpt>
      <trkpt lat="48.73406" lon="2.49411">
        <ele>92</ele>
        <time>2017-09-05T13:54:10Z</time>
      </trkpt>
      <trkpt lat="48.73409" lon="2.49402">
        <ele>92</ele>
        <time>2017-09-05T13:54:10Z</time>
      </trkpt>
      <trkpt lat="48.73411" lon="2.49393">
        <ele>92</ele>
        <time>2017-09-05T13:54:10Z</time>
      </trkpt>
      <trkpt lat="48.73411" lon="2.49387">
        <ele>92</ele>
        <time>2017-09-05T13:54:26Z</time>
      </trkpt>
      <trkpt lat="48.73408" lon="2.49378">
        <ele>92</ele>
        <time>2017-09-05T13:54:26Z</time>
      </trkpt>
      <trkpt lat="48.73408" lon="2.49372">
        <ele>93</ele>
        <time>2017-09-05T13:54:26Z</time>
      </trkpt>
      <trkpt lat="48.7341" lon="2.49367">
        <ele>93</ele>
        <time>2017-09-05T13:54:26Z</time>
      </trkpt>
      <trkpt lat="48.73412" lon="2.49357">
        <ele>93</ele>
        <time>2017-09-05T13:54:42Z</time>
      </trkpt>
      <trkpt lat="48.73409" lon="2.49349">
        <ele>93</ele>
        <time>2017-09-05T13:54:42Z</time>
      </trkpt>
      <trkpt lat="48.73405" lon="2.49347">
        <ele>93</ele>
        <time>2017-09-05T13:54:42Z</time>
      </trkpt>
      <trkpt lat="48.734" lon="2.49343">
        <ele>93</ele>
        <time>2017-09-05T13:54:42Z</time>
      </trkpt>
      <trkpt lat="48.73395" lon="2.49341">
        <ele>93</ele>
        <time>2017-09-05T13:54:58Z</time>
      </trkpt>
      <trkpt lat="48.7339" lon="2.49341">
        <ele>93</ele>
        <time>2017-09-05T13:54:58Z</time>
      </trkpt>
      <trkpt lat="48.73387" lon="2.49349">
        <ele>93</ele>
        <time>2017-09-05T13:54:58Z</time>
      </trkpt>
      <trkpt lat="48.73381" lon="2.49345">
        <ele>93</ele>
        <time>2017-09-05T13:54:58Z</time>
      </trkpt>
      <trkpt lat="48.73377" lon="2.49339">
        <ele>93</ele>
        <time>2017-09-05T13:55:14Z</time>
      </trkpt>
      <trkpt lat="48.73374" lon="2.49339">
        <ele>96</ele>
        <time>2017-09-05T13:55:14Z</time>
      </trkpt>
      <trkpt lat="48.73371" lon="2.49333">
        <ele>96</ele>
        <time>2017-09-05T13:55:14Z</time>
      </trkpt>
      <trkpt lat="48.73372" lon="2.49328">
        <ele>96</ele>
        <time>2017-09-05T13:55:14Z</time>
      </trkpt>
      <trkpt lat="48.7337" lon="2.4932">
        <ele>96</ele>
        <time>2017-09-05T13:55:30Z</time>
      </trkpt>
      <trkpt lat="48.73369" lon="2.49317">
        <ele>96</ele>
        <time>2017-09-05T13:55:30Z</time>
      </trkpt>
      <trkpt lat="48.73366" lon="2.49304">
        <ele>96</ele>
        <time>2017-09-05T13:55:30Z</time>
      </trkpt>
      <trkpt lat="48.73365" lon="2.49301">
        <ele>96</ele>
        <time>2017-09-05T13:55:30Z</time>
      </trkpt>
      <trkpt lat="48.73365" lon="2.493">
        <ele>96</ele>
        <time>2017-09-05T13:55:46Z</time>
      </trkpt>
      <trkpt lat="48.73363" lon="2.49291">
        <ele>97</ele>
        <time>2017-09-05T13:55:46Z</time>
      </trkpt>
      <trkpt lat="48.73361" lon="2.49276">
        <ele>97</ele>
        <time>2017-09-05T13:55:46Z</time>
      </trkpt>
      <trkpt lat="48.73361" lon="2.49273">
        <ele>97</ele>
        <time>2017-09-05T13:55:46Z</time>
      </trkpt>
      <trkpt lat="48.7336" lon="2.49266">
        <ele>97</ele>
        <time>2017-09-05T13:56:02Z</time>
      </trkpt>
      <trkpt lat="48.73359" lon="2.49256">
        <ele>97</ele>
        <time>2017-09-05T13:56:02Z</time>
      </trkpt>
      <trkpt lat="48.73359" lon="2.49249">
        <ele>97</ele>
        <time>2017-09-05T13:56:02Z</time>
      </trkpt>
      <trkpt lat="48.73358" lon="2.49243">
        <ele>97</ele>
        <time>2017-09-05T13:56:02Z</time>
      </trkpt>
      <trkpt lat="48.73357" lon="2.49234">
        <ele>97</ele>
        <time>2017-09-05T13:56:18Z</time>
      </trkpt>
      <trkpt lat="48.73358" lon="2.49227">
        <ele>97</ele>
        <time>2017-09-05T13:56:18Z</time>
      </trkpt>
      <trkpt lat="48.73356" lon="2.49217">
        <ele>97</ele>
        <time>2017-09-05T13:56:18Z</time>
      </trkpt>
      <trkpt lat="48.73355" lon="2.49208">
        <ele>96</ele>
        <time>2017-09-05T13:56:18Z</time>
      </trkpt>
      <trkpt lat="48.73355" lon="2.49202">
        <ele>96</ele>
        <time>2017-09-05T13:56:34Z</time>
      </trkpt>
      <trkpt lat="48.73354" lon="2.49193">
        <ele>96</ele>
        <time>2017-09-05T13:56:34Z</time>
      </trkpt>
      <trkpt lat="48.73354" lon="2.49188">
        <ele>96</ele>
        <time>2017-09-05T13:56:34Z</time>
      </trkpt>
      <trkpt lat="48.73353" lon="2.49182">
        <ele>96</ele>
        <time>2017-09-05T13:56:34Z</time>
      </trkpt>
      <trkpt lat="48.73353" lon="2.49175">
        <ele>96</ele>
        <time>2017-09-05T13:56:50Z</time>
      </trkpt>
      <trkpt lat="48.73352" lon="2.49169">
        <ele>96</ele>
        <time>2017-09-05T13:56:50Z</time>
      </trkpt>
      <trkpt lat="48.73349" lon="2.49163">
        <ele>96</ele>
        <time>2017-09-05T13:56:50Z</time>
      </trkpt>
      <trkpt lat="48.73344" lon="2.49155">
        <ele>96</ele>
        <time>2017-09-05T13:56:50Z</time>
      </trkpt>
      <trkpt lat="48.73341" lon="2.49143">
        <ele>96</ele>
        <time>2017-09-05T13:57:06Z</time>
      </trkpt>
      <trkpt lat="48.7334" lon="2.49132">
        <ele>96</ele>
        <time>2017-09-05T13:57:06Z</time>
      </trkpt>
      <trkpt lat="48.73339" lon="2.49127">
        <ele>96</ele>
        <time>2017-09-05T13:57:06Z</time>
      </trkpt>
      <trkpt lat="48.73337" lon="2.49123">
        <ele>93</ele>
        <time>2017-09-05T13:57:06Z</time>
      </trkpt>
      <trkpt lat="48.73337" lon="2.49122">
        <ele>93</ele>
        <time>2017-09-05T13:57:30Z</time>
      </trkpt>
      <trkpt lat="48.73338" lon="2.4912">
        <ele>93</ele>
        <time>2017-09-05T13:57:30Z</time>
      </trkpt>
      <trkpt lat="48.7334" lon="2.49117">
        <ele>93</ele>
        <time>2017-09-05T13:57:30Z</time>
      </trkpt>
      <trkpt lat="48.73342" lon="2.49115">
        <ele>93</ele>
        <time>2017-09-05T13:57:30Z</time>
      </trkpt>
      <trkpt lat="48.73345" lon="2.49112">
        <ele>93</ele>
        <time>2017-09-05T13:57:30Z</time>
      </trkpt>
      <trkpt lat="48.73344" lon="2.49112">
        <ele>93</ele>
        <time>2017-09-05T13:57:46Z</time>
      </trkpt>
      <trkpt lat="48.7334" lon="2.49111">
        <ele>93</ele>
        <time>2017-09-05T13:57:46Z</time>
      </trkpt>
      <trkpt lat="48.73338" lon="2.49104">
        <ele>93</ele>
        <time>2017-09-05T13:57:46Z</time>
      </trkpt>
      <trkpt lat="48.73335" lon="2.49093">
        <ele>93</ele>
        <time>2017-09-05T13:57:46Z</time>
      </trkpt>
      <trkpt lat="48.73333" lon="2.49086">
        <ele>93</ele>
        <time>2017-09-05T13:58:02Z</time>
      </trkpt>
      <trkpt lat="48.73334" lon="2.49082">
        <ele>93</ele>
        <time>2017-09-05T13:58:02Z</time>
      </trkpt>
      <trkpt lat="48.73334" lon="2.49074">
        <ele>93</ele>
        <time>2017-09-05T13:58:02Z</time>
      </trkpt>
      <trkpt lat="48.73333" lon="2.49068">
        <ele>93</ele>
        <time>2017-09-05T13:58:02Z</time>
      </trkpt>
      <trkpt lat="48.73332" lon="2.49061">
        <ele>93</ele>
        <time>2017-09-05T13:58:18Z</time>
      </trkpt>
      <trkpt lat="48.7333" lon="2.49054">
        <ele>93</ele>
        <time>2017-09-05T13:58:18Z</time>
      </trkpt>
      <trkpt lat="48.73327" lon="2.49044">
        <ele>93</ele>
        <time>2017-09-05T13:58:18Z</time>
      </trkpt>
      <trkpt lat="48.73324" lon="2.49035">
        <ele>94</ele>
        <time>2017-09-05T13:58:18Z</time>
      </trkpt>
      <trkpt lat="48.73323" lon="2.4903">
        <ele>94</ele>
        <time>2017-09-05T13:58:34Z</time>
      </trkpt>
      <trkpt lat="48.73322" lon="2.49022">
        <ele>94</ele>
        <time>2017-09-05T13:58:34Z</time>
      </trkpt>
      <trkpt lat="48.7332" lon="2.49017">
        <ele>94</ele>
        <time>2017-09-05T13:58:34Z</time>
      </trkpt>
      <trkpt lat="48.7332" lon="2.49011">
        <ele>94</ele>
        <time>2017-09-05T13:58:34Z</time>
      </trkpt>
      <trkpt lat="48.7332" lon="2.49006">
        <ele>94</ele>
        <time>2017-09-05T13:58:50Z</time>
      </trkpt>
      <trkpt lat="48.73319" lon="2.48999">
        <ele>94</ele>
        <time>2017-09-05T13:58:50Z</time>
      </trkpt>
      <trkpt lat="48.73319" lon="2.48993">
        <ele>94</ele>
        <time>2017-09-05T13:58:50Z</time>
      </trkpt>
      <trkpt lat="48.73318" lon="2.48983">
        <ele>94</ele>
        <time>2017-09-05T13:58:50Z</time>
      </trkpt>
      <trkpt lat="48.73319" lon="2.48975">
        <ele>94</ele>
        <time>2017-09-05T13:59:06Z</time>
      </trkpt>
      <trkpt lat="48.73315" lon="2.48968">
        <ele>94</ele>
        <time>2017-09-05T13:59:06Z</time>
      </trkpt>
      <trkpt lat="48.73314" lon="2.48961">
        <ele>94</ele>
        <time>2017-09-05T13:59:06Z</time>
      </trkpt>
      <trkpt lat="48.73315" lon="2.48949">
        <ele>94</ele>
        <time>2017-09-05T13:59:06Z</time>
      </trkpt>
      <trkpt lat="48.73317" lon="2.48943">
        <ele>94</ele>
        <time>2017-09-05T13:59:22Z</time>
      </trkpt>
      <trkpt lat="48.73319" lon="2.48939">
        <ele>94</ele>
        <time>2017-09-05T13:59:22Z</time>
      </trkpt>
      <trkpt lat="48.73317" lon="2.48934">
        <ele>94</ele>
        <time>2017-09-05T13:59:22Z</time>
      </trkpt>
      <trkpt lat="48.73316" lon="2.48929">
        <ele>94</ele>
        <time>2017-09-05T13:59:22Z</time>
      </trkpt>
      <trkpt lat="48.73316" lon="2.48924">
        <ele>94</ele>
        <time>2017-09-05T13:59:38Z</time>
      </trkpt>
      <trkpt lat="48.73315" lon="2.4892">
        <ele>94</ele>
        <time>2017-09-05T13:59:38Z</time>
      </trkpt>
      <trkpt lat="48.73315" lon="2.48913">
        <ele>94</ele>
        <time>2017-09-05T13:59:38Z</time>
      </trkpt>
      <trkpt lat="48.73315" lon="2.48904">
        <ele>94</ele>
        <time>2017-09-05T13:59:38Z</time>
      </trkpt>
      <trkpt lat="48.73316" lon="2.48896">
        <ele>94</ele>
        <time>2017-09-05T13:59:54Z</time>
      </trkpt>
      <trkpt lat="48.73314" lon="2.4889">
        <ele>94</ele>
        <time>2017-09-05T13:59:54Z</time>
      </trkpt>
      <trkpt lat="48.73314" lon="2.4888">
        <ele>94</ele>
        <time>2017-09-05T13:59:54Z</time>
      </trkpt>
      <trkpt lat="48.73313" lon="2.48867">
        <ele>94</ele>
        <time>2017-09-05T13:59:54Z</time>
      </trkpt>
      <trkpt lat="48.73311" lon="2.4885">
        <ele>94</ele>
        <time>2017-09-05T14:00:10Z</time>
      </trkpt>
      <trkpt lat="48.73309" lon="2.4884">
        <ele>94</ele>
        <time>2017-09-05T14:00:10Z</time>
      </trkpt>
      <trkpt lat="48.73308" lon="2.48833">
        <ele>94</ele>
        <time>2017-09-05T14:00:10Z</time>
      </trkpt>
      <trkpt lat="48.73307" lon="2.48827">
        <ele>94</ele>
        <time>2017-09-05T14:00:10Z</time>
      </trkpt>
      <trkpt lat="48.73305" lon="2.48822">
        <ele>94</ele>
        <time>2017-09-05T14:00:26Z</time>
      </trkpt>
      <trkpt lat="48.73303" lon="2.48811">
        <ele>94</ele>
        <time>2017-09-05T14:00:26Z</time>
      </trkpt>
      <trkpt lat="48.73299" lon="2.48801">
        <ele>94</ele>
        <time>2017-09-05T14:00:26Z</time>
      </trkpt>
      <trkpt lat="48.73296" lon="2.48792">
        <ele>94</ele>
        <time>2017-09-05T14:00:26Z</time>
      </trkpt>
      <trkpt lat="48.73291" lon="2.48781">
        <ele>94</ele>
        <time>2017-09-05T14:00:42Z</time>
      </trkpt>
      <trkpt lat="48.7329" lon="2.48771">
        <ele>94</ele>
        <time>2017-09-05T14:00:42Z</time>
      </trkpt>
      <trkpt lat="48.73289" lon="2.48763">
        <ele>94</ele>
        <time>2017-09-05T14:00:42Z</time>
      </trkpt>
      <trkpt lat="48.73288" lon="2.48754">
        <ele>94</ele>
        <time>2017-09-05T14:00:42Z</time>
      </trkpt>
      <trkpt lat="48.73285" lon="2.48747">
        <ele>94</ele>
        <time>2017-09-05T14:00:58Z</time>
      </trkpt>
      <trkpt lat="48.73285" lon="2.48739">
        <ele>94</ele>
        <time>2017-09-05T14:00:58Z</time>
      </trkpt>
      <trkpt lat="48.73285" lon="2.48732">
        <ele>94</ele>
        <time>2017-09-05T14:00:58Z</time>
      </trkpt>
      <trkpt lat="48.73285" lon="2.48726">
        <ele>94</ele>
        <time>2017-09-05T14:00:58Z</time>
      </trkpt>
      <trkpt lat="48.73284" lon="2.48721">
        <ele>94</ele>
        <time>2017-09-05T14:01:14Z</time>
      </trkpt>
      <trkpt lat="48.73282" lon="2.48719">
        <ele>94</ele>
        <time>2017-09-05T14:01:14Z</time>
      </trkpt>
      <trkpt lat="48.73281" lon="2.48714">
        <ele>94</ele>
        <time>2017-09-05T14:01:14Z</time>
      </trkpt>
      <trkpt lat="48.73279" lon="2.48708">
        <ele>94</ele>
        <time>2017-09-05T14:01:14Z</time>
      </trkpt>
      <trkpt lat="48.73278" lon="2.48697">
        <ele>94</ele>
        <time>2017-09-05T14:01:30Z</time>
      </trkpt>
      <trkpt lat="48.73278" lon="2.4869">
        <ele>94</ele>
        <time>2017-09-05T14:01:30Z</time>
      </trkpt>
      <trkpt lat="48.73276" lon="2.48682">
        <ele>94</ele>
        <time>2017-09-05T14:01:30Z</time>
      </trkpt>
      <trkpt lat="48.73272" lon="2.48673">
        <ele>94</ele>
        <time>2017-09-05T14:01:30Z</time>
      </trkpt>
      <trkpt lat="48.73265" lon="2.4867">
        <ele>94</ele>
        <time>2017-09-05T14:01:46Z</time>
      </trkpt>
      <trkpt lat="48.73262" lon="2.48671">
        <ele>94</ele>
        <time>2017-09-05T14:01:46Z</time>
      </trkpt>
      <trkpt lat="48.73256" lon="2.48668">
        <ele>94</ele>
        <time>2017-09-05T14:01:46Z</time>
      </trkpt>
      <trkpt lat="48.73252" lon="2.48667">
        <ele>94</ele>
        <time>2017-09-05T14:01:46Z</time>
      </trkpt>
      <trkpt lat="48.73248" lon="2.48669">
        <ele>94</ele>
        <time>2017-09-05T14:02:02Z</time>
      </trkpt>
      <trkpt lat="48.73242" lon="2.48666">
        <ele>94</ele>
        <time>2017-09-05T14:02:02Z</time>
      </trkpt>
      <trkpt lat="48.73236" lon="2.48667">
        <ele>94</ele>
        <time>2017-09-05T14:02:02Z</time>
      </trkpt>
      <trkpt lat="48.73234" lon="2.48667">
        <ele>94</ele>
        <time>2017-09-05T14:02:02Z</time>
      </trkpt>
      <trkpt lat="48.7323" lon="2.48669">
        <ele>94</ele>
        <time>2017-09-05T14:02:18Z</time>
      </trkpt>
      <trkpt lat="48.73226" lon="2.48675">
        <ele>94</ele>
        <time>2017-09-05T14:02:18Z</time>
      </trkpt>
      <trkpt lat="48.7322" lon="2.48681">
        <ele>94</ele>
        <time>2017-09-05T14:02:18Z</time>
      </trkpt>
      <trkpt lat="48.73216" lon="2.48685">
        <ele>94</ele>
        <time>2017-09-05T14:02:18Z</time>
      </trkpt>
      <trkpt lat="48.7321" lon="2.48691">
        <ele>94</ele>
        <time>2017-09-05T14:02:34Z</time>
      </trkpt>
      <trkpt lat="48.73201" lon="2.48693">
        <ele>95</ele>
        <time>2017-09-05T14:02:34Z</time>
      </trkpt>
      <trkpt lat="48.73194" lon="2.48699">
        <ele>95</ele>
        <time>2017-09-05T14:02:34Z</time>
      </trkpt>
      <trkpt lat="48.73191" lon="2.48706">
        <ele>95</ele>
        <time>2017-09-05T14:02:34Z</time>
      </trkpt>
      <trkpt lat="48.73185" lon="2.48712">
        <ele>95</ele>
        <time>2017-09-05T14:02:50Z</time>
      </trkpt>
      <trkpt lat="48.73181" lon="2.48717">
        <ele>95</ele>
        <time>2017-09-05T14:02:50Z</time>
      </trkpt>
      <trkpt lat="48.73178" lon="2.48723">
        <ele>95</ele>
        <time>2017-09-05T14:02:50Z</time>
      </trkpt>
      <trkpt lat="48.73174" lon="2.48729">
        <ele>95</ele>
        <time>2017-09-05T14:02:50Z</time>
      </trkpt>
      <trkpt lat="48.73169" lon="2.48737">
        <ele>95</ele>
        <time>2017-09-05T14:03:06Z</time>
      </trkpt>
      <trkpt lat="48.73166" lon="2.48747">
        <ele>95</ele>
        <time>2017-09-05T14:03:06Z</time>
      </trkpt>
      <trkpt lat="48.73163" lon="2.48753">
        <ele>95</ele>
        <time>2017-09-05T14:03:06Z</time>
      </trkpt>
      <trkpt lat="48.73161" lon="2.48761">
        <ele>95</ele>
        <time>2017-09-05T14:03:06Z</time>
      </trkpt>
      <trkpt lat="48.73158" lon="2.48772">
        <ele>95</ele>
        <time>2017-09-05T14:03:22Z</time>
      </trkpt>
      <trkpt lat="48.73155" lon="2.48777">
        <ele>95</ele>
        <time>2017-09-05T14:03:22Z</time>
      </trkpt>
      <trkpt lat="48.7315" lon="2.48782">
        <ele>95</ele>
        <time>2017-09-05T14:03:22Z</time>
      </trkpt>
      <trkpt lat="48.73144" lon="2.48787">
        <ele>95</ele>
        <time>2017-09-05T14:03:22Z</time>
      </trkpt>
      <trkpt lat="48.73141" lon="2.48793">
        <ele>96</ele>
        <time>2017-09-05T14:03:38Z</time>
      </trkpt>
      <trkpt lat="48.73139" lon="2.488">
        <ele>96</ele>
        <time>2017-09-05T14:03:38Z</time>
      </trkpt>
      <trkpt lat="48.73135" lon="2.48805">
        <ele>96</ele>
        <time>2017-09-05T14:03:38Z</time>
      </trkpt>
      <trkpt lat="48.73131" lon="2.48811">
        <ele>96</ele>
        <time>2017-09-05T14:03:38Z</time>
      </trkpt>
      <trkpt lat="48.73126" lon="2.48813">
        <ele>96</ele>
        <time>2017-09-05T14:03:54Z</time>
      </trkpt>
      <trkpt lat="48.73122" lon="2.48815">
        <ele>94</ele>
        <time>2017-09-05T14:03:54Z</time>
      </trkpt>
      <trkpt lat="48.73119" lon="2.48822">
        <ele>94</ele>
        <time>2017-09-05T14:03:54Z</time>
      </trkpt>
      <trkpt lat="48.73118" lon="2.48825">
        <ele>94</ele>
        <time>2017-09-05T14:03:54Z</time>
      </trkpt>
      <trkpt lat="48.73113" lon="2.4883">
        <ele>94</ele>
        <time>2017-09-05T14:04:10Z</time>
      </trkpt>
      <trkpt lat="48.7311" lon="2.48836">
        <ele>94</ele>
        <time>2017-09-05T14:04:10Z</time>
      </trkpt>
      <trkpt lat="48.73107" lon="2.48841">
        <ele>94</ele>
        <time>2017-09-05T14:04:10Z</time>
      </trkpt>
      <trkpt lat="48.73103" lon="2.48843">
        <ele>94</ele>
        <time>2017-09-05T14:04:10Z</time>
      </trkpt>
      <trkpt lat="48.73098" lon="2.48849">
        <ele>94</ele>
        <time>2017-09-05T14:04:26Z</time>
      </trkpt>
      <trkpt lat="48.73095" lon="2.48854">
        <ele>94</ele>
        <time>2017-09-05T14:04:26Z</time>
      </trkpt>
      <trkpt lat="48.73093" lon="2.48859">
        <ele>94</ele>
        <time>2017-09-05T14:04:26Z</time>
      </trkpt>
      <trkpt lat="48.73087" lon="2.48862">
        <ele>94</ele>
        <time>2017-09-05T14:04:26Z</time>
      </trkpt>
      <trkpt lat="48.7308" lon="2.48866">
        <ele>94</ele>
        <time>2017-09-05T14:04:42Z</time>
      </trkpt>
      <trkpt lat="48.73074" lon="2.48868">
        <ele>94</ele>
        <time>2017-09-05T14:04:42Z</time>
      </trkpt>
      <trkpt lat="48.73069" lon="2.48866">
        <ele>94</ele>
        <time>2017-09-05T14:04:42Z</time>
      </trkpt>
      <trkpt lat="48.73064" lon="2.48863">
        <ele>94</ele>
        <time>2017-09-05T14:04:42Z</time>
      </trkpt>
      <trkpt lat="48.73059" lon="2.48863">
        <ele>94</ele>
        <time>2017-09-05T14:05:02Z</time>
      </trkpt>
      <trkpt lat="48.73058" lon="2.48862">
        <ele>94</ele>
        <time>2017-09-05T14:05:02Z</time>
      </trkpt>
      <trkpt lat="48.73058" lon="2.48854">
        <ele>94</ele>
        <time>2017-09-05T14:05:02Z</time>
      </trkpt>
      <trkpt lat="48.73058" lon="2.48852">
        <ele>94</ele>
        <time>2017-09-05T14:05:02Z</time>
      </trkpt>
      <trkpt lat="48.73056" lon="2.48847">
        <ele>94</ele>
        <time>2017-09-05T14:05:02Z</time>
      </trkpt>
      <trkpt lat="48.73054" lon="2.48841">
        <ele>94</ele>
        <time>2017-09-05T14:05:18Z</time>
      </trkpt>
      <trkpt lat="48.73053" lon="2.48833">
        <ele>94</ele>
        <time>2017-09-05T14:05:18Z</time>
      </trkpt>
      <trkpt lat="48.7305" lon="2.48823">
        <ele>94</ele>
        <time>2017-09-05T14:05:18Z</time>
      </trkpt>
      <trkpt lat="48.73046" lon="2.48816">
        <ele>94</ele>
        <time>2017-09-05T14:05:18Z</time>
      </trkpt>
      <trkpt lat="48.73044" lon="2.48812">
        <ele>94</ele>
        <time>2017-09-05T14:05:34Z</time>
      </trkpt>
      <trkpt lat="48.73043" lon="2.48806">
        <ele>94</ele>
        <time>2017-09-05T14:05:34Z</time>
      </trkpt>
      <trkpt lat="48.73041" lon="2.48796">
        <ele>98</ele>
        <time>2017-09-05T14:05:34Z</time>
      </trkpt>
      <trkpt lat="48.73036" lon="2.48786">
        <ele>96</ele>
        <time>2017-09-05T14:05:34Z</time>
      </trkpt>
      <trkpt lat="48.73032" lon="2.48781">
        <ele>96</ele>
        <time>2017-09-05T14:05:50Z</time>
      </trkpt>
      <trkpt lat="48.73026" lon="2.4877">
        <ele>96</ele>
        <time>2017-09-05T14:05:50Z</time>
      </trkpt>
      <trkpt lat="48.73025" lon="2.48767">
        <ele>96</ele>
        <time>2017-09-05T14:05:50Z</time>
      </trkpt>
      <trkpt lat="48.73022" lon="2.48762">
        <ele>96</ele>
        <time>2017-09-05T14:05:50Z</time>
      </trkpt>
      <trkpt lat="48.73017" lon="2.48747">
        <ele>96</ele>
        <time>2017-09-05T14:06:06Z</time>
      </trkpt>
      <trkpt lat="48.73016" lon="2.4874">
        <ele>96</ele>
        <time>2017-09-05T14:06:06Z</time>
      </trkpt>
      <trkpt lat="48.73015" lon="2.48737">
        <ele>96</ele>
        <time>2017-09-05T14:06:06Z</time>
      </trkpt>
      <trkpt lat="48.73011" lon="2.48731">
        <ele>96</ele>
        <time>2017-09-05T14:06:06Z</time>
      </trkpt>
      <trkpt lat="48.73008" lon="2.48721">
        <ele>96</ele>
        <time>2017-09-05T14:06:22Z</time>
      </trkpt>
      <trkpt lat="48.73006" lon="2.48714">
        <ele>96</ele>
        <time>2017-09-05T14:06:22Z</time>
      </trkpt>
      <trkpt lat="48.73003" lon="2.48705">
        <ele>95</ele>
        <time>2017-09-05T14:06:22Z</time>
      </trkpt>
      <trkpt lat="48.73001" lon="2.48701">
        <ele>95</ele>
        <time>2017-09-05T14:06:22Z</time>
      </trkpt>
      <trkpt lat="48.72997" lon="2.48693">
        <ele>95</ele>
        <time>2017-09-05T14:06:38Z</time>
      </trkpt>
      <trkpt lat="48.72993" lon="2.48685">
        <ele>95</ele>
        <time>2017-09-05T14:06:38Z</time>
      </trkpt>
      <trkpt lat="48.72988" lon="2.48677">
        <ele>95</ele>
        <time>2017-09-05T14:06:38Z</time>
      </trkpt>
      <trkpt lat="48.72986" lon="2.48666">
        <ele>95</ele>
        <time>2017-09-05T14:06:38Z</time>
      </trkpt>
      <trkpt lat="48.72983" lon="2.48656">
        <ele>95</ele>
        <time>2017-09-05T14:06:54Z</time>
      </trkpt>
      <trkpt lat="48.7298" lon="2.48647">
        <ele>95</ele>
        <time>2017-09-05T14:06:54Z</time>
      </trkpt>
      <trkpt lat="48.72979" lon="2.48638">
        <ele>95</ele>
        <time>2017-09-05T14:06:54Z</time>
      </trkpt>
      <trkpt lat="48.72976" lon="2.48632">
        <ele>95</ele>
        <time>2017-09-05T14:06:54Z</time>
      </trkpt>
      <trkpt lat="48.72974" lon="2.48624">
        <ele>95</ele>
        <time>2017-09-05T14:07:10Z</time>
      </trkpt>
      <trkpt lat="48.72972" lon="2.48618">
        <ele>95</ele>
        <time>2017-09-05T14:07:10Z</time>
      </trkpt>
      <trkpt lat="48.72968" lon="2.48612">
        <ele>95</ele>
        <time>2017-09-05T14:07:10Z</time>
      </trkpt>
      <trkpt lat="48.72966" lon="2.48605">
        <ele>95</ele>
        <time>2017-09-05T14:07:10Z</time>
      </trkpt>
      <trkpt lat="48.72965" lon="2.48598">
        <ele>95</ele>
        <time>2017-09-05T14:07:26Z</time>
      </trkpt>
      <trkpt lat="48.72965" lon="2.48589">
        <ele>95</ele>
        <time>2017-09-05T14:07:26Z</time>
      </trkpt>
      <trkpt lat="48.72965" lon="2.48586">
        <ele>95</ele>
        <time>2017-09-05T14:07:26Z</time>
      </trkpt>
      <trkpt lat="48.72965" lon="2.48582">
        <ele>95</ele>
        <time>2017-09-05T14:07:26Z</time>
      </trkpt>
      <trkpt lat="48.72962" lon="2.48574">
        <ele>95</ele>
        <time>2017-09-05T14:07:42Z</time>
      </trkpt>
      <trkpt lat="48.72959" lon="2.48569">
        <ele>95</ele>
        <time>2017-09-05T14:07:42Z</time>
      </trkpt>
      <trkpt lat="48.72956" lon="2.48562">
        <ele>96</ele>
        <time>2017-09-05T14:07:42Z</time>
      </trkpt>
      <trkpt lat="48.72954" lon="2.48551">
        <ele>96</ele>
        <time>2017-09-05T14:07:42Z</time>
      </trkpt>
      <trkpt lat="48.72952" lon="2.48542">
        <ele>96</ele>
        <time>2017-09-05T14:07:58Z</time>
      </trkpt>
      <trkpt lat="48.7295" lon="2.48533">
        <ele>93</ele>
        <time>2017-09-05T14:07:58Z</time>
      </trkpt>
      <trkpt lat="48.72948" lon="2.48519">
        <ele>93</ele>
        <time>2017-09-05T14:07:58Z</time>
      </trkpt>
      <trkpt lat="48.72947" lon="2.48515">
        <ele>93</ele>
        <time>2017-09-05T14:07:58Z</time>
      </trkpt>
      <trkpt lat="48.72944" lon="2.48508">
        <ele>93</ele>
        <time>2017-09-05T14:08:14Z</time>
      </trkpt>
      <trkpt lat="48.72943" lon="2.48502">
        <ele>93</ele>
        <time>2017-09-05T14:08:14Z</time>
      </trkpt>
      <trkpt lat="48.72942" lon="2.48497">
        <ele>93</ele>
        <time>2017-09-05T14:08:14Z</time>
      </trkpt>
      <trkpt lat="48.72938" lon="2.48489">
        <ele>93</ele>
        <time>2017-09-05T14:08:14Z</time>
      </trkpt>
      <trkpt lat="48.72935" lon="2.4848">
        <ele>93</ele>
        <time>2017-09-05T14:08:30Z</time>
      </trkpt>
      <trkpt lat="48.72931" lon="2.48472">
        <ele>93</ele>
        <time>2017-09-05T14:08:30Z</time>
      </trkpt>
      <trkpt lat="48.72925" lon="2.48467">
        <ele>93</ele>
        <time>2017-09-05T14:08:30Z</time>
      </trkpt>
      <trkpt lat="48.7292" lon="2.48465">
        <ele>93</ele>
        <time>2017-09-05T14:08:30Z</time>
      </trkpt>
      <trkpt lat="48.72914" lon="2.48466">
        <ele>93</ele>
        <time>2017-09-05T14:08:46Z</time>
      </trkpt>
      <trkpt lat="48.72906" lon="2.48465">
        <ele>93</ele>
        <time>2017-09-05T14:08:46Z</time>
      </trkpt>
      <trkpt lat="48.72898" lon="2.48467">
        <ele>93</ele>
        <time>2017-09-05T14:08:46Z</time>
      </trkpt>
      <trkpt lat="48.7289" lon="2.4847">
        <ele>93</ele>
        <time>2017-09-05T14:08:46Z</time>
      </trkpt>
      <trkpt lat="48.72885" lon="2.48471">
        <ele>93</ele>
        <time>2017-09-05T14:09:02Z</time>
      </trkpt>
      <trkpt lat="48.72879" lon="2.48468">
        <ele>93</ele>
        <time>2017-09-05T14:09:02Z</time>
      </trkpt>
      <trkpt lat="48.72876" lon="2.48472">
        <ele>93</ele>
        <time>2017-09-05T14:09:02Z</time>
      </trkpt>
      <trkpt lat="48.72872" lon="2.48472">
        <ele>93</ele>
        <time>2017-09-05T14:09:02Z</time>
      </trkpt>
      <trkpt lat="48.72867" lon="2.48475">
        <ele>93</ele>
        <time>2017-09-05T14:09:18Z</time>
      </trkpt>
      <trkpt lat="48.72862" lon="2.48478">
        <ele>93</ele>
        <time>2017-09-05T14:09:18Z</time>
      </trkpt>
      <trkpt lat="48.72857" lon="2.48479">
        <ele>93</ele>
        <time>2017-09-05T14:09:18Z</time>
      </trkpt>
      <trkpt lat="48.72854" lon="2.48482">
        <ele>93</ele>
        <time>2017-09-05T14:09:18Z</time>
      </trkpt>
      <trkpt lat="48.7285" lon="2.48485">
        <ele>93</ele>
        <time>2017-09-05T14:09:34Z</time>
      </trkpt>
      <trkpt lat="48.72847" lon="2.48486">
        <ele>93</ele>
        <time>2017-09-05T14:09:34Z</time>
      </trkpt>
      <trkpt lat="48.72843" lon="2.48489">
        <ele>93</ele>
        <time>2017-09-05T14:09:34Z</time>
      </trkpt>
      <trkpt lat="48.72837" lon="2.48493">
        <ele>93</ele>
        <time>2017-09-05T14:09:34Z</time>
      </trkpt>
      <trkpt lat="48.72833" lon="2.48494">
        <ele>93</ele>
        <time>2017-09-05T14:09:50Z</time>
      </trkpt>
      <trkpt lat="48.72829" lon="2.48494">
        <ele>93</ele>
        <time>2017-09-05T14:09:50Z</time>
      </trkpt>
      <trkpt lat="48.72824" lon="2.48495">
        <ele>93</ele>
        <time>2017-09-05T14:09:50Z</time>
      </trkpt>
      <trkpt lat="48.72818" lon="2.48498">
        <ele>93</ele>
        <time>2017-09-05T14:09:50Z</time>
      </trkpt>
      <trkpt lat="48.72811" lon="2.48501">
        <ele>93</ele>
        <time>2017-09-05T14:10:06Z</time>
      </trkpt>
      <trkpt lat="48.72802" lon="2.48505">
        <ele>93</ele>
        <time>2017-09-05T14:10:06Z</time>
      </trkpt>
      <trkpt lat="48.72795" lon="2.48507">
        <ele>93</ele>
        <time>2017-09-05T14:10:06Z</time>
      </trkpt>
      <trkpt lat="48.72791" lon="2.48509">
        <ele>92</ele>
        <time>2017-09-05T14:10:06Z</time>
      </trkpt>
      <trkpt lat="48.72785" lon="2.48512">
        <ele>92</ele>
        <time>2017-09-05T14:10:22Z</time>
      </trkpt>
      <trkpt lat="48.72781" lon="2.48515">
        <ele>92</ele>
        <time>2017-09-05T14:10:22Z</time>
      </trkpt>
      <trkpt lat="48.72775" lon="2.48519">
        <ele>92</ele>
        <time>2017-09-05T14:10:22Z</time>
      </trkpt>
      <trkpt lat="48.72772" lon="2.48521">
        <ele>92</ele>
        <time>2017-09-05T14:10:22Z</time>
      </trkpt>
      <trkpt lat="48.72768" lon="2.48523">
        <ele>92</ele>
        <time>2017-09-05T14:10:38Z</time>
      </trkpt>
      <trkpt lat="48.72764" lon="2.48525">
        <ele>92</ele>
        <time>2017-09-05T14:10:38Z</time>
      </trkpt>
      <trkpt lat="48.72758" lon="2.48525">
        <ele>92</ele>
        <time>2017-09-05T14:10:38Z</time>
      </trkpt>
      <trkpt lat="48.72755" lon="2.48525">
        <ele>92</ele>
        <time>2017-09-05T14:10:38Z</time>
      </trkpt>
      <trkpt lat="48.72751" lon="2.48527">
        <ele>92</ele>
        <time>2017-09-05T14:10:54Z</time>
      </trkpt>
      <trkpt lat="48.72748" lon="2.48527">
        <ele>92</ele>
        <time>2017-09-05T14:10:54Z</time>
      </trkpt>
      <trkpt lat="48.72744" lon="2.48528">
        <ele>92</ele>
        <time>2017-09-05T14:10:54Z</time>
      </trkpt>
      <trkpt lat="48.72739" lon="2.48526">
        <ele>92</ele>
        <time>2017-09-05T14:10:54Z</time>
      </trkpt>
      <trkpt lat="48.72735" lon="2.48525">
        <ele>92</ele>
        <time>2017-09-05T14:11:10Z</time>
      </trkpt>
      <trkpt lat="48.72732" lon="2.48527">
        <ele>92</ele>
        <time>2017-09-05T14:11:10Z</time>
      </trkpt>
      <trkpt lat="48.72726" lon="2.48528">
        <ele>92</ele>
        <time>2017-09-05T14:11:10Z</time>
      </trkpt>
      <trkpt lat="48.72722" lon="2.48526">
        <ele>92</ele>
        <time>2017-09-05T14:11:10Z</time>
      </trkpt>
      <trkpt lat="48.72714" lon="2.4853">
        <ele>92</ele>
        <time>2017-09-05T14:11:26Z</time>
      </trkpt>
      <trkpt lat="48.72707" lon="2.4853">
        <ele>95</ele>
        <time>2017-09-05T14:11:26Z</time>
      </trkpt>
      <trkpt lat="48.72701" lon="2.48534">
        <ele>95</ele>
        <time>2017-09-05T14:11:26Z</time>
      </trkpt>
      <trkpt lat="48.72703" lon="2.48542">
        <ele>95</ele>
        <time>2017-09-05T14:11:26Z</time>
      </trkpt>
      <trkpt lat="48.72703" lon="2.48547">
        <ele>95</ele>
        <time>2017-09-05T14:11:54Z</time>
      </trkpt>
      <trkpt lat="48.727" lon="2.48546">
        <ele>95</ele>
        <time>2017-09-05T14:11:54Z</time>
      </trkpt>
      <trkpt lat="48.72699" lon="2.48544">
        <ele>95</ele>
        <time>2017-09-05T14:11:54Z</time>
      </trkpt>
      <trkpt lat="48.72698" lon="2.48542">
        <ele>95</ele>
        <time>2017-09-05T14:11:54Z</time>
      </trkpt>
      <trkpt lat="48.72698" lon="2.48535">
        <ele>95</ele>
        <time>2017-09-05T14:11:54Z</time>
      </trkpt>
      <trkpt lat="48.72697" lon="2.48534">
        <ele>95</ele>
        <time>2017-09-05T14:12:34Z</time>
      </trkpt>
      <trkpt lat="48.72697" lon="2.48535">
        <ele>95</ele>
        <time>2017-09-05T14:12:34Z</time>
      </trkpt>
      <trkpt lat="48.72697" lon="2.4853">
        <ele>95</ele>
        <time>2017-09-05T14:12:34Z</time>
      </trkpt>
      <trkpt lat="48.72692" lon="2.48514">
        <ele>95</ele>
        <time>2017-09-05T14:12:34Z</time>
      </trkpt>
      <trkpt lat="48.72689" lon="2.4851">
        <ele>95</ele>
        <time>2017-09-05T14:12:34Z</time>
      </trkpt>
      <trkpt lat="48.72686" lon="2.48507">
        <ele>95</ele>
        <time>2017-09-05T14:12:50Z</time>
      </trkpt>
      <trkpt lat="48.72686" lon="2.48502">
        <ele>95</ele>
        <time>2017-09-05T14:12:50Z</time>
      </trkpt>
      <trkpt lat="48.72684" lon="2.48491">
        <ele>95</ele>
        <time>2017-09-05T14:12:50Z</time>
      </trkpt>
      <trkpt lat="48.72681" lon="2.48489">
        <ele>95</ele>
        <time>2017-09-05T14:12:50Z</time>
      </trkpt>
      <trkpt lat="48.72681" lon="2.48488">
        <ele>95</ele>
        <time>2017-09-05T14:13:06Z</time>
      </trkpt>
      <trkpt lat="48.72681" lon="2.48482">
        <ele>95</ele>
        <time>2017-09-05T14:13:06Z</time>
      </trkpt>
      <trkpt lat="48.7268" lon="2.48475">
        <ele>95</ele>
        <time>2017-09-05T14:13:06Z</time>
      </trkpt>
      <trkpt lat="48.72682" lon="2.4847">
        <ele>95</ele>
        <time>2017-09-05T14:13:06Z</time>
      </trkpt>
      <trkpt lat="48.72681" lon="2.48464">
        <ele>95</ele>
        <time>2017-09-05T14:13:22Z</time>
      </trkpt>
      <trkpt lat="48.7268" lon="2.48456">
        <ele>94</ele>
        <time>2017-09-05T14:13:22Z</time>
      </trkpt>
      <trkpt lat="48.72678" lon="2.48449">
        <ele>94</ele>
        <time>2017-09-05T14:13:22Z</time>
      </trkpt>
      <trkpt lat="48.72677" lon="2.48442">
        <ele>94</ele>
        <time>2017-09-05T14:13:22Z</time>
      </trkpt>
      <trkpt lat="48.72678" lon="2.48432">
        <ele>94</ele>
        <time>2017-09-05T14:13:38Z</time>
      </trkpt>
      <trkpt lat="48.72677" lon="2.48423">
        <ele>94</ele>
        <time>2017-09-05T14:13:38Z</time>
      </trkpt>
      <trkpt lat="48.72673" lon="2.48413">
        <ele>94</ele>
        <time>2017-09-05T14:13:38Z</time>
      </trkpt>
      <trkpt lat="48.72672" lon="2.48405">
        <ele>94</ele>
        <time>2017-09-05T14:13:38Z</time>
      </trkpt>
      <trkpt lat="48.7267" lon="2.48398">
        <ele>94</ele>
        <time>2017-09-05T14:13:54Z</time>
      </trkpt>
      <trkpt lat="48.72669" lon="2.48389">
        <ele>94</ele>
        <time>2017-09-05T14:13:54Z</time>
      </trkpt>
      <trkpt lat="48.72664" lon="2.48383">
        <ele>94</ele>
        <time>2017-09-05T14:13:54Z</time>
      </trkpt>
      <trkpt lat="48.72662" lon="2.48374">
        <ele>95</ele>
        <time>2017-09-05T14:13:54Z</time>
      </trkpt>
      <trkpt lat="48.72659" lon="2.48365">
        <ele>95</ele>
        <time>2017-09-05T14:14:10Z</time>
      </trkpt>
      <trkpt lat="48.72659" lon="2.48358">
        <ele>95</ele>
        <time>2017-09-05T14:14:10Z</time>
      </trkpt>
      <trkpt lat="48.72657" lon="2.4835">
        <ele>95</ele>
        <time>2017-09-05T14:14:10Z</time>
      </trkpt>
      <trkpt lat="48.72655" lon="2.48342">
        <ele>95</ele>
        <time>2017-09-05T14:14:10Z</time>
      </trkpt>
      <trkpt lat="48.72654" lon="2.48332">
        <ele>95</ele>
        <time>2017-09-05T14:14:26Z</time>
      </trkpt>
      <trkpt lat="48.72652" lon="2.48322">
        <ele>95</ele>
        <time>2017-09-05T14:14:26Z</time>
      </trkpt>
      <trkpt lat="48.72651" lon="2.48315">
        <ele>95</ele>
        <time>2017-09-05T14:14:26Z</time>
      </trkpt>
      <trkpt lat="48.72649" lon="2.48313">
        <ele>95</ele>
        <time>2017-09-05T14:14:26Z</time>
      </trkpt>
      <trkpt lat="48.72647" lon="2.4831">
        <ele>95</ele>
        <time>2017-09-05T14:14:42Z</time>
      </trkpt>
      <trkpt lat="48.72645" lon="2.48303">
        <ele>95</ele>
        <time>2017-09-05T14:14:42Z</time>
      </trkpt>
      <trkpt lat="48.72642" lon="2.48286">
        <ele>95</ele>
        <time>2017-09-05T14:14:42Z</time>
      </trkpt>
      <trkpt lat="48.72644" lon="2.48271">
        <ele>95</ele>
        <time>2017-09-05T14:14:42Z</time>
      </trkpt>
      <trkpt lat="48.72641" lon="2.48265">
        <ele>95</ele>
        <time>2017-09-05T14:14:58Z</time>
      </trkpt>
      <trkpt lat="48.72635" lon="2.48259">
        <ele>95</ele>
        <time>2017-09-05T14:14:58Z</time>
      </trkpt>
      <trkpt lat="48.72634" lon="2.48251">
        <ele>95</ele>
        <time>2017-09-05T14:14:58Z</time>
      </trkpt>
      <trkpt lat="48.72634" lon="2.48247">
        <ele>95</ele>
        <time>2017-09-05T14:14:58Z</time>
      </trkpt>
      <trkpt lat="48.72633" lon="2.48243">
        <ele>95</ele>
        <time>2017-09-05T14:15:14Z</time>
      </trkpt>
      <trkpt lat="48.72633" lon="2.48235">
        <ele>95</ele>
        <time>2017-09-05T14:15:14Z</time>
      </trkpt>
      <trkpt lat="48.7263" lon="2.48224">
        <ele>95</ele>
        <time>2017-09-05T14:15:14Z</time>
      </trkpt>
      <trkpt lat="48.72626" lon="2.48213">
        <ele>95</ele>
        <time>2017-09-05T14:15:14Z</time>
      </trkpt>
      <trkpt lat="48.72622" lon="2.48204">
        <ele>93</ele>
        <time>2017-09-05T14:15:30Z</time>
      </trkpt>
      <trkpt lat="48.72619" lon="2.48195">
        <ele>93</ele>
        <time>2017-09-05T14:15:30Z</time>
      </trkpt>
      <trkpt lat="48.7262" lon="2.48184">
        <ele>93</ele>
        <time>2017-09-05T14:15:30Z</time>
      </trkpt>
      <trkpt lat="48.72618" lon="2.48176">
        <ele>93</ele>
        <time>2017-09-05T14:15:30Z</time>
      </trkpt>
      <trkpt lat="48.72614" lon="2.48171">
        <ele>93</ele>
        <time>2017-09-05T14:15:46Z</time>
      </trkpt>
      <trkpt lat="48.72616" lon="2.48164">
        <ele>93</ele>
        <time>2017-09-05T14:15:46Z</time>
      </trkpt>
      <trkpt lat="48.72613" lon="2.48157">
        <ele>93</ele>
        <time>2017-09-05T14:15:46Z</time>
      </trkpt>
      <trkpt lat="48.7261" lon="2.4815">
        <ele>93</ele>
        <time>2017-09-05T14:15:46Z</time>
      </trkpt>
      <trkpt lat="48.7261" lon="2.48145">
        <ele>93</ele>
        <time>2017-09-05T14:16:02Z</time>
      </trkpt>
      <trkpt lat="48.7261" lon="2.48139">
        <ele>93</ele>
        <time>2017-09-05T14:16:02Z</time>
      </trkpt>
      <trkpt lat="48.72611" lon="2.48127">
        <ele>93</ele>
        <time>2017-09-05T14:16:02Z</time>
      </trkpt>
      <trkpt lat="48.72612" lon="2.48118">
        <ele>95</ele>
        <time>2017-09-05T14:16:02Z</time>
      </trkpt>
      <trkpt lat="48.72609" lon="2.48107">
        <ele>95</ele>
        <time>2017-09-05T14:16:18Z</time>
      </trkpt>
      <trkpt lat="48.72608" lon="2.481">
        <ele>95</ele>
        <time>2017-09-05T14:16:18Z</time>
      </trkpt>
      <trkpt lat="48.72604" lon="2.48091">
        <ele>95</ele>
        <time>2017-09-05T14:16:18Z</time>
      </trkpt>
      <trkpt lat="48.72601" lon="2.48082">
        <ele>95</ele>
        <time>2017-09-05T14:16:18Z</time>
      </trkpt>
      <trkpt lat="48.726" lon="2.48079">
        <ele>95</ele>
        <time>2017-09-05T14:16:34Z</time>
      </trkpt>
      <trkpt lat="48.72599" lon="2.48071">
        <ele>95</ele>
        <time>2017-09-05T14:16:34Z</time>
      </trkpt>
      <trkpt lat="48.72598" lon="2.48065">
        <ele>95</ele>
        <time>2017-09-05T14:16:34Z</time>
      </trkpt>
      <trkpt lat="48.72594" lon="2.48055">
        <ele>95</ele>
        <time>2017-09-05T14:16:34Z</time>
      </trkpt>
      <trkpt lat="48.72588" lon="2.48044">
        <ele>95</ele>
        <time>2017-09-05T14:16:50Z</time>
      </trkpt>
      <trkpt lat="48.72587" lon="2.48039">
        <ele>95</ele>
        <time>2017-09-05T14:16:50Z</time>
      </trkpt>
      <trkpt lat="48.72588" lon="2.48035">
        <ele>95</ele>
        <time>2017-09-05T14:16:50Z</time>
      </trkpt>
      <trkpt lat="48.72587" lon="2.48028">
        <ele>95</ele>
        <time>2017-09-05T14:16:50Z</time>
      </trkpt>
      <trkpt lat="48.72586" lon="2.48017">
        <ele>95</ele>
        <time>2017-09-05T14:17:06Z</time>
      </trkpt>
      <trkpt lat="48.72583" lon="2.4801">
        <ele>95</ele>
        <time>2017-09-05T14:17:06Z</time>
      </trkpt>
      <trkpt lat="48.72581" lon="2.48005">
        <ele>95</ele>
        <time>2017-09-05T14:17:06Z</time>
      </trkpt>
      <trkpt lat="48.7258" lon="2.47993">
        <ele>95</ele>
        <time>2017-09-05T14:17:06Z</time>
      </trkpt>
      <trkpt lat="48.72577" lon="2.47986">
        <ele>95</ele>
        <time>2017-09-05T14:17:22Z</time>
      </trkpt>
      <trkpt lat="48.72576" lon="2.47975">
        <ele>95</ele>
        <time>2017-09-05T14:17:22Z</time>
      </trkpt>
      <trkpt lat="48.72575" lon="2.47964">
        <ele>95</ele>
        <time>2017-09-05T14:17:22Z</time>
      </trkpt>
      <trkpt lat="48.72574" lon="2.4796">
        <ele>95</ele>
        <time>2017-09-05T14:17:22Z</time>
      </trkpt>
      <trkpt lat="48.72572" lon="2.47957">
        <ele>94</ele>
        <time>2017-09-05T14:17:38Z</time>
      </trkpt>
      <trkpt lat="48.7257" lon="2.47947">
        <ele>94</ele>
        <time>2017-09-05T14:17:38Z</time>
      </trkpt>
      <trkpt lat="48.72569" lon="2.4793">
        <ele>94</ele>
        <time>2017-09-05T14:17:38Z</time>
      </trkpt>
      <trkpt lat="48.72565" lon="2.47928">
        <ele>94</ele>
        <time>2017-09-05T14:17:38Z</time>
      </trkpt>
      <trkpt lat="48.72564" lon="2.47923">
        <ele>94</ele>
        <time>2017-09-05T14:17:54Z</time>
      </trkpt>
      <trkpt lat="48.72564" lon="2.47916">
        <ele>94</ele>
        <time>2017-09-05T14:17:54Z</time>
      </trkpt>
      <trkpt lat="48.72564" lon="2.47906">
        <ele>94</ele>
        <time>2017-09-05T14:17:54Z</time>
      </trkpt>
      <trkpt lat="48.7256" lon="2.47898">
        <ele>94</ele>
        <time>2017-09-05T14:17:54Z</time>
      </trkpt>
      <trkpt lat="48.72558" lon="2.47888">
        <ele>94</ele>
        <time>2017-09-05T14:18:10Z</time>
      </trkpt>
      <trkpt lat="48.72555" lon="2.47877">
        <ele>94</ele>
        <time>2017-09-05T14:18:10Z</time>
      </trkpt>
      <trkpt lat="48.72555" lon="2.47871">
        <ele>96</ele>
        <time>2017-09-05T14:18:10Z</time>
      </trkpt>
      <trkpt lat="48.72553" lon="2.47863">
        <ele>96</ele>
        <time>2017-09-05T14:18:10Z</time>
      </trkpt>
      <trkpt lat="48.72551" lon="2.47858">
        <ele>96</ele>
        <time>2017-09-05T14:18:26Z</time>
      </trkpt>
      <trkpt lat="48.72548" lon="2.47851">
        <ele>96</ele>
        <time>2017-09-05T14:18:26Z</time>
      </trkpt>
      <trkpt lat="48.72547" lon="2.47848">
        <ele>96</ele>
        <time>2017-09-05T14:18:26Z</time>
      </trkpt>
      <trkpt lat="48.72546" lon="2.47841">
        <ele>96</ele>
        <time>2017-09-05T14:18:26Z</time>
      </trkpt>
      <trkpt lat="48.72542" lon="2.47831">
        <ele>96</ele>
        <time>2017-09-05T14:18:42Z</time>
      </trkpt>
      <trkpt lat="48.72537" lon="2.47816">
        <ele>96</ele>
        <time>2017-09-05T14:18:42Z</time>
      </trkpt>
      <trkpt lat="48.72535" lon="2.4781">
        <ele>96</ele>
        <time>2017-09-05T14:18:42Z</time>
      </trkpt>
      <trkpt lat="48.72534" lon="2.47804">
        <ele>96</ele>
        <time>2017-09-05T14:18:42Z</time>
      </trkpt>
      <trkpt lat="48.72538" lon="2.47798">
        <ele>96</ele>
        <time>2017-09-05T14:18:58Z</time>
      </trkpt>
      <trkpt lat="48.72535" lon="2.47784">
        <ele>94</ele>
        <time>2017-09-05T14:18:58Z</time>
      </trkpt>
      <trkpt lat="48.72533" lon="2.47781">
        <ele>94</ele>
        <time>2017-09-05T14:18:58Z</time>
      </trkpt>
      <trkpt lat="48.72533" lon="2.47772">
        <ele>94</ele>
        <time>2017-09-05T14:18:58Z</time>
      </trkpt>
      <trkpt lat="48.72531" lon="2.47765">
        <ele>94</ele>
        <time>2017-09-05T14:19:14Z</time>
      </trkpt>
      <trkpt lat="48.72526" lon="2.47758">
        <ele>94</ele>
        <time>2017-09-05T14:19:14Z</time>
      </trkpt>
      <trkpt lat="48.72525" lon="2.47743">
        <ele>94</ele>
        <time>2017-09-05T14:19:14Z</time>
      </trkpt>
      <trkpt lat="48.72523" lon="2.47735">
        <ele>94</ele>
        <time>2017-09-05T14:19:14Z</time>
      </trkpt>
      <trkpt lat="48.72523" lon="2.47731">
        <ele>94</ele>
        <time>2017-09-05T14:19:30Z</time>
      </trkpt>
      <trkpt lat="48.72522" lon="2.47723">
        <ele>94</ele>
        <time>2017-09-05T14:19:30Z</time>
      </trkpt>
      <trkpt lat="48.72517" lon="2.47713">
        <ele>94</ele>
        <time>2017-09-05T14:19:30Z</time>
      </trkpt>
      <trkpt lat="48.72516" lon="2.47707">
        <ele>93</ele>
        <time>2017-09-05T14:19:30Z</time>
      </trkpt>
      <trkpt lat="48.72514" lon="2.477">
        <ele>93</ele>
        <time>2017-09-05T14:19:46Z</time>
      </trkpt>
      <trkpt lat="48.72515" lon="2.4769">
        <ele>93</ele>
        <time>2017-09-05T14:19:46Z</time>
      </trkpt>
      <trkpt lat="48.72513" lon="2.47687">
        <ele>93</ele>
        <time>2017-09-05T14:19:46Z</time>
      </trkpt>
      <trkpt lat="48.7251" lon="2.47677">
        <ele>93</ele>
        <time>2017-09-05T14:19:46Z</time>
      </trkpt>
      <trkpt lat="48.72509" lon="2.47677">
        <ele>93</ele>
        <time>2017-09-05T14:20:02Z</time>
      </trkpt>
      <trkpt lat="48.7251" lon="2.47665">
        <ele>93</ele>
        <time>2017-09-05T14:20:02Z</time>
      </trkpt>
      <trkpt lat="48.72509" lon="2.47659">
        <ele>93</ele>
        <time>2017-09-05T14:20:02Z</time>
      </trkpt>
      <trkpt lat="48.72507" lon="2.47647">
        <ele>93</ele>
        <time>2017-09-05T14:20:02Z</time>
      </trkpt>
      <trkpt lat="48.72506" lon="2.4764">
        <ele>93</ele>
        <time>2017-09-05T14:20:18Z</time>
      </trkpt>
      <trkpt lat="48.72503" lon="2.47637">
        <ele>93</ele>
        <time>2017-09-05T14:20:18Z</time>
      </trkpt>
      <trkpt lat="48.72499" lon="2.47634">
        <ele>93</ele>
        <time>2017-09-05T14:20:18Z</time>
      </trkpt>
      <trkpt lat="48.72495" lon="2.47633">
        <ele>93</ele>
        <time>2017-09-05T14:20:18Z</time>
      </trkpt>
      <trkpt lat="48.7249" lon="2.4763">
        <ele>93</ele>
        <time>2017-09-05T14:20:34Z</time>
      </trkpt>
      <trkpt lat="48.72485" lon="2.47632">
        <ele>93</ele>
        <time>2017-09-05T14:20:34Z</time>
      </trkpt>
      <trkpt lat="48.7248" lon="2.47634">
        <ele>93</ele>
        <time>2017-09-05T14:20:34Z</time>
      </trkpt>
      <trkpt lat="48.72474" lon="2.47636">
        <ele>93</ele>
        <time>2017-09-05T14:20:34Z</time>
      </trkpt>
      <trkpt lat="48.7247" lon="2.47634">
        <ele>93</ele>
        <time>2017-09-05T14:20:50Z</time>
      </trkpt>
      <trkpt lat="48.72467" lon="2.47638">
        <ele>93</ele>
        <time>2017-09-05T14:20:50Z</time>
      </trkpt>
      <trkpt lat="48.7246" lon="2.47645">
        <ele>93</ele>
        <time>2017-09-05T14:20:50Z</time>
      </trkpt>
      <trkpt lat="48.72454" lon="2.47648">
        <ele>96</ele>
        <time>2017-09-05T14:20:50Z</time>
      </trkpt>
      <trkpt lat="48.72447" lon="2.47649">
        <ele>96</ele>
        <time>2017-09-05T14:21:06Z</time>
      </trkpt>
      <trkpt lat="48.72438" lon="2.47652">
        <ele>96</ele>
        <time>2017-09-05T14:21:06Z</time>
      </trkpt>
      <trkpt lat="48.72433" lon="2.47662">
        <ele>96</ele>
        <time>2017-09-05T14:21:06Z</time>
      </trkpt>
      <trkpt lat="48.72426" lon="2.47665">
        <ele>96</ele>
        <time>2017-09-05T14:21:06Z</time>
      </trkpt>
      <trkpt lat="48.72424" lon="2.47671">
        <ele>96</ele>
        <time>2017-09-05T14:21:22Z</time>
      </trkpt>
      <trkpt lat="48.72419" lon="2.47668">
        <ele>96</ele>
        <time>2017-09-05T14:21:22Z</time>
      </trkpt>
      <trkpt lat="48.72416" lon="2.47671">
        <ele>96</ele>
        <time>2017-09-05T14:21:22Z</time>
      </trkpt>
      <trkpt lat="48.72411" lon="2.47671">
        <ele>96</ele>
        <time>2017-09-05T14:21:22Z</time>
      </trkpt>
      <trkpt lat="48.72406" lon="2.47668">
        <ele>96</ele>
        <time>2017-09-05T14:21:38Z</time>
      </trkpt>
      <trkpt lat="48.72397" lon="2.47666">
        <ele>96</ele>
        <time>2017-09-05T14:21:38Z</time>
      </trkpt>
      <trkpt lat="48.72393" lon="2.47667">
        <ele>96</ele>
        <time>2017-09-05T14:21:38Z</time>
      </trkpt>
      <trkpt lat="48.72384" lon="2.47674">
        <ele>96</ele>
        <time>2017-09-05T14:21:38Z</time>
      </trkpt>
      <trkpt lat="48.72374" lon="2.47674">
        <ele>97</ele>
        <time>2017-09-05T14:21:54Z</time>
      </trkpt>
      <trkpt lat="48.72374" lon="2.47675">
        <ele>97</ele>
        <time>2017-09-05T14:21:54Z</time>
      </trkpt>
      <trkpt lat="48.72366" lon="2.47678">
        <ele>97</ele>
        <time>2017-09-05T14:21:54Z</time>
      </trkpt>
      <trkpt lat="48.72363" lon="2.47679">
        <ele>97</ele>
        <time>2017-09-05T14:21:54Z</time>
      </trkpt>
      <trkpt lat="48.7236" lon="2.4768">
        <ele>97</ele>
        <time>2017-09-05T14:22:10Z</time>
      </trkpt>
      <trkpt lat="48.72357" lon="2.47682">
        <ele>97</ele>
        <time>2017-09-05T14:22:10Z</time>
      </trkpt>
      <trkpt lat="48.72354" lon="2.47679">
        <ele>97</ele>
        <time>2017-09-05T14:22:10Z</time>
      </trkpt>
      <trkpt lat="48.72349" lon="2.47678">
        <ele>97</ele>
        <time>2017-09-05T14:22:10Z</time>
      </trkpt>
      <trkpt lat="48.72344" lon="2.47679">
        <ele>97</ele>
        <time>2017-09-05T14:22:26Z</time>
      </trkpt>
      <trkpt lat="48.72338" lon="2.4768">
        <ele>97</ele>
        <time>2017-09-05T14:22:26Z</time>
      </trkpt>
      <trkpt lat="48.72333" lon="2.47679">
        <ele>97</ele>
        <time>2017-09-05T14:22:26Z</time>
      </trkpt>
      <trkpt lat="48.72329" lon="2.47678">
        <ele>97</ele>
        <time>2017-09-05T14:22:26Z</time>
      </trkpt>
      <trkpt lat="48.72323" lon="2.47675">
        <ele>97</ele>
        <time>2017-09-05T14:22:42Z</time>
      </trkpt>
      <trkpt lat="48.72319" lon="2.47682">
        <ele>97</ele>
        <time>2017-09-05T14:22:42Z</time>
      </trkpt>
      <trkpt lat="48.72307" lon="2.47685">
        <ele>97</ele>
        <time>2017-09-05T14:22:42Z</time>
      </trkpt>
      <trkpt lat="48.723" lon="2.47695">
        <ele>97</ele>
        <time>2017-09-05T14:22:42Z</time>
      </trkpt>
      <trkpt lat="48.72296" lon="2.47696">
        <ele>97</ele>
        <time>2017-09-05T14:23:02Z</time>
      </trkpt>
      <trkpt lat="48.72291" lon="2.47694">
        <ele>97</ele>
        <time>2017-09-05T14:23:02Z</time>
      </trkpt>
      <trkpt lat="48.72289" lon="2.47697">
        <ele>97</ele>
        <time>2017-09-05T14:23:02Z</time>
      </trkpt>
      <trkpt lat="48.72288" lon="2.47702">
        <ele>97</ele>
        <time>2017-09-05T14:23:02Z</time>
      </trkpt>
      <trkpt lat="48.72284" lon="2.4771">
        <ele>99</ele>
        <time>2017-09-05T14:23:02Z</time>
      </trkpt>
      <trkpt lat="48.72275" lon="2.47716">
        <ele>99</ele>
        <time>2017-09-05T14:23:18Z</time>
      </trkpt>
      <trkpt lat="48.72266" lon="2.47724">
        <ele>99</ele>
        <time>2017-09-05T14:23:18Z</time>
      </trkpt>
      <trkpt lat="48.72262" lon="2.47729">
        <ele>99</ele>
        <time>2017-09-05T14:23:18Z</time>
      </trkpt>
      <trkpt lat="48.72259" lon="2.47731">
        <ele>99</ele>
        <time>2017-09-05T14:23:18Z</time>
      </trkpt>
      <trkpt lat="48.72255" lon="2.47732">
        <ele>99</ele>
        <time>2017-09-05T14:23:34Z</time>
      </trkpt>
      <trkpt lat="48.72254" lon="2.47736">
        <ele>99</ele>
        <time>2017-09-05T14:23:34Z</time>
      </trkpt>
      <trkpt lat="48.72247" lon="2.47743">
        <ele>99</ele>
        <time>2017-09-05T14:23:34Z</time>
      </trkpt>
      <trkpt lat="48.72238" lon="2.47753">
        <ele>99</ele>
        <time>2017-09-05T14:23:34Z</time>
      </trkpt>
      <trkpt lat="48.72232" lon="2.47757">
        <ele>99</ele>
        <time>2017-09-05T14:23:50Z</time>
      </trkpt>
      <trkpt lat="48.72229" lon="2.47758">
        <ele>99</ele>
        <time>2017-09-05T14:23:50Z</time>
      </trkpt>
      <trkpt lat="48.72226" lon="2.47757">
        <ele>99</ele>
        <time>2017-09-05T14:23:50Z</time>
      </trkpt>
      <trkpt lat="48.72222" lon="2.47758">
        <ele>99</ele>
        <time>2017-09-05T14:23:50Z</time>
      </trkpt>
      <trkpt lat="48.72218" lon="2.47759">
        <ele>99</ele>
        <time>2017-09-05T14:24:06Z</time>
      </trkpt>
      <trkpt lat="48.72216" lon="2.47758">
        <ele>99</ele>
        <time>2017-09-05T14:24:06Z</time>
      </trkpt>
      <trkpt lat="48.72212" lon="2.47758">
        <ele>99</ele>
        <time>2017-09-05T14:24:06Z</time>
      </trkpt>
      <trkpt lat="48.72207" lon="2.47761">
        <ele>101</ele>
        <time>2017-09-05T14:24:06Z</time>
      </trkpt>
      <trkpt lat="48.72201" lon="2.4776">
        <ele>101</ele>
        <time>2017-09-05T14:24:22Z</time>
      </trkpt>
      <trkpt lat="48.72198" lon="2.47758">
        <ele>101</ele>
        <time>2017-09-05T14:24:22Z</time>
      </trkpt>
      <trkpt lat="48.72196" lon="2.47759">
        <ele>101</ele>
        <time>2017-09-05T14:24:22Z</time>
      </trkpt>
      <trkpt lat="48.72188" lon="2.47759">
        <ele>101</ele>
        <time>2017-09-05T14:24:22Z</time>
      </trkpt>
      <trkpt lat="48.72182" lon="2.47759">
        <ele>101</ele>
        <time>2017-09-05T14:24:38Z</time>
      </trkpt>
      <trkpt lat="48.72176" lon="2.47758">
        <ele>101</ele>
        <time>2017-09-05T14:24:38Z</time>
      </trkpt>
      <trkpt lat="48.72172" lon="2.47758">
        <ele>101</ele>
        <time>2017-09-05T14:24:38Z</time>
      </trkpt>
      <trkpt lat="48.72167" lon="2.47757">
        <ele>101</ele>
        <time>2017-09-05T14:24:38Z</time>
      </trkpt>
      <trkpt lat="48.72163" lon="2.47757">
        <ele>101</ele>
        <time>2017-09-05T14:24:54Z</time>
      </trkpt>
      <trkpt lat="48.72157" lon="2.47755">
        <ele>101</ele>
        <time>2017-09-05T14:24:54Z</time>
      </trkpt>
      <trkpt lat="48.72152" lon="2.47755">
        <ele>101</ele>
        <time>2017-09-05T14:24:54Z</time>
      </trkpt>
      <trkpt lat="48.72146" lon="2.47758">
        <ele>101</ele>
        <time>2017-09-05T14:24:54Z</time>
      </trkpt>
      <trkpt lat="48.7214" lon="2.47757">
        <ele>101</ele>
        <time>2017-09-05T14:25:10Z</time>
      </trkpt>
      <trkpt lat="48.72134" lon="2.47757">
        <ele>101</ele>
        <time>2017-09-05T14:25:10Z</time>
      </trkpt>
      <trkpt lat="48.72129" lon="2.47754">
        <ele>101</ele>
        <time>2017-09-05T14:25:10Z</time>
      </trkpt>
      <trkpt lat="48.72123" lon="2.47753">
        <ele>101</ele>
        <time>2017-09-05T14:25:10Z</time>
      </trkpt>
      <trkpt lat="48.72117" lon="2.47753">
        <ele>101</ele>
        <time>2017-09-05T14:25:26Z</time>
      </trkpt>
      <trkpt lat="48.72114" lon="2.47751">
        <ele>101</ele>
        <time>2017-09-05T14:25:26Z</time>
      </trkpt>
      <trkpt lat="48.72108" lon="2.47746">
        <ele>101</ele>
        <time>2017-09-05T14:25:26Z</time>
      </trkpt>
      <trkpt lat="48.72104" lon="2.47742">
        <ele>101</ele>
        <time>2017-09-05T14:25:26Z</time>
      </trkpt>
      <trkpt lat="48.721" lon="2.47744">
        <ele>101</ele>
        <time>2017-09-05T14:25:42Z</time>
      </trkpt>
      <trkpt lat="48.72095" lon="2.47744">
        <ele>101</ele>
        <time>2017-09-05T14:25:42Z</time>
      </trkpt>
      <trkpt lat="48.72089" lon="2.47743">
        <ele>101</ele>
        <time>2017-09-05T14:25:42Z</time>
      </trkpt>
      <trkpt lat="48.72084" lon="2.47741">
        <ele>101</ele>
        <time>2017-09-05T14:25:42Z</time>
      </trkpt>
      <trkpt lat="48.72082" lon="2.4774">
        <ele>101</ele>
        <time>2017-09-05T14:25:58Z</time>
      </trkpt>
      <trkpt lat="48.72076" lon="2.47734">
        <ele>101</ele>
        <time>2017-09-05T14:25:58Z</time>
      </trkpt>
      <trkpt lat="48.72069" lon="2.47727">
        <ele>101</ele>
        <time>2017-09-05T14:25:58Z</time>
      </trkpt>
      <trkpt lat="48.72065" lon="2.47721">
        <ele>101</ele>
        <time>2017-09-05T14:25:58Z</time>
      </trkpt>
      <trkpt lat="48.7206" lon="2.47717">
        <ele>101</ele>
        <time>2017-09-05T14:26:14Z</time>
      </trkpt>
      <trkpt lat="48.72057" lon="2.47712">
        <ele>101</ele>
        <time>2017-09-05T14:26:14Z</time>
      </trkpt>
      <trkpt lat="48.72054" lon="2.47708">
        <ele>98</ele>
        <time>2017-09-05T14:26:14Z</time>
      </trkpt>
      <trkpt lat="48.72051" lon="2.47705">
        <ele>98</ele>
        <time>2017-09-05T14:26:14Z</time>
      </trkpt>
      <trkpt lat="48.72048" lon="2.47701">
        <ele>98</ele>
        <time>2017-09-05T14:26:30Z</time>
      </trkpt>
      <trkpt lat="48.72043" lon="2.47699">
        <ele>98</ele>
        <time>2017-09-05T14:26:30Z</time>
      </trkpt>
      <trkpt lat="48.72035" lon="2.47694">
        <ele>97</ele>
        <time>2017-09-05T14:26:30Z</time>
      </trkpt>
      <trkpt lat="48.7203" lon="2.47692">
        <ele>97</ele>
        <time>2017-09-05T14:26:30Z</time>
      </trkpt>
      <trkpt lat="48.72026" lon="2.47686">
        <ele>97</ele>
        <time>2017-09-05T14:26:46Z</time>
      </trkpt>
      <trkpt lat="48.72021" lon="2.47681">
        <ele>97</ele>
        <time>2017-09-05T14:26:46Z</time>
      </trkpt>
      <trkpt lat="48.72013" lon="2.47675">
        <ele>97</ele>
        <time>2017-09-05T14:26:46Z</time>
      </trkpt>
      <trkpt lat="48.72009" lon="2.47672">
        <ele>97</ele>
        <time>2017-09-05T14:26:46Z</time>
      </trkpt>
      <trkpt lat="48.72004" lon="2.47671">
        <ele>97</ele>
        <time>2017-09-05T14:27:02Z</time>
      </trkpt>
      <trkpt lat="48.72002" lon="2.47663">
        <ele>97</ele>
        <time>2017-09-05T14:27:02Z</time>
      </trkpt>
      <trkpt lat="48.71999" lon="2.47659">
        <ele>97</ele>
        <time>2017-09-05T14:27:02Z</time>
      </trkpt>
      <trkpt lat="48.71991" lon="2.47656">
        <ele>97</ele>
        <time>2017-09-05T14:27:02Z</time>
      </trkpt>
      <trkpt lat="48.71986" lon="2.47655">
        <ele>97</ele>
        <time>2017-09-05T14:27:18Z</time>
      </trkpt>
      <trkpt lat="48.7198" lon="2.47655">
        <ele>97</ele>
        <time>2017-09-05T14:27:18Z</time>
      </trkpt>
      <trkpt lat="48.71976" lon="2.47658">
        <ele>97</ele>
        <time>2017-09-05T14:27:18Z</time>
      </trkpt>
      <trkpt lat="48.71971" lon="2.47661">
        <ele>97</ele>
        <time>2017-09-05T14:27:18Z</time>
      </trkpt>
      <trkpt lat="48.71966" lon="2.47664">
        <ele>97</ele>
        <time>2017-09-05T14:27:34Z</time>
      </trkpt>
      <trkpt lat="48.71963" lon="2.47668">
        <ele>97</ele>
        <time>2017-09-05T14:27:34Z</time>
      </trkpt>
      <trkpt lat="48.71957" lon="2.47669">
        <ele>92</ele>
        <time>2017-09-05T14:27:34Z</time>
      </trkpt>
      <trkpt lat="48.7195" lon="2.47671">
        <ele>92</ele>
        <time>2017-09-05T14:27:34Z</time>
      </trkpt>
      <trkpt lat="48.71945" lon="2.47675">
        <ele>92</ele>
        <time>2017-09-05T14:27:50Z</time>
      </trkpt>
      <trkpt lat="48.71943" lon="2.4768">
        <ele>92</ele>
        <time>2017-09-05T14:27:50Z</time>
      </trkpt>
      <trkpt lat="48.7194" lon="2.4769">
        <ele>92</ele>
        <time>2017-09-05T14:27:50Z</time>
      </trkpt>
      <trkpt lat="48.71938" lon="2.47701">
        <ele>92</ele>
        <time>2017-09-05T14:27:50Z</time>
      </trkpt>
      <trkpt lat="48.71936" lon="2.47711">
        <ele>92</ele>
        <time>2017-09-05T14:28:06Z</time>
      </trkpt>
      <trkpt lat="48.71933" lon="2.47718">
        <ele>92</ele>
        <time>2017-09-05T14:28:06Z</time>
      </trkpt>
      <trkpt lat="48.71929" lon="2.47727">
        <ele>92</ele>
        <time>2017-09-05T14:28:06Z</time>
      </trkpt>
      <trkpt lat="48.71927" lon="2.47731">
        <ele>92</ele>
        <time>2017-09-05T14:28:06Z</time>
      </trkpt>
      <trkpt lat="48.71923" lon="2.47737">
        <ele>92</ele>
        <time>2017-09-05T14:28:22Z</time>
      </trkpt>
      <trkpt lat="48.71922" lon="2.47741">
        <ele>92</ele>
        <time>2017-09-05T14:28:22Z</time>
      </trkpt>
      <trkpt lat="48.71921" lon="2.47747">
        <ele>92</ele>
        <time>2017-09-05T14:28:22Z</time>
      </trkpt>
      <trkpt lat="48.71921" lon="2.47755">
        <ele>92</ele>
        <time>2017-09-05T14:28:22Z</time>
      </trkpt>
      <trkpt lat="48.7192" lon="2.47762">
        <ele>92</ele>
        <time>2017-09-05T14:28:38Z</time>
      </trkpt>
      <trkpt lat="48.71917" lon="2.47772">
        <ele>92</ele>
        <time>2017-09-05T14:28:38Z</time>
      </trkpt>
      <trkpt lat="48.71916" lon="2.47781">
        <ele>92</ele>
        <time>2017-09-05T14:28:38Z</time>
      </trkpt>
      <trkpt lat="48.71916" lon="2.47792">
        <ele>93</ele>
        <time>2017-09-05T14:28:38Z</time>
      </trkpt>
      <trkpt lat="48.71916" lon="2.47798">
        <ele>93</ele>
        <time>2017-09-05T14:28:54Z</time>
      </trkpt>
      <trkpt lat="48.71916" lon="2.47809">
        <ele>93</ele>
        <time>2017-09-05T14:28:54Z</time>
      </trkpt>
      <trkpt lat="48.71916" lon="2.47829">
        <ele>93</ele>
        <time>2017-09-05T14:28:54Z</time>
      </trkpt>
      <trkpt lat="48.71913" lon="2.47836">
        <ele>93</ele>
        <time>2017-09-05T14:28:54Z</time>
      </trkpt>
      <trkpt lat="48.71912" lon="2.47846">
        <ele>93</ele>
        <time>2017-09-05T14:29:10Z</time>
      </trkpt>
      <trkpt lat="48.7191" lon="2.47853">
        <ele>93</ele>
        <time>2017-09-05T14:29:10Z</time>
      </trkpt>
      <trkpt lat="48.7191" lon="2.4786">
        <ele>93</ele>
        <time>2017-09-05T14:29:10Z</time>
      </trkpt>
      <trkpt lat="48.71907" lon="2.47872">
        <ele>93</ele>
        <time>2017-09-05T14:29:10Z</time>
      </trkpt>
      <trkpt lat="48.71905" lon="2.4788">
        <ele>92</ele>
        <time>2017-09-05T14:29:26Z</time>
      </trkpt>
      <trkpt lat="48.71905" lon="2.47891">
        <ele>92</ele>
        <time>2017-09-05T14:29:26Z</time>
      </trkpt>
      <trkpt lat="48.71905" lon="2.479">
        <ele>92</ele>
        <time>2017-09-05T14:29:26Z</time>
      </trkpt>
      <trkpt lat="48.71904" lon="2.47907">
        <ele>92</ele>
        <time>2017-09-05T14:29:26Z</time>
      </trkpt>
      <trkpt lat="48.71903" lon="2.47916">
        <ele>92</ele>
        <time>2017-09-05T14:29:42Z</time>
      </trkpt>
      <trkpt lat="48.71902" lon="2.47923">
        <ele>92</ele>
        <time>2017-09-05T14:29:42Z</time>
      </trkpt>
      <trkpt lat="48.71903" lon="2.47928">
        <ele>92</ele>
        <time>2017-09-05T14:29:42Z</time>
      </trkpt>
      <trkpt lat="48.71903" lon="2.47935">
        <ele>92</ele>
        <time>2017-09-05T14:29:42Z</time>
      </trkpt>
      <trkpt lat="48.71902" lon="2.47944">
        <ele>92</ele>
        <time>2017-09-05T14:29:58Z</time>
      </trkpt>
      <trkpt lat="48.71902" lon="2.47948">
        <ele>92</ele>
        <time>2017-09-05T14:29:58Z</time>
      </trkpt>
      <trkpt lat="48.71899" lon="2.47953">
        <ele>92</ele>
        <time>2017-09-05T14:29:58Z</time>
      </trkpt>
      <trkpt lat="48.71895" lon="2.47961">
        <ele>91</ele>
        <time>2017-09-05T14:29:58Z</time>
      </trkpt>
      <trkpt lat="48.7189" lon="2.47969">
        <ele>91</ele>
        <time>2017-09-05T14:30:14Z</time>
      </trkpt>
      <trkpt lat="48.71886" lon="2.47982">
        <ele>91</ele>
        <time>2017-09-05T14:30:14Z</time>
      </trkpt>
      <trkpt lat="48.71885" lon="2.4799">
        <ele>91</ele>
        <time>2017-09-05T14:30:14Z</time>
      </trkpt>
      <trkpt lat="48.71884" lon="2.48">
        <ele>91</ele>
        <time>2017-09-05T14:30:14Z</time>
      </trkpt>
      <trkpt lat="48.71883" lon="2.4801">
        <ele>91</ele>
        <time>2017-09-05T14:30:30Z</time>
      </trkpt>
      <trkpt lat="48.71884" lon="2.48019">
        <ele>91</ele>
        <time>2017-09-05T14:30:30Z</time>
      </trkpt>
      <trkpt lat="48.71886" lon="2.48027">
        <ele>91</ele>
        <time>2017-09-05T14:30:30Z</time>
      </trkpt>
      <trkpt lat="48.71888" lon="2.48036">
        <ele>91</ele>
        <time>2017-09-05T14:30:30Z</time>
      </trkpt>
      <trkpt lat="48.71888" lon="2.48042">
        <ele>91</ele>
        <time>2017-09-05T14:30:46Z</time>
      </trkpt>
      <trkpt lat="48.71888" lon="2.4805">
        <ele>93</ele>
        <time>2017-09-05T14:30:46Z</time>
      </trkpt>
      <trkpt lat="48.71886" lon="2.48058">
        <ele>93</ele>
        <time>2017-09-05T14:30:46Z</time>
      </trkpt>
      <trkpt lat="48.71885" lon="2.48062">
        <ele>93</ele>
        <time>2017-09-05T14:30:46Z</time>
      </trkpt>
      <trkpt lat="48.71883" lon="2.48069">
        <ele>93</ele>
        <time>2017-09-05T14:31:02Z</time>
      </trkpt>
      <trkpt lat="48.71883" lon="2.48075">
        <ele>93</ele>
        <time>2017-09-05T14:31:02Z</time>
      </trkpt>
      <trkpt lat="48.71883" lon="2.48081">
        <ele>93</ele>
        <time>2017-09-05T14:31:02Z</time>
      </trkpt>
      <trkpt lat="48.71883" lon="2.48087">
        <ele>93</ele>
        <time>2017-09-05T14:31:02Z</time>
      </trkpt>
      <trkpt lat="48.71883" lon="2.48095">
        <ele>93</ele>
        <time>2017-09-05T14:31:18Z</time>
      </trkpt>
      <trkpt lat="48.71882" lon="2.48101">
        <ele>93</ele>
        <time>2017-09-05T14:31:18Z</time>
      </trkpt>
      <trkpt lat="48.71884" lon="2.4811">
        <ele>93</ele>
        <time>2017-09-05T14:31:18Z</time>
      </trkpt>
      <trkpt lat="48.71886" lon="2.48119">
        <ele>93</ele>
        <time>2017-09-05T14:31:18Z</time>
      </trkpt>
      <trkpt lat="48.71887" lon="2.48128">
        <ele>91</ele>
        <time>2017-09-05T14:31:34Z</time>
      </trkpt>
      <trkpt lat="48.71887" lon="2.48136">
        <ele>91</ele>
        <time>2017-09-05T14:31:34Z</time>
      </trkpt>
      <trkpt lat="48.71886" lon="2.48143">
        <ele>91</ele>
        <time>2017-09-05T14:31:34Z</time>
      </trkpt>
      <trkpt lat="48.71886" lon="2.4815">
        <ele>91</ele>
        <time>2017-09-05T14:31:34Z</time>
      </trkpt>
      <trkpt lat="48.71886" lon="2.48155">
        <ele>91</ele>
        <time>2017-09-05T14:31:50Z</time>
      </trkpt>
      <trkpt lat="48.71886" lon="2.48159">
        <ele>91</ele>
        <time>2017-09-05T14:31:50Z</time>
      </trkpt>
      <trkpt lat="48.71884" lon="2.48162">
        <ele>91</ele>
        <time>2017-09-05T14:31:50Z</time>
      </trkpt>
      <trkpt lat="48.71881" lon="2.48166">
        <ele>91</ele>
        <time>2017-09-05T14:31:50Z</time>
      </trkpt>
      <trkpt lat="48.71874" lon="2.48172">
        <ele>73</ele>
        <time>2017-09-05T14:32:10Z</time>
      </trkpt>
      <trkpt lat="48.71872" lon="2.48178">
        <ele>73</ele>
        <time>2017-09-05T14:32:10Z</time>
      </trkpt>
      <trkpt lat="48.71872" lon="2.48182">
        <ele>73</ele>
        <time>2017-09-05T14:32:10Z</time>
      </trkpt>
      <trkpt lat="48.71871" lon="2.48184">
        <ele>73</ele>
        <time>2017-09-05T14:32:10Z</time>
      </trkpt>
      <trkpt lat="48.71867" lon="2.48191">
        <ele>73</ele>
        <time>2017-09-05T14:32:10Z</time>
      </trkpt>
      <trkpt lat="48.71867" lon="2.48198">
        <ele>73</ele>
        <time>2017-09-05T14:32:26Z</time>
      </trkpt>
      <trkpt lat="48.71866" lon="2.48208">
        <ele>73</ele>
        <time>2017-09-05T14:32:26Z</time>
      </trkpt>
      <trkpt lat="48.71864" lon="2.48216">
        <ele>70</ele>
        <time>2017-09-05T14:32:26Z</time>
      </trkpt>
      <trkpt lat="48.71863" lon="2.48219">
        <ele>70</ele>
        <time>2017-09-05T14:32:26Z</time>
      </trkpt>
      <trkpt lat="48.71863" lon="2.48223">
        <ele>70</ele>
        <time>2017-09-05T14:32:46Z</time>
      </trkpt>
      <trkpt lat="48.71861" lon="2.48224">
        <ele>70</ele>
        <time>2017-09-05T14:32:46Z</time>
      </trkpt>
      <trkpt lat="48.71858" lon="2.48222">
        <ele>70</ele>
        <time>2017-09-05T14:32:46Z</time>
      </trkpt>
      <trkpt lat="48.71856" lon="2.48221">
        <ele>70</ele>
        <time>2017-09-05T14:32:46Z</time>
      </trkpt>
      <trkpt lat="48.71853" lon="2.48221">
        <ele>70</ele>
        <time>2017-09-05T14:32:46Z</time>
      </trkpt>
      <trkpt lat="48.71852" lon="2.4822">
        <ele>70</ele>
        <time>2017-09-05T14:33:02Z</time>
      </trkpt>
      <trkpt lat="48.71851" lon="2.48217">
        <ele>70</ele>
        <time>2017-09-05T14:33:02Z</time>
      </trkpt>
      <trkpt lat="48.71848" lon="2.48219">
        <ele>70</ele>
        <time>2017-09-05T14:33:02Z</time>
      </trkpt>
      <trkpt lat="48.71842" lon="2.48218">
        <ele>70</ele>
        <time>2017-09-05T14:33:02Z</time>
      </trkpt>
      <trkpt lat="48.71839" lon="2.48217">
        <ele>70</ele>
        <time>2017-09-05T14:33:18Z</time>
      </trkpt>
      <trkpt lat="48.71836" lon="2.48216">
        <ele>70</ele>
        <time>2017-09-05T14:33:18Z</time>
      </trkpt>
      <trkpt lat="48.71833" lon="2.48214">
        <ele>70</ele>
        <time>2017-09-05T14:33:18Z</time>
      </trkpt>
      <trkpt lat="48.7183" lon="2.4821">
        <ele>70</ele>
        <time>2017-09-05T14:33:18Z</time>
      </trkpt>
      <trkpt lat="48.71829" lon="2.48211">
        <ele>70</ele>
        <time>2017-09-05T14:34:18Z</time>
      </trkpt>
      <trkpt lat="48.71829" lon="2.48211">
        <ele>70</ele>
        <time>2017-09-05T14:34:18Z</time>
      </trkpt>
      <trkpt lat="48.71826" lon="2.4821">
        <ele>70</ele>
        <time>2017-09-05T14:34:18Z</time>
      </trkpt>
      <trkpt lat="48.71822" lon="2.48208">
        <ele>73</ele>
        <time>2017-09-05T14:34:18Z</time>
      </trkpt>
      <trkpt lat="48.71817" lon="2.48208">
        <ele>70</ele>
        <time>2017-09-05T14:34:18Z</time>
      </trkpt>
      <trkpt lat="48.7181" lon="2.48206">
        <ele>73</ele>
        <time>2017-09-05T14:34:58Z</time>
      </trkpt>
      <trkpt lat="48.71808" lon="2.48207">
        <ele>73</ele>
        <time>2017-09-05T14:34:58Z</time>
      </trkpt>
      <trkpt lat="48.71806" lon="2.48205">
        <ele>73</ele>
        <time>2017-09-05T14:34:58Z</time>
      </trkpt>
      <trkpt lat="48.71806" lon="2.48205">
        <ele>73</ele>
        <time>2017-09-05T14:34:58Z</time>
      </trkpt>
      <trkpt lat="48.71805" lon="2.48204">
        <ele>73</ele>
        <time>2017-09-05T14:34:58Z</time>
      </trkpt>
      <trkpt lat="48.71804" lon="2.48203">
        <ele>73</ele>
        <time>2017-09-05T14:35:34Z</time>
      </trkpt>
      <trkpt lat="48.71802" lon="2.48203">
        <ele>73</ele>
        <time>2017-09-05T14:35:34Z</time>
      </trkpt>
      <trkpt lat="48.718" lon="2.48205">
        <ele>73</ele>
        <time>2017-09-05T14:35:34Z</time>
      </trkpt>
      <trkpt lat="48.71797" lon="2.48206">
        <ele>73</ele>
        <time>2017-09-05T14:35:34Z</time>
      </trkpt>
      <trkpt lat="48.71795" lon="2.48206">
        <ele>73</ele>
        <time>2017-09-05T14:35:34Z</time>
      </trkpt>
      <trkpt lat="48.71789" lon="2.48207">
        <ele>59</ele>
        <time>2017-09-05T14:36:06Z</time>
      </trkpt>
      <trkpt lat="48.71788" lon="2.48207">
        <ele>59</ele>
        <time>2017-09-05T14:36:06Z</time>
      </trkpt>
      <trkpt lat="48.71788" lon="2.48207">
        <ele>59</ele>
        <time>2017-09-05T14:36:06Z</time>
      </trkpt>
      <trkpt lat="48.71787" lon="2.48207">
        <ele>59</ele>
        <time>2017-09-05T14:36:06Z</time>
      </trkpt>
      <trkpt lat="48.71763" lon="2.48309">
        <ele>56</ele>
        <time>2017-09-05T14:36:06Z</time>
      </trkpt>
      <trkpt lat="48.71733" lon="2.48432">
        <ele>56</ele>
        <time>2017-09-05T14:36:22Z</time>
      </trkpt>
      <trkpt lat="48.71733" lon="2.48394">
        <ele>56</ele>
        <time>2017-09-05T14:36:22Z</time>
      </trkpt>
      <trkpt lat="48.71735" lon="2.48355">
        <ele>56</ele>
        <time>2017-09-05T14:36:22Z</time>
      </trkpt>
      <trkpt lat="48.71737" lon="2.48347">
        <ele>56</ele>
        <time>2017-09-05T14:36:22Z</time>
      </trkpt>
      <trkpt lat="48.71742" lon="2.48331">
        <ele>56</ele>
        <time>2017-09-05T14:36:38Z</time>
      </trkpt>
      <trkpt lat="48.71744" lon="2.48315">
        <ele>56</ele>
        <time>2017-09-05T14:36:38Z</time>
      </trkpt>
      <trkpt lat="48.71747" lon="2.48286">
        <ele>59</ele>
        <time>2017-09-05T14:36:38Z</time>
      </trkpt>
      <trkpt lat="48.71749" lon="2.48275">
        <ele>59</ele>
        <time>2017-09-05T14:36:38Z</time>
      </trkpt>
      <trkpt lat="48.7175" lon="2.4827">
        <ele>59</ele>
        <time>2017-09-05T14:37:02Z</time>
      </trkpt>
      <trkpt lat="48.7175" lon="2.48267">
        <ele>59</ele>
        <time>2017-09-05T14:37:02Z</time>
      </trkpt>
      <trkpt lat="48.7175" lon="2.48264">
        <ele>59</ele>
        <time>2017-09-05T14:37:02Z</time>
      </trkpt>
      <trkpt lat="48.7175" lon="2.48261">
        <ele>59</ele>
        <time>2017-09-05T14:37:02Z</time>
      </trkpt>
      <trkpt lat="48.7175" lon="2.48258">
        <ele>59</ele>
        <time>2017-09-05T14:37:02Z</time>
      </trkpt>
      <trkpt lat="48.7175" lon="2.48249">
        <ele>59</ele>
        <time>2017-09-05T14:37:34Z</time>
      </trkpt>
      <trkpt lat="48.7175" lon="2.48247">
        <ele>59</ele>
        <time>2017-09-05T14:37:34Z</time>
      </trkpt>
      <trkpt lat="48.7175" lon="2.48246">
        <ele>59</ele>
        <time>2017-09-05T14:37:34Z</time>
      </trkpt>
      <trkpt lat="48.71751" lon="2.48243">
        <ele>59</ele>
        <time>2017-09-05T14:37:34Z</time>
      </trkpt>
      <trkpt lat="48.71751" lon="2.48241">
        <ele>59</ele>
        <time>2017-09-05T14:37:34Z</time>
      </trkpt>
      <trkpt lat="48.7175" lon="2.48232">
        <ele>59</ele>
        <time>2017-09-05T14:38:14Z</time>
      </trkpt>
      <trkpt lat="48.7175" lon="2.48231">
        <ele>59</ele>
        <time>2017-09-05T14:38:14Z</time>
      </trkpt>
      <trkpt lat="48.7175" lon="2.48229">
        <ele>59</ele>
        <time>2017-09-05T14:38:14Z</time>
      </trkpt>
      <trkpt lat="48.7175" lon="2.48227">
        <ele>59</ele>
        <time>2017-09-05T14:38:14Z</time>
      </trkpt>
      <trkpt lat="48.71751" lon="2.48226">
        <ele>59</ele>
        <time>2017-09-05T14:38:14Z</time>
      </trkpt>
      <trkpt lat="48.71752" lon="2.48215">
        <ele>59</ele>
        <time>2017-09-05T14:39:06Z</time>
      </trkpt>
      <trkpt lat="48.71752" lon="2.48214">
        <ele>59</ele>
        <time>2017-09-05T14:39:06Z</time>
      </trkpt>
      <trkpt lat="48.71752" lon="2.48214">
        <ele>59</ele>
        <time>2017-09-05T14:39:06Z</time>
      </trkpt>
      <trkpt lat="48.71753" lon="2.48214">
        <ele>59</ele>
        <time>2017-09-05T14:39:06Z</time>
      </trkpt>
      <trkpt lat="48.71755" lon="2.48212">
        <ele>59</ele>
        <time>2017-09-05T14:39:06Z</time>
      </trkpt>
      <trkpt lat="48.71757" lon="2.48209">
        <ele>59</ele>
        <time>2017-09-05T14:39:26Z</time>
      </trkpt>
      <trkpt lat="48.71757" lon="2.48209">
        <ele>59</ele>
        <time>2017-09-05T14:39:26Z</time>
      </trkpt>
      <trkpt lat="48.71758" lon="2.48208">
        <ele>59</ele>
        <time>2017-09-05T14:39:26Z</time>
      </trkpt>
      <trkpt lat="48.7176" lon="2.48208">
        <ele>59</ele>
        <time>2017-09-05T14:39:26Z</time>
      </trkpt>
      <trkpt lat="48.71772" lon="2.48203">
        <ele>59</ele>
        <time>2017-09-05T14:39:26Z</time>
      </trkpt>
      <trkpt lat="48.71771" lon="2.48204">
        <ele>59</ele>
        <time>2017-09-05T14:40:26Z</time>
      </trkpt>
      <trkpt lat="48.7177" lon="2.48206">
        <ele>59</ele>
        <time>2017-09-05T14:40:26Z</time>
      </trkpt>
      <trkpt lat="48.71765" lon="2.4821">
        <ele>59</ele>
        <time>2017-09-05T14:40:26Z</time>
      </trkpt>
      <trkpt lat="48.71762" lon="2.48215">
        <ele>59</ele>
        <time>2017-09-05T14:40:26Z</time>
      </trkpt>
      <trkpt lat="48.7176" lon="2.48216">
        <ele>59</ele>
        <time>2017-09-05T14:40:26Z</time>
      </trkpt>
      <trkpt lat="48.71757" lon="2.48213">
        <ele>59</ele>
        <time>2017-09-05T14:40:42Z</time>
      </trkpt>
      <trkpt lat="48.71756" lon="2.48206">
        <ele>59</ele>
        <time>2017-09-05T14:40:42Z</time>
      </trkpt>
      <trkpt lat="48.71757" lon="2.48199">
        <ele>59</ele>
        <time>2017-09-05T14:40:42Z</time>
      </trkpt>
      <trkpt lat="48.71759" lon="2.48197">
        <ele>59</ele>
        <time>2017-09-05T14:40:42Z</time>
      </trkpt>
      <trkpt lat="48.71759" lon="2.48197">
        <ele>59</ele>
        <time>2017-09-05T14:40:58Z</time>
      </trkpt>
      <trkpt lat="48.71755" lon="2.48209">
        <ele>59</ele>
        <time>2017-09-05T14:40:58Z</time>
      </trkpt>
      <trkpt lat="48.71747" lon="2.48204">
        <ele>59</ele>
        <time>2017-09-05T14:40:58Z</time>
      </trkpt>
      <trkpt lat="48.71745" lon="2.4821">
        <ele>59</ele>
        <time>2017-09-05T14:40:58Z</time>
      </trkpt>
      <trkpt lat="48.71732" lon="2.482">
        <ele>59</ele>
        <time>2017-09-05T14:41:58Z</time>
      </trkpt>
      <trkpt lat="48.71731" lon="2.48198">
        <ele>59</ele>
        <time>2017-09-05T14:41:58Z</time>
      </trkpt>
      <trkpt lat="48.71731" lon="2.48197">
        <ele>59</ele>
        <time>2017-09-05T14:41:58Z</time>
      </trkpt>
      <trkpt lat="48.71732" lon="2.48196">
        <ele>59</ele>
        <time>2017-09-05T14:41:58Z</time>
      </trkpt>
      <trkpt lat="48.71734" lon="2.48191">
        <ele>59</ele>
        <time>2017-09-05T14:41:58Z</time>
      </trkpt>
      <trkpt lat="48.71736" lon="2.48187">
        <ele>59</ele>
        <time>2017-09-05T14:42:14Z</time>
      </trkpt>
      <trkpt lat="48.71733" lon="2.48195">
        <ele>59</ele>
        <time>2017-09-05T14:42:14Z</time>
      </trkpt>
      <trkpt lat="48.71732" lon="2.48201">
        <ele>59</ele>
        <time>2017-09-05T14:42:14Z</time>
      </trkpt>
      <trkpt lat="48.71732" lon="2.48202">
        <ele>59</ele>
        <time>2017-09-05T14:42:14Z</time>
      </trkpt>
      <trkpt lat="48.71733" lon="2.48196">
        <ele>59</ele>
        <time>2017-09-05T14:42:58Z</time>
      </trkpt>
      <trkpt lat="48.71733" lon="2.48194">
        <ele>59</ele>
        <time>2017-09-05T14:42:58Z</time>
      </trkpt>
      <trkpt lat="48.71733" lon="2.48193">
        <ele>59</ele>
        <time>2017-09-05T14:42:58Z</time>
      </trkpt>
      <trkpt lat="48.71732" lon="2.48189">
        <ele>59</ele>
        <time>2017-09-05T14:42:58Z</time>
      </trkpt>
      <trkpt lat="48.71732" lon="2.48184">
        <ele>59</ele>
        <time>2017-09-05T14:42:58Z</time>
      </trkpt>
      <trkpt lat="48.71732" lon="2.48181">
        <ele>59</ele>
        <time>2017-09-05T14:43:22Z</time>
      </trkpt>
      <trkpt lat="48.71732" lon="2.48179">
        <ele>59</ele>
        <time>2017-09-05T14:43:22Z</time>
      </trkpt>
      <trkpt lat="48.71733" lon="2.48175">
        <ele>59</ele>
        <time>2017-09-05T14:43:22Z</time>
      </trkpt>
      <trkpt lat="48.71734" lon="2.4817">
        <ele>59</ele>
        <time>2017-09-05T14:43:22Z</time>
      </trkpt>
      <trkpt lat="48.71734" lon="2.48164">
        <ele>59</ele>
        <time>2017-09-05T14:43:22Z</time>
      </trkpt>
      <trkpt lat="48.71733" lon="2.48159">
        <ele>59</ele>
        <time>2017-09-05T14:43:38Z</time>
      </trkpt>
      <trkpt lat="48.71733" lon="2.48153">
        <ele>59</ele>
        <time>2017-09-05T14:43:38Z</time>
      </trkpt>
      <trkpt lat="48.71732" lon="2.48147">
        <ele>59</ele>
        <time>2017-09-05T14:43:38Z</time>
      </trkpt>
      <trkpt lat="48.71732" lon="2.48141">
        <ele>59</ele>
        <time>2017-09-05T14:43:38Z</time>
      </trkpt>
      <trkpt lat="48.71731" lon="2.48134">
        <ele>59</ele>
        <time>2017-09-05T14:43:54Z</time>
      </trkpt>
      <trkpt lat="48.71731" lon="2.48127">
        <ele>59</ele>
        <time>2017-09-05T14:43:54Z</time>
      </trkpt>
      <trkpt lat="48.7173" lon="2.4812">
        <ele>62</ele>
        <time>2017-09-05T14:43:54Z</time>
      </trkpt>
      <trkpt lat="48.7173" lon="2.48116">
        <ele>62</ele>
        <time>2017-09-05T14:43:54Z</time>
      </trkpt>
      <trkpt lat="48.7173" lon="2.4811">
        <ele>62</ele>
        <time>2017-09-05T14:44:10Z</time>
      </trkpt>
      <trkpt lat="48.7173" lon="2.48104">
        <ele>62</ele>
        <time>2017-09-05T14:44:10Z</time>
      </trkpt>
      <trkpt lat="48.7173" lon="2.48099">
        <ele>62</ele>
        <time>2017-09-05T14:44:10Z</time>
      </trkpt>
      <trkpt lat="48.7173" lon="2.48094">
        <ele>62</ele>
        <time>2017-09-05T14:44:10Z</time>
      </trkpt>
      <trkpt lat="48.7173" lon="2.48086">
        <ele>62</ele>
        <time>2017-09-05T14:44:30Z</time>
      </trkpt>
      <trkpt lat="48.7173" lon="2.48081">
        <ele>62</ele>
        <time>2017-09-05T14:44:30Z</time>
      </trkpt>
      <trkpt lat="48.71731" lon="2.48079">
        <ele>62</ele>
        <time>2017-09-05T14:44:30Z</time>
      </trkpt>
      <trkpt lat="48.71732" lon="2.48078">
        <ele>62</ele>
        <time>2017-09-05T14:44:30Z</time>
      </trkpt>
      <trkpt lat="48.71734" lon="2.48073">
        <ele>62</ele>
        <time>2017-09-05T14:44:30Z</time>
      </trkpt>
      <trkpt lat="48.71735" lon="2.48067">
        <ele>62</ele>
        <time>2017-09-05T14:44:46Z</time>
      </trkpt>
      <trkpt lat="48.71734" lon="2.48061">
        <ele>62</ele>
        <time>2017-09-05T14:44:46Z</time>
      </trkpt>
      <trkpt lat="48.71734" lon="2.48055">
        <ele>62</ele>
        <time>2017-09-05T14:44:46Z</time>
      </trkpt>
      <trkpt lat="48.71734" lon="2.48048">
        <ele>62</ele>
        <time>2017-09-05T14:44:46Z</time>
      </trkpt>
      <trkpt lat="48.71733" lon="2.48042">
        <ele>62</ele>
        <time>2017-09-05T14:45:02Z</time>
      </trkpt>
      <trkpt lat="48.71732" lon="2.48034">
        <ele>63</ele>
        <time>2017-09-05T14:45:02Z</time>
      </trkpt>
      <trkpt lat="48.71732" lon="2.48027">
        <ele>63</ele>
        <time>2017-09-05T14:45:02Z</time>
      </trkpt>
      <trkpt lat="48.71732" lon="2.48022">
        <ele>63</ele>
        <time>2017-09-05T14:45:02Z</time>
      </trkpt>
      <trkpt lat="48.7173" lon="2.48013">
        <ele>63</ele>
        <time>2017-09-05T14:45:18Z</time>
      </trkpt>
      <trkpt lat="48.71727" lon="2.48007">
        <ele>63</ele>
        <time>2017-09-05T14:45:18Z</time>
      </trkpt>
      <trkpt lat="48.71725" lon="2.48003">
        <ele>63</ele>
        <time>2017-09-05T14:45:18Z</time>
      </trkpt>
      <trkpt lat="48.71722" lon="2.47996">
        <ele>63</ele>
        <time>2017-09-05T14:45:18Z</time>
      </trkpt>
      <trkpt lat="48.71722" lon="2.47991">
        <ele>63</ele>
        <time>2017-09-05T14:45:34Z</time>
      </trkpt>
      <trkpt lat="48.71723" lon="2.47985">
        <ele>63</ele>
        <time>2017-09-05T14:45:34Z</time>
      </trkpt>
      <trkpt lat="48.71722" lon="2.47977">
        <ele>63</ele>
        <time>2017-09-05T14:45:34Z</time>
      </trkpt>
      <trkpt lat="48.71722" lon="2.47972">
        <ele>63</ele>
        <time>2017-09-05T14:45:34Z</time>
      </trkpt>
      <trkpt lat="48.7172" lon="2.4796">
        <ele>63</ele>
        <time>2017-09-05T14:46:10Z</time>
      </trkpt>
      <trkpt lat="48.7172" lon="2.47957">
        <ele>63</ele>
        <time>2017-09-05T14:46:10Z</time>
      </trkpt>
      <trkpt lat="48.71721" lon="2.47954">
        <ele>63</ele>
        <time>2017-09-05T14:46:10Z</time>
      </trkpt>
      <trkpt lat="48.71722" lon="2.47953">
        <ele>63</ele>
        <time>2017-09-05T14:46:10Z</time>
      </trkpt>
      <trkpt lat="48.71721" lon="2.47949">
        <ele>63</ele>
        <time>2017-09-05T14:46:10Z</time>
      </trkpt>
      <trkpt lat="48.71721" lon="2.47942">
        <ele>63</ele>
        <time>2017-09-05T14:46:26Z</time>
      </trkpt>
      <trkpt lat="48.7172" lon="2.47935">
        <ele>63</ele>
        <time>2017-09-05T14:46:26Z</time>
      </trkpt>
      <trkpt lat="48.71721" lon="2.4793">
        <ele>63</ele>
        <time>2017-09-05T14:46:26Z</time>
      </trkpt>
      <trkpt lat="48.71721" lon="2.47924">
        <ele>63</ele>
        <time>2017-09-05T14:46:26Z</time>
      </trkpt>
      <trkpt lat="48.71721" lon="2.47917">
        <ele>63</ele>
        <time>2017-09-05T14:46:42Z</time>
      </trkpt>
      <trkpt lat="48.7172" lon="2.4791">
        <ele>63</ele>
        <time>2017-09-05T14:46:42Z</time>
      </trkpt>
      <trkpt lat="48.7172" lon="2.47903">
        <ele>63</ele>
        <time>2017-09-05T14:46:42Z</time>
      </trkpt>
      <trkpt lat="48.71719" lon="2.47898">
        <ele>63</ele>
        <time>2017-09-05T14:46:42Z</time>
      </trkpt>
      <trkpt lat="48.71719" lon="2.47891">
        <ele>63</ele>
        <time>2017-09-05T14:46:58Z</time>
      </trkpt>
      <trkpt lat="48.71719" lon="2.47884">
        <ele>63</ele>
        <time>2017-09-05T14:46:58Z</time>
      </trkpt>
      <trkpt lat="48.71718" lon="2.47876">
        <ele>63</ele>
        <time>2017-09-05T14:46:58Z</time>
      </trkpt>
      <trkpt lat="48.71718" lon="2.47869">
        <ele>64</ele>
        <time>2017-09-05T14:46:58Z</time>
      </trkpt>
      <trkpt lat="48.71717" lon="2.4786">
        <ele>64</ele>
        <time>2017-09-05T14:47:14Z</time>
      </trkpt>
      <trkpt lat="48.71717" lon="2.47854">
        <ele>64</ele>
        <time>2017-09-05T14:47:14Z</time>
      </trkpt>
      <trkpt lat="48.71718" lon="2.47848">
        <ele>64</ele>
        <time>2017-09-05T14:47:14Z</time>
      </trkpt>
      <trkpt lat="48.71717" lon="2.47843">
        <ele>64</ele>
        <time>2017-09-05T14:47:14Z</time>
      </trkpt>
      <trkpt lat="48.71716" lon="2.47836">
        <ele>64</ele>
        <time>2017-09-05T14:47:30Z</time>
      </trkpt>
      <trkpt lat="48.71717" lon="2.47831">
        <ele>64</ele>
        <time>2017-09-05T14:47:30Z</time>
      </trkpt>
      <trkpt lat="48.71719" lon="2.47822">
        <ele>64</ele>
        <time>2017-09-05T14:47:30Z</time>
      </trkpt>
      <trkpt lat="48.7172" lon="2.47813">
        <ele>64</ele>
        <time>2017-09-05T14:47:30Z</time>
      </trkpt>
      <trkpt lat="48.7172" lon="2.47807">
        <ele>64</ele>
        <time>2017-09-05T14:47:50Z</time>
      </trkpt>
      <trkpt lat="48.71721" lon="2.47805">
        <ele>64</ele>
        <time>2017-09-05T14:47:50Z</time>
      </trkpt>
      <trkpt lat="48.71721" lon="2.47799">
        <ele>64</ele>
        <time>2017-09-05T14:47:50Z</time>
      </trkpt>
      <trkpt lat="48.7172" lon="2.47794">
        <ele>64</ele>
        <time>2017-09-05T14:47:50Z</time>
      </trkpt>
      <trkpt lat="48.71717" lon="2.47786">
        <ele>68</ele>
        <time>2017-09-05T14:47:50Z</time>
      </trkpt>
      <trkpt lat="48.71712" lon="2.47779">
        <ele>68</ele>
        <time>2017-09-05T14:48:06Z</time>
      </trkpt>
      <trkpt lat="48.7171" lon="2.4777">
        <ele>68</ele>
        <time>2017-09-05T14:48:06Z</time>
      </trkpt>
      <trkpt lat="48.71708" lon="2.47762">
        <ele>54</ele>
        <time>2017-09-05T14:48:06Z</time>
      </trkpt>
      <trkpt lat="48.71706" lon="2.47755">
        <ele>54</ele>
        <time>2017-09-05T14:48:06Z</time>
      </trkpt>
      <trkpt lat="48.71705" lon="2.47748">
        <ele>54</ele>
        <time>2017-09-05T14:48:22Z</time>
      </trkpt>
      <trkpt lat="48.71703" lon="2.47738">
        <ele>54</ele>
        <time>2017-09-05T14:48:22Z</time>
      </trkpt>
      <trkpt lat="48.71703" lon="2.47732">
        <ele>54</ele>
        <time>2017-09-05T14:48:22Z</time>
      </trkpt>
      <trkpt lat="48.717" lon="2.47724">
        <ele>54</ele>
        <time>2017-09-05T14:48:22Z</time>
      </trkpt>
      <trkpt lat="48.71699" lon="2.47716">
        <ele>54</ele>
        <time>2017-09-05T14:48:38Z</time>
      </trkpt>
      <trkpt lat="48.71697" lon="2.47708">
        <ele>54</ele>
        <time>2017-09-05T14:48:38Z</time>
      </trkpt>
      <trkpt lat="48.71695" lon="2.477">
        <ele>57</ele>
        <time>2017-09-05T14:48:38Z</time>
      </trkpt>
      <trkpt lat="48.71693" lon="2.47693">
        <ele>57</ele>
        <time>2017-09-05T14:48:38Z</time>
      </trkpt>
      <trkpt lat="48.71692" lon="2.47685">
        <ele>57</ele>
        <time>2017-09-05T14:48:54Z</time>
      </trkpt>
      <trkpt lat="48.7169" lon="2.47678">
        <ele>57</ele>
        <time>2017-09-05T14:48:54Z</time>
      </trkpt>
      <trkpt lat="48.71688" lon="2.47671">
        <ele>57</ele>
        <time>2017-09-05T14:48:54Z</time>
      </trkpt>
      <trkpt lat="48.71686" lon="2.47664">
        <ele>57</ele>
        <time>2017-09-05T14:48:54Z</time>
      </trkpt>
      <trkpt lat="48.71684" lon="2.47656">
        <ele>57</ele>
        <time>2017-09-05T14:49:10Z</time>
      </trkpt>
      <trkpt lat="48.71682" lon="2.47648">
        <ele>57</ele>
        <time>2017-09-05T14:49:10Z</time>
      </trkpt>
      <trkpt lat="48.71679" lon="2.47638">
        <ele>57</ele>
        <time>2017-09-05T14:49:10Z</time>
      </trkpt>
      <trkpt lat="48.71676" lon="2.4763">
        <ele>57</ele>
        <time>2017-09-05T14:49:10Z</time>
      </trkpt>
      <trkpt lat="48.71675" lon="2.47623">
        <ele>60</ele>
        <time>2017-09-05T14:49:26Z</time>
      </trkpt>
      <trkpt lat="48.71672" lon="2.47615">
        <ele>60</ele>
        <time>2017-09-05T14:49:26Z</time>
      </trkpt>
      <trkpt lat="48.71672" lon="2.4761">
        <ele>60</ele>
        <time>2017-09-05T14:49:26Z</time>
      </trkpt>
      <trkpt lat="48.71673" lon="2.47606">
        <ele>60</ele>
        <time>2017-09-05T14:49:26Z</time>
      </trkpt>
      <trkpt lat="48.71671" lon="2.476">
        <ele>60</ele>
        <time>2017-09-05T14:49:42Z</time>
      </trkpt>
      <trkpt lat="48.71669" lon="2.47593">
        <ele>60</ele>
        <time>2017-09-05T14:49:42Z</time>
      </trkpt>
      <trkpt lat="48.71668" lon="2.47585">
        <ele>60</ele>
        <time>2017-09-05T14:49:42Z</time>
      </trkpt>
      <trkpt lat="48.71665" lon="2.4758">
        <ele>60</ele>
        <time>2017-09-05T14:49:42Z</time>
      </trkpt>
      <trkpt lat="48.71663" lon="2.47573">
        <ele>60</ele>
        <time>2017-09-05T14:49:58Z</time>
      </trkpt>
      <trkpt lat="48.7166" lon="2.47565">
        <ele>60</ele>
        <time>2017-09-05T14:49:58Z</time>
      </trkpt>
      <trkpt lat="48.71659" lon="2.47558">
        <ele>60</ele>
        <time>2017-09-05T14:49:58Z</time>
      </trkpt>
      <trkpt lat="48.71657" lon="2.47553">
        <ele>60</ele>
        <time>2017-09-05T14:49:58Z</time>
      </trkpt>
      <trkpt lat="48.71655" lon="2.47545">
        <ele>60</ele>
        <time>2017-09-05T14:50:14Z</time>
      </trkpt>
      <trkpt lat="48.71652" lon="2.47537">
        <ele>65</ele>
        <time>2017-09-05T14:50:14Z</time>
      </trkpt>
      <trkpt lat="48.71651" lon="2.4753">
        <ele>65</ele>
        <time>2017-09-05T14:50:14Z</time>
      </trkpt>
      <trkpt lat="48.71652" lon="2.47519">
        <ele>65</ele>
        <time>2017-09-05T14:50:14Z</time>
      </trkpt>
      <trkpt lat="48.71653" lon="2.47513">
        <ele>65</ele>
        <time>2017-09-05T14:50:30Z</time>
      </trkpt>
      <trkpt lat="48.71653" lon="2.47511">
        <ele>65</ele>
        <time>2017-09-05T14:50:30Z</time>
      </trkpt>
      <trkpt lat="48.71654" lon="2.47503">
        <ele>65</ele>
        <time>2017-09-05T14:50:30Z</time>
      </trkpt>
      <trkpt lat="48.71654" lon="2.47496">
        <ele>65</ele>
        <time>2017-09-05T14:50:30Z</time>
      </trkpt>
      <trkpt lat="48.71653" lon="2.47488">
        <ele>65</ele>
        <time>2017-09-05T14:50:46Z</time>
      </trkpt>
      <trkpt lat="48.71654" lon="2.47481">
        <ele>65</ele>
        <time>2017-09-05T14:50:46Z</time>
      </trkpt>
      <trkpt lat="48.71655" lon="2.47474">
        <ele>65</ele>
        <time>2017-09-05T14:50:46Z</time>
      </trkpt>
      <trkpt lat="48.71655" lon="2.47469">
        <ele>65</ele>
        <time>2017-09-05T14:50:46Z</time>
      </trkpt>
      <trkpt lat="48.71653" lon="2.4746">
        <ele>65</ele>
        <time>2017-09-05T14:51:02Z</time>
      </trkpt>
      <trkpt lat="48.71653" lon="2.47456">
        <ele>71</ele>
        <time>2017-09-05T14:51:02Z</time>
      </trkpt>
      <trkpt lat="48.71653" lon="2.47451">
        <ele>71</ele>
        <time>2017-09-05T14:51:02Z</time>
      </trkpt>
      <trkpt lat="48.71653" lon="2.47444">
        <ele>71</ele>
        <time>2017-09-05T14:51:02Z</time>
      </trkpt>
      <trkpt lat="48.71652" lon="2.47434">
        <ele>71</ele>
        <time>2017-09-05T14:51:18Z</time>
      </trkpt>
      <trkpt lat="48.71651" lon="2.47427">
        <ele>71</ele>
        <time>2017-09-05T14:51:18Z</time>
      </trkpt>
      <trkpt lat="48.7165" lon="2.4742">
        <ele>71</ele>
        <time>2017-09-05T14:51:18Z</time>
      </trkpt>
      <trkpt lat="48.71649" lon="2.47414">
        <ele>71</ele>
        <time>2017-09-05T14:51:18Z</time>
      </trkpt>
      <trkpt lat="48.71646" lon="2.47407">
        <ele>71</ele>
        <time>2017-09-05T14:51:34Z</time>
      </trkpt>
      <trkpt lat="48.71643" lon="2.47403">
        <ele>71</ele>
        <time>2017-09-05T14:51:34Z</time>
      </trkpt>
      <trkpt lat="48.71641" lon="2.47395">
        <ele>71</ele>
        <time>2017-09-05T14:51:34Z</time>
      </trkpt>
      <trkpt lat="48.71639" lon="2.47388">
        <ele>71</ele>
        <time>2017-09-05T14:51:34Z</time>
      </trkpt>
      <trkpt lat="48.71637" lon="2.47382">
        <ele>71</ele>
        <time>2017-09-05T14:51:50Z</time>
      </trkpt>
      <trkpt lat="48.71637" lon="2.47375">
        <ele>71</ele>
        <time>2017-09-05T14:51:50Z</time>
      </trkpt>
      <trkpt lat="48.71635" lon="2.4737">
        <ele>75</ele>
        <time>2017-09-05T14:51:50Z</time>
      </trkpt>
      <trkpt lat="48.71633" lon="2.47363">
        <ele>75</ele>
        <time>2017-09-05T14:51:50Z</time>
      </trkpt>
      <trkpt lat="48.71632" lon="2.47358">
        <ele>75</ele>
        <time>2017-09-05T14:52:06Z</time>
      </trkpt>
      <trkpt lat="48.71629" lon="2.47349">
        <ele>75</ele>
        <time>2017-09-05T14:52:06Z</time>
      </trkpt>
      <trkpt lat="48.7163" lon="2.4734">
        <ele>75</ele>
        <time>2017-09-05T14:52:06Z</time>
      </trkpt>
      <trkpt lat="48.7163" lon="2.47331">
        <ele>75</ele>
        <time>2017-09-05T14:52:06Z</time>
      </trkpt>
      <trkpt lat="48.71628" lon="2.47321">
        <ele>75</ele>
        <time>2017-09-05T14:52:22Z</time>
      </trkpt>
      <trkpt lat="48.71625" lon="2.47314">
        <ele>75</ele>
        <time>2017-09-05T14:52:22Z</time>
      </trkpt>
      <trkpt lat="48.71624" lon="2.47307">
        <ele>61</ele>
        <time>2017-09-05T14:52:22Z</time>
      </trkpt>
      <trkpt lat="48.71625" lon="2.47298">
        <ele>75</ele>
        <time>2017-09-05T14:52:22Z</time>
      </trkpt>
      <trkpt lat="48.71628" lon="2.47292">
        <ele>76</ele>
        <time>2017-09-05T14:52:38Z</time>
      </trkpt>
      <trkpt lat="48.71631" lon="2.47286">
        <ele>76</ele>
        <time>2017-09-05T14:52:38Z</time>
      </trkpt>
      <trkpt lat="48.71632" lon="2.47281">
        <ele>76</ele>
        <time>2017-09-05T14:52:38Z</time>
      </trkpt>
      <trkpt lat="48.7163" lon="2.47276">
        <ele>76</ele>
        <time>2017-09-05T14:52:38Z</time>
      </trkpt>
      <trkpt lat="48.71623" lon="2.47261">
        <ele>66</ele>
        <time>2017-09-05T14:53:06Z</time>
      </trkpt>
      <trkpt lat="48.71623" lon="2.4726">
        <ele>66</ele>
        <time>2017-09-05T14:53:06Z</time>
      </trkpt>
      <trkpt lat="48.71623" lon="2.4726">
        <ele>66</ele>
        <time>2017-09-05T14:53:06Z</time>
      </trkpt>
      <trkpt lat="48.71622" lon="2.47259">
        <ele>66</ele>
        <time>2017-09-05T14:53:06Z</time>
      </trkpt>
      <trkpt lat="48.71622" lon="2.47258">
        <ele>66</ele>
        <time>2017-09-05T14:53:06Z</time>
      </trkpt>
      <trkpt lat="48.71614" lon="2.47262">
        <ele>66</ele>
        <time>2017-09-05T14:59:58Z</time>
      </trkpt>
      <trkpt lat="48.71614" lon="2.47263">
        <ele>66</ele>
        <time>2017-09-05T14:59:58Z</time>
      </trkpt>
      <trkpt lat="48.71613" lon="2.47264">
        <ele>66</ele>
        <time>2017-09-05T14:59:58Z</time>
      </trkpt>
      <trkpt lat="48.71613" lon="2.47265">
        <ele>66</ele>
        <time>2017-09-05T14:59:58Z</time>
      </trkpt>
      <trkpt lat="48.71612" lon="2.47266">
        <ele>66</ele>
        <time>2017-09-05T14:59:58Z</time>
      </trkpt>
      <trkpt lat="48.71607" lon="2.47268">
        <ele>66</ele>
        <time>2017-09-05T15:05:10Z</time>
      </trkpt>
      <trkpt lat="48.71607" lon="2.47266">
        <ele>66</ele>
        <time>2017-09-05T15:05:10Z</time>
      </trkpt>
      <trkpt lat="48.71606" lon="2.47267">
        <ele>66</ele>
        <time>2017-09-05T15:05:10Z</time>
      </trkpt>
      <trkpt lat="48.71603" lon="2.47268">
        <ele>66</ele>
        <time>2017-09-05T15:05:10Z</time>
      </trkpt>
      <trkpt lat="48.71601" lon="2.47268">
        <ele>66</ele>
        <time>2017-09-05T15:05:10Z</time>
      </trkpt>
      <trkpt lat="48.71592" lon="2.47271">
        <ele>66</ele>
        <time>2017-09-05T15:14:06Z</time>
      </trkpt>
      <trkpt lat="48.71591" lon="2.47272">
        <ele>66</ele>
        <time>2017-09-05T15:14:06Z</time>
      </trkpt>
      <trkpt lat="48.71591" lon="2.47272">
        <ele>66</ele>
        <time>2017-09-05T15:14:06Z</time>
      </trkpt>
      <trkpt lat="48.71591" lon="2.47271">
        <ele>66</ele>
        <time>2017-09-05T15:14:06Z</time>
      </trkpt>
      <trkpt lat="48.71591" lon="2.47271">
        <ele>66</ele>
        <time>2017-09-05T15:14:06Z</time>
      </trkpt>
      <trkpt lat="48.71596" lon="2.47271">
        <ele>66</ele>
        <time>2017-09-05T15:16:26Z</time>
      </trkpt>
      <trkpt lat="48.71596" lon="2.47271">
        <ele>66</ele>
        <time>2017-09-05T15:16:26Z</time>
      </trkpt>
      <trkpt lat="48.71596" lon="2.47271">
        <ele>66</ele>
        <time>2017-09-05T15:16:26Z</time>
      </trkpt>
      <trkpt lat="48.71598" lon="2.47273">
        <ele>66</ele>
        <time>2017-09-05T15:16:26Z</time>
      </trkpt>
      <trkpt lat="48.71603" lon="2.47273">
        <ele>66</ele>
        <time>2017-09-05T15:16:26Z</time>
      </trkpt>
      <trkpt lat="48.71606" lon="2.47271">
        <ele>66</ele>
        <time>2017-09-05T15:16:46Z</time>
      </trkpt>
      <trkpt lat="48.7161" lon="2.47268">
        <ele>66</ele>
        <time>2017-09-05T15:16:46Z</time>
      </trkpt>
      <trkpt lat="48.7161" lon="2.47268">
        <ele>66</ele>
        <time>2017-09-05T15:16:46Z</time>
      </trkpt>
      <trkpt lat="48.71613" lon="2.47267">
        <ele>66</ele>
        <time>2017-09-05T15:16:46Z</time>
      </trkpt>
      <trkpt lat="48.71617" lon="2.47264">
        <ele>66</ele>
        <time>2017-09-05T15:16:46Z</time>
      </trkpt>
      <trkpt lat="48.71622" lon="2.47262">
        <ele>66</ele>
        <time>2017-09-05T15:17:10Z</time>
      </trkpt>
      <trkpt lat="48.71622" lon="2.47261">
        <ele>66</ele>
        <time>2017-09-05T15:17:10Z</time>
      </trkpt>
      <trkpt lat="48.71623" lon="2.47256">
        <ele>66</ele>
        <time>2017-09-05T15:17:10Z</time>
      </trkpt>
      <trkpt lat="48.71623" lon="2.47255">
        <ele>66</ele>
        <time>2017-09-05T15:17:10Z</time>
      </trkpt>
      <trkpt lat="48.71624" lon="2.47247">
        <ele>66</ele>
        <time>2017-09-05T15:17:10Z</time>
      </trkpt>
      <trkpt lat="48.71622" lon="2.4724">
        <ele>66</ele>
        <time>2017-09-05T15:17:26Z</time>
      </trkpt>
      <trkpt lat="48.7162" lon="2.47238">
        <ele>66</ele>
        <time>2017-09-05T15:17:26Z</time>
      </trkpt>
      <trkpt lat="48.71617" lon="2.4723">
        <ele>66</ele>
        <time>2017-09-05T15:17:26Z</time>
      </trkpt>
      <trkpt lat="48.71616" lon="2.47222">
        <ele>66</ele>
        <time>2017-09-05T15:17:26Z</time>
      </trkpt>
      <trkpt lat="48.71617" lon="2.47216">
        <ele>66</ele>
        <time>2017-09-05T15:17:42Z</time>
      </trkpt>
      <trkpt lat="48.71619" lon="2.4721">
        <ele>66</ele>
        <time>2017-09-05T15:17:42Z</time>
      </trkpt>
      <trkpt lat="48.71619" lon="2.472">
        <ele>66</ele>
        <time>2017-09-05T15:17:42Z</time>
      </trkpt>
      <trkpt lat="48.71618" lon="2.47197">
        <ele>66</ele>
        <time>2017-09-05T15:17:42Z</time>
      </trkpt>
      <trkpt lat="48.71618" lon="2.47186">
        <ele>66</ele>
        <time>2017-09-05T15:18:06Z</time>
      </trkpt>
      <trkpt lat="48.7162" lon="2.47183">
        <ele>66</ele>
        <time>2017-09-05T15:18:06Z</time>
      </trkpt>
      <trkpt lat="48.71618" lon="2.47182">
        <ele>66</ele>
        <time>2017-09-05T15:18:06Z</time>
      </trkpt>
      <trkpt lat="48.71616" lon="2.47181">
        <ele>66</ele>
        <time>2017-09-05T15:18:06Z</time>
      </trkpt>
      <trkpt lat="48.71611" lon="2.47176">
        <ele>66</ele>
        <time>2017-09-05T15:18:06Z</time>
      </trkpt>
      <trkpt lat="48.71606" lon="2.47175">
        <ele>66</ele>
        <time>2017-09-05T15:18:22Z</time>
      </trkpt>
      <trkpt lat="48.71602" lon="2.47174">
        <ele>66</ele>
        <time>2017-09-05T15:18:22Z</time>
      </trkpt>
      <trkpt lat="48.71598" lon="2.47174">
        <ele>66</ele>
        <time>2017-09-05T15:18:22Z</time>
      </trkpt>
      <trkpt lat="48.71595" lon="2.47173">
        <ele>66</ele>
        <time>2017-09-05T15:18:22Z</time>
      </trkpt>
      <trkpt lat="48.7159" lon="2.4717">
        <ele>66</ele>
        <time>2017-09-05T15:18:38Z</time>
      </trkpt>
      <trkpt lat="48.71588" lon="2.4717">
        <ele>66</ele>
        <time>2017-09-05T15:18:38Z</time>
      </trkpt>
      <trkpt lat="48.71583" lon="2.47168">
        <ele>66</ele>
        <time>2017-09-05T15:18:38Z</time>
      </trkpt>
      <trkpt lat="48.71578" lon="2.47167">
        <ele>66</ele>
        <time>2017-09-05T15:18:38Z</time>
      </trkpt>
      <trkpt lat="48.71575" lon="2.47166">
        <ele>66</ele>
        <time>2017-09-05T15:18:54Z</time>
      </trkpt>
      <trkpt lat="48.71571" lon="2.47165">
        <ele>66</ele>
        <time>2017-09-05T15:18:54Z</time>
      </trkpt>
      <trkpt lat="48.71567" lon="2.47164">
        <ele>66</ele>
        <time>2017-09-05T15:18:54Z</time>
      </trkpt>
      <trkpt lat="48.71563" lon="2.47161">
        <ele>66</ele>
        <time>2017-09-05T15:18:54Z</time>
      </trkpt>
      <trkpt lat="48.71558" lon="2.47161">
        <ele>66</ele>
        <time>2017-09-05T15:19:10Z</time>
      </trkpt>
      <trkpt lat="48.71553" lon="2.47162">
        <ele>66</ele>
        <time>2017-09-05T15:19:10Z</time>
      </trkpt>
      <trkpt lat="48.71548" lon="2.47161">
        <ele>66</ele>
        <time>2017-09-05T15:19:10Z</time>
      </trkpt>
      <trkpt lat="48.71544" lon="2.4716">
        <ele>66</ele>
        <time>2017-09-05T15:19:10Z</time>
      </trkpt>
      <trkpt lat="48.71533" lon="2.47159">
        <ele>59</ele>
        <time>2017-09-05T15:19:38Z</time>
      </trkpt>
      <trkpt lat="48.71533" lon="2.47159">
        <ele>59</ele>
        <time>2017-09-05T15:19:38Z</time>
      </trkpt>
      <trkpt lat="48.71533" lon="2.47156">
        <ele>59</ele>
        <time>2017-09-05T15:19:38Z</time>
      </trkpt>
      <trkpt lat="48.71533" lon="2.47155">
        <ele>59</ele>
        <time>2017-09-05T15:19:38Z</time>
      </trkpt>
      <trkpt lat="48.7153" lon="2.47153">
        <ele>59</ele>
        <time>2017-09-05T15:19:38Z</time>
      </trkpt>
      <trkpt lat="48.71529" lon="2.47153">
        <ele>59</ele>
        <time>2017-09-05T15:20:06Z</time>
      </trkpt>
      <trkpt lat="48.71528" lon="2.47154">
        <ele>59</ele>
        <time>2017-09-05T15:20:06Z</time>
      </trkpt>
      <trkpt lat="48.71525" lon="2.47153">
        <ele>59</ele>
        <time>2017-09-05T15:20:06Z</time>
      </trkpt>
      <trkpt lat="48.71524" lon="2.47147">
        <ele>59</ele>
        <time>2017-09-05T15:20:06Z</time>
      </trkpt>
      <trkpt lat="48.71524" lon="2.47139">
        <ele>59</ele>
        <time>2017-09-05T15:20:06Z</time>
      </trkpt>
      <trkpt lat="48.71524" lon="2.47131">
        <ele>59</ele>
        <time>2017-09-05T15:20:22Z</time>
      </trkpt>
      <trkpt lat="48.71524" lon="2.47124">
        <ele>59</ele>
        <time>2017-09-05T15:20:22Z</time>
      </trkpt>
      <trkpt lat="48.71524" lon="2.47116">
        <ele>59</ele>
        <time>2017-09-05T15:20:22Z</time>
      </trkpt>
      <trkpt lat="48.71524" lon="2.47111">
        <ele>59</ele>
        <time>2017-09-05T15:20:22Z</time>
      </trkpt>
      <trkpt lat="48.71525" lon="2.47105">
        <ele>59</ele>
        <time>2017-09-05T15:20:38Z</time>
      </trkpt>
      <trkpt lat="48.71525" lon="2.47099">
        <ele>59</ele>
        <time>2017-09-05T15:20:38Z</time>
      </trkpt>
      <trkpt lat="48.71526" lon="2.47092">
        <ele>59</ele>
        <time>2017-09-05T15:20:38Z</time>
      </trkpt>
      <trkpt lat="48.71527" lon="2.47085">
        <ele>59</ele>
        <time>2017-09-05T15:20:38Z</time>
      </trkpt>
      <trkpt lat="48.71528" lon="2.47081">
        <ele>59</ele>
        <time>2017-09-05T15:20:54Z</time>
      </trkpt>
      <trkpt lat="48.71529" lon="2.47074">
        <ele>59</ele>
        <time>2017-09-05T15:20:54Z</time>
      </trkpt>
      <trkpt lat="48.71529" lon="2.47066">
        <ele>59</ele>
        <time>2017-09-05T15:20:54Z</time>
      </trkpt>
      <trkpt lat="48.71531" lon="2.4706">
        <ele>59</ele>
        <time>2017-09-05T15:20:54Z</time>
      </trkpt>
      <trkpt lat="48.71532" lon="2.47053">
        <ele>59</ele>
        <time>2017-09-05T15:21:10Z</time>
      </trkpt>
      <trkpt lat="48.71533" lon="2.47047">
        <ele>59</ele>
        <time>2017-09-05T15:21:10Z</time>
      </trkpt>
      <trkpt lat="48.71535" lon="2.47041">
        <ele>59</ele>
        <time>2017-09-05T15:21:10Z</time>
      </trkpt>
      <trkpt lat="48.71534" lon="2.47034">
        <ele>59</ele>
        <time>2017-09-05T15:21:10Z</time>
      </trkpt>
      <trkpt lat="48.71535" lon="2.4703">
        <ele>59</ele>
        <time>2017-09-05T15:21:26Z</time>
      </trkpt>
      <trkpt lat="48.71536" lon="2.47026">
        <ele>59</ele>
        <time>2017-09-05T15:21:26Z</time>
      </trkpt>
      <trkpt lat="48.71537" lon="2.4702">
        <ele>59</ele>
        <time>2017-09-05T15:21:26Z</time>
      </trkpt>
      <trkpt lat="48.71536" lon="2.47013">
        <ele>59</ele>
        <time>2017-09-05T15:21:26Z</time>
      </trkpt>
      <trkpt lat="48.71536" lon="2.47008">
        <ele>59</ele>
        <time>2017-09-05T15:21:42Z</time>
      </trkpt>
      <trkpt lat="48.71539" lon="2.47001">
        <ele>59</ele>
        <time>2017-09-05T15:21:42Z</time>
      </trkpt>
      <trkpt lat="48.7154" lon="2.46993">
        <ele>59</ele>
        <time>2017-09-05T15:21:42Z</time>
      </trkpt>
      <trkpt lat="48.7154" lon="2.46985">
        <ele>59</ele>
        <time>2017-09-05T15:21:42Z</time>
      </trkpt>
      <trkpt lat="48.71539" lon="2.46979">
        <ele>59</ele>
        <time>2017-09-05T15:21:58Z</time>
      </trkpt>
      <trkpt lat="48.71541" lon="2.4697">
        <ele>59</ele>
        <time>2017-09-05T15:21:58Z</time>
      </trkpt>
      <trkpt lat="48.71542" lon="2.46962">
        <ele>66</ele>
        <time>2017-09-05T15:21:58Z</time>
      </trkpt>
      <trkpt lat="48.71543" lon="2.46956">
        <ele>60</ele>
        <time>2017-09-05T15:21:58Z</time>
      </trkpt>
      <trkpt lat="48.71542" lon="2.46948">
        <ele>60</ele>
        <time>2017-09-05T15:22:14Z</time>
      </trkpt>
      <trkpt lat="48.7154" lon="2.46943">
        <ele>56</ele>
        <time>2017-09-05T15:22:14Z</time>
      </trkpt>
      <trkpt lat="48.71535" lon="2.46942">
        <ele>56</ele>
        <time>2017-09-05T15:22:14Z</time>
      </trkpt>
      <trkpt lat="48.71532" lon="2.46936">
        <ele>56</ele>
        <time>2017-09-05T15:22:14Z</time>
      </trkpt>
      <trkpt lat="48.71527" lon="2.46933">
        <ele>56</ele>
        <time>2017-09-05T15:22:34Z</time>
      </trkpt>
      <trkpt lat="48.71525" lon="2.46931">
        <ele>56</ele>
        <time>2017-09-05T15:22:34Z</time>
      </trkpt>
      <trkpt lat="48.71522" lon="2.4693">
        <ele>56</ele>
        <time>2017-09-05T15:22:34Z</time>
      </trkpt>
      <trkpt lat="48.7152" lon="2.46929">
        <ele>56</ele>
        <time>2017-09-05T15:22:34Z</time>
      </trkpt>
      <trkpt lat="48.71515" lon="2.46924">
        <ele>56</ele>
        <time>2017-09-05T15:22:34Z</time>
      </trkpt>
      <trkpt lat="48.71511" lon="2.4692">
        <ele>56</ele>
        <time>2017-09-05T15:22:50Z</time>
      </trkpt>
      <trkpt lat="48.71507" lon="2.46918">
        <ele>56</ele>
        <time>2017-09-05T15:22:50Z</time>
      </trkpt>
      <trkpt lat="48.71501" lon="2.46918">
        <ele>56</ele>
        <time>2017-09-05T15:22:50Z</time>
      </trkpt>
      <trkpt lat="48.71498" lon="2.46917">
        <ele>56</ele>
        <time>2017-09-05T15:22:50Z</time>
      </trkpt>
      <trkpt lat="48.71493" lon="2.46919">
        <ele>56</ele>
        <time>2017-09-05T15:23:06Z</time>
      </trkpt>
      <trkpt lat="48.71487" lon="2.4692">
        <ele>56</ele>
        <time>2017-09-05T15:23:06Z</time>
      </trkpt>
      <trkpt lat="48.71482" lon="2.46921">
        <ele>56</ele>
        <time>2017-09-05T15:23:06Z</time>
      </trkpt>
      <trkpt lat="48.71475" lon="2.4692">
        <ele>56</ele>
        <time>2017-09-05T15:23:06Z</time>
      </trkpt>
      <trkpt lat="48.7147" lon="2.46918">
        <ele>56</ele>
        <time>2017-09-05T15:23:22Z</time>
      </trkpt>
      <trkpt lat="48.71466" lon="2.46913">
        <ele>56</ele>
        <time>2017-09-05T15:23:22Z</time>
      </trkpt>
      <trkpt lat="48.71461" lon="2.46911">
        <ele>56</ele>
        <time>2017-09-05T15:23:22Z</time>
      </trkpt>
      <trkpt lat="48.71458" lon="2.46911">
        <ele>50</ele>
        <time>2017-09-05T15:23:22Z</time>
      </trkpt>
      <trkpt lat="48.71455" lon="2.46908">
        <ele>50</ele>
        <time>2017-09-05T15:23:38Z</time>
      </trkpt>
      <trkpt lat="48.71449" lon="2.46914">
        <ele>50</ele>
        <time>2017-09-05T15:23:38Z</time>
      </trkpt>
      <trkpt lat="48.71446" lon="2.4692">
        <ele>50</ele>
        <time>2017-09-05T15:23:38Z</time>
      </trkpt>
      <trkpt lat="48.71444" lon="2.46925">
        <ele>50</ele>
        <time>2017-09-05T15:23:38Z</time>
      </trkpt>
      <trkpt lat="48.71443" lon="2.46929">
        <ele>50</ele>
        <time>2017-09-05T15:23:54Z</time>
      </trkpt>
      <trkpt lat="48.71443" lon="2.46936">
        <ele>50</ele>
        <time>2017-09-05T15:23:54Z</time>
      </trkpt>
      <trkpt lat="48.71442" lon="2.46942">
        <ele>50</ele>
        <time>2017-09-05T15:23:54Z</time>
      </trkpt>
      <trkpt lat="48.71441" lon="2.4695">
        <ele>50</ele>
        <time>2017-09-05T15:23:54Z</time>
      </trkpt>
      <trkpt lat="48.71438" lon="2.46954">
        <ele>50</ele>
        <time>2017-09-05T15:24:10Z</time>
      </trkpt>
      <trkpt lat="48.71435" lon="2.46957">
        <ele>50</ele>
        <time>2017-09-05T15:24:10Z</time>
      </trkpt>
      <trkpt lat="48.71432" lon="2.46959">
        <ele>51</ele>
        <time>2017-09-05T15:24:10Z</time>
      </trkpt>
      <trkpt lat="48.71428" lon="2.46963">
        <ele>51</ele>
        <time>2017-09-05T15:24:10Z</time>
      </trkpt>
      <trkpt lat="48.71425" lon="2.46963">
        <ele>51</ele>
        <time>2017-09-05T15:24:26Z</time>
      </trkpt>
      <trkpt lat="48.7142" lon="2.46958">
        <ele>51</ele>
        <time>2017-09-05T15:24:26Z</time>
      </trkpt>
      <trkpt lat="48.71414" lon="2.46961">
        <ele>51</ele>
        <time>2017-09-05T15:24:26Z</time>
      </trkpt>
      <trkpt lat="48.71409" lon="2.46964">
        <ele>51</ele>
        <time>2017-09-05T15:24:26Z</time>
      </trkpt>
      <trkpt lat="48.71403" lon="2.46971">
        <ele>51</ele>
        <time>2017-09-05T15:24:42Z</time>
      </trkpt>
      <trkpt lat="48.71401" lon="2.46976">
        <ele>51</ele>
        <time>2017-09-05T15:24:42Z</time>
      </trkpt>
      <trkpt lat="48.71402" lon="2.46984">
        <ele>51</ele>
        <time>2017-09-05T15:24:42Z</time>
      </trkpt>
      <trkpt lat="48.714" lon="2.46989">
        <ele>51</ele>
        <time>2017-09-05T15:24:42Z</time>
      </trkpt>
      <trkpt lat="48.71399" lon="2.46997">
        <ele>51</ele>
        <time>2017-09-05T15:24:58Z</time>
      </trkpt>
      <trkpt lat="48.71396" lon="2.47003">
        <ele>51</ele>
        <time>2017-09-05T15:24:58Z</time>
      </trkpt>
      <trkpt lat="48.71396" lon="2.47007">
        <ele>51</ele>
        <time>2017-09-05T15:24:58Z</time>
      </trkpt>
      <trkpt lat="48.71396" lon="2.47015">
        <ele>51</ele>
        <time>2017-09-05T15:24:58Z</time>
      </trkpt>
      <trkpt lat="48.71396" lon="2.47022">
        <ele>51</ele>
        <time>2017-09-05T15:25:14Z</time>
      </trkpt>
      <trkpt lat="48.71397" lon="2.4703">
        <ele>51</ele>
        <time>2017-09-05T15:25:14Z</time>
      </trkpt>
      <trkpt lat="48.71397" lon="2.47038">
        <ele>51</ele>
        <time>2017-09-05T15:25:14Z</time>
      </trkpt>
      <trkpt lat="48.71398" lon="2.47048">
        <ele>50</ele>
        <time>2017-09-05T15:25:14Z</time>
      </trkpt>
      <trkpt lat="48.71398" lon="2.47055">
        <ele>50</ele>
        <time>2017-09-05T15:25:30Z</time>
      </trkpt>
      <trkpt lat="48.71398" lon="2.47061">
        <ele>50</ele>
        <time>2017-09-05T15:25:30Z</time>
      </trkpt>
      <trkpt lat="48.71397" lon="2.47071">
        <ele>50</ele>
        <time>2017-09-05T15:25:30Z</time>
      </trkpt>
      <trkpt lat="48.71398" lon="2.47079">
        <ele>50</ele>
        <time>2017-09-05T15:25:30Z</time>
      </trkpt>
      <trkpt lat="48.71399" lon="2.47085">
        <ele>50</ele>
        <time>2017-09-05T15:25:46Z</time>
      </trkpt>
      <trkpt lat="48.71402" lon="2.47094">
        <ele>50</ele>
        <time>2017-09-05T15:25:46Z</time>
      </trkpt>
      <trkpt lat="48.71404" lon="2.47102">
        <ele>50</ele>
        <time>2017-09-05T15:25:46Z</time>
      </trkpt>
      <trkpt lat="48.71406" lon="2.47111">
        <ele>50</ele>
        <time>2017-09-05T15:25:46Z</time>
      </trkpt>
      <trkpt lat="48.71409" lon="2.47118">
        <ele>50</ele>
        <time>2017-09-05T15:26:02Z</time>
      </trkpt>
      <trkpt lat="48.71412" lon="2.47124">
        <ele>50</ele>
        <time>2017-09-05T15:26:02Z</time>
      </trkpt>
      <trkpt lat="48.71414" lon="2.47132">
        <ele>46</ele>
        <time>2017-09-05T15:26:02Z</time>
      </trkpt>
      <trkpt lat="48.71417" lon="2.4714">
        <ele>46</ele>
        <time>2017-09-05T15:26:02Z</time>
      </trkpt>
      <trkpt lat="48.71419" lon="2.47146">
        <ele>46</ele>
        <time>2017-09-05T15:26:18Z</time>
      </trkpt>
      <trkpt lat="48.71422" lon="2.47152">
        <ele>46</ele>
        <time>2017-09-05T15:26:18Z</time>
      </trkpt>
      <trkpt lat="48.71424" lon="2.47158">
        <ele>46</ele>
        <time>2017-09-05T15:26:18Z</time>
      </trkpt>
      <trkpt lat="48.71424" lon="2.47168">
        <ele>46</ele>
        <time>2017-09-05T15:26:18Z</time>
      </trkpt>
      <trkpt lat="48.71428" lon="2.47174">
        <ele>46</ele>
        <time>2017-09-05T15:26:34Z</time>
      </trkpt>
      <trkpt lat="48.71431" lon="2.47181">
        <ele>46</ele>
        <time>2017-09-05T15:26:34Z</time>
      </trkpt>
      <trkpt lat="48.71433" lon="2.47187">
        <ele>46</ele>
        <time>2017-09-05T15:26:34Z</time>
      </trkpt>
      <trkpt lat="48.71437" lon="2.47194">
        <ele>46</ele>
        <time>2017-09-05T15:26:34Z</time>
      </trkpt>
      <trkpt lat="48.7144" lon="2.47201">
        <ele>46</ele>
        <time>2017-09-05T15:26:50Z</time>
      </trkpt>
      <trkpt lat="48.71442" lon="2.47207">
        <ele>46</ele>
        <time>2017-09-05T15:26:50Z</time>
      </trkpt>
      <trkpt lat="48.71445" lon="2.47213">
        <ele>41</ele>
        <time>2017-09-05T15:26:50Z</time>
      </trkpt>
      <trkpt lat="48.71448" lon="2.4722">
        <ele>41</ele>
        <time>2017-09-05T15:26:50Z</time>
      </trkpt>
      <trkpt lat="48.7145" lon="2.47226">
        <ele>41</ele>
        <time>2017-09-05T15:27:06Z</time>
      </trkpt>
      <trkpt lat="48.71452" lon="2.47232">
        <ele>41</ele>
        <time>2017-09-05T15:27:06Z</time>
      </trkpt>
      <trkpt lat="48.71453" lon="2.4724">
        <ele>41</ele>
        <time>2017-09-05T15:27:06Z</time>
      </trkpt>
      <trkpt lat="48.71455" lon="2.47247">
        <ele>41</ele>
        <time>2017-09-05T15:27:06Z</time>
      </trkpt>
      <trkpt lat="48.71457" lon="2.47255">
        <ele>41</ele>
        <time>2017-09-05T15:27:22Z</time>
      </trkpt>
      <trkpt lat="48.71458" lon="2.47263">
        <ele>41</ele>
        <time>2017-09-05T15:27:22Z</time>
      </trkpt>
      <trkpt lat="48.71459" lon="2.47269">
        <ele>53</ele>
        <time>2017-09-05T15:27:22Z</time>
      </trkpt>
      <trkpt lat="48.71459" lon="2.47276">
        <ele>53</ele>
        <time>2017-09-05T15:27:22Z</time>
      </trkpt>
      <trkpt lat="48.71459" lon="2.47283">
        <ele>53</ele>
        <time>2017-09-05T15:27:38Z</time>
      </trkpt>
      <trkpt lat="48.7146" lon="2.47288">
        <ele>53</ele>
        <time>2017-09-05T15:27:38Z</time>
      </trkpt>
      <trkpt lat="48.7146" lon="2.47293">
        <ele>45</ele>
        <time>2017-09-05T15:27:38Z</time>
      </trkpt>
      <trkpt lat="48.71462" lon="2.47299">
        <ele>45</ele>
        <time>2017-09-05T15:27:38Z</time>
      </trkpt>
      <trkpt lat="48.71464" lon="2.47309">
        <ele>45</ele>
        <time>2017-09-05T15:27:54Z</time>
      </trkpt>
      <trkpt lat="48.71467" lon="2.47318">
        <ele>45</ele>
        <time>2017-09-05T15:27:54Z</time>
      </trkpt>
      <trkpt lat="48.71469" lon="2.47326">
        <ele>45</ele>
        <time>2017-09-05T15:27:54Z</time>
      </trkpt>
      <trkpt lat="48.71472" lon="2.47333">
        <ele>45</ele>
        <time>2017-09-05T15:27:54Z</time>
      </trkpt>
      <trkpt lat="48.71474" lon="2.4734">
        <ele>45</ele>
        <time>2017-09-05T15:28:10Z</time>
      </trkpt>
      <trkpt lat="48.71476" lon="2.47347">
        <ele>45</ele>
        <time>2017-09-05T15:28:10Z</time>
      </trkpt>
      <trkpt lat="48.71479" lon="2.47357">
        <ele>45</ele>
        <time>2017-09-05T15:28:10Z</time>
      </trkpt>
      <trkpt lat="48.71481" lon="2.47365">
        <ele>45</ele>
        <time>2017-09-05T15:28:10Z</time>
      </trkpt>
      <trkpt lat="48.71484" lon="2.47371">
        <ele>45</ele>
        <time>2017-09-05T15:28:26Z</time>
      </trkpt>
      <trkpt lat="48.71486" lon="2.4738">
        <ele>41</ele>
        <time>2017-09-05T15:28:26Z</time>
      </trkpt>
      <trkpt lat="48.71489" lon="2.47388">
        <ele>41</ele>
        <time>2017-09-05T15:28:26Z</time>
      </trkpt>
      <trkpt lat="48.71491" lon="2.47394">
        <ele>41</ele>
        <time>2017-09-05T15:28:26Z</time>
      </trkpt>
      <trkpt lat="48.71493" lon="2.47402">
        <ele>41</ele>
        <time>2017-09-05T15:28:42Z</time>
      </trkpt>
      <trkpt lat="48.71495" lon="2.47409">
        <ele>41</ele>
        <time>2017-09-05T15:28:42Z</time>
      </trkpt>
      <trkpt lat="48.71498" lon="2.47417">
        <ele>41</ele>
        <time>2017-09-05T15:28:42Z</time>
      </trkpt>
      <trkpt lat="48.71501" lon="2.47423">
        <ele>41</ele>
        <time>2017-09-05T15:28:42Z</time>
      </trkpt>
      <trkpt lat="48.71504" lon="2.47431">
        <ele>41</ele>
        <time>2017-09-05T15:28:58Z</time>
      </trkpt>
      <trkpt lat="48.71508" lon="2.47439">
        <ele>41</ele>
        <time>2017-09-05T15:28:58Z</time>
      </trkpt>
      <trkpt lat="48.71512" lon="2.47446">
        <ele>41</ele>
        <time>2017-09-05T15:28:58Z</time>
      </trkpt>
      <trkpt lat="48.71514" lon="2.47451">
        <ele>41</ele>
        <time>2017-09-05T15:28:58Z</time>
      </trkpt>
      <trkpt lat="48.71516" lon="2.47456">
        <ele>41</ele>
        <time>2017-09-05T15:29:14Z</time>
      </trkpt>
      <trkpt lat="48.71518" lon="2.47461">
        <ele>39</ele>
        <time>2017-09-05T15:29:14Z</time>
      </trkpt>
      <trkpt lat="48.71522" lon="2.47466">
        <ele>39</ele>
        <time>2017-09-05T15:29:14Z</time>
      </trkpt>
      <trkpt lat="48.71525" lon="2.47472">
        <ele>39</ele>
        <time>2017-09-05T15:29:14Z</time>
      </trkpt>
      <trkpt lat="48.71529" lon="2.47477">
        <ele>39</ele>
        <time>2017-09-05T15:29:30Z</time>
      </trkpt>
      <trkpt lat="48.71532" lon="2.47483">
        <ele>39</ele>
        <time>2017-09-05T15:29:30Z</time>
      </trkpt>
      <trkpt lat="48.71537" lon="2.47489">
        <ele>39</ele>
        <time>2017-09-05T15:29:30Z</time>
      </trkpt>
      <trkpt lat="48.71539" lon="2.47495">
        <ele>39</ele>
        <time>2017-09-05T15:29:30Z</time>
      </trkpt>
      <trkpt lat="48.71544" lon="2.47499">
        <ele>48</ele>
        <time>2017-09-05T15:29:46Z</time>
      </trkpt>
      <trkpt lat="48.71549" lon="2.47498">
        <ele>48</ele>
        <time>2017-09-05T15:29:46Z</time>
      </trkpt>
      <trkpt lat="48.71554" lon="2.47501">
        <ele>48</ele>
        <time>2017-09-05T15:29:46Z</time>
      </trkpt>
      <trkpt lat="48.71556" lon="2.47508">
        <ele>48</ele>
        <time>2017-09-05T15:29:46Z</time>
      </trkpt>
      <trkpt lat="48.71558" lon="2.47515">
        <ele>48</ele>
        <time>2017-09-05T15:30:02Z</time>
      </trkpt>
      <trkpt lat="48.71559" lon="2.47522">
        <ele>48</ele>
        <time>2017-09-05T15:30:02Z</time>
      </trkpt>
      <trkpt lat="48.71561" lon="2.47528">
        <ele>48</ele>
        <time>2017-09-05T15:30:02Z</time>
      </trkpt>
      <trkpt lat="48.71562" lon="2.47535">
        <ele>48</ele>
        <time>2017-09-05T15:30:02Z</time>
      </trkpt>
      <trkpt lat="48.71563" lon="2.47542">
        <ele>44</ele>
        <time>2017-09-05T15:30:18Z</time>
      </trkpt>
      <trkpt lat="48.71567" lon="2.47549">
        <ele>44</ele>
        <time>2017-09-05T15:30:18Z</time>
      </trkpt>
      <trkpt lat="48.7157" lon="2.47555">
        <ele>44</ele>
        <time>2017-09-05T15:30:18Z</time>
      </trkpt>
      <trkpt lat="48.71572" lon="2.47563">
        <ele>44</ele>
        <time>2017-09-05T15:30:18Z</time>
      </trkpt>
      <trkpt lat="48.71573" lon="2.4757">
        <ele>44</ele>
        <time>2017-09-05T15:30:34Z</time>
      </trkpt>
      <trkpt lat="48.71576" lon="2.47575">
        <ele>44</ele>
        <time>2017-09-05T15:30:34Z</time>
      </trkpt>
      <trkpt lat="48.7158" lon="2.47585">
        <ele>44</ele>
        <time>2017-09-05T15:30:34Z</time>
      </trkpt>
      <trkpt lat="48.71582" lon="2.47595">
        <ele>44</ele>
        <time>2017-09-05T15:30:34Z</time>
      </trkpt>
      <trkpt lat="48.71583" lon="2.47601">
        <ele>44</ele>
        <time>2017-09-05T15:30:50Z</time>
      </trkpt>
      <trkpt lat="48.71584" lon="2.47604">
        <ele>44</ele>
        <time>2017-09-05T15:30:50Z</time>
      </trkpt>
      <trkpt lat="48.71587" lon="2.47612">
        <ele>44</ele>
        <time>2017-09-05T15:30:50Z</time>
      </trkpt>
      <trkpt lat="48.71588" lon="2.47615">
        <ele>44</ele>
        <time>2017-09-05T15:30:50Z</time>
      </trkpt>
      <trkpt lat="48.7159" lon="2.47622">
        <ele>44</ele>
        <time>2017-09-05T15:31:06Z</time>
      </trkpt>
      <trkpt lat="48.71591" lon="2.47627">
        <ele>42</ele>
        <time>2017-09-05T15:31:06Z</time>
      </trkpt>
      <trkpt lat="48.71595" lon="2.47636">
        <ele>42</ele>
        <time>2017-09-05T15:31:06Z</time>
      </trkpt>
      <trkpt lat="48.71596" lon="2.47644">
        <ele>42</ele>
        <time>2017-09-05T15:31:06Z</time>
      </trkpt>
      <trkpt lat="48.71596" lon="2.47649">
        <ele>42</ele>
        <time>2017-09-05T15:31:22Z</time>
      </trkpt>
      <trkpt lat="48.71598" lon="2.47655">
        <ele>42</ele>
        <time>2017-09-05T15:31:22Z</time>
      </trkpt>
      <trkpt lat="48.71599" lon="2.47662">
        <ele>42</ele>
        <time>2017-09-05T15:31:22Z</time>
      </trkpt>
      <trkpt lat="48.71601" lon="2.47669">
        <ele>42</ele>
        <time>2017-09-05T15:31:22Z</time>
      </trkpt>
      <trkpt lat="48.71603" lon="2.47676">
        <ele>42</ele>
        <time>2017-09-05T15:31:38Z</time>
      </trkpt>
      <trkpt lat="48.71606" lon="2.47683">
        <ele>42</ele>
        <time>2017-09-05T15:31:38Z</time>
      </trkpt>
      <trkpt lat="48.71609" lon="2.4769">
        <ele>42</ele>
        <time>2017-09-05T15:31:38Z</time>
      </trkpt>
      <trkpt lat="48.71611" lon="2.47697">
        <ele>42</ele>
        <time>2017-09-05T15:31:38Z</time>
      </trkpt>
      <trkpt lat="48.71614" lon="2.47704">
        <ele>42</ele>
        <time>2017-09-05T15:31:54Z</time>
      </trkpt>
      <trkpt lat="48.71617" lon="2.47712">
        <ele>38</ele>
        <time>2017-09-05T15:31:54Z</time>
      </trkpt>
      <trkpt lat="48.71619" lon="2.47719">
        <ele>38</ele>
        <time>2017-09-05T15:31:54Z</time>
      </trkpt>
      <trkpt lat="48.71622" lon="2.47724">
        <ele>38</ele>
        <time>2017-09-05T15:31:54Z</time>
      </trkpt>
      <trkpt lat="48.71625" lon="2.47731">
        <ele>38</ele>
        <time>2017-09-05T15:32:10Z</time>
      </trkpt>
      <trkpt lat="48.71626" lon="2.47742">
        <ele>54</ele>
        <time>2017-09-05T15:32:10Z</time>
      </trkpt>
      <trkpt lat="48.71628" lon="2.47749">
        <ele>54</ele>
        <time>2017-09-05T15:32:10Z</time>
      </trkpt>
      <trkpt lat="48.7163" lon="2.47754">
        <ele>54</ele>
        <time>2017-09-05T15:32:10Z</time>
      </trkpt>
      <trkpt lat="48.71632" lon="2.4776">
        <ele>54</ele>
        <time>2017-09-05T15:32:26Z</time>
      </trkpt>
      <trkpt lat="48.71635" lon="2.47765">
        <ele>54</ele>
        <time>2017-09-05T15:32:26Z</time>
      </trkpt>
      <trkpt lat="48.71638" lon="2.4777">
        <ele>54</ele>
        <time>2017-09-05T15:32:26Z</time>
      </trkpt>
      <trkpt lat="48.7164" lon="2.47776">
        <ele>54</ele>
        <time>2017-09-05T15:32:26Z</time>
      </trkpt>
      <trkpt lat="48.71641" lon="2.47782">
        <ele>54</ele>
        <time>2017-09-05T15:32:42Z</time>
      </trkpt>
      <trkpt lat="48.71641" lon="2.4779">
        <ele>54</ele>
        <time>2017-09-05T15:32:42Z</time>
      </trkpt>
      <trkpt lat="48.71643" lon="2.47799">
        <ele>50</ele>
        <time>2017-09-05T15:32:42Z</time>
      </trkpt>
      <trkpt lat="48.71644" lon="2.47809">
        <ele>50</ele>
        <time>2017-09-05T15:32:42Z</time>
      </trkpt>
      <trkpt lat="48.71647" lon="2.47822">
        <ele>50</ele>
        <time>2017-09-05T15:33:06Z</time>
      </trkpt>
      <trkpt lat="48.71648" lon="2.47826">
        <ele>50</ele>
        <time>2017-09-05T15:33:06Z</time>
      </trkpt>
      <trkpt lat="48.71648" lon="2.47827">
        <ele>50</ele>
        <time>2017-09-05T15:33:06Z</time>
      </trkpt>
      <trkpt lat="48.71648" lon="2.47828">
        <ele>50</ele>
        <time>2017-09-05T15:33:06Z</time>
      </trkpt>
      <trkpt lat="48.71648" lon="2.4783">
        <ele>50</ele>
        <time>2017-09-05T15:33:06Z</time>
      </trkpt>
      <trkpt lat="48.71644" lon="2.47834">
        <ele>50</ele>
        <time>2017-09-05T15:33:22Z</time>
      </trkpt>
      <trkpt lat="48.71641" lon="2.47837">
        <ele>50</ele>
        <time>2017-09-05T15:33:22Z</time>
      </trkpt>
      <trkpt lat="48.71639" lon="2.47839">
        <ele>50</ele>
        <time>2017-09-05T15:33:22Z</time>
      </trkpt>
      <trkpt lat="48.71636" lon="2.4784">
        <ele>50</ele>
        <time>2017-09-05T15:33:22Z</time>
      </trkpt>
      <trkpt lat="48.71631" lon="2.47842">
        <ele>50</ele>
        <time>2017-09-05T15:33:38Z</time>
      </trkpt>
      <trkpt lat="48.71627" lon="2.47844">
        <ele>50</ele>
        <time>2017-09-05T15:33:38Z</time>
      </trkpt>
      <trkpt lat="48.71622" lon="2.47846">
        <ele>38</ele>
        <time>2017-09-05T15:33:38Z</time>
      </trkpt>
      <trkpt lat="48.71619" lon="2.47847">
        <ele>38</ele>
        <time>2017-09-05T15:33:38Z</time>
      </trkpt>
      <trkpt lat="48.71617" lon="2.47847">
        <ele>38</ele>
        <time>2017-09-05T15:33:54Z</time>
      </trkpt>
      <trkpt lat="48.71616" lon="2.47847">
        <ele>38</ele>
        <time>2017-09-05T15:33:54Z</time>
      </trkpt>
      <trkpt lat="48.71612" lon="2.47849">
        <ele>38</ele>
        <time>2017-09-05T15:33:54Z</time>
      </trkpt>
      <trkpt lat="48.71609" lon="2.47852">
        <ele>38</ele>
        <time>2017-09-05T15:33:54Z</time>
      </trkpt>
      <trkpt lat="48.71606" lon="2.47854">
        <ele>38</ele>
        <time>2017-09-05T15:34:10Z</time>
      </trkpt>
      <trkpt lat="48.71603" lon="2.47856">
        <ele>38</ele>
        <time>2017-09-05T15:34:10Z</time>
      </trkpt>
      <trkpt lat="48.71601" lon="2.47858">
        <ele>38</ele>
        <time>2017-09-05T15:34:10Z</time>
      </trkpt>
      <trkpt lat="48.71598" lon="2.4786">
        <ele>38</ele>
        <time>2017-09-05T15:34:10Z</time>
      </trkpt>
      <trkpt lat="48.71589" lon="2.47863">
        <ele>38</ele>
        <time>2017-09-05T15:34:38Z</time>
      </trkpt>
      <trkpt lat="48.71589" lon="2.47863">
        <ele>38</ele>
        <time>2017-09-05T15:34:38Z</time>
      </trkpt>
      <trkpt lat="48.71589" lon="2.47864">
        <ele>38</ele>
        <time>2017-09-05T15:34:38Z</time>
      </trkpt>
      <trkpt lat="48.71587" lon="2.47867">
        <ele>38</ele>
        <time>2017-09-05T15:34:38Z</time>
      </trkpt>
      <trkpt lat="48.71582" lon="2.47868">
        <ele>38</ele>
        <time>2017-09-05T15:34:38Z</time>
      </trkpt>
      <trkpt lat="48.71576" lon="2.47865">
        <ele>38</ele>
        <time>2017-09-05T15:34:54Z</time>
      </trkpt>
      <trkpt lat="48.71573" lon="2.4786">
        <ele>38</ele>
        <time>2017-09-05T15:34:54Z</time>
      </trkpt>
      <trkpt lat="48.7157" lon="2.47858">
        <ele>38</ele>
        <time>2017-09-05T15:34:54Z</time>
      </trkpt>
      <trkpt lat="48.71567" lon="2.47859">
        <ele>38</ele>
        <time>2017-09-05T15:34:54Z</time>
      </trkpt>
      <trkpt lat="48.71562" lon="2.47861">
        <ele>38</ele>
        <time>2017-09-05T15:35:10Z</time>
      </trkpt>
      <trkpt lat="48.71559" lon="2.47863">
        <ele>38</ele>
        <time>2017-09-05T15:35:10Z</time>
      </trkpt>
      <trkpt lat="48.71554" lon="2.47865">
        <ele>38</ele>
        <time>2017-09-05T15:35:10Z</time>
      </trkpt>
      <trkpt lat="48.71549" lon="2.47868">
        <ele>38</ele>
        <time>2017-09-05T15:35:10Z</time>
      </trkpt>
      <trkpt lat="48.71547" lon="2.47869">
        <ele>38</ele>
        <time>2017-09-05T15:35:26Z</time>
      </trkpt>
      <trkpt lat="48.71536" lon="2.4787">
        <ele>38</ele>
        <time>2017-09-05T15:35:26Z</time>
      </trkpt>
      <trkpt lat="48.71533" lon="2.47872">
        <ele>38</ele>
        <time>2017-09-05T15:35:26Z</time>
      </trkpt>
      <trkpt lat="48.71528" lon="2.47873">
        <ele>38</ele>
        <time>2017-09-05T15:35:26Z</time>
      </trkpt>
      <trkpt lat="48.71523" lon="2.47876">
        <ele>38</ele>
        <time>2017-09-05T15:35:42Z</time>
      </trkpt>
      <trkpt lat="48.71521" lon="2.47877">
        <ele>38</ele>
        <time>2017-09-05T15:35:42Z</time>
      </trkpt>
      <trkpt lat="48.71516" lon="2.47879">
        <ele>38</ele>
        <time>2017-09-05T15:35:42Z</time>
      </trkpt>
      <trkpt lat="48.7151" lon="2.47882">
        <ele>38</ele>
        <time>2017-09-05T15:35:42Z</time>
      </trkpt>
      <trkpt lat="48.71505" lon="2.47884">
        <ele>38</ele>
        <time>2017-09-05T15:35:58Z</time>
      </trkpt>
      <trkpt lat="48.71499" lon="2.47886">
        <ele>38</ele>
        <time>2017-09-05T15:35:58Z</time>
      </trkpt>
      <trkpt lat="48.71495" lon="2.47887">
        <ele>38</ele>
        <time>2017-09-05T15:35:58Z</time>
      </trkpt>
      <trkpt lat="48.7149" lon="2.47886">
        <ele>38</ele>
        <time>2017-09-05T15:35:58Z</time>
      </trkpt>
      <trkpt lat="48.71487" lon="2.47886">
        <ele>38</ele>
        <time>2017-09-05T15:36:18Z</time>
      </trkpt>
      <trkpt lat="48.71486" lon="2.47886">
        <ele>38</ele>
        <time>2017-09-05T15:36:18Z</time>
      </trkpt>
      <trkpt lat="48.71482" lon="2.47885">
        <ele>38</ele>
        <time>2017-09-05T15:36:18Z</time>
      </trkpt>
      <trkpt lat="48.71479" lon="2.47885">
        <ele>38</ele>
        <time>2017-09-05T15:36:18Z</time>
      </trkpt>
      <trkpt lat="48.71477" lon="2.47886">
        <ele>38</ele>
        <time>2017-09-05T15:36:18Z</time>
      </trkpt>
      <trkpt lat="48.71467" lon="2.47889">
        <ele>38</ele>
        <time>2017-09-05T15:41:42Z</time>
      </trkpt>
      <trkpt lat="48.71466" lon="2.47892">
        <ele>38</ele>
        <time>2017-09-05T15:41:42Z</time>
      </trkpt>
      <trkpt lat="48.71466" lon="2.47892">
        <ele>38</ele>
        <time>2017-09-05T15:41:42Z</time>
      </trkpt>
      <trkpt lat="48.71466" lon="2.47893">
        <ele>38</ele>
        <time>2017-09-05T15:41:42Z</time>
      </trkpt>
      <trkpt lat="48.71466" lon="2.47893">
        <ele>38</ele>
        <time>2017-09-05T15:41:42Z</time>
      </trkpt>
      <trkpt lat="48.71463" lon="2.47888">
        <ele>38</ele>
        <time>2017-09-05T15:42:34Z</time>
      </trkpt>
      <trkpt lat="48.71463" lon="2.47888">
        <ele>38</ele>
        <time>2017-09-05T15:42:34Z</time>
      </trkpt>
      <trkpt lat="48.71463" lon="2.47888">
        <ele>38</ele>
        <time>2017-09-05T15:42:34Z</time>
      </trkpt>
      <trkpt lat="48.71461" lon="2.47888">
        <ele>38</ele>
        <time>2017-09-05T15:42:34Z</time>
      </trkpt>
      <trkpt lat="48.71457" lon="2.47889">
        <ele>39</ele>
        <time>2017-09-05T15:42:34Z</time>
      </trkpt>
      <trkpt lat="48.71453" lon="2.4789">
        <ele>39</ele>
        <time>2017-09-05T15:42:50Z</time>
      </trkpt>
      <trkpt lat="48.7145" lon="2.47891">
        <ele>39</ele>
        <time>2017-09-05T15:42:50Z</time>
      </trkpt>
      <trkpt lat="48.71446" lon="2.47893">
        <ele>39</ele>
        <time>2017-09-05T15:42:50Z</time>
      </trkpt>
      <trkpt lat="48.7144" lon="2.47896">
        <ele>39</ele>
        <time>2017-09-05T15:42:50Z</time>
      </trkpt>
      <trkpt lat="48.7143" lon="2.47896">
        <ele>39</ele>
        <time>2017-09-05T15:44:26Z</time>
      </trkpt>
      <trkpt lat="48.71429" lon="2.47896">
        <ele>39</ele>
        <time>2017-09-05T15:44:26Z</time>
      </trkpt>
      <trkpt lat="48.71428" lon="2.47895">
        <ele>39</ele>
        <time>2017-09-05T15:44:26Z</time>
      </trkpt>
      <trkpt lat="48.71427" lon="2.47895">
        <ele>39</ele>
        <time>2017-09-05T15:44:26Z</time>
      </trkpt>
      <trkpt lat="48.71425" lon="2.47898">
        <ele>39</ele>
        <time>2017-09-05T15:44:26Z</time>
      </trkpt>
    </trkseg>
  </trk>
</gpx>